# Wetter Temperatur Luftdruck Luftfeuchtigkeit Sichtweite Windgeschwindigkeit Windrichtung Zeit
1 Clouds 4 1023 74 10000 4.47 262 14:22 01.02.2023
2 Clouds 4 1023 76 10000 5.36 233 13:19 01.02.2023
3 Clouds 4 1023 75 10000 5.81 289 12:26 01.02.2023
4 Clouds 5 1023 74 10000 4.02 277 11:52 01.02.2023
5 Clouds 3 1023 80 10000 4.47 246 08:42 01.02.2023
6 Clouds 3 1024 76 10000 3.13 255 23:58 31.01.2023
7 Clouds 4 1025 70 10000 4.02 194 21:28 31.01.2023
8 Rain 3 1025 71 10000 4.02 338 19:32 31.01.2023
9 Clouds 3 1024 71 10000 2.68 285 18:29 31.01.2023
10 Clouds 3 1025 73 10000 1.34 292 15:36 31.01.2023
11 Clouds 3 1025 73 10000 5.36 285 15:18 31.01.2023
12 Clouds 3 1026 75 10000 1.34 291 13:51 31.01.2023
13 Clouds 3 1027 73 10000 4.47 279 11:43 31.01.2023
14 Clouds 2 1027 76 10000 2.68 252 10:27 31.01.2023
15 Clouds 1 1027 80 10000 4.47 286 09:51 31.01.2023
16 Clouds 1 1027 82 10000 2.24 284 08:59 31.01.2023
17 Clouds 1 1027 82 10000 1.34 213 08:34 31.01.2023
18 Clouds 1 1026 83 10000 2.68 267 05:32 31.01.2023
19 Clouds 2 1025 83 10000 2.68 184 23:54 30.01.2023
20 Clouds 2 1024 82 10000 3.13 294 22:50 30.01.2023
21 Clouds 2 1024 82 10000 3.13 258 22:22 30.01.2023
22 Clouds 2 1024 82 10000 4.02 295 20:47 30.01.2023
23 Clouds 2 1023 82 10000 3.13 243 19:53 30.01.2023
24 Clouds 2 1022 82 183 5.36 279 17:30 30.01.2023
25 Clouds 3 1020 79 7998 4.02 278 16:26 30.01.2023
26 Clouds 3 1019 78 10000 4.02 236 14:27 30.01.2023
27 Clouds 3 1020 73 10000 6.71 300 12:26 30.01.2023
28 Clouds 1 1022 74 10000 3.13 271 10:55 30.01.2023
29 Clouds 0 1022 78 10000 5.36 270 09:54 30.01.2023
30 Clouds -2 1023 86 10000 2.68 279 08:48 30.01.2023
31 Clouds -3 1022 88 10000 1.34 198 06:40 30.01.2023
32 Clouds -4 1024 89 10000 0.45 247 01:38 30.01.2023
33 Clouds -4 1026 88 10000 3.09 231 23:35 29.01.2023
34 Clouds -3 1026 88 10000 0.45 250 22:37 29.01.2023
35 Clouds -2 1026 87 10000 0.45 234 21:35 29.01.2023
36 Clouds -2 1027 90 10000 0.45 267 20:36 29.01.2023
37 Clouds -1 1027 85 10000 0.45 223 19:33 29.01.2023
38 Clouds -1 1027 85 10000 0.45 266 18:44 29.01.2023
39 Clouds -1 1025 84 10000 0.91 238 17:35 29.01.2023
40 Clouds 0 1024 84 10000 0.77 289 16:21 29.01.2023
41 Clouds 0 1026 82 10000 1.01 311 14:48 29.01.2023
42 Clouds 0 1026 81 10000 0.89 290 13:26 29.01.2023
43 Clouds 0 1027 82 10000 0.26 5 12:40 29.01.2023
44 Clouds 0 1027 82 10000 0.26 5 12:40 29.01.2023
45 Clouds 0 1027 81 10000 0.57 2 12:22 29.01.2023
46 Clouds 0 1027 81 10000 0.45 278 11:48 29.01.2023
47 Clouds 0 1028 82 10000 0.26 179 11:26 29.01.2023
48 Clouds -1 1027 89 10000 0.45 124 09:37 29.01.2023
49 Clouds -1 1030 95 10000 0.41 244 07:19 29.01.2023
50 Clouds -2 1030 95 10000 0.95 152 03:39 29.01.2023
51 Clouds -1 1030 97 10000 0.33 127 23:27 28.01.2023
52 Clouds -1 1029 97 10000 0.89 122 20:38 28.01.2023
53 Clouds -1 1029 87 10000 0.85 66 19:52 28.01.2023
54 Clouds 0 1026 86 10000 1.18 26 18:27 28.01.2023
55 Clouds 0 1025 86 10000 1.14 42 17:20 28.01.2023
56 Clouds 0 1025 85 10000 1.68 46 16:20 28.01.2023
57 Clouds 0 1025 84 10000 0.45 132 15:49 28.01.2023
58 Clouds 0 1024 82 10000 0.45 171 14:35 28.01.2023
59 Clouds 0 1024 84 10000 2.14 49 12:57 28.01.2023
60 Clouds 0 1024 87 10000 1.73 60 11:55 28.01.2023
61 Clouds -1 1025 91 10000 1.27 67 10:34 28.01.2023
62 Clouds -3 1026 98 3232 1 34 08:22 28.01.2023
63 Clouds -2 1021 91 2850 1.4 44 01:42 28.01.2023
64 Clouds -1 1021 91 7119 0.89 265 00:25 28.01.2023
65 Clouds -1 1021 91 5637 1.36 35 21:48 27.01.2023
66 Clouds -1 1021 89 10000 1.63 31 18:53 27.01.2023
67 Clouds -1 1020 88 8348 1.86 30 17:58 27.01.2023
68 Clouds -1 1020 88 10000 2.09 28 17:19 27.01.2023
69 Clouds -1 1020 88 10000 2.09 28 16:35 27.01.2023
70 Clouds -1 1020 89 10000 2.52 36 15:24 27.01.2023
71 Clouds -1 1019 89 8915 2.43 32 14:25 27.01.2023
72 Clouds -1 1019 90 9018 2.44 32 13:31 27.01.2023
73 Clouds -2 1019 93 1562 1.11 52 08:47 27.01.2023
74 Clouds -2 1018 93 5426 0.85 34 06:29 27.01.2023
75 Clouds -2 1019 90 10000 0.45 276 00:27 27.01.2023
76 Clouds -2 1019 90 10000 0.45 295 21:52 26.01.2023
77 Clouds -2 1019 90 10000 0.89 293 20:55 26.01.2023
78 Clouds -2 1019 90 10000 1.16 3 19:57 26.01.2023
79 Clouds -1 1019 90 10000 0.45 274 17:56 26.01.2023
80 Clouds -1 1019 89 10000 0.45 290 16:41 26.01.2023
81 Clouds -1 1019 89 10000 1.22 13 16:20 26.01.2023
82 Clouds -1 1019 88 10000 1.22 13 15:42 26.01.2023
83 Clouds -1 1019 89 10000 0.45 293 15:24 26.01.2023
84 Clouds -1 1019 89 10000 0.89 285 13:50 26.01.2023
85 Clouds -1 1020 90 10000 1.57 9 12:31 26.01.2023
86 Clouds -1 1020 92 10000 1 4 10:56 26.01.2023
87 Clouds -2 1020 92 10000 0.45 150 10:25 26.01.2023
88 Clouds -2 1020 92 10000 0.54 16 09:40 26.01.2023
89 Clouds -2 1020 93 10000 0.45 115 06:57 26.01.2023
90 Clouds -1 1023 93 10000 1.5 54 23:42 25.01.2023
91 Clouds -1 1023 94 10000 1.9 59 22:56 25.01.2023
92 Clouds -1 1024 94 10000 0.45 104 21:53 25.01.2023
93 Clouds -1 1024 93 10000 2.24 121 21:20 25.01.2023
94 Clouds -1 1026 94 10000 0.89 112 18:31 25.01.2023
95 Clouds -1 1027 93 10000 2.45 82 16:58 25.01.2023
96 Clouds 0 1011 95 10000 0.45 113 15:37 25.01.2023
97 Clouds 0 1013 96 10000 1.79 84 12:44 25.01.2023
98 Clouds 0 1015 96 10000 1.34 70 09:55 25.01.2023
99 Clouds 0 1015 96 10000 0.45 123 09:30 25.01.2023
100 Clouds 0 1015 96 10000 0.89 103 06:54 25.01.2023
101 Clouds 0 1011 96 10000 1.79 87 01:24 25.01.2023
102 Clouds 0 1017 96 10000 0.45 37 23:56 24.01.2023
103 Snow 1 1017 95 10000 0.45 357 21:31 24.01.2023
104 Rain 1 1017 96 10000 0.45 104 19:58 24.01.2023
105 Rain 1 1011 96 10000 2.83 69 18:39 24.01.2023
106 Rain 1 1017 96 10000 0.45 54 17:20 24.01.2023
107 Rain 1 1017 96 10000 1.34 90 16:52 24.01.2023
108 Rain 1 1016 96 10000 1.34 90 16:52 24.01.2023
109 Rain 1 1016 96 10000 3.58 124 15:21 24.01.2023
110 Clouds 1 1016 96 7884 1.79 61 13:22 24.01.2023
111 Clouds 1 1017 96 5082 0.45 92 11:20 24.01.2023
112 Clouds 0 1015 96 3830 0.45 77 08:23 24.01.2023
113 Clouds 0 1015 96 3830 0.45 60 07:54 24.01.2023
114 Clouds 0 1015 96 2788 0.89 95 07:26 24.01.2023
115 Clouds 0 1014 96 3461 1.34 28 02:38 24.01.2023
116 Clouds 0 1014 96 5141 2.68 54 00:35 24.01.2023
117 Clouds 0 1014 95 2513 1.34 128 22:28 23.01.2023
118 Snow 0 1013 94 2245 2.24 91 19:58 23.01.2023
119 Clouds 0 1013 94 2246 0.89 94 18:58 23.01.2023
120 Clouds 0 1012 93 10000 1.34 18 17:19 23.01.2023
121 Clouds 0 1012 93 7898 0.45 37 15:32 23.01.2023
122 Clouds 0 1012 94 3923 4.11 72 13:56 23.01.2023
123 Clouds -1 1013 94 2284 1.34 49 12:55 23.01.2023
124 Clouds -1 1013 94 1480 0.89 110 11:46 23.01.2023
125 Clouds -1 1013 94 1105 0.89 78 11:28 23.01.2023
126 Clouds -3 1013 94 815 2.29 58 08:24 23.01.2023
127 Clouds -5 1012 94 10000 0.45 107 00:22 23.01.2023
128 Clouds -4 1012 93 10000 0.74 67 21:51 22.01.2023
129 Clouds -4 1012 93 10000 0.78 35 21:19 22.01.2023
130 Clouds -3 1011 91 10000 1.29 11 19:58 22.01.2023
131 Clouds -3 1011 91 10000 1.29 11 19:40 22.01.2023
132 Clouds -2 1010 91 10000 0.78 31 18:43 22.01.2023
133 Clouds -2 1010 90 10000 0.5 5 17:55 22.01.2023
134 Clouds -2 1010 89 10000 0.85 8 17:24 22.01.2023
135 Clouds -1 1009 86 10000 0.89 355 15:30 22.01.2023
136 Snow -1 1009 86 10000 0.45 26 14:43 22.01.2023
137 Clouds -1 1009 87 10000 1.25 18 13:28 22.01.2023
138 Clouds -1 1009 88 10000 1.34 333 12:34 22.01.2023
139 Clouds -1 1009 89 10000 1.03 14 11:34 22.01.2023
140 Clouds -3 1008 94 7164 1.04 224 09:35 22.01.2023
141 Clouds -3 1006 94 2622 0.7 211 06:40 22.01.2023
142 Snow -3 1006 93 310 0.45 282 01:46 22.01.2023
143 Snow -3 1006 93 165 0.45 297 23:31 21.01.2023
144 Snow -3 1006 93 217 0.89 300 21:40 21.01.2023
145 Snow -2 1006 93 268 1.34 255 19:47 21.01.2023
146 Snow -2 1005 93 136 0.89 296 17:22 21.01.2023
147 Snow -2 1004 92 200 0.89 5 14:37 21.01.2023
148 Snow -2 1004 91 266 0.45 306 12:57 21.01.2023
149 Snow -2 1005 91 232 0.89 291 12:35 21.01.2023
150 Snow -2 1005 92 204 0.89 343 11:22 21.01.2023
151 Snow -3 1004 93 436 0.89 257 09:31 21.01.2023
152 Snow -2 1004 93 2692 0.89 271 04:37 21.01.2023
153 Snow -2 1003 94 10000 0.45 265 22:29 20.01.2023
154 Snow -2 1003 94 10000 0.45 265 22:29 20.01.2023
155 Snow -2 1003 94 10000 0.45 265 22:29 20.01.2023
156 Snow -2 1003 93 10000 0.89 260 21:39 20.01.2023
157 Snow -1 1003 93 3632 0.45 337 20:58 20.01.2023
158 Snow -1 1002 93 10000 0.45 277 19:54 20.01.2023
159 Snow -1 1001 90 1150 2.24 280 16:51 20.01.2023
160 Snow -1 1000 86 7029 1.34 272 14:47 20.01.2023
161 Snow 0 1000 82 1720 2.24 280 13:51 20.01.2023
162 Snow -2 999 86 10000 0.89 316 10:36 20.01.2023
163 Snow -2 998 88 10000 0.45 297 08:57 20.01.2023
164 Snow -3 996 86 392 0.45 284 06:39 20.01.2023
165 Clouds -2 995 79 10000 0.84 3 02:32 20.01.2023
166 Clouds -2 993 76 10000 0.77 24 22:37 19.01.2023
167 Clouds -1 993 74 10000 0.62 6 21:37 19.01.2023
168 Clouds -1 993 70 10000 0.7 263 19:38 19.01.2023
169 Clouds -1 993 70 10000 0.45 285 18:55 19.01.2023
170 Clouds 0 1009 71 10000 0.89 291 14:26 19.01.2023
171 Clouds -2 993 82 10000 1.34 279 10:26 19.01.2023
172 Clouds -3 992 87 10000 1.34 278 08:57 19.01.2023
173 Snow -1 988 81 5095 1.34 270 22:41 18.01.2023
174 Clouds 0 981 75 10000 3.13 276 20:22 18.01.2023
175 Clouds 0 986 74 10000 0.89 291 19:46 18.01.2023
176 Clouds 0 986 73 10000 0.89 275 19:28 18.01.2023
177 Clouds 1 983 74 10000 0.89 265 16:47 18.01.2023
178 Clouds 3 980 68 10000 3.13 288 14:21 18.01.2023
179 Clouds 3 978 70 10000 3.13 286 12:43 18.01.2023
180 Clouds 3 976 69 10000 3.13 270 10:28 18.01.2023
181 Clouds 1 974 75 10000 2.24 284 07:24 18.01.2023
182 Clouds 0 988 82 10000 2.84 224 01:25 18.01.2023
183 Clouds 0 988 82 10000 2.84 224 01:25 18.01.2023
184 Clouds 1 988 83 10000 0.89 258 22:21 17.01.2023
185 Clouds 1 986 79 10000 0.45 108 19:44 17.01.2023
186 Snow 1 987 78 10000 3.45 82 18:59 17.01.2023
187 Clouds 2 985 74 10000 3.75 84 17:41 17.01.2023
188 Clouds 4 987 64 10000 2.24 107 15:35 17.01.2023
189 Clouds 3 987 64 10000 1.79 95 14:51 17.01.2023
190 Clouds 3 988 61 10000 2.24 154 13:33 17.01.2023
191 Clouds 4 990 63 10000 2.24 105 11:50 17.01.2023
192 Clouds 2 991 72 10000 1.53 90 10:35 17.01.2023
193 Clouds 0 991 77 10000 1.05 221 09:27 17.01.2023
194 Clouds 0 975 79 10000 2.45 241 07:38 17.01.2023
195 Clouds 1 975 74 10000 1.34 228 03:52 17.01.2023
196 Clouds 3 974 71 10000 3.13 282 00:51 17.01.2023
197 Clouds 3 974 72 10000 1.34 239 22:58 16.01.2023
198 Clouds 3 974 77 10000 1.79 282 21:47 16.01.2023
199 Rain 2 974 67 10000 3.69 249 19:59 16.01.2023
200 Clouds 2 973 68 10000 0.45 239 19:28 16.01.2023
201 Clouds 2 974 67 10000 0.89 272 18:52 16.01.2023
202 Clouds 2 974 68 10000 1.34 278 18:20 16.01.2023
203 Clouds 3 974 65 10000 0.45 286 17:34 16.01.2023
204 Clouds 6 975 63 10000 0.89 278 14:36 16.01.2023
205 Clouds 5 991 68 10000 1.34 115 13:37 16.01.2023
206 Clear 2 994 80 10000 1.79 102 10:27 16.01.2023
207 Clear 1 998 81 10000 0.45 122 09:34 16.01.2023
208 Clouds 1 994 76 10000 0.45 277 23:21 15.01.2023
209 Clouds 2 995 77 10000 0.45 280 21:35 15.01.2023
210 Clouds 3 996 79 10000 1.34 294 20:34 15.01.2023
211 Clouds 3 996 79 10000 1.34 272 19:43 15.01.2023
212 Clouds 3 996 90 10000 4.47 288 17:40 15.01.2023
213 Rain 4 995 86 6098 4.47 237 15:22 15.01.2023
214 Rain 6 992 80 7170 4.02 351 12:31 15.01.2023
215 Clouds 7 985 75 7210 4.47 274 11:35 15.01.2023
216 Clouds 11 973 66 10000 5.43 242 10:28 15.01.2023
217 Rain 10 1005 73 10000 3.34 210 09:35 15.01.2023
218 Rain 7 993 63 10000 0.89 114 01:47 15.01.2023
219 Rain 8 981 57 10000 0.89 340 22:57 14.01.2023
220 Rain 8 996 59 10000 0.45 196 21:58 14.01.2023
221 Rain 8 997 61 10000 0.45 312 21:36 14.01.2023
222 Rain 8 997 61 10000 0.45 293 21:18 14.01.2023
223 Rain 8 997 65 10000 1.79 202 20:39 14.01.2023
224 Clouds 7 997 63 10000 0.45 284 18:40 14.01.2023
225 Clouds 7 998 65 10000 0.89 280 16:59 14.01.2023
226 Clouds 9 999 57 10000 1.34 181 15:28 14.01.2023
227 Clouds 9 1001 59 10000 1.34 125 14:25 14.01.2023
228 Clouds 9 1001 60 10000 0.89 119 13:42 14.01.2023
229 Clouds 7 1003 69 10000 0.89 131 11:46 14.01.2023
230 Clouds 6 1021 74 10000 1.34 122 10:46 14.01.2023
231 Clouds 2 1006 90 10000 3.41 216 08:19 14.01.2023
232 Rain 3 1006 91 10000 2.24 305 23:36 13.01.2023
233 Clouds 4 1005 89 10000 4.02 263 22:50 13.01.2023
234 Rain 4 1005 88 10000 2.24 312 22:31 13.01.2023
235 Rain 5 1005 86 10000 2.24 322 21:45 13.01.2023
236 Clouds 6 1003 83 10000 0.89 219 19:43 13.01.2023
237 Clouds 5 1002 91 10000 1.34 273 18:23 13.01.2023
238 Clouds 5 1000 88 10000 2.68 261 16:45 13.01.2023
239 Clouds 10 998 68 10000 5.36 296 14:22 13.01.2023
240 Rain 10 1016 77 10000 6.26 236 12:21 13.01.2023
241 Clouds 9 955 57 10000 7.2 245 10:28 13.01.2023
242 Clouds 9 998 60 10000 2.24 246 09:47 13.01.2023
243 Clouds 9 998 61 10000 4.02 296 08:56 13.01.2023
244 Clouds 9 998 62 10000 3.58 211 08:27 13.01.2023
245 Clouds 9 998 60 10000 3.13 223 06:53 13.01.2023
246 Clouds 8 998 61 10000 3.13 238 05:44 13.01.2023
247 Clouds 6 1001 73 10000 3.13 260 00:45 13.01.2023
248 Clouds 5 1001 73 10000 0.45 272 22:45 12.01.2023
249 Clouds 7 1002 69 10000 0.89 215 20:56 12.01.2023
250 Clouds 7 1002 69 10000 1.79 242 19:57 12.01.2023
251 Clouds 7 1003 68 10000 5.81 224 17:56 12.01.2023
252 Clouds 8 1003 67 10000 5.81 279 16:48 12.01.2023
253 Clouds 9 1003 62 10000 3.13 248 14:49 12.01.2023
254 Clouds 9 1003 61 10000 3.13 280 14:25 12.01.2023
255 Clouds 8 1004 60 10000 3.58 284 13:33 12.01.2023
256 Rain 7 1005 67 10000 3.13 219 11:22 12.01.2023
257 Clouds 6 1004 74 10000 5.36 264 09:40 12.01.2023
258 Clouds 4 1005 87 10000 2.68 281 06:45 12.01.2023
259 Clouds 6 1006 93 10000 1.79 289 00:31 12.01.2023
260 Clouds 6 1006 94 10000 2.24 290 23:48 11.01.2023
261 Clouds 6 1006 94 10000 2.68 270 23:30 11.01.2023
262 Clouds 6 1006 94 10000 2.68 270 23:30 11.01.2023
263 Clouds 6 1005 94 10000 2.68 280 22:50 11.01.2023
264 Clouds 6 1005 95 10000 2.24 278 21:20 11.01.2023
265 Rain 7 1003 94 10000 2.24 301 18:50 11.01.2023
266 Rain 8 1002 92 10000 2.24 251 17:30 11.01.2023
267 Rain 10 1001 76 10000 2.24 254 15:38 11.01.2023
268 Clouds 10 1001 65 10000 3.04 235 13:56 11.01.2023
269 Clouds 9 1018 70 10000 0.89 228 12:27 11.01.2023
270 Clouds 8 1002 70 10000 0.45 159 11:20 11.01.2023
271 Clouds 4 1003 82 10000 2.24 329 08:50 11.01.2023
272 Clouds 4 1003 85 10000 1.34 266 07:29 11.01.2023
273 Clouds 3 1003 89 10000 2.68 200 06:23 11.01.2023
274 Clouds 0 1006 83 10000 2.51 200 23:44 10.01.2023
275 Clouds 0 1007 85 10000 0.45 119 22:19 10.01.2023
276 Clouds 0 1007 85 10000 0.45 152 21:20 10.01.2023
277 Clouds 1 1007 83 10000 0.45 222 19:54 10.01.2023
278 Clouds 1 1008 81 10000 2.44 207 19:27 10.01.2023
279 Clouds 2 1007 78 10000 0.45 255 18:37 10.01.2023
280 Clouds 3 1008 73 10000 0.89 290 17:26 10.01.2023
281 Clouds 5 1008 70 10000 1.34 288 15:33 10.01.2023
282 Clouds 5 1008 70 10000 2.24 259 14:47 10.01.2023
283 Clouds 5 1008 74 10000 2.68 264 13:33 10.01.2023
284 Clouds 3 1007 91 38 1.34 282 10:38 10.01.2023
285 Clouds 3 1005 90 43 3.13 329 08:44 10.01.2023
286 Rain 3 1004 90 5357 4.02 289 07:57 10.01.2023
287 Clouds 3 1003 91 183 2.24 230 07:25 10.01.2023
288 Clouds 3 999 89 10000 2.68 285 03:33 10.01.2023
289 Clouds 4 995 81 10000 1.34 305 22:41 09.01.2023
290 Clouds 4 994 79 10000 3.58 297 21:20 09.01.2023
291 Clouds 4 994 77 10000 2.24 305 20:32 09.01.2023
292 Clouds 5 992 72 10000 3.13 274 18:41 09.01.2023
293 Clouds 6 991 71 10000 3.58 284 17:51 09.01.2023
294 Clouds 6 991 67 10000 3.13 316 16:47 09.01.2023
295 Clouds 6 991 65 10000 3.13 269 16:29 09.01.2023
296 Clouds 7 990 64 10000 2.24 263 15:22 09.01.2023
297 Clouds 7 990 64 10000 2.24 263 15:22 09.01.2023
298 Clouds 7 974 64 10000 5.43 254 14:43 09.01.2023
299 Clouds 6 990 65 10000 3.58 291 12:54 09.01.2023
300 Clouds 6 985 66 10000 4.02 272 12:18 09.01.2023
301 Clouds 5 991 70 10000 3.13 259 11:20 09.01.2023
302 Rain 6 988 79 10000 3.13 190 07:23 09.01.2023
303 Rain 6 986 86 10000 2.24 263 06:31 09.01.2023
304 Rain 4 985 85 10000 0.89 246 02:53 09.01.2023
305 Rain 4 987 81 10000 0.45 118 22:31 08.01.2023
306 Clouds 4 987 80 10000 2.78 96 21:23 08.01.2023
307 Clouds 4 987 81 10000 2.78 96 21:23 08.01.2023
308 Clouds 4 988 80 10000 2.78 96 20:57 08.01.2023
309 Clouds 4 990 78 10000 2.72 111 19:19 08.01.2023
310 Clouds 6 992 73 10000 0.45 261 17:39 08.01.2023
311 Clouds 7 992 70 10000 1.87 118 17:18 08.01.2023
312 Rain 7 993 66 10000 1.07 198 15:38 08.01.2023
313 Rain 7 993 66 10000 1.07 198 15:38 08.01.2023
314 Rain 8 993 63 10000 0.61 236 14:18 08.01.2023
315 Rain 8 994 63 10000 0.62 236 13:32 08.01.2023
316 Clouds 8 994 64 10000 0.45 278 12:58 08.01.2023
317 Clouds 6 995 68 10000 1.54 195 11:23 08.01.2023
318 Clouds 3 981 77 10000 1.66 201 09:37 08.01.2023
319 Clouds 1 990 85 10000 1.46 288 08:27 08.01.2023
320 Clouds 2 980 83 10000 1.6 152 02:25 08.01.2023
321 Clouds 3 998 85 10000 0.45 127 22:55 07.01.2023
322 Clouds 3 998 86 10000 2.11 169 22:34 07.01.2023
323 Clouds 3 999 87 10000 0.45 178 21:51 07.01.2023
324 Clouds 3 998 86 10000 0.45 142 20:58 07.01.2023
325 Clouds 2 1016 86 10000 2.01 192 20:25 07.01.2023
326 Clear 4 1000 83 10000 1.89 197 19:23 07.01.2023
327 Clear 5 1000 80 10000 1.57 181 18:18 07.01.2023
328 Clear 6 999 77 10000 1.56 181 17:40 07.01.2023
329 Clouds 7 1015 76 10000 1.44 150 16:41 07.01.2023
330 Clouds 8 1015 73 10000 1.49 132 16:20 07.01.2023
331 Clouds 9 1015 73 10000 1.47 132 15:38 07.01.2023
332 Clouds 10 1015 72 10000 1.65 119 15:18 07.01.2023
333 Clouds 10 1016 69 10000 0.89 126 13:59 07.01.2023
334 Clouds 9 1016 70 10000 1.34 92 13:40 07.01.2023
335 Clouds 9 1017 73 10000 3.13 174 12:50 07.01.2023
336 Clouds 9 1018 72 10000 1.34 86 12:20 07.01.2023
337 Clouds 5 1019 85 10000 0.89 129 10:28 07.01.2023
338 Clouds 3 1004 91 10000 1.75 120 08:52 07.01.2023
339 Clouds 4 1004 89 10000 1.77 125 07:58 07.01.2023
340 Clouds 4 1003 89 10000 1.78 125 07:40 07.01.2023
341 Clouds 6 1021 88 10000 0.45 218 05:49 07.01.2023
342 Clouds 7 1007 85 10000 0.45 280 22:58 06.01.2023
343 Clouds 8 1008 85 10000 0.89 306 22:21 06.01.2023
344 Clouds 8 1008 85 10000 0.89 306 22:21 06.01.2023
345 Clouds 8 1008 84 10000 1.97 232 21:44 06.01.2023
346 Clouds 8 1008 84 10000 0.45 219 20:34 06.01.2023
347 Clouds 8 1008 83 10000 0.45 220 19:55 06.01.2023
348 Clouds 8 1008 82 10000 0.45 231 19:36 06.01.2023
349 Clouds 8 1008 82 10000 0.45 282 19:18 06.01.2023
350 Clouds 9 1007 80 10000 4.47 295 17:44 06.01.2023
351 Clouds 9 1007 79 10000 1.34 213 16:52 06.01.2023
352 Clouds 9 1007 78 10000 1.34 203 16:22 06.01.2023
353 Clouds 9 1007 78 10000 1.34 228 15:51 06.01.2023
354 Clouds 10 1007 75 10000 2.68 284 15:28 06.01.2023
355 Clouds 10 1023 77 10000 2.68 290 13:38 06.01.2023
356 Clouds 10 1024 75 10000 1.34 288 11:50 06.01.2023
357 Clouds 7 1024 83 10000 0.45 217 10:34 06.01.2023
358 Clouds 4 1001 93 10000 0.89 284 08:42 06.01.2023
359 Clouds 5 1007 95 10000 1.79 203 05:20 06.01.2023
360 Clouds 9 1008 93 10000 1.34 284 22:56 05.01.2023
361 Clouds 9 1008 93 10000 3.58 265 22:29 05.01.2023
362 Clouds 8 1008 94 10000 0.89 244 20:24 05.01.2023
363 Rain 9 1008 88 10000 1.34 289 17:30 05.01.2023
364 Rain 9 1007 85 10000 4.02 294 16:38 05.01.2023
365 Rain 10 1007 87 10000 3.58 290 15:48 05.01.2023
366 Rain 10 1007 88 10000 2.24 296 15:20 05.01.2023
367 Clouds 10 1006 87 10000 4.02 253 13:35 05.01.2023
368 Clouds 10 1007 82 10000 3.58 286 12:40 05.01.2023
369 Clouds 10 1006 85 10000 6.26 276 10:37 05.01.2023
370 Clouds 10 1006 83 10000 4.02 272 09:40 05.01.2023
371 Clouds 10 1005 82 10000 5.81 280 07:28 05.01.2023
372 Clouds 10 1004 81 10000 3.13 269 06:42 05.01.2023
373 Clouds 10 1006 80 10000 5.36 264 02:23 05.01.2023
374 Rain 11 1007 70 10000 2.24 226 22:26 04.01.2023
375 Clouds 10 1007 72 10000 4.47 185 21:30 04.01.2023
376 Clouds 9 1007 74 10000 5.81 280 19:58 04.01.2023
377 Clouds 9 1008 74 10000 3.58 246 19:37 04.01.2023
378 Clouds 10 1008 73 10000 4.92 212 19:18 04.01.2023
379 Clouds 10 1009 70 10000 5.81 267 18:18 04.01.2023
380 Clouds 10 1002 57 10000 3.58 229 16:30 04.01.2023
381 Clouds 10 1010 56 10000 3.13 195 14:50 04.01.2023
382 Clouds 8 1011 76 10000 1.79 245 12:36 04.01.2023
383 Clouds 7 1012 84 10000 2.68 223 11:23 04.01.2023
384 Clouds 6 1029 91 10000 2.24 236 10:44 04.01.2023
385 Clouds 5 1029 91 10000 1.34 215 10:25 04.01.2023
386 Clouds 5 1012 92 10000 0.89 226 09:40 04.01.2023
387 Clouds 3 1008 95 10000 0.45 273 05:39 04.01.2023
388 Clear 3 1014 93 10000 1.49 221 01:41 04.01.2023
389 Clouds 5 1014 93 10000 0.45 296 23:42 03.01.2023
390 Clouds 5 1014 93 10000 1.4 217 23:21 03.01.2023
391 Clouds 5 999 93 10000 1.54 208 21:42 03.01.2023
392 Clouds 5 1014 92 10000 1.36 208 20:50 03.01.2023
393 Clouds 6 1015 92 10000 1.23 212 18:40 03.01.2023
394 Clouds 7 1014 91 10000 1.12 216 16:40 03.01.2023
395 Clouds 7 1014 91 10000 0.86 234 15:40 03.01.2023
396 Clouds 7 1030 90 10000 0.45 276 13:43 03.01.2023
397 Clouds 7 1014 92 10000 0.45 276 13:24 03.01.2023
398 Clouds 7 1014 93 10000 0.45 291 12:57 03.01.2023
399 Rain 7 1014 93 10000 0.56 293 12:21 03.01.2023
400 Clouds 6 1014 93 10000 0.79 325 09:51 03.01.2023
401 Clouds 7 1012 90 10000 2.22 306 04:29 03.01.2023
402 Clouds 8 1012 90 10000 1.34 333 03:52 03.01.2023
403 Clouds 8 1012 89 10000 0.45 283 03:32 03.01.2023
404 Clouds 10 1010 71 10000 0.45 283 23:19 02.01.2023
405 Clouds 10 1010 68 10000 1.34 310 22:40 02.01.2023
406 Clouds 10 1010 65 10000 3.22 246 21:26 02.01.2023
407 Clouds 10 1009 64 10000 3.29 240 20:31 02.01.2023
408 Clouds 9 1024 66 10000 0.45 221 18:52 02.01.2023
409 Clouds 10 1025 69 10000 2.61 236 16:53 02.01.2023
410 Clouds 14 1025 52 10000 1.34 274 14:27 02.01.2023
411 Clouds 14 1021 54 10000 0.89 221 12:57 02.01.2023
412 Clouds 12 1022 60 10000 0.45 280 11:39 02.01.2023
413 Clouds 6 999 79 10000 0.45 122 09:35 02.01.2023
414 Clouds 6 989 80 10000 0.89 122 06:59 02.01.2023
415 Clouds 7 1005 79 10000 0.89 317 00:22 02.01.2023
416 Clouds 9 1006 72 10000 2.44 166 21:55 01.01.2023
417 Clouds 9 1006 72 10000 2.46 159 20:55 01.01.2023
418 Clouds 9 1007 71 10000 2.49 153 20:37 01.01.2023
419 Clouds 10 1007 70 10000 2.49 153 19:34 01.01.2023
420 Clouds 11 1022 70 10000 2.51 142 17:40 01.01.2023
421 Clouds 11 1022 67 10000 2.53 139 17:20 01.01.2023
422 Clouds 14 1023 62 10000 2.12 134 16:20 01.01.2023
423 Clouds 16 1023 61 10000 1.19 128 14:36 01.01.2023
424 Clouds 17 1023 54 10000 1.2 165 13:20 01.01.2023
425 Clouds 16 1027 55 10000 1.26 162 12:25 01.01.2023
426 Clouds 12 1024 60 10000 1.7 195 11:35 01.01.2023
427 Clear 10 1026 71 10000 0.45 177 09:49 01.01.2023
428 Clear 8 1008 72 10000 0.45 303 08:45 01.01.2023
429 Clear 8 1008 72 10000 0.89 245 08:18 01.01.2023
430 Clouds 8 1007 75 10000 0.89 206 06:51 01.01.2023
431 Clouds 8 999 78 10000 2.68 196 00:33 01.01.2023
432 Clouds 9 1005 78 10000 0.45 114 23:40 31.12.2022
433 Clouds 9 1005 79 10000 0.45 117 22:31 31.12.2022
434 Clouds 10 1005 76 10000 0.45 273 21:25 31.12.2022
435 Clouds 10 1020 78 10000 2.7 201 20:41 31.12.2022
436 Clouds 10 1004 81 10000 2.33 174 19:18 31.12.2022
437 Clouds 11 1004 80 10000 2.33 174 18:39 31.12.2022
438 Clouds 11 1004 79 10000 0.45 150 18:18 31.12.2022
439 Clouds 12 1004 76 10000 0.45 104 17:43 31.12.2022
440 Clouds 14 989 70 10000 2.01 173 16:38 31.12.2022
441 Clouds 14 1020 69 10000 1.81 174 16:19 31.12.2022
442 Clouds 16 1019 65 10000 2.06 182 14:36 31.12.2022
443 Clouds 15 1020 64 10000 2.66 214 13:33 31.12.2022
444 Clouds 16 1020 64 10000 2.67 214 12:39 31.12.2022
445 Clouds 15 1021 60 10000 2.92 231 12:19 31.12.2022
446 Clouds 15 1021 56 10000 2.89 230 11:50 31.12.2022
447 Clouds 13 1020 68 10000 3.1 229 10:28 31.12.2022
448 Clouds 13 990 68 10000 3.12 229 09:52 31.12.2022
449 Clouds 12 1021 75 10000 3.16 210 09:18 31.12.2022
450 Clouds 12 1021 72 10000 3.42 205 07:22 31.12.2022
451 Clouds 11 995 79 10000 2.24 200 00:35 31.12.2022
452 Clouds 10 1000 81 10000 4.02 317 23:44 30.12.2022
453 Clouds 8 1001 90 10000 1.34 200 22:45 30.12.2022
454 Rain 7 1000 91 10000 1.34 305 21:42 30.12.2022
455 Rain 7 1000 91 10000 0.45 237 21:22 30.12.2022
456 Rain 7 1000 82 10000 2.57 247 18:58 30.12.2022
457 Rain 8 999 77 10000 0.89 304 17:42 30.12.2022
458 Clouds 8 999 76 10000 2.24 133 17:23 30.12.2022
459 Clouds 8 999 75 10000 1.34 138 15:56 30.12.2022
460 Clouds 9 1016 72 10000 0.45 105 14:35 30.12.2022
461 Clouds 5 1019 90 10000 0.89 137 10:24 30.12.2022
462 Clouds 4 1003 93 10000 0.45 194 07:59 30.12.2022
463 Rain 6 986 89 10000 4.58 259 02:59 30.12.2022
464 Rain 8 995 84 10000 1.79 326 01:53 30.12.2022
465 Clouds 8 999 72 10000 0.45 323 22:50 29.12.2022
466 Rain 7 1016 72 10000 1.34 337 21:31 29.12.2022
467 Rain 7 1016 68 10000 0.45 224 20:54 29.12.2022
468 Clouds 7 1016 70 10000 0.45 112 20:25 29.12.2022
469 Clouds 8 1014 66 10000 2.83 215 18:26 29.12.2022
470 Clouds 9 1016 62 10000 2.76 216 17:29 29.12.2022
471 Clouds 9 1015 67 10000 2.77 216 16:55 29.12.2022
472 Clouds 10 1015 59 10000 2.24 206 16:21 29.12.2022
473 Clouds 11 1016 54 10000 0.45 119 15:29 29.12.2022
474 Clouds 10 1016 57 10000 2.21 197 13:33 29.12.2022
475 Clouds 9 995 53 10000 1.34 53 11:29 29.12.2022
476 Clouds 5 983 67 10000 3.05 213 07:45 29.12.2022
477 Clouds 3 1001 77 10000 1.34 210 00:22 29.12.2022
478 Clouds 3 1001 79 10000 0.45 180 23:27 28.12.2022
479 Clouds 3 1002 79 10000 0.45 243 21:21 28.12.2022
480 Clouds 3 1003 78 10000 0.89 97 20:25 28.12.2022
481 Clouds 4 1003 76 10000 0.45 228 19:23 28.12.2022
482 Clouds 6 1023 74 10000 2.34 183 16:56 28.12.2022
483 Clouds 9 1021 63 10000 0.89 213 14:43 28.12.2022
484 Clouds 8 1006 68 10000 0.89 216 12:55 28.12.2022
485 Clouds 6 1006 75 10000 1.34 159 11:55 28.12.2022
486 Clouds 5 1007 79 10000 0.89 200 11:21 28.12.2022
487 Clouds 2 1008 90 10000 0.45 237 08:45 28.12.2022
488 Clouds 1 1008 91 10000 2.64 207 07:25 28.12.2022
489 Snow 1 1008 93 10000 0.45 247 06:42 28.12.2022
490 Clouds 1 1011 93 10000 1.75 183 23:36 27.12.2022
491 Clouds 2 1012 89 10000 1.83 212 20:30 27.12.2022
492 Clouds 2 1029 88 10000 1.61 218 19:31 27.12.2022
493 Clouds 2 1029 88 10000 1.78 220 19:31 27.12.2022
494 Clouds 3 1013 84 10000 1.46 236 17:28 27.12.2022
495 Clouds 5 1013 80 10000 0.45 279 16:43 27.12.2022
496 Clouds 6 1029 77 10000 1.97 271 15:30 27.12.2022
497 Clouds 6 1030 73 10000 1.34 286 12:36 27.12.2022
498 Clouds 5 1030 75 10000 0.45 315 11:29 27.12.2022
499 Clouds 2 1029 88 10000 2.57 252 09:47 27.12.2022
500 Clouds 1 1030 89 10000 2.34 243 09:23 27.12.2022
501 Clouds 3 1029 85 10000 0.45 278 06:51 27.12.2022
502 Clouds 5 1027 90 10000 2.24 276 04:32 27.12.2022
503 Rain 7 1023 88 10000 3.58 321 22:48 26.12.2022
504 Rain 8 1021 87 10000 2.68 192 21:25 26.12.2022
505 Rain 8 1022 89 10000 2.68 277 20:42 26.12.2022
506 Rain 8 1021 93 10000 2.68 288 18:44 26.12.2022
507 Rain 8 1022 93 10000 2.24 269 17:52 26.12.2022
508 Rain 9 1022 93 10000 1.34 276 16:22 26.12.2022
509 Rain 10 1021 88 10000 3.13 265 14:34 26.12.2022
510 Clouds 13 1020 64 10000 0.45 210 12:52 26.12.2022
511 Clouds 7 1020 80 10000 0.89 167 08:52 26.12.2022
512 Clouds 7 1019 84 10000 0.45 264 00:25 26.12.2022
513 Clouds 7 1019 82 10000 3.25 217 23:38 25.12.2022
514 Clouds 8 1019 82 10000 1.34 182 22:39 25.12.2022
515 Clouds 8 1018 83 10000 0.89 49 21:49 25.12.2022
516 Clouds 7 1018 87 10000 1.34 209 19:23 25.12.2022
517 Clouds 8 1017 85 10000 2.25 177 17:52 25.12.2022
518 Clouds 9 1017 85 10000 2.25 177 17:34 25.12.2022
519 Clouds 11 1016 76 10000 2.05 132 15:50 25.12.2022
520 Clouds 13 1019 74 10000 0.89 111 13:23 25.12.2022
521 Clouds 10 1019 86 10000 0.45 194 10:59 25.12.2022
522 Clouds 6 1020 91 10000 0.89 184 02:57 25.12.2022
523 Rain 7 1020 85 10000 0.45 291 22:38 24.12.2022
524 Clouds 7 1020 82 10000 4.43 213 19:52 24.12.2022
525 Clouds 8 1019 80 10000 0.89 274 16:51 24.12.2022
526 Clouds 10 1019 72 10000 1.79 278 14:56 24.12.2022
527 Clouds 10 1018 71 10000 1.79 203 13:56 24.12.2022
528 Clouds 10 1018 71 10000 2.68 45 11:44 24.12.2022
529 Clouds 9 1018 74 10000 5.36 243 10:23 24.12.2022
530 Clouds 9 1018 75 10000 3.13 268 09:37 24.12.2022
531 Clouds 9 1016 80 10000 1.34 209 07:59 24.12.2022
532 Clouds 10 1013 87 10000 2.68 317 02:51 24.12.2022
533 Clouds 10 1012 90 10000 2.68 280 00:29 24.12.2022
534 Rain 11 1009 92 9733 1.34 221 22:30 23.12.2022
535 Clouds 11 1010 89 10000 3.58 286 21:30 23.12.2022
536 Clouds 11 1010 89 10000 3.58 286 21:30 23.12.2022
537 Clouds 11 1010 94 10000 3.13 307 19:40 23.12.2022
538 Clouds 11 1010 94 10000 3.58 271 19:22 23.12.2022
539 Rain 11 1010 94 10000 2.68 274 18:53 23.12.2022
540 Clouds 10 1009 94 10000 5.81 260 18:21 23.12.2022
541 Rain 10 1009 95 10000 1.34 227 17:41 23.12.2022
542 Rain 10 1010 94 10000 0.45 219 15:45 23.12.2022
543 Rain 11 1011 92 10000 3.13 267 12:53 23.12.2022
544 Clouds 10 1011 92 10000 2.24 228 09:53 23.12.2022
545 Clouds 10 1011 92 10000 2.24 275 09:34 23.12.2022
546 Clouds 10 1010 92 10000 2.68 272 07:29 23.12.2022
547 Clouds 10 1010 93 10000 2.24 274 06:49 23.12.2022
548 Rain 8 1012 83 10000 2.82 216 23:42 22.12.2022
549 Rain 9 1012 82 10000 2.56 230 23:19 22.12.2022
550 Clouds 8 1013 78 10000 3.68 239 21:55 22.12.2022
551 Clouds 9 1016 75 10000 3.13 299 19:48 22.12.2022
552 Clouds 10 1014 74 10000 2.24 325 19:19 22.12.2022
553 Clouds 10 1014 72 10000 3.58 253 17:59 22.12.2022
554 Clouds 10 1013 70 10000 2.68 300 16:53 22.12.2022
555 Clouds 10 1014 70 10000 8.89 255 15:47 22.12.2022
556 Rain 11 1012 69 10000 4.92 250 15:29 22.12.2022
557 Rain 11 1012 69 10000 4.92 250 15:29 22.12.2022
558 Clouds 10 1012 71 10000 4.47 272 14:28 22.12.2022
559 Rain 10 1012 75 10000 6.26 312 13:20 22.12.2022
560 Rain 11 1013 70 10000 4.47 265 12:29 22.12.2022
561 Clouds 8 1014 80 10000 5.34 237 10:31 22.12.2022
562 Clouds 7 1014 90 10000 3.64 224 09:24 22.12.2022
563 Clouds 7 1014 86 10000 3.64 224 08:59 22.12.2022
564 Clouds 6 1014 95 10000 2.81 212 07:54 22.12.2022
565 Rain 4 1015 94 10000 0.89 262 04:19 22.12.2022
566 Clouds 3 1018 95 10000 2.39 204 00:48 22.12.2022
567 Clouds 3 1017 94 10000 2.38 203 22:40 21.12.2022
568 Clouds 5 1017 94 10000 2.49 209 21:50 21.12.2022
569 Clouds 4 1015 95 10000 2.31 210 21:20 21.12.2022
570 Clouds 4 1018 96 10000 2.3 210 20:40 21.12.2022
571 Clouds 3 1018 94 10000 2.11 223 19:56 21.12.2022
572 Clouds 4 1017 94 10000 2.11 223 19:38 21.12.2022
573 Clouds 4 1016 93 10000 2.42 219 19:19 21.12.2022
574 Clouds 5 1018 93 10000 0.45 8 18:42 21.12.2022
575 Clouds 6 1015 93 10000 2.48 215 16:19 21.12.2022
576 Rain 6 1017 92 10000 2.59 213 14:24 21.12.2022
577 Rain 6 1017 89 10000 0.89 197 12:30 21.12.2022
578 Rain 5 1018 94 10000 0.89 252 11:21 21.12.2022
579 Rain 5 1018 94 10000 0.45 219 10:50 21.12.2022
580 Rain 4 1018 93 10000 3.09 228 08:50 21.12.2022
581 Rain 3 1018 93 10000 0.45 131 06:55 21.12.2022
582 Rain 2 1019 92 10000 1.76 206 00:32 21.12.2022
583 Clouds 2 1020 91 10000 1.71 202 22:38 20.12.2022
584 Clouds 2 1018 92 10000 0.45 136 21:18 20.12.2022
585 Clouds 2 1019 92 10000 0.45 226 20:18 20.12.2022
586 Clouds 2 1018 91 10000 1.4 154 18:49 20.12.2022
587 Clouds 2 1018 91 9050 1.59 145 18:26 20.12.2022
588 Clouds 2 1018 91 9050 1.59 145 17:51 20.12.2022
589 Clouds 1 1021 93 5085 1.26 159 17:26 20.12.2022
590 Clouds 3 1020 89 5029 1.15 169 16:20 20.12.2022
591 Clouds 4 1021 87 5118 1.44 154 14:57 20.12.2022
592 Clouds 5 1020 86 8796 0.84 148 14:36 20.12.2022
593 Clouds 6 1021 85 8796 0.84 148 13:52 20.12.2022
594 Clouds 5 1022 87 10000 0.68 123 12:40 20.12.2022
595 Clouds 4 1022 89 10000 0.45 144 11:56 20.12.2022
596 Clouds 3 1023 91 10000 0.89 131 10:47 20.12.2022
597 Clouds 1 1024 93 10000 0.45 124 07:41 20.12.2022
598 Clouds 0 1026 93 10000 1.33 199 00:23 20.12.2022
599 Clouds 0 1026 93 10000 0.45 135 22:36 19.12.2022
600 Clouds 0 1026 93 10000 1.54 200 22:36 19.12.2022
601 Clouds 0 1026 92 10000 0.45 340 21:33 19.12.2022
602 Clouds 0 1027 93 10000 0.89 107 19:53 19.12.2022
603 Clouds 0 1027 93 10000 0.45 170 19:31 19.12.2022
604 Clouds 0 1027 92 10000 0.45 112 18:24 19.12.2022
605 Rain 1 1027 89 10000 0.91 97 16:31 19.12.2022
606 Clouds 3 1027 86 10000 0.89 266 13:24 19.12.2022
607 Clouds 2 1029 89 10000 0.45 131 11:55 19.12.2022
608 Snow -1 1030 87 10000 1.35 124 09:19 19.12.2022
609 Clouds -4 1028 90 10000 1.04 142 07:32 19.12.2022
610 Clouds -5 1029 92 10000 1.09 154 02:22 19.12.2022
611 Clouds -6 1030 93 10000 1.31 150 22:20 18.12.2022
612 Clouds -7 1031 92 10000 1.31 149 21:41 18.12.2022
613 Clouds -7 1031 93 10000 1.28 150 21:20 18.12.2022
614 Clouds -6 1030 92 10000 1.32 130 19:49 18.12.2022
615 Clouds -6 1031 92 10000 1.32 130 19:31 18.12.2022
616 Clouds -6 1030 93 10000 1.94 114 17:53 18.12.2022
617 Clouds -5 1031 91 10000 2.12 90 16:28 18.12.2022
618 Clouds -5 1030 91 10000 2.13 89 15:39 18.12.2022
619 Clear -5 1030 91 10000 1.34 128 15:19 18.12.2022
620 Clear -4 1029 92 10000 2.38 83 13:37 18.12.2022
621 Clouds -5 1030 84 10000 2.3 92 12:52 18.12.2022
622 Clouds -5 1031 93 10000 0.45 143 12:19 18.12.2022
623 Clouds -6 1032 93 10000 0.45 134 10:22 18.12.2022
624 Clouds -6 1035 93 10000 1.55 120 08:47 18.12.2022
625 Clouds -6 1035 98 10000 1.2 129 07:21 18.12.2022
626 Clouds -6 1034 99 7219 1.32 115 06:21 18.12.2022
627 Clouds -6 1034 100 4907 1.63 108 03:40 18.12.2022
628 Clouds -6 1033 100 2969 1.64 95 00:34 18.12.2022
629 Clouds -5 1030 93 2771 1.83 105 22:21 17.12.2022
630 Clouds -5 1031 100 6729 1.69 102 19:27 17.12.2022
631 Clouds -6 1030 99 7825 1.51 91 17:18 17.12.2022
632 Clouds -2 1026 86 10000 1.58 57 14:31 17.12.2022
633 Clouds -3 1025 87 10000 0.45 278 11:55 17.12.2022
634 Clouds -4 1025 89 10000 1.2 263 10:49 17.12.2022
635 Clouds -5 1025 91 10000 1.45 257 09:46 17.12.2022
636 Clouds -7 1027 92 6111 1.65 242 08:32 17.12.2022
637 Clouds -5 1027 98 4937 1.84 240 06:46 17.12.2022
638 Clouds -3 1018 93 1773 0.45 296 23:58 16.12.2022
639 Clouds -2 1016 93 1682 0.89 271 21:38 16.12.2022
640 Clouds -2 1015 93 473 1.34 267 20:23 16.12.2022
641 Snow -2 1013 93 194 2.24 282 17:19 16.12.2022
642 Snow -2 1011 93 181 0.45 288 14:50 16.12.2022
643 Snow -1 1010 93 263 0.45 267 13:50 16.12.2022
644 Snow -1 1009 93 190 2.95 285 12:20 16.12.2022
645 Snow -1 1009 93 206 0.45 290 10:47 16.12.2022
646 Snow -1 1007 94 150 0.45 313 09:32 16.12.2022
647 Snow -1 1006 94 137 1.78 301 08:26 16.12.2022
648 Snow -1 1006 95 282 0.45 322 07:54 16.12.2022
649 Snow 0 1003 94 214 2.28 55 23:53 15.12.2022
650 Snow 0 1002 94 676 2.66 57 22:31 15.12.2022
651 Snow -1 1003 94 2325 0.89 94 20:54 15.12.2022
652 Snow -1 1004 93 5637 2.94 66 19:37 15.12.2022
653 Clouds -1 1005 93 10000 0.45 48 18:30 15.12.2022
654 Clouds -1 1005 92 10000 0.45 82 17:27 15.12.2022
655 Clouds -1 1006 91 10000 0.45 103 15:39 15.12.2022
656 Clouds 0 1006 91 10000 2.9 71 14:37 15.12.2022
657 Clouds 0 1007 91 10000 0.45 63 12:47 15.12.2022
658 Clouds -1 1008 92 10000 0.45 113 10:41 15.12.2022
659 Snow -2 1008 94 8224 1.79 73 08:55 15.12.2022
660 Snow -2 1007 94 1249 1.11 72 07:57 15.12.2022
661 Snow -1 1006 93 256 0.45 294 05:36 15.12.2022
662 Snow 0 987 96 2680 1.06 342 22:35 14.12.2022
663 Snow 0 987 96 606 0.45 303 21:23 14.12.2022
664 Snow 1 986 96 163 0.89 295 20:35 14.12.2022
665 Snow 1 985 95 8802 0.89 288 19:34 14.12.2022
666 Snow 0 984 95 6696 0.89 289 16:58 14.12.2022
667 Snow 0 983 94 10000 1.4 195 16:19 14.12.2022
668 Clouds -1 983 94 10000 0.45 311 14:50 14.12.2022
669 Snow -1 982 93 10000 0.17 105 12:56 14.12.2022
670 Snow -3 968 92 10000 1.94 120 10:45 14.12.2022
671 Clouds -3 985 93 10000 0.45 114 10:21 14.12.2022
672 Clouds -5 987 90 431 0.45 124 06:37 14.12.2022
673 Clouds -7 990 90 10000 0.45 90 21:57 13.12.2022
674 Clouds -7 991 90 10000 0.45 89 21:37 13.12.2022
675 Clouds -7 992 91 10000 0.89 116 20:47 13.12.2022
676 Clouds -7 992 89 10000 1.34 122 18:55 13.12.2022
677 Clouds -6 992 84 10000 1.34 109 16:36 13.12.2022
678 Clouds -5 1009 81 10000 0.89 72 14:57 13.12.2022
679 Clouds -5 1009 82 10000 2.24 200 13:33 13.12.2022
680 Clouds -7 1010 84 10000 0.89 78 10:49 13.12.2022
681 Clouds -8 1010 84 10000 0.45 119 10:26 13.12.2022
682 Clouds -11 1010 89 10000 0.45 118 08:18 13.12.2022
683 Clear -9 1012 89 10000 2.26 94 22:37 12.12.2022
684 Clear -9 1012 89 10000 2.26 94 22:37 12.12.2022
685 Clear -9 1012 89 10000 1.85 101 21:58 12.12.2022
686 Clouds -8 1013 88 10000 0.45 68 20:30 12.12.2022
687 Clouds -6 1013 86 10000 0.45 61 18:25 12.12.2022
688 Clouds -3 1011 75 10000 0.24 339 15:41 12.12.2022
689 Clouds -2 1011 73 10000 1.59 304 14:25 12.12.2022
690 Clouds -5 1012 86 10000 0.89 299 09:46 12.12.2022
691 Clouds -6 1012 89 10000 1.34 233 09:18 12.12.2022
692 Clouds -7 1013 91 10000 1.61 242 04:51 12.12.2022
693 Clouds -5 1012 91 10000 1.84 242 01:51 12.12.2022
694 Clouds -5 1010 89 10000 2.19 232 22:18 11.12.2022
695 Clouds -4 1010 87 5010 2.22 250 20:40 11.12.2022
696 Clouds -4 1009 88 2232 0.45 284 19:39 11.12.2022
697 Clouds -4 1008 88 7125 2.3 252 18:55 11.12.2022
698 Clouds -4 1009 87 10000 0.45 284 17:55 11.12.2022
699 Clouds -4 1009 87 10000 2.11 249 17:26 11.12.2022
700 Clouds -3 1012 96 10000 2.09 249 16:49 11.12.2022
701 Clouds -2 1009 84 10000 0.45 234 15:45 11.12.2022
702 Clouds -2 1009 84 10000 4.47 301 13:43 11.12.2022
703 Clouds -2 1009 82 9399 1.34 291 12:43 11.12.2022
704 Clouds -2 1010 88 3443 2.86 278 10:44 11.12.2022
705 Clouds -2 1010 91 1548 2.06 273 03:39 11.12.2022
706 Clouds -2 1010 94 10000 2.28 271 00:28 11.12.2022
707 Snow -2 1010 93 10000 2.42 274 22:51 10.12.2022
708 Snow -1 1010 93 10000 2.34 281 22:32 10.12.2022
709 Snow -1 1010 94 10000 2.58 293 21:18 10.12.2022
710 Snow -1 1009 94 5640 2.66 294 20:24 10.12.2022
711 Snow -1 1009 95 172 3 310 18:33 10.12.2022
712 Snow 0 1008 94 142 0.45 323 16:47 10.12.2022
713 Snow 0 1007 94 140 0.45 5 15:53 10.12.2022
714 Snow 0 1007 94 124 0.45 340 15:34 10.12.2022
715 Snow 0 1006 94 152 0.89 293 13:56 10.12.2022
716 Snow 1 1005 94 163 2.3 327 12:45 10.12.2022
717 Snow 0 1006 94 178 1.93 345 11:26 10.12.2022
718 Clouds 0 1006 94 156 2.01 353 10:28 10.12.2022
719 Snow 0 1005 94 170 1.55 4 07:42 10.12.2022
720 Snow 0 1005 94 431 1.35 15 07:18 10.12.2022
721 Clouds 0 1004 94 10000 0.56 354 23:56 09.12.2022
722 Clouds 0 1004 94 10000 0.36 7 22:44 09.12.2022
723 Clouds 0 1004 93 10000 0.56 18 21:48 09.12.2022
724 Clouds 0 1004 93 10000 0.63 4 21:21 09.12.2022
725 Clouds 0 1004 93 10000 0.98 60 19:49 09.12.2022
726 Snow 0 1003 93 10000 0.45 3 18:40 09.12.2022
727 Clouds 0 1002 93 10000 1.22 55 17:44 09.12.2022
728 Snow 0 1002 92 10000 1.09 85 16:30 09.12.2022
729 Snow 0 1002 92 10000 1.85 75 15:32 09.12.2022
730 Snow 0 1001 91 10000 2.19 68 14:25 09.12.2022
731 Clouds -1 1003 93 10000 2.52 81 10:52 09.12.2022
732 Snow -1 1004 93 10000 0.45 98 10:29 09.12.2022
733 Snow -2 1004 93 10000 1.34 115 08:24 09.12.2022
734 Clouds -2 1006 93 10000 1.75 99 03:18 09.12.2022
735 Clouds -3 1008 93 10000 1.38 116 23:37 08.12.2022
736 Clear -2 1008 92 10000 1.6 140 21:23 08.12.2022
737 Clear -2 1009 92 10000 1.53 137 20:21 08.12.2022
738 Clouds 2 1007 85 10000 0.89 114 16:52 08.12.2022
739 Clouds 4 1009 76 10000 0.11 170 14:52 08.12.2022
740 Clouds 4 1009 77 10000 0.45 286 14:24 08.12.2022
741 Clouds 3 1011 82 10000 1.63 208 11:18 08.12.2022
742 Clouds 1 1011 89 10000 1.84 200 09:45 08.12.2022
743 Clouds 1 1012 93 10000 1.75 200 09:20 08.12.2022
744 Clouds 0 1013 92 10000 1.22 209 23:56 07.12.2022
745 Clouds 1 1015 92 10000 1.22 235 22:19 07.12.2022
746 Clouds 1 1015 89 10000 1.22 235 21:48 07.12.2022
747 Clouds 1 1015 91 10000 1.4 239 20:36 07.12.2022
748 Clouds 0 1015 91 10000 1.65 255 19:24 07.12.2022
749 Clouds 3 1016 85 10000 2.04 276 16:21 07.12.2022
750 Clouds 4 1016 78 10000 2.24 278 14:40 07.12.2022
751 Clouds 3 1017 91 10000 0.45 211 11:41 07.12.2022
752 Clouds 2 1018 93 10000 1.34 233 10:39 07.12.2022
753 Clouds 2 1018 94 10000 1.34 221 09:41 07.12.2022
754 Clouds 1 1016 93 9297 2.54 248 08:46 07.12.2022
755 Rain 2 1017 93 5629 2.38 266 06:46 07.12.2022
756 Clouds 2 1017 92 26 2.06 280 04:44 07.12.2022
757 Clouds 2 1018 91 27 0.45 253 22:40 06.12.2022
758 Clouds 2 1018 90 74 0.89 270 20:35 06.12.2022
759 Clouds 2 1017 90 10000 2.21 301 18:21 06.12.2022
760 Clouds 3 1017 91 10000 0.45 291 16:42 06.12.2022
761 Clouds 3 1017 91 10000 1.97 274 15:52 06.12.2022
762 Clouds 3 1017 91 10000 2.21 262 15:33 06.12.2022
763 Clouds 3 1017 88 10000 2.41 265 14:28 06.12.2022
764 Clouds 3 1018 90 10000 2.07 276 12:59 06.12.2022
765 Clouds 3 1018 90 10000 0.45 144 12:40 06.12.2022
766 Clear 1 1019 93 10000 1.55 241 09:41 06.12.2022
767 Clouds 0 1019 95 10000 0.45 263 06:32 06.12.2022
768 Clouds 1 1020 94 10000 2.16 251 01:26 06.12.2022
769 Clouds 2 1020 94 10000 0.45 281 22:36 05.12.2022
770 Clouds 2 1021 94 10000 1.17 216 21:19 05.12.2022
771 Rain 2 1021 94 10000 0.45 205 20:36 05.12.2022
772 Rain 2 1021 93 10000 1.34 226 19:46 05.12.2022
773 Rain 3 1020 93 6417 0.45 205 18:37 05.12.2022
774 Clouds 4 1020 92 50 0.89 288 16:48 05.12.2022
775 Clouds 4 1020 91 65 1.34 289 15:24 05.12.2022
776 Clouds 4 1020 94 48 2.24 259 13:27 05.12.2022
777 Clouds 4 1020 94 48 2.25 267 12:52 05.12.2022
778 Clouds 4 1020 94 48 2.25 267 12:34 05.12.2022
779 Clouds 3 1020 95 3243 2.36 260 10:58 05.12.2022
780 Clouds 1 1018 96 10000 1.34 277 04:52 05.12.2022
781 Clouds 1 998 96 10000 0.45 284 23:33 04.12.2022
782 Clouds 1 997 96 10000 2.68 292 22:40 04.12.2022
783 Clouds 1 997 96 10000 0.89 284 22:18 04.12.2022
784 Clouds 1 997 96 10000 0.45 221 21:29 04.12.2022
785 Clouds 1 996 97 10000 0.45 287 19:48 04.12.2022
786 Snow 2 996 97 10000 2.11 259 19:22 04.12.2022
787 Snow 2 996 97 10000 0.89 276 17:58 04.12.2022
788 Clouds 2 995 97 10000 0.89 259 17:21 04.12.2022
789 Clouds 2 995 97 10000 0.89 240 16:36 04.12.2022
790 Clouds 2 995 97 10000 0.89 240 16:18 04.12.2022
791 Clouds 2 995 97 10000 2.01 304 14:54 04.12.2022
792 Clouds 2 995 97 10000 1.29 342 13:45 04.12.2022
793 Clouds 2 995 97 10000 1.29 356 12:45 04.12.2022
794 Clouds 1 990 97 10000 0.89 13 12:21 04.12.2022
795 Snow 1 996 97 10000 0.45 114 11:19 04.12.2022
796 Clouds 0 996 96 10000 0.45 44 07:34 04.12.2022
797 Clouds 0 997 96 10000 0.89 66 02:24 04.12.2022
798 Clouds 0 998 96 10000 1.34 120 23:43 03.12.2022
799 Clouds 0 998 96 10000 1.34 126 22:24 03.12.2022
800 Clouds 0 998 96 10000 0.89 95 21:45 03.12.2022
801 Clouds 0 999 96 10000 0.89 98 20:36 03.12.2022
802 Clouds 0 999 95 10000 0.45 92 18:40 03.12.2022
803 Clouds 0 999 95 10000 0.89 115 17:33 03.12.2022
804 Clouds 0 999 95 10000 0.89 124 15:49 03.12.2022
805 Clouds 0 1000 95 10000 1.34 116 13:19 03.12.2022
806 Clouds 0 1001 95 10000 1.34 115 12:41 03.12.2022
807 Clouds 0 1001 95 10000 0.89 91 11:34 03.12.2022
808 Clouds 0 1001 96 10000 0.45 94 08:25 03.12.2022
809 Clouds 0 986 95 10000 2.39 83 02:48 03.12.2022
810 Clouds 1 1002 95 4185 0.89 121 23:38 02.12.2022
811 Clouds 1 1002 95 128 1.53 91 21:52 02.12.2022
812 Clouds 1 1002 94 256 0.45 113 19:50 02.12.2022
813 Snow 2 1001 93 23 1.5 73 16:38 02.12.2022
814 Snow 2 1001 93 23 1.51 73 15:57 02.12.2022
815 Rain 2 1001 93 27 0.45 291 14:36 02.12.2022
816 Rain 3 995 92 40 1.44 78 14:18 02.12.2022
817 Clouds 3 1002 92 10000 0.45 292 11:57 02.12.2022
818 Rain 2 1002 94 10000 0.63 42 10:35 02.12.2022
819 Clouds 2 1002 94 10000 0.28 68 07:52 02.12.2022
820 Clouds 2 1002 94 10000 0.51 44 07:22 02.12.2022
821 Clouds 2 1005 92 10000 0.56 61 22:53 01.12.2022
822 Clouds 2 1005 92 10000 0.4 34 21:43 01.12.2022
823 Clouds 2 1005 92 10000 0.45 131 20:50 01.12.2022
824 Clouds 2 1005 90 10000 0.45 121 18:59 01.12.2022
825 Clouds 2 1021 88 10000 0.45 130 17:30 01.12.2022
826 Clouds 3 1005 87 10000 1.59 25 14:46 01.12.2022
827 Clouds 3 1005 90 10000 1.45 61 11:21 01.12.2022
828 Clouds 2 1006 94 10000 1.44 65 09:55 01.12.2022
829 Clouds 2 1006 94 10000 1.43 65 09:36 01.12.2022
830 Clouds 1 1005 94 10000 1.21 25 06:59 01.12.2022
831 Clouds 2 1006 92 10000 1.81 51 23:46 30.11.2022
832 Clouds 2 1006 92 10000 0.45 65 21:54 30.11.2022
833 Clouds 2 1005 92 10000 1.61 59 21:19 30.11.2022
834 Clouds 2 1005 91 10000 1.62 61 20:24 30.11.2022
835 Clouds 2 1005 89 10000 0.45 49 19:35 30.11.2022
836 Clouds 2 1005 89 10000 1.61 71 18:32 30.11.2022
837 Clouds 3 1004 89 10000 0.45 112 16:53 30.11.2022
838 Clouds 3 1004 85 10000 2.26 57 14:46 30.11.2022
839 Clouds 3 1004 86 10000 0.45 119 14:27 30.11.2022
840 Clouds 3 1004 87 10000 2.01 56 12:29 30.11.2022
841 Clouds 2 1005 93 10000 1.55 65 10:24 30.11.2022
842 Clouds 2 1004 95 10000 0.45 107 08:38 30.11.2022
843 Clouds 2 1004 95 10000 1.49 76 06:44 30.11.2022
844 Clouds 3 1003 95 10000 0.45 65 23:32 29.11.2022
845 Clouds 3 1003 95 10000 0.45 120 22:25 29.11.2022
846 Rain 4 1003 96 10000 0.89 86 20:53 29.11.2022
847 Rain 4 1003 96 10000 0.45 50 20:33 29.11.2022
848 Rain 4 1002 95 6938 1.95 85 18:57 29.11.2022
849 Clouds 5 1001 95 8801 2.12 102 16:58 29.11.2022
850 Rain 5 1001 95 9207 1.64 106 16:22 29.11.2022
851 Rain 6 1001 95 7824 1.7 115 14:49 29.11.2022
852 Rain 5 994 95 10000 0.89 104 12:46 29.11.2022
853 Rain 5 1000 96 10000 1.78 135 11:32 29.11.2022
854 Rain 5 1000 96 10000 0.89 115 10:53 29.11.2022
855 Rain 5 1000 96 10000 1.71 135 09:38 29.11.2022
856 Clouds 5 999 96 10000 0.45 127 08:38 29.11.2022
857 Rain 4 999 95 10000 0.28 94 00:36 29.11.2022
858 Rain 4 999 94 10000 0.28 94 23:34 28.11.2022
859 Rain 4 999 94 10000 0.36 242 22:50 28.11.2022
860 Rain 4 999 93 10000 0.81 240 21:43 28.11.2022
861 Rain 5 998 93 10000 1.07 221 20:50 28.11.2022
862 Rain 5 998 90 10000 1.83 200 19:38 28.11.2022
863 Rain 5 998 89 10000 0.45 184 18:29 28.11.2022
864 Rain 5 999 88 10000 1.76 201 17:50 28.11.2022
865 Rain 5 999 84 10000 0.45 117 16:25 28.11.2022
866 Rain 6 999 81 10000 0.94 267 14:24 28.11.2022
867 Rain 6 999 80 10000 0.94 267 13:51 28.11.2022
868 Clouds 5 999 84 10000 0.96 261 12:35 28.11.2022
869 Snow 2 983 95 10000 0.19 32 09:39 28.11.2022
870 Clouds 1 1000 95 10000 0.45 155 07:19 28.11.2022
871 Clouds 0 1000 96 10000 0.45 130 04:42 28.11.2022
872 Clouds 0 1001 96 10000 1.22 120 03:58 28.11.2022
873 Clouds 0 1000 96 10000 0.45 281 03:18 28.11.2022
874 Clouds 0 1003 96 10000 1.34 116 22:47 27.11.2022
875 Clouds 0 1004 96 10000 1.34 99 21:41 27.11.2022
876 Clouds 0 1005 95 10000 1.34 135 20:22 27.11.2022
877 Clouds 1 1007 93 10000 3.13 122 17:34 27.11.2022
878 Clear 4 1007 82 10000 0.45 132 15:20 27.11.2022
879 Clouds 6 1026 78 10000 2.36 112 12:32 27.11.2022
880 Clouds 3 1027 88 10000 0.45 155 10:50 27.11.2022
881 Clouds -2 1007 92 10000 2.11 134 08:19 27.11.2022
882 Clouds -1 1014 95 10000 1.51 144 00:49 27.11.2022
883 Clouds 1 1015 92 10000 1.34 108 22:25 26.11.2022
884 Clouds 1 1000 92 10000 1.35 102 20:51 26.11.2022
885 Clouds 1 1010 92 10000 1.35 102 20:51 26.11.2022
886 Clouds 2 1015 94 10000 0.6 109 19:27 26.11.2022
887 Clouds 3 1015 91 10000 0.54 151 17:54 26.11.2022
888 Clouds 6 1014 86 10000 0.87 320 15:52 26.11.2022
889 Clouds 7 1014 88 10000 0.89 297 13:34 26.11.2022
890 Clouds 6 1009 91 10000 0.45 288 11:45 26.11.2022
891 Clouds 6 1031 92 10000 0.89 286 10:22 26.11.2022
892 Clouds 5 1014 94 10000 1.82 258 09:31 26.11.2022
893 Clouds 5 1013 94 10000 2.15 251 06:41 26.11.2022
894 Clouds 5 1008 94 10000 1.34 285 21:46 25.11.2022
895 Clouds 6 1008 94 10000 0.89 262 21:24 25.11.2022
896 Rain 6 1007 93 10000 2.83 258 19:57 25.11.2022
897 Rain 8 1004 89 10000 0.45 271 16:49 25.11.2022
898 Clouds 11 1020 64 10000 1.34 295 14:37 25.11.2022
899 Clouds 2 1002 93 10000 1.8 198 09:24 25.11.2022
900 Clouds 2 1002 93 10000 1.8 198 08:41 25.11.2022
901 Clouds 1 1002 95 10000 1.82 193 06:55 25.11.2022
902 Clouds 0 1001 95 10000 1.62 182 06:24 25.11.2022
903 Clouds 1 1002 95 10000 1.67 168 23:57 24.11.2022
904 Clear 1 1002 94 10000 0.45 184 22:51 24.11.2022
905 Clear 2 1002 94 10000 1.85 200 21:59 24.11.2022
906 Clear 3 1001 94 10000 2.08 212 20:33 24.11.2022
907 Clouds 4 1002 93 10000 1.34 287 19:20 24.11.2022
908 Clouds 5 1001 93 10000 1.34 261 17:43 24.11.2022
909 Clouds 5 1001 93 10000 5.81 307 17:20 24.11.2022
910 Clouds 7 994 93 10000 5.93 257 15:24 24.11.2022
911 Clouds 6 999 93 10000 1.34 255 13:54 24.11.2022
912 Rain 6 995 89 3767 4.47 258 11:58 24.11.2022
913 Clouds 8 999 77 10000 1.79 214 10:37 24.11.2022
914 Clear 6 998 90 10000 1.34 261 07:54 24.11.2022
915 Clouds 6 996 91 10000 2.24 225 03:23 24.11.2022
916 Rain 5 993 93 10000 2.68 235 23:46 23.11.2022
917 Rain 4 992 92 1386 4.02 285 22:24 23.11.2022
918 Rain 4 991 91 10000 1.79 265 21:30 23.11.2022
919 Clouds 3 990 90 10000 0.45 234 20:45 23.11.2022
920 Clear 2 1005 89 10000 2.27 138 19:27 23.11.2022
921 Clear 3 989 89 10000 2.26 133 19:27 23.11.2022
922 Clear 3 989 89 10000 2.26 133 19:27 23.11.2022
923 Clear 3 988 87 10000 0.45 124 18:41 23.11.2022
924 Clouds 7 988 75 10000 2.33 121 16:42 23.11.2022
925 Clouds 8 1005 71 10000 0.89 143 13:41 23.11.2022
926 Clouds 8 1003 73 10000 0.45 155 13:21 23.11.2022
927 Clouds 8 1006 73 10000 0.45 151 12:21 23.11.2022
928 Clouds 7 1006 81 10000 1.35 149 11:42 23.11.2022
929 Clouds 6 990 88 10000 1.26 171 10:44 23.11.2022
930 Clouds 4 990 93 10000 1.39 204 09:44 23.11.2022
931 Clouds 4 990 93 10000 1.67 203 09:25 23.11.2022
932 Clouds 3 989 95 10000 0.45 126 08:37 23.11.2022
933 Clouds 3 973 95 10000 2.09 200 06:59 23.11.2022
934 Clouds 3 973 95 10000 2.42 224 05:18 23.11.2022
935 Clouds 4 988 93 10000 3.12 245 23:24 22.11.2022
936 Clouds 4 988 92 10000 2.81 241 22:34 22.11.2022
937 Clouds 4 988 92 10000 2.39 235 21:34 22.11.2022
938 Clouds 4 987 91 10000 0.45 254 20:50 22.11.2022
939 Clouds 4 987 92 10000 2.43 237 20:18 22.11.2022
940 Rain 4 987 93 10000 0.45 260 18:34 22.11.2022
941 Clouds 4 987 94 10000 2.59 245 17:45 22.11.2022
942 Rain 5 986 94 10000 2.5 259 16:23 22.11.2022
943 Rain 5 986 94 10000 3.08 267 13:48 22.11.2022
944 Rain 6 986 94 9069 1.34 225 12:25 22.11.2022
945 Rain 5 985 95 10000 1.34 280 09:26 22.11.2022
946 Rain 5 984 94 10000 1.34 283 07:58 22.11.2022
947 Rain 5 983 93 10000 0.89 275 06:37 22.11.2022
948 Clouds 2 982 90 10000 1.34 119 23:42 21.11.2022
949 Clouds 2 983 90 10000 2.24 121 22:50 21.11.2022
950 Clouds 1 977 91 10000 1.34 136 22:20 21.11.2022
951 Clouds 2 983 90 10000 0.45 144 21:23 21.11.2022
952 Clouds 2 985 88 10000 1.34 121 19:49 21.11.2022
953 Clouds 2 985 89 10000 2.24 116 19:31 21.11.2022
954 Clouds 2 985 88 10000 1.34 109 19:31 21.11.2022
955 Clouds 2 985 88 10000 1.34 109 19:31 21.11.2022
956 Clouds 3 980 89 10000 0.45 123 18:46 21.11.2022
957 Clouds 4 987 86 10000 1.34 119 17:26 21.11.2022
958 Clouds 5 988 82 10000 1.34 123 16:41 21.11.2022
959 Clouds 7 1005 78 10000 1.88 131 15:58 21.11.2022
960 Clouds 7 1006 74 10000 1.99 223 15:23 21.11.2022
961 Clouds 7 991 73 10000 1.34 220 13:53 21.11.2022
962 Clouds 6 1008 75 10000 0.45 299 12:50 21.11.2022
963 Clouds 4 992 89 10000 3.13 266 09:34 21.11.2022
964 Clouds 4 992 92 7501 5.81 271 07:52 21.11.2022
965 Rain 4 994 91 3509 3.13 282 23:57 20.11.2022
966 Clouds 3 994 87 10000 3.19 224 21:37 20.11.2022
967 Clouds 3 994 89 10000 2.83 221 20:47 20.11.2022
968 Clouds 3 995 85 10000 0.45 272 19:18 20.11.2022
969 Clouds 5 995 81 10000 1.34 332 17:24 20.11.2022
970 Clouds 6 996 79 10000 2.24 290 15:44 20.11.2022
971 Clouds 6 995 80 10000 2.24 259 15:21 20.11.2022
972 Rain 6 996 80 10000 5.81 277 14:18 20.11.2022
973 Clouds 7 996 76 10000 5.81 293 13:32 20.11.2022
974 Clouds 8 996 70 10000 5.36 293 11:46 20.11.2022
975 Clouds 7 997 74 10000 4.47 269 10:58 20.11.2022
976 Clouds 5 997 80 10000 2.68 279 09:44 20.11.2022
977 Clouds 5 997 80 10000 2.68 279 09:44 20.11.2022
978 Clouds 5 997 82 10000 1.79 205 08:55 20.11.2022
979 Clouds 5 997 82 10000 1.79 194 08:32 20.11.2022
980 Clouds 5 996 85 10000 1.34 218 07:26 20.11.2022
981 Clouds 5 996 90 10000 1.79 253 01:29 20.11.2022
982 Clouds 5 995 92 10000 2.68 280 00:55 20.11.2022
983 Clouds 5 995 92 10000 1.79 254 00:36 20.11.2022
984 Clouds 5 990 91 10000 0.89 259 00:18 20.11.2022
985 Clouds 5 995 91 10000 2.24 288 23:26 19.11.2022
986 Clouds 5 995 91 10000 0.89 275 22:49 19.11.2022
987 Clouds 5 995 92 10000 0.89 280 22:18 19.11.2022
988 Clouds 5 995 92 10000 0.89 287 21:27 19.11.2022
989 Clouds 5 995 92 10000 3.43 249 20:41 19.11.2022
990 Rain 6 995 90 10000 0.45 299 19:51 19.11.2022
991 Rain 7 994 83 10000 0.89 295 18:54 19.11.2022
992 Clouds 7 994 82 10000 2.74 253 17:39 19.11.2022
993 Clouds 7 994 81 10000 3.12 271 17:18 19.11.2022
994 Clouds 8 1010 78 10000 1.34 297 15:33 19.11.2022
995 Clouds 8 1010 80 10000 3.13 249 13:36 19.11.2022
996 Clouds 7 994 83 10000 1.34 287 11:56 19.11.2022
997 Clouds 7 994 87 10000 3.13 266 10:18 19.11.2022
998 Clouds 5 993 94 10000 2.24 278 08:19 19.11.2022
999 Clouds 5 993 94 10000 2.24 278 08:19 19.11.2022
1000 Clouds 5 993 94 10000 2.24 278 08:19 19.11.2022
1001 Clouds 5 992 93 10000 1.34 274 04:45 19.11.2022
1002 Clouds 5 992 95 10000 1.34 213 01:50 19.11.2022
1003 Clouds 5 992 95 10000 1.34 222 23:37 18.11.2022
1004 Clouds 5 992 95 10000 1.34 222 23:37 18.11.2022
1005 Clouds 5 992 95 10000 1.34 222 23:37 18.11.2022
1006 Clouds 4 992 95 10000 1.34 215 22:25 18.11.2022
1007 Clouds 5 991 95 10000 1.34 292 21:36 18.11.2022
1008 Clouds 5 991 95 10000 2.24 302 20:58 18.11.2022
1009 Clouds 5 991 96 10000 0.89 294 20:25 18.11.2022
1010 Clouds 6 991 96 10000 1.34 293 19:44 18.11.2022
1011 Rain 6 989 96 10000 2.68 278 17:46 18.11.2022
1012 Rain 6 989 96 10000 2.68 294 16:41 18.11.2022
1013 Rain 7 987 95 10000 3.13 257 13:36 18.11.2022
1014 Rain 7 987 95 10000 0.45 293 11:24 18.11.2022
1015 Clouds 7 985 93 10000 4.47 286 07:59 18.11.2022
1016 Rain 7 984 95 10000 1.79 219 06:18 18.11.2022
1017 Rain 7 984 95 10000 1.34 272 05:18 18.11.2022
1018 Rain 8 979 92 10000 0.45 244 00:40 18.11.2022
1019 Clouds 7 984 91 10000 1.56 182 20:59 17.11.2022
1020 Clouds 7 984 91 10000 0.45 120 20:26 17.11.2022
1021 Clouds 7 984 90 10000 1.79 186 19:50 17.11.2022
1022 Rain 8 978 88 10000 0.45 128 18:34 17.11.2022
1023 Clouds 8 984 86 10000 2.29 244 17:32 17.11.2022
1024 Clouds 10 984 79 10000 2.29 244 16:42 17.11.2022
1025 Rain 12 979 75 10000 0.45 234 12:53 17.11.2022
1026 Clouds 10 999 87 10000 1.26 192 11:21 17.11.2022
1027 Rain 5 984 95 10000 2.08 132 08:20 17.11.2022
1028 Rain 4 979 93 10000 0.45 116 02:54 17.11.2022
1029 Clouds 3 985 96 10000 1.83 151 00:20 17.11.2022
1030 Clouds 4 987 95 10000 1.84 184 22:28 16.11.2022
1031 Clouds 5 988 94 10000 0.45 143 20:36 16.11.2022
1032 Clouds 6 988 93 10000 1.9 204 19:33 16.11.2022
1033 Clouds 6 989 92 10000 1.9 204 18:40 16.11.2022
1034 Clouds 9 983 89 10000 1.21 214 17:19 16.11.2022
1035 Rain 10 990 92 10000 0.89 260 13:39 16.11.2022
1036 Rain 8 990 95 10000 0.45 202 09:38 16.11.2022
1037 Clouds 6 989 87 10000 0.45 106 02:32 16.11.2022
1038 Clouds 6 989 89 10000 0.89 143 01:25 16.11.2022
1039 Clouds 6 992 86 10000 1.64 147 22:22 15.11.2022
1040 Clouds 6 1009 88 10000 1.4 159 20:45 15.11.2022
1041 Clouds 6 1009 84 10000 1.44 187 19:34 15.11.2022
1042 Clouds 8 1010 81 10000 0.88 196 17:39 15.11.2022
1043 Clouds 9 1012 77 10000 0.37 197 17:21 15.11.2022
1044 Clouds 11 1010 73 10000 0.7 61 16:19 15.11.2022
1045 Clear 14 1010 54 10000 0.89 148 14:44 15.11.2022
1046 Clear 14 1011 58 10000 0.89 91 12:59 15.11.2022
1047 Clear 12 1012 64 10000 0.45 136 11:43 15.11.2022
1048 Clear 10 1012 71 10000 2 99 10:55 15.11.2022
1049 Clear 2 955 91 10000 1.65 129 07:40 15.11.2022
1050 Clouds 4 993 94 10000 0.89 133 00:36 15.11.2022
1051 Clouds 5 986 92 10000 2.24 168 23:33 14.11.2022
1052 Clouds 5 1002 90 10000 2.17 170 21:30 14.11.2022
1053 Clouds 6 1002 88 10000 0.45 129 20:39 14.11.2022
1054 Clouds 7 1002 86 10000 2.57 145 18:50 14.11.2022
1055 Clouds 11 1017 77 10000 1.7 122 15:51 14.11.2022
1056 Clouds 13 1002 69 10000 2.24 340 12:54 14.11.2022
1057 Clouds 10 1018 79 10000 0.72 194 11:42 14.11.2022
1058 Clear 5 1021 86 10000 0.45 134 09:29 14.11.2022
1059 Clouds 3 958 94 10000 2.43 126 07:54 14.11.2022
1060 Clouds 3 986 96 10000 2.71 133 06:40 14.11.2022
1061 Clear 4 997 96 10000 1.64 206 00:18 14.11.2022
1062 Clear 4 997 94 10000 1.66 232 21:55 13.11.2022
1063 Clear 4 997 94 10000 1.66 232 21:36 13.11.2022
1064 Clear 4 997 92 10000 0.86 200 19:44 13.11.2022
1065 Clear 6 995 90 10000 0.51 98 18:24 13.11.2022
1066 Clear 7 997 87 10000 0.48 101 17:44 13.11.2022
1067 Clear 10 1019 79 10000 1.34 117 14:58 13.11.2022
1068 Clear 10 1019 82 10000 0.45 128 14:23 13.11.2022
1069 Clear 10 962 74 10000 2.92 86 12:43 13.11.2022
1070 Clear 6 1022 75 10000 3.28 82 11:29 13.11.2022
1071 Clear 3 1024 93 10000 2.85 81 08:56 13.11.2022
1072 Clouds 2 1009 96 10000 2.28 72 05:51 13.11.2022
1073 Clouds 4 1013 96 10000 1.96 75 22:58 12.11.2022
1074 Clouds 5 1014 95 10000 1.56 85 21:24 12.11.2022
1075 Clouds 5 1015 95 10000 1.6 90 20:23 12.11.2022
1076 Clouds 5 1015 94 10000 0.45 132 18:45 12.11.2022
1077 Clouds 8 1015 89 10000 2.08 73 16:28 12.11.2022
1078 Clouds 9 1015 83 10000 1.82 72 15:24 12.11.2022
1079 Clouds 10 1012 77 10000 2.02 81 13:28 12.11.2022
1080 Clouds 4 1034 88 10000 0.51 186 09:30 12.11.2022
1081 Clouds 3 974 95 10000 0.51 206 07:47 12.11.2022
1082 Clouds 4 1013 95 10000 1.46 102 23:23 11.11.2022
1083 Clouds 5 1018 94 10000 1.45 110 20:52 11.11.2022
1084 Clouds 5 1035 90 10000 1.27 134 20:23 11.11.2022
1085 Clouds 6 1018 91 10000 1.45 127 19:25 11.11.2022
1086 Clouds 8 1018 88 10000 1.91 90 17:59 11.11.2022
1087 Clouds 10 1034 80 10000 1.91 87 16:55 11.11.2022
1088 Clouds 14 1017 67 10000 0.45 25 14:30 11.11.2022
1089 Clouds 13 1034 71 10000 2.13 69 13:42 11.11.2022
1090 Clouds 12 1034 74 10000 1.6 111 12:18 11.11.2022
1091 Clouds 5 974 89 10000 1.29 123 08:57 11.11.2022
1092 Clouds 4 974 90 10000 1.52 107 08:26 11.11.2022
1093 Clouds 6 972 100 10000 1.46 126 00:31 11.11.2022
1094 Clouds 5 1011 92 10000 1.41 132 22:51 10.11.2022
1095 Clouds 5 1033 88 10000 1.34 156 21:44 10.11.2022
1096 Clouds 5 1032 88 10000 1.69 159 21:26 10.11.2022
1097 Clouds 5 1032 89 10000 1.36 128 20:25 10.11.2022
1098 Clouds 6 1033 89 10000 1.37 128 19:56 10.11.2022
1099 Clouds 7 1032 87 10000 0.81 66 18:50 10.11.2022
1100 Clouds 10 1030 77 10000 0.57 12 17:30 10.11.2022
1101 Clear 13 1029 69 10000 0.67 334 16:25 10.11.2022
1102 Clear 13 1029 70 10000 1.47 267 13:35 10.11.2022
1103 Clouds 10 1028 94 10000 1.96 273 09:53 10.11.2022
1104 Clouds 9 1027 94 10000 1.86 254 08:20 10.11.2022
1105 Rain 10 1021 93 10000 0.89 217 01:21 10.11.2022
1106 Rain 11 1020 93 10000 3.58 281 23:20 09.11.2022
1107 Rain 11 1020 90 10000 1.34 282 21:57 09.11.2022
1108 Rain 11 1019 86 10000 0.89 292 20:46 09.11.2022
1109 Rain 11 1019 85 10000 1.91 225 20:28 09.11.2022
1110 Rain 12 1001 84 10000 0.45 298 19:26 09.11.2022
1111 Clouds 12 1016 79 10000 0.94 252 17:50 09.11.2022
1112 Clouds 16 1016 60 10000 0.89 308 14:59 09.11.2022
1113 Clouds 16 1016 61 10000 0.45 313 14:41 09.11.2022
1114 Clouds 16 1016 60 10000 0.89 271 14:22 09.11.2022
1115 Clouds 16 1017 61 10000 0.45 217 12:57 09.11.2022
1116 Clouds 10 1017 70 10000 1.46 253 09:45 09.11.2022
1117 Clouds 6 1016 76 10000 0.45 315 07:47 09.11.2022
1118 Clouds 6 1016 74 10000 0.45 197 06:55 09.11.2022
1119 Clouds 7 1000 80 10000 0.45 150 22:50 08.11.2022
1120 Clouds 8 1017 82 10000 1.83 174 21:43 08.11.2022
1121 Clouds 8 1017 82 10000 1.98 167 21:22 08.11.2022
1122 Clouds 8 1000 81 10000 1.99 167 20:39 08.11.2022
1123 Clouds 8 1016 84 10000 1.98 177 19:35 08.11.2022
1124 Clouds 8 1016 80 10000 2.03 176 18:20 08.11.2022
1125 Clouds 13 1015 64 10000 1.02 173 16:19 08.11.2022
1126 Clouds 15 1015 57 10000 0.89 265 14:52 08.11.2022
1127 Clouds 15 1015 57 10000 0.45 334 13:36 08.11.2022
1128 Clouds 14 1019 60 10000 1.56 121 12:38 08.11.2022
1129 Clouds 4 1017 87 10000 0.45 119 08:32 08.11.2022
1130 Clouds 3 1017 86 10000 2.31 142 07:25 08.11.2022
1131 Clouds 6 1001 90 10000 1.81 174 00:22 08.11.2022
1132 Clouds 6 1020 86 10000 1.73 199 22:24 07.11.2022
1133 Clouds 7 1003 85 10000 2.05 206 21:21 07.11.2022
1134 Clouds 7 1019 86 10000 0.45 292 20:33 07.11.2022
1135 Clouds 10 1020 77 10000 1.72 233 17:51 07.11.2022
1136 Clouds 13 1003 65 10000 0.45 285 16:32 07.11.2022
1137 Clouds 14 1020 61 10000 2.83 253 15:34 07.11.2022
1138 Clouds 14 1020 62 10000 0.89 284 14:44 07.11.2022
1139 Clouds 15 1020 59 10000 3.13 297 12:35 07.11.2022
1140 Clouds 14 1020 63 10000 0.89 301 10:55 07.11.2022
1141 Clouds 10 1020 73 10000 2.68 230 09:36 07.11.2022
1142 Clear 7 1019 83 10000 0.45 197 07:41 07.11.2022
1143 Clouds 9 1018 76 10000 3.58 257 04:18 07.11.2022
1144 Clouds 10 1001 66 10000 2.47 229 01:21 07.11.2022
1145 Rain 7 1000 83 10000 3.13 278 22:21 06.11.2022
1146 Clouds 7 1000 90 10000 2.36 230 21:20 06.11.2022
1147 Clouds 6 999 93 10000 2.36 230 20:31 06.11.2022
1148 Clouds 5 999 93 10000 2.21 215 19:34 06.11.2022
1149 Clouds 5 1015 90 10000 1.78 198 18:40 06.11.2022
1150 Clouds 6 998 91 10000 1.66 147 18:19 06.11.2022
1151 Clouds 8 998 84 10000 0.89 114 17:21 06.11.2022
1152 Clouds 9 997 83 10000 2.02 117 16:40 06.11.2022
1153 Clouds 10 998 77 10000 0.45 113 15:43 06.11.2022
1154 Clouds 9 1017 79 10000 4.47 124 12:49 06.11.2022
1155 Clouds 9 1017 80 10000 1.79 94 12:28 06.11.2022
1156 Clouds 7 1019 89 10000 3.58 112 10:46 06.11.2022
1157 Clouds 2 1019 94 10000 2.25 118 08:30 06.11.2022
1158 Clouds 3 1005 95 10000 0.8 220 02:19 06.11.2022
1159 Clouds 5 1006 94 10000 1.41 247 23:18 05.11.2022
1160 Clouds 7 1006 94 10000 2.85 238 19:43 05.11.2022
1161 Clouds 8 1004 93 10000 2.64 243 17:45 05.11.2022
1162 Clouds 8 1004 93 10000 1.34 293 16:21 05.11.2022
1163 Clouds 8 1003 92 10000 0.89 303 14:33 05.11.2022
1164 Clouds 8 1019 93 10000 1.34 250 12:51 05.11.2022
1165 Clouds 8 1002 94 10000 1.34 257 10:31 05.11.2022
1166 Clouds 7 996 95 10000 3.43 247 08:48 05.11.2022
1167 Rain 6 1000 95 10000 2.84 249 06:57 05.11.2022
1168 Rain 6 1000 95 10000 2.85 249 06:36 05.11.2022
1169 Clouds 4 997 93 10000 2.04 209 23:35 04.11.2022
1170 Clouds 4 997 94 10000 0.89 220 22:31 04.11.2022
1171 Clouds 5 995 93 10000 0.45 137 20:26 04.11.2022
1172 Clouds 6 988 92 10000 0.45 163 17:46 04.11.2022
1173 Rain 6 988 93 10000 0.45 163 17:19 04.11.2022
1174 Rain 8 992 92 10000 0.89 135 13:46 04.11.2022
1175 Rain 8 986 92 10000 3.09 271 12:26 04.11.2022
1176 Rain 8 987 93 10000 0.45 208 10:39 04.11.2022
1177 Rain 8 987 92 10000 0.45 330 08:45 04.11.2022
1178 Rain 8 986 90 10000 0.89 240 07:42 04.11.2022
1179 Rain 9 992 88 10000 1.79 194 03:51 04.11.2022
1180 Clouds 10 989 91 10000 0.89 137 22:50 03.11.2022
1181 Clouds 10 992 91 10000 0.89 135 20:51 03.11.2022
1182 Clouds 10 992 91 10000 0.89 293 20:22 03.11.2022
1183 Clouds 10 993 91 10000 0.89 95 19:27 03.11.2022
1184 Clouds 11 995 88 10000 2.45 115 17:49 03.11.2022
1185 Clouds 11 995 85 10000 0.45 117 16:52 03.11.2022
1186 Clouds 15 1015 74 10000 0.45 68 14:20 03.11.2022
1187 Clouds 14 1016 74 10000 0.89 15 12:39 03.11.2022
1188 Clouds 13 1016 74 10000 0.45 113 11:51 03.11.2022
1189 Clouds 9 987 83 10000 1.46 134 09:43 03.11.2022
1190 Clouds 5 1018 91 10000 1.56 142 07:43 03.11.2022
1191 Clear 7 1007 88 10000 1.69 121 21:30 02.11.2022
1192 Clear 7 1007 90 10000 1.69 121 20:44 02.11.2022
1193 Clouds 7 1008 89 10000 1.17 121 19:59 02.11.2022
1194 Clouds 11 1009 78 10000 1.08 257 17:29 02.11.2022
1195 Clouds 14 1009 69 10000 1.58 268 16:22 02.11.2022
1196 Clouds 14 1009 66 10000 1.34 276 14:58 02.11.2022
1197 Clouds 15 1026 66 10000 2.24 327 12:48 02.11.2022
1198 Clouds 15 1026 68 10000 3.13 263 11:55 02.11.2022
1199 Clouds 11 1024 90 10000 2.93 250 09:22 02.11.2022
1200 Clouds 10 1008 93 10000 0.45 157 06:48 02.11.2022
1201 Clouds 9 1008 92 10000 1.9 243 00:55 02.11.2022
1202 Clouds 11 1007 88 10000 0.45 275 22:20 01.11.2022
1203 Clouds 12 1007 87 10000 0.45 278 21:42 01.11.2022
1204 Clouds 13 1007 83 10000 1.9 233 20:27 01.11.2022
1205 Clouds 13 1007 83 10000 1.9 233 19:57 01.11.2022
1206 Rain 14 1007 81 10000 1.9 233 19:39 01.11.2022
1207 Clouds 15 1006 76 10000 1.48 242 17:58 01.11.2022
1208 Clouds 16 1005 71 10000 1.8 279 16:23 01.11.2022
1209 Clouds 17 1005 66 10000 0.89 284 14:33 01.11.2022
1210 Clouds 18 1005 67 10000 2.24 259 12:31 01.11.2022
1211 Clouds 16 1005 71 10000 1.79 179 11:38 01.11.2022
1212 Clouds 16 1005 71 10000 1.79 221 11:20 01.11.2022
1213 Clouds 12 1005 83 10000 0.89 232 08:51 01.11.2022
1214 Clouds 10 996 87 10000 2.35 237 07:48 01.11.2022
1215 Clouds 10 995 87 10000 2.73 253 07:27 01.11.2022
1216 Clouds 9 995 89 10000 0.89 232 06:45 01.11.2022
1217 Clouds 9 994 93 10000 1.69 233 04:18 01.11.2022
1218 Clouds 9 1022 89 10000 1.77 215 22:24 31.10.2022
1219 Clouds 9 1019 90 10000 1.58 217 21:26 31.10.2022
1220 Clear 11 1018 88 10000 1.2 209 19:56 31.10.2022
1221 Clouds 13 1002 86 10000 0.6 120 18:35 31.10.2022
1222 Clouds 17 1018 78 10000 1.13 84 16:44 31.10.2022
1223 Clouds 19 1020 66 10000 0.45 121 14:31 31.10.2022
1224 Clouds 18 1021 67 10000 0.89 147 12:21 31.10.2022
1225 Clouds 13 1021 91 10000 0.91 150 09:35 31.10.2022
1226 Clouds 9 1000 95 10000 1.22 209 05:40 31.10.2022
1227 Clouds 10 990 97 10000 1.64 245 02:42 31.10.2022
1228 Clouds 10 990 97 10000 1.75 235 01:46 31.10.2022
1229 Clouds 12 991 93 10000 1.7 231 22:18 30.10.2022
1230 Clouds 12 1022 88 10000 1.47 233 20:38 30.10.2022
1231 Clouds 13 1022 84 10000 0.93 197 19:34 30.10.2022
1232 Clouds 20 1020 66 10000 0.6 21 16:29 30.10.2022
1233 Clouds 22 1020 55 10000 0.53 3 14:34 30.10.2022
1234 Clouds 22 1021 45 10000 0.55 334 13:50 30.10.2022
1235 Clouds 22 1022 58 10000 0.71 255 12:24 30.10.2022
1236 Clouds 19 1021 66 10000 1.04 239 10:25 30.10.2022
1237 Clouds 15 1022 72 10000 0.45 290 09:24 30.10.2022
1238 Clouds 12 990 79 10000 1.24 209 07:57 30.10.2022
1239 Clouds 14 1006 81 10000 1.57 181 00:29 30.10.2022
1240 Clouds 14 1006 83 10000 0.89 135 23:47 29.10.2022
1241 Clouds 13 1025 85 10000 1.67 178 22:31 29.10.2022
1242 Clouds 16 1023 76 10000 1.94 136 19:38 29.10.2022
1243 Clouds 22 1023 63 10000 1.57 96 17:23 29.10.2022
1244 Clouds 24 1024 54 10000 1.3 100 15:39 29.10.2022
1245 Clouds 25 1026 50 10000 1.3 100 14:55 29.10.2022
1246 Clouds 23 1026 55 10000 0.57 77 13:50 29.10.2022
1247 Clouds 21 1026 57 10000 1.33 192 12:33 29.10.2022
1248 Clouds 13 1026 78 10000 0.45 210 09:32 29.10.2022
1249 Clouds 12 1009 80 10000 0.45 196 07:23 29.10.2022
1250 Clouds 12 1003 80 10000 1.07 224 05:55 29.10.2022
1251 Clouds 15 1009 78 10000 0.89 186 23:51 28.10.2022
1252 Clouds 16 1010 79 10000 0.45 310 21:58 28.10.2022
1253 Clouds 15 1026 81 10000 1.96 207 20:45 28.10.2022
1254 Clouds 18 1026 72 10000 0.45 260 18:50 28.10.2022
1255 Clouds 18 1024 71 10000 1.31 155 18:29 28.10.2022
1256 Clouds 23 1023 52 10000 1.42 147 15:28 28.10.2022
1257 Clouds 23 1026 52 10000 0.89 122 13:44 28.10.2022
1258 Clouds 21 1027 57 10000 0.89 157 12:23 28.10.2022
1259 Clouds 18 1027 64 10000 1.41 170 11:34 28.10.2022
1260 Clouds 17 1027 69 10000 1.42 170 10:45 28.10.2022
1261 Clouds 13 1010 74 10000 1.52 187 09:44 28.10.2022
1262 Clouds 11 1004 83 10000 0.45 203 08:21 28.10.2022
1263 Clouds 12 1002 83 10000 1.91 200 03:42 28.10.2022
1264 Clear 13 1010 83 10000 0.45 176 23:48 27.10.2022
1265 Clear 12 1005 83 10000 0.45 122 22:40 27.10.2022
1266 Clear 12 1027 86 10000 0.45 136 21:35 27.10.2022
1267 Clouds 13 1027 84 10000 1.93 149 20:27 27.10.2022
1268 Clouds 17 1026 72 10000 1.78 122 18:22 27.10.2022
1269 Clouds 20 1027 65 10000 1.69 130 13:58 27.10.2022
1270 Clouds 9 1030 91 10000 1.76 135 09:20 27.10.2022
1271 Clouds 8 1010 94 10000 1.58 141 06:24 27.10.2022
1272 Clouds 11 1026 92 10000 1.87 216 23:55 26.10.2022
1273 Clouds 12 1010 92 10000 1.96 213 22:51 26.10.2022
1274 Clouds 13 1010 92 10000 1.96 210 22:22 26.10.2022
1275 Clouds 15 1025 86 10000 2.12 236 19:53 26.10.2022
1276 Clouds 19 1023 69 10000 0.45 284 16:35 26.10.2022
1277 Clouds 19 1006 68 10000 0.89 282 14:52 26.10.2022
1278 Clouds 18 1005 66 10000 1.79 198 12:39 26.10.2022
1279 Clouds 16 1005 80 10000 0.89 212 11:26 26.10.2022
1280 Clouds 12 1004 94 10000 3.71 241 08:54 26.10.2022
1281 Clouds 12 1004 93 10000 0.89 152 08:36 26.10.2022
1282 Clouds 8 1020 93 10000 1.94 136 00:48 26.10.2022
1283 Clouds 8 1020 93 10000 0.45 173 00:29 26.10.2022
1284 Clouds 9 1020 91 10000 1.53 144 21:57 25.10.2022
1285 Clouds 10 1021 87 10000 1.19 154 21:24 25.10.2022
1286 Clouds 11 1021 86 10000 1 143 20:26 25.10.2022
1287 Clear 13 1022 77 10000 0.45 150 18:38 25.10.2022
1288 Clear 18 1021 63 10000 1.34 277 15:28 25.10.2022
1289 Clear 16 1022 78 10000 0.45 275 11:40 25.10.2022
1290 Clouds 14 1020 85 10000 2.18 251 10:46 25.10.2022
1291 Clouds 13 1022 87 10000 2.01 236 10:28 25.10.2022
1292 Clear 11 1005 93 10000 0.45 269 08:36 25.10.2022
1293 Clouds 10 1004 94 10000 0.45 178 08:18 25.10.2022
1294 Clouds 10 1004 94 10000 2.4 222 07:41 25.10.2022
1295 Clouds 9 1004 95 10000 2.59 216 04:27 25.10.2022
1296 Clouds 10 999 94 10000 2.56 220 03:25 25.10.2022
1297 Clouds 11 1003 91 10000 3.03 216 00:32 25.10.2022
1298 Clouds 12 1002 91 10000 0.89 182 22:26 24.10.2022
1299 Clouds 12 1002 91 10000 0.89 194 21:34 24.10.2022
1300 Clouds 12 1002 91 10000 0.89 211 20:44 24.10.2022
1301 Clouds 12 1002 90 10000 2.24 123 20:19 24.10.2022
1302 Rain 13 1002 95 10000 1.34 198 17:53 24.10.2022
1303 Rain 13 1002 96 8493 3.58 195 16:54 24.10.2022
1304 Rain 13 1002 96 9209 1.34 290 15:19 24.10.2022
1305 Rain 14 1003 96 10000 3.13 282 14:18 24.10.2022
1306 Rain 14 1002 95 10000 0.89 124 12:26 24.10.2022
1307 Clouds 14 1001 94 10000 0.89 209 09:18 24.10.2022
1308 Rain 14 960 95 10000 1.67 165 02:58 24.10.2022
1309 Clouds 15 999 84 10000 1.74 196 22:29 23.10.2022
1310 Clouds 15 995 83 10000 0.89 224 20:38 23.10.2022
1311 Clouds 17 998 77 10000 0.45 114 18:37 23.10.2022
1312 Clouds 19 999 69 10000 2.34 119 17:28 23.10.2022
1313 Clouds 21 1016 65 10000 0.45 121 15:39 23.10.2022
1314 Clouds 21 1016 63 10000 1.81 141 14:52 23.10.2022
1315 Clouds 14 1018 80 10000 0.45 102 11:27 23.10.2022
1316 Clouds 11 1019 89 10000 1.82 133 10:19 23.10.2022
1317 Clouds 8 1003 93 10000 2.04 136 04:41 23.10.2022
1318 Clouds 10 1021 92 10000 1.81 163 22:49 22.10.2022
1319 Clouds 10 1021 92 10000 1.7 176 21:43 22.10.2022
1320 Clear 11 1021 88 10000 1.97 190 20:57 22.10.2022
1321 Clouds 13 1004 87 10000 1.91 198 19:59 22.10.2022
1322 Clouds 13 1004 85 10000 1.78 216 19:31 22.10.2022
1323 Clouds 17 1019 72 10000 1.68 246 17:39 22.10.2022
1324 Clouds 18 1019 70 10000 3.13 277 15:59 22.10.2022
1325 Clouds 17 1019 75 10000 1.34 270 14:48 22.10.2022
1326 Clouds 16 1021 82 10000 1.34 279 13:58 22.10.2022
1327 Clouds 13 1003 92 10000 1.98 222 11:22 22.10.2022
1328 Rain 12 1002 94 10000 3.58 280 09:43 22.10.2022
1329 Rain 12 1000 95 10000 4 238 08:37 22.10.2022
1330 Rain 13 1000 96 7623 1.34 273 05:34 22.10.2022
1331 Rain 14 999 92 10000 2.58 202 00:28 22.10.2022
1332 Rain 14 999 91 10000 0.45 165 22:37 21.10.2022
1333 Rain 14 999 91 10000 0.89 213 21:32 21.10.2022
1334 Rain 14 999 92 10000 1.34 219 20:26 21.10.2022
1335 Rain 15 999 88 10000 1.34 300 17:50 21.10.2022
1336 Clouds 16 1000 80 10000 1.34 281 14:38 21.10.2022
1337 Clouds 15 1020 82 10000 2.24 266 13:39 21.10.2022
1338 Rain 15 991 83 10000 2.19 113 11:46 21.10.2022
1339 Clouds 14 995 87 10000 1.34 139 10:23 21.10.2022
1340 Clouds 12 997 92 10000 2.71 111 08:44 21.10.2022
1341 Clouds 11 997 92 10000 2.73 106 08:20 21.10.2022
1342 Clouds 12 1000 94 10000 1.29 121 03:52 21.10.2022
1343 Clouds 11 996 91 10000 0.45 286 23:23 20.10.2022
1344 Clouds 12 996 89 10000 1.5 112 20:57 20.10.2022
1345 Clouds 13 1001 85 10000 1.74 112 19:43 20.10.2022
1346 Clouds 14 1001 82 10000 0.45 117 18:49 20.10.2022
1347 Rain 15 1001 78 10000 0.45 117 17:43 20.10.2022
1348 Clouds 17 1002 69 10000 0.45 132 14:38 20.10.2022
1349 Clouds 15 960 75 10000 2.96 90 12:32 20.10.2022
1350 Clouds 11 988 95 10000 3.02 102 11:29 20.10.2022
1351 Clouds 12 1018 85 10000 3 102 10:51 20.10.2022
1352 Clouds 10 998 95 10000 2.24 114 09:30 20.10.2022
1353 Clouds 10 1004 96 10000 1.34 251 07:23 20.10.2022
1354 Clouds 11 1005 94 10000 3.42 95 02:22 20.10.2022
1355 Clouds 10 1006 93 10000 3.01 88 23:39 19.10.2022
1356 Clouds 12 1007 89 10000 2.9 86 22:25 19.10.2022
1357 Clouds 13 1007 87 10000 0.45 81 21:27 19.10.2022
1358 Clouds 14 1007 84 10000 1.34 90 20:19 19.10.2022
1359 Clouds 16 1024 78 10000 2.95 85 17:52 19.10.2022
1360 Clouds 17 1024 77 10000 3.13 85 16:24 19.10.2022
1361 Clouds 16 1009 82 10000 0.89 107 14:27 19.10.2022
1362 Clouds 15 1010 90 10000 2.23 61 12:20 19.10.2022
1363 Clouds 14 1010 96 10000 0.64 85 08:52 19.10.2022
1364 Clouds 13 1026 94 10000 0.6 81 07:24 19.10.2022
1365 Clouds 13 1028 93 10000 1.15 241 01:33 19.10.2022
1366 Clouds 14 1011 93 10000 1.37 263 23:45 18.10.2022
1367 Clouds 15 1027 90 10000 1.47 255 21:49 18.10.2022
1368 Clouds 16 1027 90 10000 1.54 288 21:31 18.10.2022
1369 Clear 16 1028 87 10000 2.13 310 20:27 18.10.2022
1370 Rain 18 1026 93 10000 2.45 294 18:59 18.10.2022
1371 Clear 21 1028 68 10000 0.89 290 16:58 18.10.2022
1372 Clear 22 1027 60 10000 4.47 285 15:36 18.10.2022
1373 Clouds 21 1027 64 10000 1.34 257 13:43 18.10.2022
1374 Clouds 19 1028 70 10000 0.89 266 11:48 18.10.2022
1375 Clouds 18 1028 72 10000 0.45 207 11:18 18.10.2022
1376 Clouds 12 1011 86 10000 2.22 201 09:26 18.10.2022
1377 Clouds 10 1006 93 10000 0.45 132 07:20 18.10.2022
1378 Clouds 11 1028 90 10000 1.41 221 00:34 18.10.2022
1379 Clouds 12 1028 89 10000 1.84 213 21:45 17.10.2022
1380 Clouds 13 1028 87 10000 1.52 216 20:50 17.10.2022
1381 Clouds 13 1028 85 10000 1.25 226 20:30 17.10.2022
1382 Clouds 15 1027 82 10000 1.25 225 19:46 17.10.2022
1383 Clouds 20 1025 74 10000 0.65 272 17:58 17.10.2022
1384 Clouds 23 1025 57 10000 0.51 282 16:34 17.10.2022
1385 Clouds 24 1025 48 10000 0.89 280 15:28 17.10.2022
1386 Clouds 22 1026 56 10000 0.89 313 13:36 17.10.2022
1387 Clouds 16 1026 79 10000 0.45 258 10:29 17.10.2022
1388 Clouds 10 1001 94 10000 0.45 123 03:55 17.10.2022
1389 Clouds 13 1007 90 10000 2.32 127 23:24 16.10.2022
1390 Clouds 14 1023 88 10000 2.41 124 21:46 16.10.2022
1391 Clouds 13 1023 88 10000 2.43 124 21:46 16.10.2022
1392 Clouds 15 1022 83 10000 2.42 109 20:33 16.10.2022
1393 Clouds 17 1022 78 10000 2.35 104 19:45 16.10.2022
1394 Clouds 20 1020 69 10000 2.31 76 17:50 16.10.2022
1395 Clouds 24 1019 47 10000 1.89 69 16:33 16.10.2022
1396 Clouds 24 1018 44 10000 1.9 69 15:56 16.10.2022
1397 Clouds 24 1021 50 10000 1.34 246 14:23 16.10.2022
1398 Clouds 22 1021 63 10000 0.45 198 12:21 16.10.2022
1399 Clouds 18 1020 78 10000 1.34 213 10:27 16.10.2022
1400 Clouds 18 1020 78 10000 1.34 213 10:27 16.10.2022
1401 Clouds 12 1002 94 10000 0.89 188 08:35 16.10.2022
1402 Clouds 13 1001 94 10000 1.87 201 00:48 16.10.2022
1403 Clouds 14 1017 88 10000 2.09 188 22:42 15.10.2022
1404 Clouds 14 1016 90 10000 2.34 184 21:25 15.10.2022
1405 Clouds 15 1016 89 10000 2.12 196 20:25 15.10.2022
1406 Clouds 16 1015 82 10000 2.16 208 18:43 15.10.2022
1407 Clouds 19 1014 74 10000 3.88 255 15:46 15.10.2022
1408 Clouds 19 999 71 10000 2.68 300 14:39 15.10.2022
1409 Clouds 15 998 93 10000 1.79 280 11:57 15.10.2022
1410 Clouds 14 998 95 10000 3.13 258 10:32 15.10.2022
1411 Rain 14 997 95 10000 3.13 252 08:54 15.10.2022
1412 Rain 12 997 95 5535 1.34 178 02:42 15.10.2022
1413 Clouds 13 1015 92 10000 0.45 205 23:56 14.10.2022
1414 Clouds 13 999 92 10000 0.45 233 22:23 14.10.2022
1415 Rain 13 999 92 10000 2.43 214 21:29 14.10.2022
1416 Rain 13 1000 92 10000 2.37 204 20:18 14.10.2022
1417 Rain 15 1000 86 10000 0.45 294 16:49 14.10.2022
1418 Clouds 18 1017 68 10000 0.45 132 13:52 14.10.2022
1419 Clouds 17 1018 73 10000 0.89 113 12:19 14.10.2022
1420 Clouds 12 1019 93 10000 1.76 172 09:46 14.10.2022
1421 Clouds 11 1003 96 10000 1.83 169 07:57 14.10.2022
1422 Clouds 11 1003 96 10000 0.45 223 06:18 14.10.2022
1423 Clouds 11 1003 96 10000 0.45 222 05:42 14.10.2022
1424 Rain 11 1003 95 10000 0.45 234 04:42 14.10.2022
1425 Rain 12 1004 95 10000 1.34 231 00:53 14.10.2022
1426 Clouds 11 1003 95 10000 3.11 238 22:32 13.10.2022
1427 Clouds 12 1003 94 10000 2.59 225 21:29 13.10.2022
1428 Clouds 13 1004 90 10000 1.53 209 20:19 13.10.2022
1429 Clouds 13 1004 89 10000 1.25 213 19:39 13.10.2022
1430 Clouds 14 1003 84 10000 0.54 228 18:44 13.10.2022
1431 Clouds 16 1020 80 10000 0.89 284 17:31 13.10.2022
1432 Clouds 16 1021 79 10000 1.88 276 15:48 13.10.2022
1433 Clouds 16 1004 77 10000 1.34 124 14:29 13.10.2022
1434 Clouds 13 1022 90 10000 1.55 267 12:51 13.10.2022
1435 Clouds 13 1002 92 10000 1.16 248 11:39 13.10.2022
1436 Clouds 11 1006 97 10000 1.39 210 09:46 13.10.2022
1437 Clouds 9 1006 97 10000 1.11 205 08:32 13.10.2022
1438 Clouds 8 1006 96 10000 1.1 221 07:35 13.10.2022
1439 Clouds 7 1023 94 10000 1.49 166 01:56 13.10.2022
1440 Clouds 8 1007 95 10000 1.3 163 01:28 13.10.2022
1441 Clouds 9 1007 94 10000 0.9 131 22:58 12.10.2022
1442 Clouds 9 1007 94 10000 0.89 131 22:37 12.10.2022
1443 Clouds 11 1007 93 10000 1.07 40 21:24 12.10.2022
1444 Clouds 12 1007 89 10000 0.45 116 20:53 12.10.2022
1445 Clouds 13 1007 89 10000 0.89 118 20:25 12.10.2022
1446 Clouds 14 1002 86 10000 1.64 57 18:40 12.10.2022
1447 Clouds 14 1007 85 10000 0.45 67 17:54 12.10.2022
1448 Clouds 15 1007 80 10000 1.79 40 16:18 12.10.2022
1449 Clouds 15 1008 81 10000 1.34 17 13:57 12.10.2022
1450 Clouds 15 1008 83 10000 0.45 5 13:29 12.10.2022
1451 Clouds 13 1002 96 10000 0.45 340 10:39 12.10.2022
1452 Clouds 12 1008 96 10000 0.48 123 08:37 12.10.2022
1453 Clouds 12 1007 96 10000 0.74 101 07:41 12.10.2022
1454 Clouds 12 1007 96 10000 0.74 100 06:43 12.10.2022
1455 Clouds 12 1007 94 10000 1.57 82 01:34 12.10.2022
1456 Clouds 13 1008 91 10000 1.79 86 22:40 11.10.2022
1457 Clouds 14 1007 87 10000 0.45 40 20:57 11.10.2022
1458 Clouds 14 1008 85 10000 1.68 66 19:58 11.10.2022
1459 Clouds 16 1024 81 10000 0.45 22 17:38 11.10.2022
1460 Clouds 18 1007 74 10000 0.45 47 15:32 11.10.2022
1461 Clouds 17 1008 78 10000 0.45 28 13:29 11.10.2022
1462 Clouds 14 1025 93 10000 1.5 300 10:32 11.10.2022
1463 Clouds 13 1025 95 10000 1.48 300 09:55 11.10.2022
1464 Clouds 11 1024 94 10000 1.68 237 08:25 11.10.2022
1465 Clouds 11 1006 95 10000 2.29 240 02:46 11.10.2022
1466 Clouds 11 1005 95 10000 0.45 209 00:34 11.10.2022
1467 Clouds 12 1005 94 10000 2.16 226 22:45 10.10.2022
1468 Clouds 15 1004 92 10000 2.16 238 20:37 10.10.2022
1469 Clouds 16 1020 86 10000 1.96 240 18:50 10.10.2022
1470 Clouds 18 1003 75 10000 0.45 277 17:25 10.10.2022
1471 Clouds 19 1003 71 10000 0.89 251 16:28 10.10.2022
1472 Clouds 19 1020 70 10000 1.34 325 13:53 10.10.2022
1473 Clouds 18 1021 74 10000 2.68 269 12:22 10.10.2022
1474 Clouds 10 1020 96 10000 1.41 212 09:32 10.10.2022
1475 Clouds 9 1003 96 10000 1.64 230 06:22 10.10.2022
1476 Clouds 9 998 97 10000 1.63 229 05:33 10.10.2022
1477 Clouds 8 1003 95 10000 0.76 132 01:30 10.10.2022
1478 Clouds 8 1003 93 10000 1.27 110 23:37 09.10.2022
1479 Clouds 9 1003 92 10000 2.14 92 22:26 09.10.2022
1480 Clouds 9 1003 91 10000 2.15 92 21:40 09.10.2022
1481 Clouds 10 1004 89 10000 2.86 94 20:43 09.10.2022
1482 Clouds 11 1004 86 10000 3.6 86 19:50 09.10.2022
1483 Rain 12 1004 84 10000 0.89 89 18:50 09.10.2022
1484 Rain 12 1004 84 10000 0.89 113 17:55 09.10.2022
1485 Rain 13 1021 82 10000 1.79 114 16:55 09.10.2022
1486 Clouds 13 1022 80 10000 1.79 94 16:21 09.10.2022
1487 Clouds 13 1022 79 10000 2.24 118 15:25 09.10.2022
1488 Clouds 13 1023 81 10000 2.68 170 14:26 09.10.2022
1489 Clouds 13 1023 86 10000 2.24 78 12:53 09.10.2022
1490 Clouds 11 1024 91 10000 0.45 124 11:28 09.10.2022
1491 Clouds 7 1024 94 10000 0.45 110 08:41 09.10.2022
1492 Clouds 6 1024 94 10000 2.88 72 07:35 09.10.2022
1493 Clouds 8 1025 94 10000 2.14 77 03:30 09.10.2022
1494 Clouds 9 1026 94 10000 1.86 75 02:23 09.10.2022
1495 Clouds 10 1026 93 10000 0.86 63 23:56 08.10.2022
1496 Clouds 11 1026 93 10000 0.44 19 22:52 08.10.2022
1497 Clouds 12 1025 92 10000 1.76 340 20:52 08.10.2022
1498 Clouds 13 1024 93 10000 0.89 312 19:56 08.10.2022
1499 Rain 13 1023 92 10000 1.78 304 18:22 08.10.2022
1500 Rain 16 1022 84 10000 0.89 325 15:50 08.10.2022
1501 Clouds 16 1022 81 10000 0.89 342 14:32 08.10.2022
1502 Clouds 16 1020 83 10000 0.89 298 12:31 08.10.2022
1503 Clouds 14 1022 90 10000 1.56 248 10:37 08.10.2022
1504 Clouds 13 1022 92 10000 1.56 248 09:50 08.10.2022
1505 Clouds 11 1021 95 10000 0.45 196 08:38 08.10.2022
1506 Clouds 9 1021 95 10000 2.06 221 03:50 08.10.2022
1507 Clouds 9 1022 93 10000 1.72 188 00:35 08.10.2022
1508 Clouds 9 1022 93 10000 0.45 231 23:21 07.10.2022
1509 Clouds 10 1023 93 10000 1.7 182 22:40 07.10.2022
1510 Clouds 11 1023 91 10000 0.81 191 20:59 07.10.2022
1511 Clouds 13 1024 88 10000 0.94 303 19:32 07.10.2022
1512 Clouds 17 1023 76 10000 1.09 322 17:47 07.10.2022
1513 Clouds 18 1023 74 10000 1.46 315 16:41 07.10.2022
1514 Clouds 17 1025 77 10000 1.34 290 14:59 07.10.2022
1515 Clouds 15 1023 69 10000 0.58 319 13:22 07.10.2022
1516 Clouds 11 1026 95 10000 0.45 116 10:29 07.10.2022
1517 Clouds 11 1027 95 10000 0.85 97 09:24 07.10.2022
1518 Clouds 10 1027 94 10000 1.05 105 08:18 07.10.2022
1519 Clouds 12 1029 91 10000 1.61 84 01:54 07.10.2022
1520 Clouds 12 1030 90 10000 1.62 98 22:52 06.10.2022
1521 Clouds 12 1030 88 10000 1.61 90 21:48 06.10.2022
1522 Clouds 12 1031 87 10000 1.53 81 21:29 06.10.2022
1523 Clouds 14 1030 87 10000 1.53 81 20:36 06.10.2022
1524 Clouds 17 1030 88 10000 1.89 41 18:46 06.10.2022
1525 Clouds 17 1030 74 10000 2.54 22 18:19 06.10.2022
1526 Clouds 17 1030 74 10000 2.54 22 18:19 06.10.2022
1527 Clouds 20 1030 68 10000 2.61 1 15:33 06.10.2022
1528 Clouds 20 1031 63 10000 1.34 263 12:49 06.10.2022
1529 Clouds 10 1030 85 10000 0.45 290 08:22 06.10.2022
1530 Clouds 10 1028 85 10000 0.45 237 04:32 06.10.2022
1531 Clouds 11 1026 83 10000 2.95 229 00:50 06.10.2022
1532 Clouds 12 1024 87 10000 2.7 220 21:53 05.10.2022
1533 Clouds 15 1024 77 10000 2.27 210 19:41 05.10.2022
1534 Clouds 21 1023 61 10000 1.24 216 17:37 05.10.2022
1535 Clouds 22 1022 58 10000 0.84 236 16:40 05.10.2022
1536 Clouds 22 1024 51 10000 1.79 233 14:57 05.10.2022
1537 Clouds 22 1024 53 10000 2.24 246 14:23 05.10.2022
1538 Clouds 20 1024 58 10000 1.34 281 12:45 05.10.2022
1539 Clouds 18 1025 63 10000 0.45 227 11:38 05.10.2022
1540 Clouds 7 1024 90 10000 0.89 176 08:23 05.10.2022
1541 Clouds 6 1024 92 10000 0.45 202 06:36 05.10.2022
1542 Clouds 7 1024 93 10000 1.23 195 05:31 05.10.2022
1543 Clouds 6 1025 93 10000 1.29 179 02:31 05.10.2022
1544 Clear 7 1025 92 10000 1.57 164 00:28 05.10.2022
1545 Clear 7 1025 91 10000 1.62 159 23:22 04.10.2022
1546 Clear 9 1025 88 10000 1.85 143 21:22 04.10.2022
1547 Clouds 11 1024 84 10000 1.67 149 19:56 04.10.2022
1548 Clouds 15 1023 83 10000 1.67 119 18:55 04.10.2022
1549 Clouds 14 1023 76 10000 1.65 94 17:57 04.10.2022
1550 Clouds 17 1025 67 10000 0.45 101 16:56 04.10.2022
1551 Clouds 16 1025 69 10000 1.53 81 14:29 04.10.2022
1552 Clouds 9 1025 93 10000 1.24 98 10:23 04.10.2022
1553 Clouds 3 1025 96 10000 1.4 141 07:50 04.10.2022
1554 Clouds 4 1025 94 10000 1.16 138 04:48 04.10.2022
1555 Clouds 5 1027 93 10000 0.86 120 23:59 03.10.2022
1556 Clouds 6 1027 92 10000 0.56 109 22:45 03.10.2022
1557 Clouds 7 1027 91 10000 0.97 186 21:30 03.10.2022
1558 Clouds 8 1027 90 10000 0.97 186 20:36 03.10.2022
1559 Clouds 11 1026 81 10000 0.37 25 18:52 03.10.2022
1560 Clouds 15 1026 71 10000 0.89 288 17:35 03.10.2022
1561 Clouds 15 1026 70 10000 1.34 276 16:22 03.10.2022
1562 Clouds 14 1027 75 10000 0.89 311 14:30 03.10.2022
1563 Clouds 13 1028 83 10000 1.34 304 13:27 03.10.2022
1564 Clouds 11 1028 94 10000 0.45 305 11:37 03.10.2022
1565 Clouds 10 1027 96 10000 2 273 09:59 03.10.2022
1566 Clouds 8 1027 96 10000 2.04 284 08:56 03.10.2022
1567 Clouds 9 1025 95 10000 2.38 288 04:49 03.10.2022
1568 Clouds 11 1024 95 10000 2.92 297 01:30 03.10.2022
1569 Rain 11 1022 95 3296 1.34 281 22:19 02.10.2022
1570 Rain 12 1021 94 5411 0.45 249 20:22 02.10.2022
1571 Rain 12 1020 93 6784 0.89 240 17:59 02.10.2022
1572 Rain 13 1020 92 4180 0.45 22 17:29 02.10.2022
1573 Rain 14 1019 90 4180 1.34 47 16:33 02.10.2022
1574 Rain 15 1020 82 6036 2.41 318 15:39 02.10.2022
1575 Clouds 17 1019 84 7035 3.58 291 13:48 02.10.2022
1576 Clouds 15 1020 89 10000 3.13 255 12:43 02.10.2022
1577 Clouds 14 1020 90 10000 2.68 275 12:24 02.10.2022
1578 Clouds 13 1021 91 10000 0.89 167 11:35 02.10.2022
1579 Clouds 12 1022 93 10000 0.89 236 10:36 02.10.2022
1580 Rain 12 1022 91 10000 1.34 309 08:31 02.10.2022
1581 Rain 12 1022 91 10000 1.34 309 08:31 02.10.2022
1582 Rain 12 1022 90 10000 1.79 227 05:32 02.10.2022
1583 Rain 12 1022 89 10000 0.45 280 02:54 02.10.2022
1584 Clouds 12 1020 89 10000 2.68 287 00:45 02.10.2022
1585 Rain 12 1019 90 10000 2.68 279 23:42 01.10.2022
1586 Rain 12 1018 88 10000 4.02 279 22:31 01.10.2022
1587 Clouds 12 1017 89 10000 3.13 309 19:58 01.10.2022
1588 Clouds 11 1015 90 10000 2.68 287 17:49 01.10.2022
1589 Rain 11 1015 92 7949 3.13 240 16:29 01.10.2022
1590 Rain 10 1015 90 10000 0.89 226 14:25 01.10.2022
1591 Rain 11 1014 87 10000 5.41 254 12:59 01.10.2022
1592 Rain 12 1015 83 10000 5.93 259 12:29 01.10.2022
1593 Rain 12 1015 79 10000 1.79 175 11:19 01.10.2022
1594 Clouds 11 1015 83 10000 1.34 215 10:31 01.10.2022
1595 Clouds 9 1016 91 10000 3.24 235 09:27 01.10.2022
1596 Clouds 9 1016 92 10000 3.24 235 08:57 01.10.2022
1597 Clouds 9 1016 93 10000 2.19 216 04:19 01.10.2022
1598 Clouds 9 1016 93 10000 2.01 234 03:29 01.10.2022
1599 Clouds 10 1015 92 10000 0.89 168 23:59 30.09.2022
1600 Clouds 10 1015 91 10000 0.44 77 22:36 30.09.2022
1601 Clouds 11 1016 91 10000 0.51 50 21:28 30.09.2022
1602 Clouds 11 1016 91 10000 0.51 50 21:28 30.09.2022
1603 Clouds 10 1014 88 10000 0.51 50 20:43 30.09.2022
1604 Clouds 11 1013 85 10000 1.07 136 19:49 30.09.2022
1605 Clouds 13 1014 77 10000 1.46 78 17:31 30.09.2022
1606 Clouds 13 1013 78 10000 0.45 105 15:56 30.09.2022
1607 Clouds 12 1011 78 10000 0.45 153 13:30 30.09.2022
1608 Clouds 12 1011 78 10000 0.45 153 13:30 30.09.2022
1609 Clouds 11 1012 83 10000 0.89 95 11:58 30.09.2022
1610 Clouds 10 1012 87 10000 0.89 122 10:40 30.09.2022
1611 Clouds 6 1011 96 10000 0.99 106 08:26 30.09.2022
1612 Clouds 6 1010 95 10000 0.25 129 06:26 30.09.2022
1613 Clouds 7 1008 95 10000 0.89 114 02:39 30.09.2022
1614 Clouds 8 1007 94 10000 1.35 205 22:40 29.09.2022
1615 Clouds 8 1007 94 10000 0.45 133 21:28 29.09.2022
1616 Rain 8 1007 94 10000 1.4 209 20:57 29.09.2022
1617 Rain 9 1005 93 10000 0.45 123 18:45 29.09.2022
1618 Rain 9 1005 92 10000 1.23 301 17:32 29.09.2022
1619 Rain 10 1004 90 10000 0.89 146 16:28 29.09.2022
1620 Rain 10 1004 89 10000 0.45 65 15:36 29.09.2022
1621 Rain 10 1004 89 10000 0.26 41 14:35 29.09.2022
1622 Rain 10 1004 87 10000 1.34 122 11:48 29.09.2022
1623 Clouds 6 1003 94 10000 1.66 183 07:26 29.09.2022
1624 Clouds 7 1003 94 10000 1.87 194 02:52 29.09.2022
1625 Clouds 7 1004 93 10000 2.96 228 00:28 29.09.2022
1626 Rain 7 1004 93 10000 3.74 235 23:19 28.09.2022
1627 Rain 8 1002 93 10000 0.89 231 21:30 28.09.2022
1628 Rain 8 1002 93 10000 0.89 231 21:30 28.09.2022
1629 Rain 8 1003 92 10000 0.45 227 20:31 28.09.2022
1630 Rain 8 1002 91 10000 0.45 293 18:42 28.09.2022
1631 Rain 9 1001 91 10000 1.34 311 15:34 28.09.2022
1632 Rain 9 1001 92 10000 1.34 253 13:28 28.09.2022
1633 Rain 9 1000 92 10000 2.24 218 11:23 28.09.2022
1634 Rain 8 999 91 10000 1.34 190 09:25 28.09.2022
1635 Rain 8 999 90 10000 0.89 169 07:40 28.09.2022
1636 Clouds 8 1001 87 10000 0.89 286 04:41 28.09.2022
1637 Rain 8 1004 91 10000 0.45 294 01:38 28.09.2022
1638 Clouds 8 1004 88 10000 2.24 255 23:30 27.09.2022
1639 Clouds 8 1004 87 7228 1.79 225 21:55 27.09.2022
1640 Clouds 8 1005 86 10000 1.34 252 20:56 27.09.2022
1641 Rain 8 1004 86 10000 3.58 294 20:19 27.09.2022
1642 Rain 9 1004 82 10000 2.24 180 19:36 27.09.2022
1643 Clouds 10 1003 75 10000 4.47 134 17:46 27.09.2022
1644 Clouds 11 1003 74 10000 4.47 207 16:25 27.09.2022
1645 Clouds 11 1003 78 10000 2.68 226 15:18 27.09.2022
1646 Clouds 10 1004 83 10000 2.68 173 13:36 27.09.2022
1647 Rain 10 1003 83 10000 2.68 272 12:36 27.09.2022
1648 Clouds 10 1002 85 10000 2.68 236 09:54 27.09.2022
1649 Clouds 9 1001 90 8993 1.79 231 07:51 27.09.2022
1650 Rain 9 1001 90 10000 3.63 262 04:28 27.09.2022
1651 Clouds 10 1003 84 10000 3.43 239 01:37 27.09.2022
1652 Rain 10 1004 83 10000 3.01 223 23:52 26.09.2022
1653 Rain 10 1005 80 10000 3.08 243 23:24 26.09.2022
1654 Rain 11 1006 79 10000 2.83 222 21:20 26.09.2022
1655 Clouds 12 1006 76 10000 0.45 280 19:44 26.09.2022
1656 Clouds 13 1006 71 10000 2.09 242 18:55 26.09.2022
1657 Clouds 15 1007 61 10000 0.89 261 17:25 26.09.2022
1658 Clouds 14 1008 75 10000 2.24 278 15:23 26.09.2022
1659 Clouds 13 1010 83 10000 1.34 287 12:31 26.09.2022
1660 Clouds 11 1010 94 10000 0.45 307 10:44 26.09.2022
1661 Rain 11 1011 95 10000 2.26 268 10:23 26.09.2022
1662 Rain 11 1011 95 10000 2.26 268 09:59 26.09.2022
1663 Rain 11 1011 95 10000 2.26 268 09:40 26.09.2022
1664 Rain 10 1011 95 10000 0.89 276 09:20 26.09.2022
1665 Clouds 10 1012 94 10000 0.89 295 05:30 26.09.2022
1666 Clouds 10 1012 94 10000 0.89 239 02:35 26.09.2022
1667 Clouds 11 1013 94 10000 0.45 313 23:24 25.09.2022
1668 Rain 12 1013 93 10000 0.89 194 21:48 25.09.2022
1669 Clouds 12 1013 93 10000 0.45 205 21:25 25.09.2022
1670 Clouds 12 1013 93 10000 0.89 294 20:36 25.09.2022
1671 Clouds 13 1012 91 10000 2.3 295 18:57 25.09.2022
1672 Clouds 14 1012 85 10000 2.14 296 18:26 25.09.2022
1673 Rain 14 1012 87 10000 2.04 296 17:24 25.09.2022
1674 Rain 13 1012 88 10000 1.89 301 16:21 25.09.2022
1675 Rain 15 1012 80 10000 1.34 311 14:54 25.09.2022
1676 Clouds 15 1012 78 10000 0.45 335 14:19 25.09.2022
1677 Clouds 13 1013 92 10000 0.91 336 11:34 25.09.2022
1678 Clouds 11 1013 95 10000 0.37 316 09:48 25.09.2022
1679 Clouds 9 1013 94 10000 0.5 255 07:43 25.09.2022
1680 Clouds 9 1013 94 10000 0.86 210 05:27 25.09.2022
1681 Clouds 13 1014 95 10000 1.49 200 23:37 24.09.2022
1682 Clouds 13 1014 95 10000 1.48 200 23:37 24.09.2022
1683 Clouds 13 1015 94 10000 1.89 200 21:50 24.09.2022
1684 Rain 13 1014 93 10000 1.99 269 20:34 24.09.2022
1685 Rain 14 1014 91 10000 1.36 298 19:20 24.09.2022
1686 Clouds 15 1014 82 10000 1.73 311 16:57 24.09.2022
1687 Clouds 16 1014 80 10000 0.45 256 15:54 24.09.2022
1688 Clouds 15 1013 84 10000 2.64 283 15:18 24.09.2022
1689 Rain 14 1015 84 10000 2.24 260 13:22 24.09.2022
1690 Rain 14 1015 81 10000 3.58 260 12:40 24.09.2022
1691 Clouds 13 1015 83 10000 1.75 267 10:18 24.09.2022
1692 Clouds 12 1014 84 10000 1.36 244 09:22 24.09.2022
1693 Clouds 11 1014 86 10000 0.45 206 08:43 24.09.2022
1694 Clouds 9 1014 88 10000 1.59 218 05:55 24.09.2022
1695 Clouds 9 1015 88 10000 1.74 209 04:31 24.09.2022
1696 Clouds 8 1017 91 10000 2.08 194 23:47 23.09.2022
1697 Clouds 9 1017 89 10000 1.77 191 22:21 23.09.2022
1698 Clouds 10 1016 84 10000 1.32 192 21:25 23.09.2022
1699 Clouds 11 1017 79 10000 1.31 192 20:54 23.09.2022
1700 Clouds 14 1016 74 10000 0.7 227 19:44 23.09.2022
1701 Clouds 17 1015 62 10000 1.28 315 17:55 23.09.2022
1702 Clouds 17 1019 55 10000 2.24 266 13:41 23.09.2022
1703 Clear 11 1020 76 10000 0.89 111 10:25 23.09.2022
1704 Clear 4 1019 88 10000 1.09 160 08:45 23.09.2022
1705 Clear 2 1021 93 10000 1.6 128 04:42 23.09.2022
1706 Clear 5 1021 91 10000 2.17 116 23:30 22.09.2022
1707 Clear 6 1022 89 10000 2.24 111 22:28 22.09.2022
1708 Clear 7 1022 87 10000 2.24 111 21:39 22.09.2022
1709 Clear 9 1022 81 10000 2.19 88 20:31 22.09.2022
1710 Clear 12 1021 67 10000 2.22 79 19:00 22.09.2022
1711 Clear 16 1022 50 10000 0.89 42 16:23 22.09.2022
1712 Clear 11 1024 67 10000 1.34 108 10:56 22.09.2022
1713 Clear 10 1024 76 10000 0.89 121 10:20 22.09.2022
1714 Clear 2 1025 95 10000 1.58 113 08:22 22.09.2022
1715 Clear 1 1024 93 10000 1.73 99 06:21 22.09.2022
1716 Clear 3 1025 91 10000 1.78 112 02:39 22.09.2022
1717 Clear 7 1025 86 10000 2.42 92 22:32 21.09.2022
1718 Clear 7 1026 86 10000 2.42 92 21:38 21.09.2022
1719 Clear 11 1027 68 10000 2.65 83 19:30 21.09.2022
1720 Clear 14 1025 52 10000 1.34 128 17:46 21.09.2022
1721 Clear 15 1025 50 10000 0.89 57 16:22 21.09.2022
1722 Clear 15 1026 57 10000 0.45 113 13:57 21.09.2022
1723 Clear 13 1027 63 10000 0.89 114 12:19 21.09.2022
1724 Clear 12 1025 63 10000 2.66 85 11:28 21.09.2022
1725 Clear 9 1026 87 10000 2.16 92 09:47 21.09.2022
1726 Clear 6 1026 91 10000 0.45 205 08:53 21.09.2022
1727 Clouds 3 1026 90 10000 0.68 146 06:22 21.09.2022
1728 Clouds 4 1026 89 10000 1 184 02:45 21.09.2022
1729 Clouds 4 1026 92 10000 0.6 117 02:23 21.09.2022
1730 Clouds 7 1026 91 10000 0.44 127 00:34 21.09.2022
1731 Clouds 9 1025 86 10000 0.58 15 22:41 20.09.2022
1732 Clouds 10 1023 75 10000 1.34 254 20:45 20.09.2022
1733 Clouds 11 1022 69 10000 0.45 320 19:32 20.09.2022
1734 Clouds 13 1021 63 10000 3.58 278 16:25 20.09.2022
1735 Clouds 13 1022 63 10000 1.79 327 14:45 20.09.2022
1736 Clouds 11 1022 76 10000 1.79 284 13:22 20.09.2022
1737 Clouds 9 1023 87 10000 1.34 254 09:34 20.09.2022
1738 Clouds 8 1021 92 10000 0.89 232 08:26 20.09.2022
1739 Clouds 8 1022 88 10000 1.34 254 04:50 20.09.2022
1740 Rain 8 1021 91 10000 0.45 266 03:48 20.09.2022
1741 Clouds 9 1022 83 10000 1.34 254 22:55 19.09.2022
1742 Clouds 9 1022 80 10000 0.89 252 21:46 19.09.2022
1743 Clouds 10 1021 79 10000 2.48 255 20:51 19.09.2022
1744 Clouds 10 1022 76 10000 0.45 287 20:30 19.09.2022
1745 Clouds 13 1021 67 10000 3.13 288 17:45 19.09.2022
1746 Clouds 12 1021 70 10000 1.79 297 15:34 19.09.2022
1747 Clouds 11 1021 74 10000 3.13 260 13:32 19.09.2022
1748 Clouds 9 1021 84 10000 1.79 217 11:25 19.09.2022
1749 Clouds 7 1019 90 10000 2.24 258 08:51 19.09.2022
1750 Clouds 6 1018 92 10000 1.79 257 07:25 19.09.2022
1751 Rain 9 1015 88 10000 3.58 274 01:55 19.09.2022
1752 Rain 10 1016 77 10000 2.68 219 23:22 18.09.2022
1753 Rain 10 1016 81 10000 1.34 277 21:44 18.09.2022
1754 Rain 10 1016 83 10000 0.89 287 20:29 18.09.2022
1755 Rain 11 1016 79 10000 3.13 232 18:33 18.09.2022
1756 Rain 11 1017 78 10000 0.89 275 17:39 18.09.2022
1757 Clouds 10 1018 86 10000 1.34 302 15:46 18.09.2022
1758 Clouds 10 1017 85 10000 1.34 260 13:51 18.09.2022
1759 Rain 10 1018 85 10000 2.24 276 12:35 18.09.2022
1760 Rain 9 1018 89 10000 3.13 278 11:24 18.09.2022
1761 Clouds 7 1018 91 10000 2.68 264 05:24 18.09.2022
1762 Clouds 7 1017 92 10000 1.34 298 01:27 18.09.2022
1763 Rain 7 1017 91 10000 3.13 329 00:27 18.09.2022
1764 Clouds 8 1017 87 10000 2.68 280 21:54 17.09.2022
1765 Clouds 8 1016 85 10000 2.68 253 20:29 17.09.2022
1766 Clouds 9 1015 83 10000 3.58 267 19:19 17.09.2022
1767 Clouds 11 1014 82 10000 4.02 276 16:57 17.09.2022
1768 Clouds 9 1015 87 10000 3.13 273 13:59 17.09.2022
1769 Rain 10 1015 82 10000 4.47 334 12:29 17.09.2022
1770 Clouds 10 1014 80 10000 4.47 288 10:47 17.09.2022
1771 Clouds 9 1012 91 10000 2.24 271 06:29 17.09.2022
1772 Clouds 9 1013 92 10000 0.89 278 03:34 17.09.2022
1773 Clouds 10 1013 91 10000 1.34 297 23:23 16.09.2022
1774 Clouds 10 1012 92 10000 1.34 219 21:46 16.09.2022
1775 Clouds 11 1012 92 10000 1.34 262 20:41 16.09.2022
1776 Clouds 11 1012 92 10000 0.89 217 18:28 16.09.2022
1777 Clouds 11 1012 91 10000 1.34 302 16:18 16.09.2022
1778 Clouds 11 1011 92 10000 0.89 347 14:40 16.09.2022
1779 Rain 14 1012 90 10000 2.68 306 12:35 16.09.2022
1780 Rain 13 1011 89 10000 0.45 265 09:37 16.09.2022
1781 Clouds 12 1011 92 10000 0.45 282 07:22 16.09.2022
1782 Clouds 12 1011 93 10000 0.89 279 06:47 16.09.2022
1783 Clouds 12 1011 93 10000 2.64 252 05:19 16.09.2022
1784 Clouds 13 1012 92 10000 0.45 43 01:30 16.09.2022
1785 Clouds 13 1011 91 10000 1.34 301 21:24 15.09.2022
1786 Clouds 14 1011 90 10000 0.45 275 20:28 15.09.2022
1787 Rain 15 1009 90 10000 2.68 360 18:54 15.09.2022
1788 Rain 16 1007 87 10000 0.89 311 17:38 15.09.2022
1789 Rain 17 1008 85 10000 3.87 279 17:18 15.09.2022
1790 Clouds 20 1008 71 10000 4.92 240 15:22 15.09.2022
1791 Clouds 21 1008 66 10000 4.02 266 12:49 15.09.2022
1792 Clouds 20 1008 72 10000 2.24 242 11:47 15.09.2022
1793 Clouds 17 1008 84 10000 1.34 251 09:43 15.09.2022
1794 Clouds 17 1008 81 10000 2.68 280 05:22 15.09.2022
1795 Rain 17 1008 87 10000 2.24 335 02:58 15.09.2022
1796 Clouds 18 1008 84 10000 5.35 215 22:51 14.09.2022
1797 Clouds 18 1008 86 10000 2.24 211 20:24 14.09.2022
1798 Clouds 18 1006 88 10000 1.34 184 19:32 14.09.2022
1799 Clouds 23 1007 69 4604 5.14 242 17:35 14.09.2022
1800 Clouds 24 1007 67 10000 5.75 261 16:36 14.09.2022
1801 Clouds 26 1007 58 10000 4.02 265 14:50 14.09.2022
1802 Clouds 25 1009 63 10000 3.58 302 12:34 14.09.2022
1803 Clouds 19 1008 83 10000 0.89 229 09:51 14.09.2022
1804 Rain 18 1008 85 10000 2.62 204 08:21 14.09.2022
1805 Rain 17 1009 86 10000 0.45 284 06:49 14.09.2022
1806 Clouds 16 1009 88 10000 0.89 226 06:25 14.09.2022
1807 Clouds 16 1010 89 10000 1.47 159 02:25 14.09.2022
1808 Clouds 16 1011 88 10000 1.25 156 01:32 14.09.2022
1809 Clouds 16 1011 88 10000 1.25 157 00:52 14.09.2022
1810 Clouds 16 1013 87 10000 1.34 168 23:54 13.09.2022
1811 Clouds 16 1011 87 10000 1.34 168 23:36 13.09.2022
1812 Clouds 17 1010 85 10000 1.76 133 23:18 13.09.2022
1813 Clouds 18 1011 79 10000 1.52 129 22:26 13.09.2022
1814 Clouds 18 1011 80 10000 1.53 129 21:35 13.09.2022
1815 Clouds 23 1013 62 10000 0.25 31 18:54 13.09.2022
1816 Clouds 27 1012 45 10000 1.79 316 16:34 13.09.2022
1817 Clouds 27 1013 43 10000 1.34 288 15:18 13.09.2022
1818 Clouds 25 1013 47 10000 0.89 315 13:37 13.09.2022
1819 Clouds 19 1014 67 10000 0.45 140 10:20 13.09.2022
1820 Clouds 11 1014 87 10000 0.45 165 07:54 13.09.2022
1821 Clouds 10 1015 91 10000 0.45 114 02:22 13.09.2022
1822 Clouds 12 1016 89 10000 1.93 159 23:22 12.09.2022
1823 Clouds 12 1016 88 10000 1.94 159 22:40 12.09.2022
1824 Clouds 14 1016 84 10000 1.77 112 21:21 12.09.2022
1825 Clouds 17 1016 74 10000 2 97 19:58 12.09.2022
1826 Clouds 21 1015 56 10000 0.89 56 18:22 12.09.2022
1827 Clouds 23 1017 52 10000 0.89 124 15:50 12.09.2022
1828 Clear 19 1016 62 10000 1.74 82 12:30 12.09.2022
1829 Clear 15 1018 81 10000 1 105 10:30 12.09.2022
1830 Clear 8 1019 95 10000 0.98 175 07:40 12.09.2022
1831 Clear 9 1019 94 10000 1.41 188 04:36 12.09.2022
1832 Clear 10 1020 94 10000 1.54 201 02:24 12.09.2022
1833 Clear 12 1021 92 10000 1.65 204 22:46 11.09.2022
1834 Clear 13 1021 91 10000 0.45 191 21:30 11.09.2022
1835 Clear 14 1021 89 10000 1.34 226 20:44 11.09.2022
1836 Clouds 15 1020 88 10000 1.37 236 19:39 11.09.2022
1837 Clouds 16 1020 85 10000 1.29 259 19:19 11.09.2022
1838 Clouds 17 1021 84 10000 0.89 274 17:29 11.09.2022
1839 Clouds 17 1021 87 10000 0.89 270 15:51 11.09.2022
1840 Rain 16 1021 86 10000 2.68 325 13:52 11.09.2022
1841 Rain 15 1020 88 10000 2.68 275 11:35 11.09.2022
1842 Clouds 13 1019 90 10000 1.34 274 08:25 11.09.2022
1843 Clouds 13 1018 90 10000 3.13 274 05:49 11.09.2022
1844 Rain 13 1019 91 10000 1.34 300 00:34 11.09.2022
1845 Rain 13 1019 88 10000 4.47 269 22:23 10.09.2022
1846 Clouds 13 1018 88 10000 0.45 228 20:35 10.09.2022
1847 Clouds 14 1017 88 10000 3.17 259 19:45 10.09.2022
1848 Clouds 14 1018 87 10000 3.25 260 19:27 10.09.2022
1849 Rain 16 1018 75 10000 4.92 307 17:53 10.09.2022
1850 Clouds 18 1018 67 10000 1.34 266 15:44 10.09.2022
1851 Clouds 17 1018 74 10000 1.34 207 14:34 10.09.2022
1852 Clouds 15 1018 84 10000 2.24 225 12:52 10.09.2022
1853 Clouds 14 1018 91 10000 0.45 216 10:35 10.09.2022
1854 Rain 13 1018 88 10000 0.89 301 08:42 10.09.2022
1855 Rain 12 1017 88 10000 0.89 221 08:23 10.09.2022
1856 Clouds 11 1017 90 10000 2.99 228 05:25 10.09.2022
1857 Rain 13 1018 86 10000 2.68 292 23:56 09.09.2022
1858 Clouds 13 1017 86 10000 1.34 220 23:29 09.09.2022
1859 Clouds 14 1016 83 10000 0.45 276 21:24 09.09.2022
1860 Clouds 15 1016 79 10000 0.45 287 20:31 09.09.2022
1861 Clouds 17 1015 73 10000 2.24 279 19:24 09.09.2022
1862 Rain 17 1014 75 10000 1.79 159 18:38 09.09.2022
1863 Clouds 18 1016 76 10000 1.34 185 16:21 09.09.2022
1864 Clouds 17 1016 80 10000 2.24 202 13:48 09.09.2022
1865 Clouds 16 1016 84 10000 0.45 157 11:58 09.09.2022
1866 Clouds 15 1015 87 10000 0.89 296 09:22 09.09.2022
1867 Clouds 13 1015 88 10000 0.45 154 04:29 09.09.2022
1868 Clouds 13 1017 88 10000 2.02 206 02:54 09.09.2022
1869 Clouds 15 1015 81 10000 2.27 234 21:52 08.09.2022
1870 Clouds 16 1015 77 10000 2.61 222 20:51 08.09.2022
1871 Clouds 17 1014 73 10000 0.45 286 20:31 08.09.2022
1872 Clouds 18 1014 72 10000 2.65 211 19:49 08.09.2022
1873 Clouds 22 1014 53 10000 1.79 208 17:48 08.09.2022
1874 Clouds 21 1014 68 10000 3.06 230 16:19 08.09.2022
1875 Rain 18 1014 74 10000 2.24 289 14:40 08.09.2022
1876 Rain 18 1014 74 10000 1.34 285 13:26 08.09.2022
1877 Rain 16 1014 89 10000 2.24 207 11:39 08.09.2022
1878 Rain 15 1014 91 10000 1.34 271 10:52 08.09.2022
1879 Clouds 16 1013 85 4250 2.68 241 08:21 08.09.2022
1880 Clouds 15 1012 90 10000 1.34 278 06:41 08.09.2022
1881 Rain 17 1013 85 10000 1.34 281 02:36 08.09.2022
1882 Clouds 18 1013 83 10000 2.24 292 02:18 08.09.2022
1883 Clouds 18 1011 84 10000 0.45 300 00:56 08.09.2022
1884 Clouds 19 1013 82 10000 2.5 108 22:44 07.09.2022
1885 Clouds 19 1014 77 10000 2.22 107 21:42 07.09.2022
1886 Clouds 21 1014 74 10000 0.89 114 20:49 07.09.2022
1887 Clouds 23 1014 68 10000 1.42 103 19:42 07.09.2022
1888 Clouds 26 1014 55 10000 0.32 27 18:27 07.09.2022
1889 Clouds 26 1016 58 10000 2.24 229 14:26 07.09.2022
1890 Clouds 21 1018 70 10000 0.45 247 10:49 07.09.2022
1891 Clouds 20 1018 79 10000 1.9 247 09:39 07.09.2022
1892 Clouds 16 1017 91 10000 1.98 214 07:23 07.09.2022
1893 Clouds 16 1017 90 10000 1.53 210 03:33 07.09.2022
1894 Clouds 17 1017 87 10000 1.16 147 23:48 06.09.2022
1895 Clouds 20 1018 82 10000 0.72 142 21:43 06.09.2022
1896 Clouds 20 1018 82 10000 0.45 191 21:21 06.09.2022
1897 Clouds 25 1017 67 10000 1.08 5 18:49 06.09.2022
1898 Clouds 26 1018 63 10000 1.34 344 18:23 06.09.2022
1899 Clouds 26 1018 59 10000 0.89 268 17:23 06.09.2022
1900 Clouds 27 1018 55 10000 1.34 268 16:38 06.09.2022
1901 Clouds 27 1019 56 10000 1.34 313 15:23 06.09.2022
1902 Clouds 26 1019 56 10000 2.68 299 13:45 06.09.2022
1903 Clouds 25 1020 58 10000 1.34 219 13:25 06.09.2022
1904 Clouds 23 1020 65 10000 1.79 224 12:31 06.09.2022
1905 Clouds 20 1019 74 10000 0.45 215 10:45 06.09.2022
1906 Clouds 16 1021 89 10000 2.6 221 08:53 06.09.2022
1907 Clouds 14 1024 88 10000 1.97 240 07:49 06.09.2022
1908 Clear 14 1020 91 10000 1.53 180 03:41 06.09.2022
1909 Clear 16 1020 86 10000 1.46 165 23:42 05.09.2022
1910 Clear 17 1020 84 10000 1.71 150 22:30 05.09.2022
1911 Clear 19 1019 77 10000 1.92 115 20:52 05.09.2022
1912 Clear 22 1020 63 10000 1.9 99 19:50 05.09.2022
1913 Clear 25 1021 58 10000 1.9 77 18:49 05.09.2022
1914 Clear 25 1021 56 10000 1.74 57 18:22 05.09.2022
1915 Clear 27 1021 50 10000 1.44 50 17:30 05.09.2022
1916 Clouds 27 1021 47 10000 1.34 305 15:52 05.09.2022
1917 Clouds 25 1022 58 10000 0.89 94 13:27 05.09.2022
1918 Clouds 24 1023 62 10000 0.89 94 12:29 05.09.2022
1919 Clouds 19 1022 76 10000 1.85 107 10:30 05.09.2022
1920 Clouds 12 1026 94 10000 1.48 131 07:43 05.09.2022
1921 Clouds 12 1022 91 10000 1.46 147 02:50 05.09.2022
1922 Clear 14 1022 90 10000 1.44 158 23:48 04.09.2022
1923 Clear 15 1022 87 10000 0.95 130 22:28 04.09.2022
1924 Clear 16 1022 84 10000 0.95 130 21:41 04.09.2022
1925 Clouds 22 1023 65 10000 0.69 72 19:39 04.09.2022
1926 Clouds 24 1020 53 10000 0.45 330 18:21 04.09.2022
1927 Clouds 24 1021 52 10000 1.34 289 17:24 04.09.2022
1928 Clouds 24 1022 58 10000 0.45 315 14:59 04.09.2022
1929 Clear 24 1021 60 10000 1.34 313 14:22 04.09.2022
1930 Clear 23 1021 65 10000 1.34 240 12:24 04.09.2022
1931 Clear 20 1022 78 10000 0.24 221 10:58 04.09.2022
1932 Clear 16 1021 90 10000 1.19 217 09:23 04.09.2022
1933 Clear 12 1019 94 10000 0.45 229 06:27 04.09.2022
1934 Clouds 12 1018 94 10000 2.17 225 02:31 04.09.2022
1935 Clouds 13 1018 92 10000 2.95 203 22:26 03.09.2022
1936 Clouds 14 1017 91 10000 2.66 221 21:25 03.09.2022
1937 Clouds 15 1017 91 10000 1.34 120 20:51 03.09.2022
1938 Rain 16 1013 58 10000 0.44 44 17:37 03.09.2022
1939 Rain 16 1013 58 10000 0.44 44 17:37 03.09.2022
1940 Rain 22 1012 68 10000 1.84 31 16:52 03.09.2022
1941 Clouds 25 1015 54 10000 0.89 350 14:52 03.09.2022
1942 Clouds 24 1015 58 10000 0.45 101 14:30 03.09.2022
1943 Clouds 22 1015 63 10000 0.89 133 13:44 03.09.2022
1944 Clouds 19 1014 76 10000 0.86 107 11:32 03.09.2022
1945 Rain 14 1018 85 10000 0.45 314 09:22 03.09.2022
1946 Clouds 11 1016 88 10000 1.34 297 07:45 03.09.2022
1947 Clouds 11 1015 86 10000 1.63 134 04:50 03.09.2022
1948 Clouds 12 1015 86 10000 1.35 136 02:35 03.09.2022
1949 Clouds 13 1015 81 10000 2.07 101 23:42 02.09.2022
1950 Clouds 15 1017 72 10000 0.45 102 21:57 02.09.2022
1951 Clouds 17 1019 64 10000 3.32 87 20:42 02.09.2022
1952 Clouds 19 1015 57 10000 3.32 87 19:47 02.09.2022
1953 Clear 20 1019 55 10000 0.89 119 18:50 02.09.2022
1954 Clear 21 1015 52 10000 2.24 87 18:25 02.09.2022
1955 Clear 21 1015 52 10000 1.79 140 17:24 02.09.2022
1956 Clear 22 1016 50 10000 0.89 71 16:31 02.09.2022
1957 Clouds 21 1017 52 10000 2.68 47 13:32 02.09.2022
1958 Clouds 16 1018 74 10000 1.34 90 10:43 02.09.2022
1959 Clouds 14 1018 85 10000 0.45 73 09:42 02.09.2022
1960 Clouds 11 1018 91 10000 1.34 103 08:46 02.09.2022
1961 Clouds 8 1018 92 10000 2.8 91 06:46 02.09.2022
1962 Clouds 8 1018 92 10000 2.75 89 06:21 02.09.2022
1963 Clouds 12 1019 83 10000 3.33 88 00:20 02.09.2022
1964 Clouds 14 1020 75 10000 3.67 84 22:21 01.09.2022
1965 Clouds 14 1020 75 10000 3.25 87 21:38 01.09.2022
1966 Clouds 15 1020 74 10000 3.26 87 21:19 01.09.2022
1967 Clouds 17 1019 65 10000 0.89 91 20:26 01.09.2022
1968 Clouds 19 1019 59 10000 0.89 96 18:34 01.09.2022
1969 Clouds 20 1019 60 10000 2.24 28 16:55 01.09.2022
1970 Clouds 20 1020 60 10000 1.79 28 15:26 01.09.2022
1971 Clouds 20 1020 68 10000 1.79 45 13:33 01.09.2022
1972 Clouds 19 1020 70 10000 1.79 62 12:56 01.09.2022
1973 Clouds 17 1020 78 10000 3.13 101 11:51 01.09.2022
1974 Clouds 17 1021 79 10000 1.34 119 11:22 01.09.2022
1975 Clouds 14 1020 92 10000 2.24 92 09:32 01.09.2022
1976 Clouds 13 1020 94 10000 0.89 114 07:50 01.09.2022
1977 Clouds 13 1020 94 10000 2.99 87 05:56 01.09.2022
1978 Clouds 14 1020 94 10000 0.45 139 01:31 01.09.2022
1979 Clouds 15 1021 93 10000 1.34 131 22:56 31.08.2022
1980 Rain 15 1021 92 10000 1.97 82 20:48 31.08.2022
1981 Clouds 15 1020 92 10000 1.34 90 19:23 31.08.2022
1982 Rain 16 1020 92 10000 0.45 89 16:49 31.08.2022
1983 Rain 16 1020 93 10000 0.68 329 15:39 31.08.2022
1984 Rain 16 1020 90 7718 1.34 197 13:38 31.08.2022
1985 Rain 16 1020 90 7718 1.34 197 13:38 31.08.2022
1986 Rain 18 1023 78 9408 0.98 35 12:18 31.08.2022
1987 Rain 17 1019 89 10000 0.45 26 09:39 31.08.2022
1988 Clouds 15 1018 91 10000 0.63 341 08:32 31.08.2022
1989 Clouds 15 1018 89 10000 1.26 48 03:41 31.08.2022
1990 Clouds 17 1018 81 10000 1.88 78 22:42 30.08.2022
1991 Clouds 19 1018 75 10000 2.33 78 21:31 30.08.2022
1992 Clouds 21 1018 69 10000 2.3 68 20:38 30.08.2022
1993 Clouds 26 1018 50 10000 0.89 133 17:25 30.08.2022
1994 Clouds 27 1020 51 10000 0.89 164 14:19 30.08.2022
1995 Clouds 25 1020 56 10000 0.45 101 12:25 30.08.2022
1996 Clouds 23 1019 66 10000 0.45 103 11:20 30.08.2022
1997 Clouds 21 1021 74 10000 2.17 107 10:20 30.08.2022
1998 Clear 13 1020 93 10000 1.38 142 06:49 30.08.2022
1999 Clouds 14 1020 91 10000 0.46 110 01:44 30.08.2022
2000 Clouds 16 1020 88 10000 1.06 118 22:47 29.08.2022
2001 Clouds 17 1020 88 10000 1.33 107 22:18 29.08.2022
2002 Clouds 18 1020 83 10000 1.51 80 21:23 29.08.2022
2003 Clouds 22 1018 67 10000 1.67 55 19:42 29.08.2022
2004 Clouds 24 1019 61 10000 1.34 25 17:43 29.08.2022
2005 Clouds 25 1019 60 10000 0.89 104 17:24 29.08.2022
2006 Clouds 25 1020 62 10000 2.27 22 15:42 29.08.2022
2007 Clouds 25 1019 58 10000 0.89 342 14:43 29.08.2022
2008 Clouds 23 1021 66 10000 0.45 97 12:42 29.08.2022
2009 Clouds 21 1020 80 10000 1.78 69 10:51 29.08.2022
2010 Clouds 18 1020 89 10000 0.45 33 09:41 29.08.2022
2011 Clouds 14 1020 95 10000 0.41 111 08:27 29.08.2022
2012 Clouds 14 1020 94 10000 0.7 185 02:48 29.08.2022
2013 Clear 16 1020 92 10000 0.76 197 23:52 28.08.2022
2014 Clouds 17 1019 91 10000 0.33 209 22:36 28.08.2022
2015 Clouds 17 1019 90 10000 0.35 210 21:40 28.08.2022
2016 Clouds 18 1019 90 10000 0.21 135 20:43 28.08.2022
2017 Clouds 20 1018 84 10000 0.95 56 19:20 28.08.2022
2018 Clouds 20 1018 84 10000 0.45 1 18:20 28.08.2022
2019 Clouds 20 1018 88 10000 2.24 307 16:57 28.08.2022
2020 Rain 20 1018 90 10000 1.36 55 15:55 28.08.2022
2021 Rain 19 1018 92 10000 0.89 295 14:36 28.08.2022
2022 Rain 18 1018 95 10000 0.45 301 12:32 28.08.2022
2023 Rain 18 1017 94 10000 0.45 328 10:42 28.08.2022
2024 Rain 17 1017 94 10000 1.12 307 09:42 28.08.2022
2025 Clouds 17 1017 94 10000 0.83 311 08:37 28.08.2022
2026 Clouds 17 1017 95 10000 0.83 312 07:42 28.08.2022
2027 Rain 16 1016 93 10000 0.9 317 02:39 28.08.2022
2028 Rain 17 1016 91 10000 0.45 292 00:26 28.08.2022
2029 Rain 18 1016 88 8818 0.89 174 22:36 27.08.2022
2030 Rain 19 1016 85 10000 0.45 315 21:31 27.08.2022
2031 Clouds 21 1013 77 10000 1.34 327 19:44 27.08.2022
2032 Clouds 24 1014 63 10000 0.89 290 17:29 27.08.2022
2033 Clouds 24 1012 66 10000 0.89 305 15:53 27.08.2022
2034 Clouds 23 1016 69 10000 0.45 287 15:24 27.08.2022
2035 Clouds 21 1015 75 10000 0.89 319 12:28 27.08.2022
2036 Clouds 20 1017 80 10000 1.34 291 11:31 27.08.2022
2037 Clouds 18 1017 90 10000 2.21 266 09:49 27.08.2022
2038 Clouds 17 1015 93 10000 2.36 250 07:54 27.08.2022
2039 Clouds 16 1015 92 10000 0.89 209 02:52 27.08.2022
2040 Clouds 17 1015 90 10000 3.08 268 23:57 26.08.2022
2041 Rain 17 1013 88 10000 0.45 179 22:40 26.08.2022
2042 Rain 19 1010 81 10000 1.79 67 21:30 26.08.2022
2043 Clouds 25 1011 71 10000 1.38 214 19:23 26.08.2022
2044 Clouds 28 1013 55 10000 2.29 324 16:50 26.08.2022
2045 Clouds 28 1015 52 10000 3.13 300 15:31 26.08.2022
2046 Clouds 28 1013 49 10000 1.34 254 14:34 26.08.2022
2047 Clouds 26 1014 55 10000 1.34 305 12:53 26.08.2022
2048 Clouds 25 1015 62 10000 1.79 263 11:35 26.08.2022
2049 Clouds 22 1013 69 10000 0.45 340 10:46 26.08.2022
2050 Clouds 15 1015 92 10000 1.28 216 07:31 26.08.2022
2051 Clouds 17 1015 90 10000 1.66 198 02:31 26.08.2022
2052 Clouds 20 1014 81 10000 1.6 150 23:44 25.08.2022
2053 Clouds 21 1015 70 10000 1.92 110 21:40 25.08.2022
2054 Clouds 23 1015 79 10000 1.99 94 20:51 25.08.2022
2055 Clouds 26 1015 61 10000 1.34 120 19:24 25.08.2022
2056 Clouds 27 1014 58 10000 0.89 59 18:18 25.08.2022
2057 Clouds 27 1016 59 10000 2.97 70 17:31 25.08.2022
2058 Clouds 28 1016 53 10000 1.79 47 16:25 25.08.2022
2059 Clouds 28 1016 55 10000 1.34 348 15:27 25.08.2022
2060 Clear 26 1017 59 10000 1.34 109 12:47 25.08.2022
2061 Clear 22 1018 69 10000 0.89 134 10:49 25.08.2022
2062 Clear 20 1018 77 10000 0.45 129 09:21 25.08.2022
2063 Clear 13 1018 93 10000 1.58 101 06:31 25.08.2022
2064 Clear 15 1019 91 10000 1.95 98 01:57 25.08.2022
2065 Clouds 17 1020 79 10000 2.21 104 23:28 24.08.2022
2066 Clouds 19 1020 77 10000 2.2 104 22:43 24.08.2022
2067 Clouds 19 1024 72 10000 2.12 89 21:37 24.08.2022
2068 Clouds 20 1024 71 10000 2.11 76 21:19 24.08.2022
2069 Clouds 24 1018 61 10000 2.19 65 19:34 24.08.2022
2070 Clouds 25 1019 55 10000 1.34 76 16:50 24.08.2022
2071 Clouds 26 1020 54 10000 0.45 62 15:52 24.08.2022
2072 Clear 25 1020 50 10000 1.34 128 13:49 24.08.2022
2073 Clear 24 1020 51 10000 0.89 149 12:28 24.08.2022
2074 Clear 22 1019 52 10000 2.17 71 11:18 24.08.2022
2075 Clear 15 1020 75 10000 0.45 161 08:38 24.08.2022
2076 Clouds 10 1020 90 10000 1.17 179 05:26 24.08.2022
2077 Clouds 13 1020 80 10000 1.09 192 00:41 24.08.2022
2078 Clouds 15 1020 77 10000 1.41 187 22:35 23.08.2022
2079 Clouds 16 1020 74 10000 1.37 165 21:55 23.08.2022
2080 Clear 18 1019 65 10000 1.28 120 20:43 23.08.2022
2081 Clear 24 1017 55 10000 1.89 60 18:58 23.08.2022
2082 Clear 25 1018 40 10000 0.89 282 17:56 23.08.2022
2083 Clear 25 1018 40 10000 2.38 26 17:22 23.08.2022
2084 Clear 26 1018 40 10000 2.24 292 15:54 23.08.2022
2085 Clouds 25 1019 40 10000 0.45 327 14:30 23.08.2022
2086 Clouds 23 1019 45 10000 1.82 13 12:46 23.08.2022
2087 Clouds 21 1019 54 10000 0.45 121 10:57 23.08.2022
2088 Clouds 20 1019 59 10000 1.79 118 10:33 23.08.2022
2089 Clouds 17 1019 75 10000 0.45 139 09:32 23.08.2022
2090 Clouds 15 1019 78 10000 0.89 134 08:46 23.08.2022
2091 Clear 12 1019 87 10000 0.45 134 08:19 23.08.2022
2092 Clear 10 1018 87 10000 0.97 208 07:31 23.08.2022
2093 Clear 9 1018 92 10000 1.11 191 06:23 23.08.2022
2094 Clear 11 1017 85 10000 1.8 143 01:49 23.08.2022
2095 Clear 12 1017 85 10000 2.34 124 00:27 23.08.2022
2096 Clear 13 1017 81 10000 2.34 124 23:32 22.08.2022
2097 Clear 15 1017 74 10000 2.32 106 22:25 22.08.2022
2098 Clear 19 1021 57 10000 2.32 84 20:44 22.08.2022
2099 Clear 21 1016 53 10000 2.61 61 19:44 22.08.2022
2100 Clear 23 1016 48 10000 0.89 282 18:37 22.08.2022
2101 Clear 24 1016 42 10000 0.45 134 15:55 22.08.2022
2102 Clear 25 1016 44 10000 1.34 52 15:22 22.08.2022
2103 Clouds 23 1016 50 10000 0.45 314 12:53 22.08.2022
2104 Clouds 17 1017 82 10000 0.45 123 09:27 22.08.2022
2105 Clear 12 1016 91 10000 0.3 129 07:20 22.08.2022
2106 Clear 12 1016 89 10000 1.37 232 02:42 22.08.2022
2107 Clear 13 1016 88 10000 1.59 220 00:37 22.08.2022
2108 Clear 14 1016 87 10000 1.73 208 23:43 21.08.2022
2109 Clear 16 1017 79 10000 0.33 253 21:57 21.08.2022
2110 Clear 17 1016 75 10000 0.47 353 21:21 21.08.2022
2111 Clouds 20 1016 67 10000 1.22 3 20:26 21.08.2022
2112 Clouds 23 1012 53 10000 1.84 352 19:18 21.08.2022
2113 Clouds 24 1016 52 10000 1.79 301 16:52 21.08.2022
2114 Clouds 24 1017 55 10000 0.45 288 15:53 21.08.2022
2115 Clear 24 1017 57 10000 0.45 269 15:18 21.08.2022
2116 Clouds 23 1017 60 10000 0.45 303 13:51 21.08.2022
2117 Clouds 23 1018 65 10000 2.03 335 12:57 21.08.2022
2118 Clouds 23 1018 65 10000 2.03 335 12:57 21.08.2022
2119 Clouds 21 1018 72 10000 1.34 317 10:49 21.08.2022
2120 Clouds 18 1018 85 10000 0.89 254 09:24 21.08.2022
2121 Clouds 17 1018 86 10000 0.89 307 08:56 21.08.2022
2122 Clouds 16 1018 90 10000 2.3 270 08:38 21.08.2022
2123 Clouds 14 1018 94 10000 0.45 222 07:26 21.08.2022
2124 Clouds 15 1018 93 10000 2.83 238 03:24 21.08.2022
2125 Clouds 16 1019 93 10000 0.45 212 23:45 20.08.2022
2126 Clouds 17 1019 93 10000 1.64 206 22:23 20.08.2022
2127 Rain 17 1019 94 8308 0.52 263 21:26 20.08.2022
2128 Rain 17 1019 92 9395 2.41 296 19:58 20.08.2022
2129 Rain 17 1019 92 9493 2.4 296 19:40 20.08.2022
2130 Rain 17 1019 90 10000 2.22 275 18:27 20.08.2022
2131 Rain 18 1018 87 10000 0.45 281 17:40 20.08.2022
2132 Rain 19 1018 88 10000 0.45 293 16:40 20.08.2022
2133 Rain 20 1018 87 10000 1.87 265 15:23 20.08.2022
2134 Rain 19 1018 89 7370 0.45 280 12:52 20.08.2022
2135 Rain 18 1019 91 8444 0.45 269 11:47 20.08.2022
2136 Rain 17 1018 94 10000 1.34 275 09:33 20.08.2022
2137 Clouds 17 1017 95 10000 0.45 277 08:29 20.08.2022
2138 Rain 16 1017 95 10000 1.34 278 05:51 20.08.2022
2139 Clouds 17 1016 92 10000 3.58 275 00:58 20.08.2022
2140 Clouds 17 1016 92 10000 3.58 275 00:58 20.08.2022
2141 Clouds 17 1017 91 9235 0.89 280 00:30 20.08.2022
2142 Clouds 17 1017 91 5569 1.34 213 22:53 19.08.2022
2143 Clouds 17 1016 92 10000 0.89 273 21:38 19.08.2022
2144 Clouds 18 1015 90 2848 0.89 235 19:54 19.08.2022
2145 Clouds 20 1013 87 10000 4.46 234 16:47 19.08.2022
2146 Clouds 20 1013 85 10000 0.89 300 14:54 19.08.2022
2147 Rain 19 1013 91 10000 1.34 229 12:49 19.08.2022
2148 Clouds 18 1013 91 10000 2.49 286 10:52 19.08.2022
2149 Clouds 18 1012 91 10000 2.57 272 10:19 19.08.2022
2150 Clouds 17 1012 89 10000 2.59 243 05:58 19.08.2022
2151 Clouds 18 1012 90 10000 1.34 311 00:48 19.08.2022
2152 Clouds 18 1013 90 10000 2.24 271 00:26 19.08.2022
2153 Clouds 18 1013 89 10000 0.45 290 23:37 18.08.2022
2154 Rain 18 1012 86 10000 1.34 264 22:38 18.08.2022
2155 Clouds 19 1012 85 10000 1.34 287 21:55 18.08.2022
2156 Clouds 18 1012 85 10000 1.34 183 21:26 18.08.2022
2157 Rain 20 1011 82 10000 2.68 266 19:56 18.08.2022
2158 Rain 23 1008 71 10000 4.92 284 19:26 18.08.2022
2159 Rain 25 1010 59 10000 0.45 336 17:50 18.08.2022
2160 Rain 25 1010 61 10000 1.34 39 16:55 18.08.2022
2161 Clouds 26 1011 59 10000 1.34 110 14:44 18.08.2022
2162 Clouds 25 1007 60 10000 1.34 47 14:19 18.08.2022
2163 Clouds 24 1008 61 10000 0.45 326 12:55 18.08.2022
2164 Clouds 23 1013 67 10000 1.34 55 11:34 18.08.2022
2165 Clouds 19 1013 83 10000 0.89 319 09:43 18.08.2022
2166 Clouds 18 1013 82 10000 0.45 279 08:39 18.08.2022
2167 Clouds 16 1013 89 10000 2.53 262 07:19 18.08.2022
2168 Clouds 18 1014 85 10000 0.89 140 03:57 18.08.2022
2169 Rain 21 1011 64 10000 2.29 305 23:34 17.08.2022
2170 Clouds 23 1010 62 10000 0.82 255 21:46 17.08.2022
2171 Clouds 26 1009 49 10000 1.68 121 20:19 17.08.2022
2172 Clouds 28 1008 45 10000 1.83 94 19:28 17.08.2022
2173 Clouds 31 1011 36 10000 1.34 286 17:36 17.08.2022
2174 Clouds 31 1011 38 10000 1.34 326 16:35 17.08.2022
2175 Clouds 31 1012 39 10000 1.34 262 15:26 17.08.2022
2176 Clouds 30 1012 42 10000 1.34 265 13:30 17.08.2022
2177 Clouds 28 1012 47 10000 0.89 236 11:38 17.08.2022
2178 Clear 22 1012 63 10000 0.89 113 09:31 17.08.2022
2179 Clouds 18 1012 74 10000 0.74 153 08:24 17.08.2022
2180 Clear 14 1012 79 10000 0.81 159 03:36 17.08.2022
2181 Clear 17 1013 71 10000 1.45 165 00:24 17.08.2022
2182 Clear 19 1012 63 10000 1.61 166 22:41 16.08.2022
2183 Clear 23 1011 51 10000 1.65 156 20:58 16.08.2022
2184 Clear 26 1010 47 10000 1.87 146 19:54 16.08.2022
2185 Clear 28 1009 36 10000 0.45 286 18:44 16.08.2022
2186 Clear 29 1009 34 10000 0.89 202 17:53 16.08.2022
2187 Clear 29 1012 34 10000 1.79 329 15:59 16.08.2022
2188 Clear 28 1012 34 10000 0.45 120 14:55 16.08.2022
2189 Clear 28 1012 37 10000 0.89 125 14:37 16.08.2022
2190 Clear 28 1012 39 10000 1.34 225 13:54 16.08.2022
2191 Clear 25 1013 49 10000 1.34 121 11:39 16.08.2022
2192 Clear 21 1013 60 10000 0.45 225 09:58 16.08.2022
2193 Clear 19 1013 71 10000 1.34 107 08:48 16.08.2022
2194 Clouds 17 1013 82 10000 0.45 180 08:19 16.08.2022
2195 Clouds 15 1012 81 10000 1.93 230 05:18 16.08.2022
2196 Clouds 19 1012 67 10000 0.45 268 23:18 15.08.2022
2197 Clouds 19 1011 66 10000 1.34 240 22:18 15.08.2022
2198 Clouds 20 1007 62 10000 0.89 225 21:41 15.08.2022
2199 Clouds 23 1007 55 10000 5.45 211 20:31 15.08.2022
2200 Clouds 26 1003 42 10000 1.34 217 18:57 15.08.2022
2201 Clouds 27 1007 41 10000 0.45 338 17:59 15.08.2022
2202 Clouds 28 1007 43 10000 1.34 263 16:24 15.08.2022
2203 Clouds 26 1006 49 10000 2.95 260 15:26 15.08.2022
2204 Clouds 24 1009 55 10000 2.24 300 13:27 15.08.2022
2205 Clouds 21 1009 69 10000 2.24 220 10:37 15.08.2022
2206 Clouds 19 1009 73 10000 2.24 285 08:55 15.08.2022
2207 Clouds 19 1009 67 10000 3.15 251 06:51 15.08.2022
2208 Rain 18 1008 73 10000 4.06 235 04:32 15.08.2022
2209 Clouds 19 1009 68 10000 1.85 189 23:49 14.08.2022
2210 Clouds 20 1008 64 10000 1.72 150 22:28 14.08.2022
2211 Clouds 21 1008 57 10000 1.72 150 21:35 14.08.2022
2212 Clear 27 1006 62 10000 2.17 85 19:46 14.08.2022
2213 Clear 29 1008 35 10000 0.89 41 18:42 14.08.2022
2214 Clear 30 1006 31 10000 2.24 52 17:48 14.08.2022
2215 Clear 30 1012 30 10000 2.9 77 16:50 14.08.2022
2216 Clear 30 1005 29 10000 0.89 87 15:48 14.08.2022
2217 Clear 29 1006 30 10000 1.34 124 14:19 14.08.2022
2218 Clear 29 1010 33 10000 1.79 80 13:49 14.08.2022
2219 Clear 28 1010 35 10000 1.34 100 13:19 14.08.2022
2220 Clear 26 1012 42 10000 1.79 120 11:56 14.08.2022
2221 Clear 23 1011 48 10000 4.47 128 10:40 14.08.2022
2222 Clear 18 1013 64 10000 2.67 105 08:50 14.08.2022
2223 Clear 11 1013 86 10000 1.6 161 06:21 14.08.2022
2224 Clear 12 1015 80 10000 0.45 140 02:47 14.08.2022
2225 Clouds 15 1015 72 10000 1.58 190 23:53 13.08.2022
2226 Clouds 16 1016 67 10000 2.02 172 22:52 13.08.2022
2227 Clouds 20 1014 59 10000 1.96 164 20:58 13.08.2022
2228 Clouds 22 1014 55 10000 1.72 146 20:31 13.08.2022
2229 Clouds 24 1015 43 10000 1.62 134 19:29 13.08.2022
2230 Clouds 26 1016 38 10000 0.45 31 17:40 13.08.2022
2231 Clouds 25 1017 43 10000 2.24 113 15:26 13.08.2022
2232 Clouds 24 1017 47 10000 2.68 6 14:27 13.08.2022
2233 Clouds 25 1016 44 10000 0.89 110 13:39 13.08.2022
2234 Clouds 23 1017 47 10000 1.79 69 11:52 13.08.2022
2235 Clouds 21 1017 51 10000 1.34 123 10:31 13.08.2022
2236 Clouds 16 1017 68 10000 0.45 136 08:45 13.08.2022
2237 Clouds 10 1017 88 10000 1.08 128 05:34 13.08.2022
2238 Clouds 14 1018 74 10000 1.73 93 23:58 12.08.2022
2239 Clouds 18 1018 61 10000 2.22 80 22:20 12.08.2022
2240 Clouds 20 1017 59 10000 2.34 69 20:54 12.08.2022
2241 Clouds 20 1017 58 10000 2.78 79 19:42 12.08.2022
2242 Rain 23 1018 43 10000 3.58 60 18:52 12.08.2022
2243 Clouds 24 1018 39 10000 3.13 74 17:36 12.08.2022
2244 Clouds 24 1018 40 10000 1.34 11 16:24 12.08.2022
2245 Clear 24 1018 43 10000 1.34 84 14:44 12.08.2022
2246 Clear 23 1019 49 10000 0.89 355 12:57 12.08.2022
2247 Clear 22 1019 46 10000 1.79 60 11:19 12.08.2022
2248 Clear 17 1019 60 10000 0.89 122 08:47 12.08.2022
2249 Clear 11 1019 84 10000 2.09 85 07:26 12.08.2022
2250 Clear 11 1019 80 10000 1.97 91 03:35 12.08.2022
2251 Clouds 16 1020 63 10000 2.27 86 00:28 12.08.2022
2252 Clouds 16 1020 55 10000 2.26 86 23:40 11.08.2022
2253 Clouds 18 1024 58 10000 2.42 87 22:35 11.08.2022
2254 Clouds 20 1020 63 10000 2.72 87 21:43 11.08.2022
2255 Clouds 20 1019 59 10000 2.89 89 21:22 11.08.2022
2256 Clouds 22 1019 45 10000 2.84 79 20:29 11.08.2022
2257 Clouds 24 1019 43 10000 3.35 77 19:33 11.08.2022
2258 Clouds 25 1018 40 10000 3.35 77 18:39 11.08.2022
2259 Clouds 27 1020 39 10000 2.24 34 16:38 11.08.2022
2260 Clouds 27 1020 41 10000 0.89 78 15:37 11.08.2022
2261 Clouds 26 1021 44 10000 1.34 33 13:51 11.08.2022
2262 Clouds 23 1018 51 10000 0.89 116 11:51 11.08.2022
2263 Clouds 15 1022 76 10000 1.34 93 08:34 11.08.2022
2264 Clear 12 1022 82 10000 2.12 87 04:53 11.08.2022
2265 Clear 14 1022 69 10000 2.41 81 01:56 11.08.2022
2266 Clear 17 1022 69 10000 2.85 67 22:55 10.08.2022
2267 Clear 19 1022 67 10000 2.69 73 21:45 10.08.2022
2268 Clear 22 1022 65 10000 2.61 88 20:56 10.08.2022
2269 Clear 22 1021 43 10000 3.24 96 20:24 10.08.2022
2270 Clear 24 1021 39 10000 4.08 93 18:46 10.08.2022
2271 Clear 26 1023 38 10000 2.68 83 17:26 10.08.2022
2272 Clear 25 1024 43 10000 2.68 76 14:25 10.08.2022
2273 Clear 25 1024 42 10000 2.68 111 12:54 10.08.2022
2274 Clear 21 1024 53 10000 3.13 131 10:31 10.08.2022
2275 Clear 17 1025 67 10000 0.89 113 08:37 10.08.2022
2276 Clear 13 1024 84 10000 2.33 81 07:23 10.08.2022
2277 Clear 12 1024 85 10000 2.55 85 04:50 10.08.2022
2278 Clear 15 1025 72 10000 2.78 82 00:50 10.08.2022
2279 Clear 16 1025 73 10000 2.43 84 23:29 09.08.2022
2280 Clear 19 1024 69 10000 2.46 89 21:58 09.08.2022
2281 Clear 19 1024 66 10000 2.63 93 21:23 09.08.2022
2282 Clear 25 1024 43 10000 1.79 40 19:18 09.08.2022
2283 Clear 26 1024 41 10000 1.34 34 17:39 09.08.2022
2284 Clear 26 1024 40 10000 0.89 58 17:21 09.08.2022
2285 Clear 26 1024 41 10000 2.24 49 16:23 09.08.2022
2286 Clear 26 1024 41 10000 1.79 59 15:23 09.08.2022
2287 Clear 23 1025 47 10000 2.68 61 11:49 09.08.2022
2288 Clear 18 1025 72 10000 1.34 103 08:53 09.08.2022
2289 Clear 15 1025 81 10000 0.45 131 07:58 09.08.2022
2290 Clear 12 1024 90 10000 2.09 94 06:55 09.08.2022
2291 Clear 13 1024 85 10000 2.1 94 01:57 09.08.2022
2292 Clear 16 1024 73 10000 1.53 108 23:26 08.08.2022
2293 Clear 17 1024 70 10000 1.53 108 22:45 08.08.2022
2294 Clear 17 1023 76 10000 1.91 132 21:47 08.08.2022
2295 Clear 21 1023 72 10000 2.63 144 20:43 08.08.2022
2296 Clear 23 1021 52 10000 2.73 140 19:41 08.08.2022
2297 Clear 25 1022 47 10000 0.89 126 18:19 08.08.2022
2298 Clear 25 1022 48 10000 1.34 318 15:57 08.08.2022
2299 Clear 25 1023 47 10000 0.89 106 15:38 08.08.2022
2300 Clear 23 1023 54 10000 0.45 74 12:35 08.08.2022
2301 Clouds 21 1023 60 10000 2.24 83 10:50 08.08.2022
2302 Clouds 15 1023 82 10000 2.25 79 08:20 08.08.2022
2303 Clouds 12 1022 91 10000 1.57 74 05:33 08.08.2022
2304 Clouds 14 1022 87 10000 1.83 100 01:47 08.08.2022
2305 Clouds 17 1021 67 10000 2.04 106 21:49 07.08.2022
2306 Clouds 18 1025 68 10000 2.03 111 21:30 07.08.2022
2307 Clouds 20 1020 60 10000 2.35 112 20:25 07.08.2022
2308 Clouds 21 1020 58 10000 2.35 112 19:53 07.08.2022
2309 Clouds 21 1020 59 10000 0.45 118 19:29 07.08.2022
2310 Clouds 22 1020 55 10000 0.89 57 17:59 07.08.2022
2311 Clouds 23 1021 53 10000 1.79 157 16:53 07.08.2022
2312 Clouds 23 1021 54 10000 1.34 53 15:49 07.08.2022
2313 Clouds 23 1021 57 10000 2.24 263 14:35 07.08.2022
2314 Clouds 22 1022 60 10000 2.24 55 12:59 07.08.2022
2315 Clouds 19 1022 70 10000 1.34 79 10:57 07.08.2022
2316 Clouds 18 1022 72 10000 2.24 96 10:28 07.08.2022
2317 Clouds 16 1022 86 10000 1.34 124 04:58 07.08.2022
2318 Clouds 16 1023 89 10000 1.34 115 03:18 07.08.2022
2319 Clouds 17 1024 88 10000 2.11 86 23:37 06.08.2022
2320 Clouds 17 1024 85 10000 1.79 96 22:20 06.08.2022
2321 Clouds 19 1024 79 10000 1.52 128 20:24 06.08.2022
2322 Clouds 19 1024 77 10000 1.68 92 19:39 06.08.2022
2323 Clouds 19 1024 75 10000 1.66 83 18:22 06.08.2022
2324 Clouds 19 1024 77 10000 0.89 104 17:28 06.08.2022
2325 Clouds 17 1025 88 10000 1.44 29 14:31 06.08.2022
2326 Clouds 16 1025 91 10000 1.82 20 13:40 06.08.2022
2327 Clouds 15 1025 93 10000 3.32 357 11:24 06.08.2022
2328 Clouds 15 1024 92 10000 0.89 46 09:51 06.08.2022
2329 Clouds 16 1023 92 10000 2.24 330 08:32 06.08.2022
2330 Rain 17 1022 91 10000 1.53 300 03:51 06.08.2022
2331 Rain 20 1020 88 10000 0.89 11 23:34 05.08.2022
2332 Rain 20 1018 87 10000 0.89 136 22:23 05.08.2022
2333 Clouds 29 1015 49 10000 4.33 248 19:33 05.08.2022
2334 Clouds 30 1014 47 10000 3.59 228 18:44 05.08.2022
2335 Clouds 31 1016 45 10000 1.34 180 17:54 05.08.2022
2336 Rain 31 1016 46 10000 0.45 182 16:49 05.08.2022
2337 Clouds 31 1017 43 10000 2.21 295 15:22 05.08.2022
2338 Clouds 30 1017 45 10000 1.34 277 14:31 05.08.2022
2339 Clouds 31 1020 45 10000 0.45 338 13:24 05.08.2022
2340 Clouds 29 1018 52 10000 2.56 271 12:30 05.08.2022
2341 Clouds 28 1019 53 10000 1.34 263 10:53 05.08.2022
2342 Clouds 24 1015 62 10000 1.34 280 08:30 05.08.2022
2343 Clouds 21 1017 72 10000 2.02 189 07:22 05.08.2022
2344 Clouds 21 1015 73 10000 2 194 01:28 05.08.2022
2345 Clouds 24 1015 62 10000 1.98 160 22:33 04.08.2022
2346 Clouds 25 1010 58 10000 2.33 146 21:27 04.08.2022
2347 Clouds 27 1014 55 10000 2.34 146 20:45 04.08.2022
2348 Clear 30 1013 46 10000 2.22 125 19:49 04.08.2022
2349 Clouds 32 1012 37 10000 2.16 94 18:52 04.08.2022
2350 Clouds 33 1012 36 10000 2.17 94 18:32 04.08.2022
2351 Clear 34 1016 35 10000 0.89 63 14:45 04.08.2022
2352 Clear 32 1017 38 10000 0.89 334 13:22 04.08.2022
2353 Clear 30 1017 45 10000 0.89 150 11:37 04.08.2022
2354 Clear 26 1017 54 10000 1.34 111 09:58 04.08.2022
2355 Clear 17 1017 80 10000 1.08 185 07:31 04.08.2022
2356 Clear 17 1017 79 10000 1.53 156 02:42 04.08.2022
2357 Clouds 19 1017 71 10000 1.99 129 23:58 03.08.2022
2358 Clouds 20 1017 68 10000 2.3 126 23:36 03.08.2022
2359 Clouds 24 1016 51 10000 2.54 107 21:26 03.08.2022
2360 Clouds 27 1016 47 10000 2.19 96 20:20 03.08.2022
2361 Clear 30 1015 38 10000 2.29 82 18:53 03.08.2022
2362 Clear 32 1015 32 10000 0.45 60 16:27 03.08.2022
2363 Clear 32 1015 30 10000 2.68 73 15:53 03.08.2022
2364 Clouds 30 1016 36 10000 0.45 107 13:40 03.08.2022
2365 Clouds 26 1019 51 10000 0.89 110 10:50 03.08.2022
2366 Clouds 16 1019 82 10000 1.41 153 07:23 03.08.2022
2367 Clouds 15 1019 86 10000 1.18 201 04:22 03.08.2022
2368 Clouds 15 1019 84 10000 1.07 201 03:23 03.08.2022
2369 Clouds 17 1019 82 10000 1.59 163 00:49 03.08.2022
2370 Clouds 20 1019 73 10000 2.29 160 22:37 02.08.2022
2371 Clouds 20 1019 70 10000 0.45 252 21:51 02.08.2022
2372 Clouds 24 1017 57 10000 1.8 132 20:30 02.08.2022
2373 Clouds 28 1017 44 10000 1.13 55 17:52 02.08.2022
2374 Clouds 28 1019 47 10000 2.24 274 15:20 02.08.2022
2375 Clouds 23 1020 67 10000 0.45 262 10:51 02.08.2022
2376 Clear 19 1021 82 10000 0.89 265 08:54 02.08.2022
2377 Clouds 17 1020 88 10000 0.45 135 07:52 02.08.2022
2378 Clouds 16 1020 90 10000 1.09 251 06:41 02.08.2022
2379 Clouds 16 1020 88 10000 2.16 202 04:31 02.08.2022
2380 Rain 18 1020 87 10000 3.13 355 23:35 01.08.2022
2381 Rain 19 1019 85 10000 0.45 260 22:22 01.08.2022
2382 Clouds 20 1014 76 10000 0.89 301 20:51 01.08.2022
2383 Rain 22 1017 68 10000 3.62 342 19:23 01.08.2022
2384 Rain 23 1018 63 10000 1.34 279 18:30 01.08.2022
2385 Clouds 25 1018 51 10000 0.89 5 16:53 01.08.2022
2386 Clouds 27 1017 46 10000 2.68 263 15:52 01.08.2022
2387 Rain 28 1017 41 10000 2.68 289 15:30 01.08.2022
2388 Clouds 28 1018 45 10000 2.68 287 14:20 01.08.2022
2389 Clouds 25 1019 52 10000 2.24 232 11:50 01.08.2022
2390 Clouds 22 1019 59 10000 2.68 282 09:40 01.08.2022
2391 Clouds 20 1017 68 10000 1.79 308 08:25 01.08.2022
2392 Clouds 19 1018 67 10000 1.34 278 04:54 01.08.2022
2393 Clouds 20 1018 66 10000 0.89 291 03:49 01.08.2022
2394 Clouds 20 1018 68 10000 0.45 249 00:23 01.08.2022
2395 Clouds 22 1018 61 10000 0.45 218 22:39 31.07.2022
2396 Clouds 23 1014 57 10000 3.18 235 21:29 31.07.2022
2397 Clouds 25 1016 50 10000 2.8 242 19:53 31.07.2022
2398 Clouds 26 1018 45 10000 1.34 276 18:35 31.07.2022
2399 Clouds 27 1019 42 10000 3.13 293 15:45 31.07.2022
2400 Clouds 26 1019 45 10000 1.79 310 13:44 31.07.2022
2401 Clouds 24 1020 50 10000 1.34 278 11:59 31.07.2022
2402 Clouds 20 1020 72 10000 0.45 254 09:55 31.07.2022
2403 Clouds 17 1020 85 10000 1.72 245 08:18 31.07.2022
2404 Clouds 14 1020 88 10000 1.88 218 03:28 31.07.2022
2405 Clouds 16 1020 86 10000 1.68 228 23:53 30.07.2022
2406 Clouds 17 1020 84 10000 2.55 250 22:19 30.07.2022
2407 Clouds 17 1020 84 10000 2.55 250 22:19 30.07.2022
2408 Clouds 18 1020 82 10000 2.55 250 21:49 30.07.2022
2409 Rain 21 1019 59 10000 4.06 247 20:58 30.07.2022
2410 Clouds 23 1019 49 10000 3.98 250 19:59 30.07.2022
2411 Clouds 24 1018 47 10000 4.44 252 18:57 30.07.2022
2412 Clouds 24 1021 46 10000 3.13 278 17:45 30.07.2022
2413 Clouds 24 1016 46 10000 3.58 342 15:55 30.07.2022
2414 Clouds 24 1019 46 10000 3.13 317 15:25 30.07.2022
2415 Clouds 24 1019 50 10000 2.68 202 13:21 30.07.2022
2416 Clouds 23 1019 57 10000 3.58 262 12:20 30.07.2022
2417 Clouds 20 1019 70 10000 3.13 272 10:36 30.07.2022
2418 Clouds 19 1019 78 10000 4.02 284 09:57 30.07.2022
2419 Clouds 17 1019 85 10000 1.79 186 08:44 30.07.2022
2420 Clouds 16 1018 89 10000 4.24 254 06:50 30.07.2022
2421 Rain 16 1018 91 10000 1.34 222 02:33 30.07.2022
2422 Rain 17 1019 88 10000 1.34 214 22:57 29.07.2022
2423 Rain 17 1019 83 10000 2.24 227 21:30 29.07.2022
2424 Rain 18 1018 77 10000 0.89 287 20:50 29.07.2022
2425 Rain 22 1015 84 10000 6.5 242 19:34 29.07.2022
2426 Rain 25 1016 54 10000 1.79 281 16:44 29.07.2022
2427 Clouds 27 1016 49 10000 1.79 276 14:23 29.07.2022
2428 Clouds 25 1017 57 10000 1.34 273 12:41 29.07.2022
2429 Clouds 21 1017 69 10000 1.34 126 08:52 29.07.2022
2430 Clouds 19 1017 75 10000 0.89 129 08:22 29.07.2022
2431 Clouds 18 1016 77 10000 0.89 278 04:39 29.07.2022
2432 Clouds 20 1015 76 10000 2.2 170 23:46 28.07.2022
2433 Rain 22 1015 77 10000 2.46 200 21:39 28.07.2022
2434 Rain 24 1015 78 10000 2.57 198 20:52 28.07.2022
2435 Clouds 25 1014 74 10000 2.23 186 20:18 28.07.2022
2436 Clouds 26 1014 74 10000 2.22 186 19:40 28.07.2022
2437 Clouds 27 1012 49 10000 1.79 30 18:19 28.07.2022
2438 Clouds 27 1012 49 10000 1.79 10 17:36 28.07.2022
2439 Clear 27 1014 49 10000 1.34 156 16:41 28.07.2022
2440 Clouds 27 1015 52 10000 1.79 89 14:28 28.07.2022
2441 Clouds 25 1015 57 10000 2.24 112 12:41 28.07.2022
2442 Clear 19 1016 77 10000 0.89 132 09:25 28.07.2022
2443 Clouds 14 1016 88 10000 0.45 136 05:45 28.07.2022
2444 Clouds 14 1016 87 10000 0.89 121 05:21 28.07.2022
2445 Clouds 18 1017 73 10000 1.93 63 00:29 28.07.2022
2446 Clouds 20 1017 65 10000 1.79 33 22:25 27.07.2022
2447 Clouds 22 1015 65 10000 2.04 352 20:20 27.07.2022
2448 Clouds 23 1015 50 10000 1.18 9 19:32 27.07.2022
2449 Clouds 25 1018 51 10000 2.11 16 16:34 27.07.2022
2450 Clouds 24 1013 50 10000 0.89 38 15:51 27.07.2022
2451 Clouds 25 1016 51 10000 1.34 340 14:42 27.07.2022
2452 Clouds 24 1015 53 10000 1.34 42 13:58 27.07.2022
2453 Clouds 22 1016 63 10000 2.25 351 12:19 27.07.2022
2454 Clouds 16 1016 89 10000 0.99 250 07:53 27.07.2022
2455 Clouds 15 1016 91 10000 0.95 229 05:33 27.07.2022
2456 Clouds 18 1017 87 10000 1.21 256 00:28 27.07.2022
2457 Clouds 19 1017 82 10000 2.43 227 22:24 26.07.2022
2458 Clouds 20 1017 75 10000 2.32 234 21:19 26.07.2022
2459 Clouds 22 1016 71 10000 0.45 197 19:40 26.07.2022
2460 Clouds 23 1016 69 10000 1.34 160 18:41 26.07.2022
2461 Clouds 22 1016 73 10000 2.24 241 17:57 26.07.2022
2462 Clouds 22 1019 75 10000 0.45 206 15:47 26.07.2022
2463 Clouds 22 1017 73 10000 0.45 207 14:49 26.07.2022
2464 Clouds 20 1017 88 10000 0.45 167 12:50 26.07.2022
2465 Rain 17 1018 93 10000 0.45 224 10:58 26.07.2022
2466 Clouds 18 1017 93 10000 0.45 202 08:43 26.07.2022
2467 Rain 18 1016 92 10000 2.24 257 05:49 26.07.2022
2468 Rain 19 1017 88 10000 2.68 222 00:27 26.07.2022
2469 Rain 21 1015 93 7438 4.98 220 22:53 25.07.2022
2470 Rain 27 1014 89 8804 5.19 216 22:22 25.07.2022
2471 Clouds 27 1013 52 10000 6.23 209 21:38 25.07.2022
2472 Clouds 30 1013 43 10000 6.25 209 20:40 25.07.2022
2473 Clouds 32 1010 38 10000 5.29 225 19:27 25.07.2022
2474 Clouds 34 1006 28 10000 3.13 265 18:18 25.07.2022
2475 Clear 35 1012 29 10000 3.58 299 17:27 25.07.2022
2476 Clear 35 1013 61 10000 4.47 261 14:44 25.07.2022
2477 Clear 31 1014 42 10000 2.68 332 12:21 25.07.2022
2478 Clear 25 1015 65 10000 0.45 271 09:18 25.07.2022
2479 Clear 17 1016 84 10000 1.75 146 04:25 25.07.2022
2480 Clear 20 1013 67 10000 2.31 123 23:54 24.07.2022
2481 Clear 22 1017 63 10000 2.29 116 22:59 24.07.2022
2482 Clear 22 1017 61 10000 2.32 114 22:29 24.07.2022
2483 Clear 24 1017 55 10000 2.34 112 21:19 24.07.2022
2484 Clear 27 1017 67 10000 2.34 112 20:50 24.07.2022
2485 Clouds 27 1016 49 10000 2.4 96 20:26 24.07.2022
2486 Clouds 30 1016 42 10000 2.8 79 18:46 24.07.2022
2487 Clear 30 1017 41 10000 0.45 99 16:29 24.07.2022
2488 Clear 30 1019 40 10000 1.34 353 15:50 24.07.2022
2489 Clouds 30 1020 46 10000 0.89 218 14:35 24.07.2022
2490 Clouds 29 1021 48 10000 0.45 227 12:54 24.07.2022
2491 Clouds 27 1019 54 10000 0.89 49 11:40 24.07.2022
2492 Clouds 26 1021 57 10000 0.45 167 11:18 24.07.2022
2493 Clouds 22 1021 78 10000 0.29 125 08:48 24.07.2022
2494 Clouds 19 1022 87 10000 0.54 212 07:52 24.07.2022
2495 Clouds 17 1021 88 10000 0.91 210 06:18 24.07.2022
2496 Clouds 20 1021 80 10000 1.09 188 01:27 24.07.2022
2497 Clouds 21 1017 76 10000 1.71 247 22:21 23.07.2022
2498 Clouds 24 1019 73 10000 1.61 264 20:31 23.07.2022
2499 Clouds 25 1015 66 10000 2.67 272 18:51 23.07.2022
2500 Clouds 25 1019 63 10000 1.34 288 17:41 23.07.2022
2501 Clouds 25 1019 63 10000 1.34 277 17:23 23.07.2022
2502 Clouds 25 1022 62 10000 2.68 282 15:32 23.07.2022
2503 Rain 25 1020 60 10000 3.47 264 14:59 23.07.2022
2504 Clouds 25 1020 59 10000 0.45 221 14:35 23.07.2022
2505 Clouds 24 1020 60 10000 2.24 280 13:50 23.07.2022
2506 Clouds 21 1020 75 10000 2.24 188 11:19 23.07.2022
2507 Rain 20 1019 78 10000 1.79 216 10:23 23.07.2022
2508 Rain 19 1019 81 10000 1.34 318 09:26 23.07.2022
2509 Rain 18 1019 80 10000 1.34 286 04:59 23.07.2022
2510 Rain 22 1018 84 10000 2.06 265 02:54 23.07.2022
2511 Clouds 23 1017 67 10000 1.34 75 23:57 22.07.2022
2512 Rain 27 1016 56 10000 2.39 202 21:18 22.07.2022
2513 Clear 29 1015 68 10000 1.69 121 19:55 22.07.2022
2514 Clear 31 1017 47 10000 1.79 55 18:41 22.07.2022
2515 Clear 31 1017 46 10000 1.79 74 17:38 22.07.2022
2516 Clear 31 1018 42 10000 0.89 42 15:30 22.07.2022
2517 Clear 28 1016 45 10000 2.65 78 12:33 22.07.2022
2518 Clouds 24 1020 62 10000 0.45 98 09:52 22.07.2022
2519 Clouds 23 1021 73 10000 1.39 76 09:20 22.07.2022
2520 Clear 16 1021 89 10000 0.65 204 07:30 22.07.2022
2521 Clear 16 1021 90 10000 1.37 227 04:22 22.07.2022
2522 Clear 19 1022 87 10000 2.16 200 23:29 21.07.2022
2523 Clear 21 1022 76 10000 0.45 123 21:39 21.07.2022
2524 Clouds 24 1021 69 10000 0.89 123 19:42 21.07.2022
2525 Clouds 24 1022 66 10000 1.34 202 18:30 21.07.2022
2526 Clouds 23 1022 70 10000 0.45 128 17:21 21.07.2022
2527 Clouds 23 1021 75 10000 2.09 302 15:58 21.07.2022
2528 Clouds 21 1023 82 10000 2.67 299 14:46 21.07.2022
2529 Clouds 21 1023 85 10000 2.69 302 13:53 21.07.2022
2530 Clouds 21 1023 82 10000 0.89 317 11:54 21.07.2022
2531 Clouds 21 1023 81 10000 1.34 351 09:54 21.07.2022
2532 Clouds 21 1022 84 10000 1.34 318 08:53 21.07.2022
2533 Clouds 20 1022 86 10000 1.95 268 07:50 21.07.2022
2534 Clouds 19 1021 89 10000 0.89 281 06:27 21.07.2022
2535 Clouds 19 1020 89 10000 1.93 195 02:59 21.07.2022
2536 Rain 27 1021 90 10000 5 286 22:49 20.07.2022
2537 Clouds 27 1018 80 10000 3.4 284 22:19 20.07.2022
2538 Rain 28 1016 71 10000 2.42 216 20:46 20.07.2022
2539 Clouds 25 1016 28 10000 2.87 233 19:47 20.07.2022
2540 Clouds 32 1015 30 10000 3.46 204 18:56 20.07.2022
2541 Rain 34 1017 26 10000 3.46 204 18:31 20.07.2022
2542 Clouds 35 1017 25 10000 1.34 326 17:33 20.07.2022
2543 Clouds 36 1018 26 10000 2.68 287 15:43 20.07.2022
2544 Clouds 35 1016 24 10000 0.89 320 14:54 20.07.2022
2545 Clouds 34 1014 26 10000 1.34 329 13:44 20.07.2022
2546 Clouds 30 1018 37 10000 1.79 247 11:31 20.07.2022
2547 Clouds 18 1019 72 10000 1.21 180 07:36 20.07.2022
2548 Clear 17 1019 72 10000 1.5 128 01:58 20.07.2022
2549 Clear 19 1019 65 10000 1.75 118 00:43 20.07.2022
2550 Clear 23 1019 71 10000 2.53 104 22:41 19.07.2022
2551 Clear 24 1019 69 10000 2.67 99 22:21 19.07.2022
2552 Clear 28 1018 66 10000 2.77 94 20:54 19.07.2022
2553 Clear 29 1018 59 10000 3.33 88 20:18 19.07.2022
2554 Clear 31 1017 49 10000 4.03 83 18:43 19.07.2022
2555 Clear 31 1018 42 10000 4.35 82 17:57 19.07.2022
2556 Clear 32 1024 31 10000 1.34 63 16:26 19.07.2022
2557 Clear 32 1020 29 10000 2.68 58 14:31 19.07.2022
2558 Clear 28 1021 34 10000 1.79 263 11:38 19.07.2022
2559 Clear 26 1022 40 10000 1.79 69 10:31 19.07.2022
2560 Clear 23 1022 52 10000 2.24 122 09:21 19.07.2022
2561 Clear 20 1022 59 10000 0.45 113 08:32 19.07.2022
2562 Clear 15 1022 80 10000 1.98 106 07:19 19.07.2022
2563 Clouds 13 1022 80 10000 1.74 125 05:27 19.07.2022
2564 Clouds 13 1022 79 10000 1.75 124 04:53 19.07.2022
2565 Clouds 19 1023 61 10000 2.12 148 00:38 19.07.2022
2566 Clouds 20 1023 58 10000 2.34 150 23:47 18.07.2022
2567 Clouds 20 1024 56 10000 2.58 147 23:18 18.07.2022
2568 Clouds 22 1023 45 10000 2.58 137 21:58 18.07.2022
2569 Clouds 26 1022 61 10000 2.44 130 20:51 18.07.2022
2570 Clouds 27 1022 37 10000 2.34 80 19:33 18.07.2022
2571 Clouds 29 1024 32 10000 0.89 53 17:38 18.07.2022
2572 Clouds 30 1024 28 10000 0.89 128 15:55 18.07.2022
2573 Clouds 30 1026 29 10000 1.79 120 15:18 18.07.2022
2574 Clouds 29 1025 28 10000 0.45 166 13:24 18.07.2022
2575 Clouds 26 1025 34 10000 0.89 128 11:31 18.07.2022
2576 Clouds 23 1026 49 10000 0.45 146 09:43 18.07.2022
2577 Clouds 17 1029 66 10000 0.46 115 07:45 18.07.2022
2578 Clear 14 1026 74 10000 1.04 154 02:21 18.07.2022
2579 Clear 18 1026 61 10000 2.05 147 22:52 17.07.2022
2580 Clear 19 1025 56 10000 2.35 141 22:25 17.07.2022
2581 Clear 23 1025 63 10000 2.08 131 21:26 17.07.2022
2582 Clear 24 1025 63 10000 2.08 131 20:44 17.07.2022
2583 Clouds 25 1024 60 10000 2.11 114 19:49 17.07.2022
2584 Clouds 25 1024 36 10000 2.27 85 19:20 17.07.2022
2585 Clouds 27 1024 32 10000 2.78 55 17:41 17.07.2022
2586 Clear 27 1025 30 10000 1.79 249 17:22 17.07.2022
2587 Clear 27 1025 30 10000 1.79 53 16:28 17.07.2022
2588 Clear 27 1024 32 10000 2.24 5 15:37 17.07.2022
2589 Clouds 27 1026 33 10000 1.79 111 13:51 17.07.2022
2590 Clouds 26 1026 36 10000 1.34 105 12:42 17.07.2022
2591 Clouds 22 1026 44 10000 0.89 88 10:19 17.07.2022
2592 Clear 11 1027 82 10000 0.45 143 06:59 17.07.2022
2593 Clear 13 1026 74 10000 1.29 106 02:34 17.07.2022
2594 Clear 13 1026 74 10000 1.29 106 02:34 17.07.2022
2595 Clear 16 1025 62 10000 0.64 37 23:26 16.07.2022
2596 Clear 18 1024 62 10000 0.84 323 22:20 16.07.2022
2597 Clear 22 1023 60 10000 1.7 330 20:40 16.07.2022
2598 Clouds 25 1021 36 10000 1.79 320 18:58 16.07.2022
2599 Clouds 26 1022 35 10000 1.79 10 17:47 16.07.2022
2600 Clouds 26 1022 34 10000 1.34 5 15:54 16.07.2022
2601 Clear 24 1022 39 10000 1.79 216 12:37 16.07.2022
2602 Clear 21 1022 46 10000 1.34 323 10:29 16.07.2022
2603 Clear 19 1022 52 10000 1.34 280 09:26 16.07.2022
2604 Clear 18 1022 58 10000 1.57 314 08:41 16.07.2022
2605 Clear 15 1022 72 10000 0.96 281 07:40 16.07.2022
2606 Clear 13 1022 81 10000 0.99 260 03:38 16.07.2022
2607 Clouds 15 1022 79 10000 0.44 21 01:39 16.07.2022
2608 Clouds 19 1022 62 10000 3.02 9 23:21 15.07.2022
2609 Clouds 20 1020 58 10000 2.15 352 22:37 15.07.2022
2610 Clouds 22 1019 64 10000 1.27 285 20:47 15.07.2022
2611 Clouds 24 1019 60 10000 1.08 293 19:49 15.07.2022
2612 Clouds 25 1017 39 10000 0.45 24 18:32 15.07.2022
2613 Clouds 26 1019 39 10000 1.79 340 17:25 15.07.2022
2614 Clouds 26 1020 39 10000 1.34 230 14:35 15.07.2022
2615 Clouds 24 1021 46 10000 1.79 316 12:48 15.07.2022
2616 Clouds 21 1021 52 10000 0.45 19 10:53 15.07.2022
2617 Clouds 18 1019 70 10000 0.89 52 08:49 15.07.2022
2618 Clouds 16 1020 81 10000 0.45 51 05:55 15.07.2022
2619 Clouds 20 1020 85 10000 1.93 290 00:52 15.07.2022
2620 Clouds 23 1019 79 10000 2.52 314 23:36 14.07.2022
2621 Clouds 23 1018 71 10000 3.79 348 22:42 14.07.2022
2622 Clear 23 1016 54 10000 4.13 333 21:43 14.07.2022
2623 Clear 25 1015 53 10000 3.23 246 21:25 14.07.2022
2624 Clear 27 1015 46 10000 3.24 246 20:43 14.07.2022
2625 Clouds 27 1014 48 10000 3.39 261 20:19 14.07.2022
2626 Clouds 31 1014 46 10000 4.31 263 18:42 14.07.2022
2627 Clouds 33 1016 25 10000 4.47 250 16:22 14.07.2022
2628 Clouds 33 1017 25 10000 4.47 293 15:29 14.07.2022
2629 Clouds 32 1018 27 10000 3.13 227 13:53 14.07.2022
2630 Clouds 32 1017 26 10000 3.13 227 13:53 14.07.2022
2631 Clouds 31 1018 30 10000 2.24 257 12:53 14.07.2022
2632 Clouds 29 1019 31 10000 2.24 262 11:43 14.07.2022
2633 Clouds 29 1019 32 10000 0.45 294 11:22 14.07.2022
2634 Clouds 26 1020 42 10000 0.89 202 09:54 14.07.2022
2635 Clouds 20 1021 61 10000 0.89 216 07:47 14.07.2022
2636 Clouds 19 1022 65 10000 2.57 227 01:25 14.07.2022
2637 Clouds 19 1018 61 10000 2.57 227 00:53 14.07.2022
2638 Clouds 21 1022 57 10000 2.44 211 22:33 13.07.2022
2639 Clouds 22 1026 61 10000 2.08 193 21:59 13.07.2022
2640 Rain 23 1021 62 10000 1.03 159 21:18 13.07.2022
2641 Clouds 27 1023 32 10000 1.15 98 19:34 13.07.2022
2642 Clouds 29 1026 26 10000 1.03 73 17:51 13.07.2022
2643 Clouds 30 1022 32 10000 1.27 85 16:43 13.07.2022
2644 Clouds 28 1022 34 10000 1.6 74 15:26 13.07.2022
2645 Clouds 28 1024 37 10000 1.34 126 13:24 13.07.2022
2646 Clouds 25 1024 45 10000 1.46 78 10:46 13.07.2022
2647 Clouds 24 1024 46 10000 0.89 141 10:25 13.07.2022
2648 Clouds 22 1024 60 10000 0.89 128 09:26 13.07.2022
2649 Clouds 17 1025 76 10000 0.45 209 07:53 13.07.2022
2650 Clouds 13 1025 84 10000 1.8 197 03:26 13.07.2022
2651 Clouds 15 1025 79 10000 1.73 211 00:19 13.07.2022
2652 Clouds 17 1025 70 10000 0.83 192 22:18 12.07.2022
2653 Clouds 18 1025 75 10000 0.83 192 21:36 12.07.2022
2654 Clear 22 1024 72 10000 0.53 221 20:42 12.07.2022
2655 Clouds 23 1024 49 10000 1.56 160 19:42 12.07.2022
2656 Clouds 25 1024 43 10000 2.68 59 18:21 12.07.2022
2657 Clouds 24 1025 44 10000 3.13 271 16:20 12.07.2022
2658 Clouds 23 1025 51 10000 2.24 332 14:31 12.07.2022
2659 Clouds 22 1025 53 10000 2.68 253 13:34 12.07.2022
2660 Clouds 21 1025 57 10000 2.68 331 11:48 12.07.2022
2661 Clouds 20 1025 64 10000 0.89 284 10:25 12.07.2022
2662 Clouds 17 1025 76 10000 1.47 313 08:46 12.07.2022
2663 Clouds 15 1024 85 10000 1.4 289 07:48 12.07.2022
2664 Clouds 12 1024 90 10000 1.32 259 05:45 12.07.2022
2665 Clouds 13 1024 88 10000 1.32 277 04:46 12.07.2022
2666 Clouds 14 1024 89 10000 1.26 202 00:54 12.07.2022
2667 Clouds 16 1024 86 10000 0.72 169 22:43 11.07.2022
2668 Clear 18 1023 80 10000 0.44 105 20:56 11.07.2022
2669 Clouds 19 1024 61 10000 1.34 324 20:32 11.07.2022
2670 Clear 19 1023 67 10000 0.44 105 20:32 11.07.2022
2671 Clouds 21 1023 56 10000 1.34 333 19:18 11.07.2022
2672 Clouds 21 1023 58 10000 1.34 329 18:29 11.07.2022
2673 Clouds 21 1023 55 10000 2.68 310 16:30 11.07.2022
2674 Clouds 21 1023 55 10000 1.34 306 15:28 11.07.2022
2675 Clouds 19 1024 55 10000 0.89 331 13:19 11.07.2022
2676 Clouds 18 1024 57 10000 0.89 347 11:24 11.07.2022
2677 Clouds 18 1024 57 10000 0.45 324 09:58 11.07.2022
2678 Clouds 17 1024 58 10000 1.34 287 09:35 11.07.2022
2679 Clouds 15 1024 64 10000 0.89 290 08:32 11.07.2022
2680 Clouds 11 1024 82 10000 1.85 304 01:54 11.07.2022
2681 Clouds 12 1024 78 10000 1.74 250 23:55 10.07.2022
2682 Clouds 13 1024 71 10000 1.59 259 22:48 10.07.2022
2683 Clouds 16 1023 63 10000 2.32 310 21:20 10.07.2022
2684 Clouds 18 1022 54 10000 1.34 34 20:37 10.07.2022
2685 Clouds 19 1023 50 10000 3.13 12 19:40 10.07.2022
2686 Clouds 20 1023 49 10000 3.58 264 18:43 10.07.2022
2687 Clouds 20 1022 50 10000 3.13 307 17:35 10.07.2022
2688 Clouds 20 1022 52 10000 4.02 297 16:41 10.07.2022
2689 Clouds 21 1022 52 10000 3.58 328 15:24 10.07.2022
2690 Clouds 20 1022 56 10000 3.58 296 13:48 10.07.2022
2691 Clouds 18 1019 64 10000 4.02 310 12:26 10.07.2022
2692 Clouds 15 1023 83 10000 3.13 316 09:58 10.07.2022
2693 Clouds 15 1023 87 10000 2.68 279 08:44 10.07.2022
2694 Clouds 14 1022 89 10000 1.79 310 07:30 10.07.2022
2695 Rain 16 1023 90 10000 1.91 265 01:31 10.07.2022
2696 Clouds 18 1023 86 10000 1.72 231 22:43 09.07.2022
2697 Clouds 18 1024 74 10000 1.25 275 22:24 09.07.2022
2698 Clouds 20 1023 78 10000 1.6 318 20:46 09.07.2022
2699 Clouds 22 1024 50 10000 1.34 296 18:38 09.07.2022
2700 Clouds 23 1024 50 10000 3.09 306 17:45 09.07.2022
2701 Clouds 24 1025 47 10000 1.79 316 16:44 09.07.2022
2702 Clouds 23 1026 43 10000 1.34 314 15:41 09.07.2022
2703 Clouds 23 1026 48 10000 1.79 263 14:43 09.07.2022
2704 Clouds 23 1027 46 10000 1.79 213 13:50 09.07.2022
2705 Clouds 21 1027 48 10000 1.79 327 12:48 09.07.2022
2706 Clouds 21 1028 53 10000 2.24 280 11:32 09.07.2022
2707 Clouds 18 1028 65 10000 0.89 286 10:23 09.07.2022
2708 Clouds 14 1028 84 10000 0.45 132 07:54 09.07.2022
2709 Clouds 11 1028 86 10000 1.65 244 05:37 09.07.2022
2710 Clear 10 1028 85 10000 2.06 225 03:29 09.07.2022
2711 Clear 12 1030 79 10000 0.45 98 23:18 08.07.2022
2712 Clear 14 1030 72 10000 1.85 165 21:59 08.07.2022
2713 Clear 17 1029 73 10000 1.08 113 20:59 08.07.2022
2714 Clouds 18 1029 54 10000 0.45 325 20:25 08.07.2022
2715 Clouds 19 1029 53 10000 1.34 355 18:32 08.07.2022
2716 Clouds 20 1029 49 10000 2.24 332 17:25 08.07.2022
2717 Clouds 19 1030 54 10000 0.89 273 14:55 08.07.2022
2718 Clouds 19 1030 55 10000 1.79 325 14:29 08.07.2022
2719 Clouds 17 1030 63 10000 1.34 271 12:28 08.07.2022
2720 Clouds 15 1030 68 10000 0.89 281 10:45 08.07.2022
2721 Clouds 14 1029 69 10000 0.89 41 08:55 08.07.2022
2722 Clouds 12 1029 83 10000 0.89 13 06:55 08.07.2022
2723 Clouds 14 1027 90 10000 1.34 280 04:31 08.07.2022
2724 Clouds 14 1026 92 10000 1.34 281 23:56 07.07.2022
2725 Clouds 14 1025 92 10000 2.68 275 22:47 07.07.2022
2726 Clouds 14 1024 91 10000 0.89 290 21:39 07.07.2022
2727 Clouds 17 1022 87 10000 3.75 273 18:43 07.07.2022
2728 Clouds 17 1024 84 10000 0.45 349 17:42 07.07.2022
2729 Rain 18 1023 92 10000 3.6 271 15:57 07.07.2022
2730 Clouds 18 1022 72 10000 3.62 277 13:30 07.07.2022
2731 Rain 17 1023 70 10000 2.68 295 12:40 07.07.2022
2732 Rain 18 1023 65 10000 1.34 348 12:21 07.07.2022
2733 Rain 18 1022 57 10000 3.13 272 11:31 07.07.2022
2734 Clouds 16 1022 67 10000 1.34 244 10:45 07.07.2022
2735 Clouds 17 1022 65 10000 1.34 276 10:26 07.07.2022
2736 Clouds 15 1022 65 10000 1.34 288 08:21 07.07.2022
2737 Clouds 14 1022 69 10000 0.45 259 05:23 07.07.2022
2738 Clouds 17 1027 67 10000 0.89 348 23:54 06.07.2022
2739 Clouds 18 1027 67 10000 0.89 282 23:36 06.07.2022
2740 Clouds 18 1023 65 10000 0.89 302 23:18 06.07.2022
2741 Clouds 18 1023 67 10000 2.14 288 22:46 06.07.2022
2742 Clouds 17 1023 72 10000 1.93 291 22:28 06.07.2022
2743 Clouds 22 1021 69 10000 2.08 331 19:45 06.07.2022
2744 Clouds 23 1021 49 10000 3.54 333 18:45 06.07.2022
2745 Clouds 25 1022 43 10000 4.02 295 16:45 06.07.2022
2746 Clouds 25 1022 45 10000 2.68 212 15:39 06.07.2022
2747 Clouds 24 1023 47 10000 1.34 219 12:44 06.07.2022
2748 Clouds 22 1023 53 10000 0.89 301 11:50 06.07.2022
2749 Clouds 21 1022 53 10000 2.24 324 10:48 06.07.2022
2750 Clouds 19 1023 68 10000 2.68 277 08:46 06.07.2022
2751 Clouds 17 1022 77 10000 1.34 298 07:41 06.07.2022
2752 Clouds 15 1022 85 10000 2.29 265 06:43 06.07.2022
2753 Clouds 17 1021 78 10000 1.55 245 22:52 05.07.2022
2754 Clouds 18 1021 75 10000 1.72 257 22:34 05.07.2022
2755 Clouds 23 1020 68 10000 2.01 266 20:45 05.07.2022
2756 Clouds 25 1020 73 10000 2.24 239 19:55 05.07.2022
2757 Clouds 25 1020 73 10000 2.23 240 19:36 05.07.2022
2758 Clouds 25 1019 59 10000 2.01 276 17:50 05.07.2022
2759 Clouds 25 1021 48 10000 1.34 283 17:18 05.07.2022
2760 Clouds 25 1021 47 10000 1.79 201 15:48 05.07.2022
2761 Clouds 25 1021 45 10000 1.34 294 14:44 05.07.2022
2762 Clouds 24 1021 47 10000 2.24 323 12:59 05.07.2022
2763 Clouds 23 1020 71 10000 1.95 288 12:22 05.07.2022
2764 Clouds 21 1021 55 10000 2.25 274 10:45 05.07.2022
2765 Clouds 20 1021 81 10000 0.89 278 09:44 05.07.2022
2766 Clouds 18 1021 91 10000 2.68 287 08:20 05.07.2022
2767 Clouds 16 1020 93 10000 0.89 228 06:48 05.07.2022
2768 Clouds 16 1020 94 10000 1.77 257 04:30 05.07.2022
2769 Rain 17 1021 92 8518 0.89 257 00:47 05.07.2022
2770 Rain 17 1021 90 8850 0.45 135 23:37 04.07.2022
2771 Rain 17 1020 89 10000 1.68 265 22:54 04.07.2022
2772 Rain 18 1020 88 10000 0.45 273 21:56 04.07.2022
2773 Rain 22 1017 85 10000 0.67 295 20:55 04.07.2022
2774 Rain 23 1017 67 10000 1.61 312 20:35 04.07.2022
2775 Rain 23 1018 68 10000 0.36 285 19:56 04.07.2022
2776 Clouds 24 1018 86 10000 0.33 290 19:37 04.07.2022
2777 Clouds 26 1018 56 10000 1.79 340 18:34 04.07.2022
2778 Clouds 27 1018 53 10000 0.45 290 16:51 04.07.2022
2779 Clouds 26 1019 54 10000 2.68 292 15:35 04.07.2022
2780 Clouds 24 1019 62 10000 1.4 242 13:44 04.07.2022
2781 Clouds 23 1020 72 10000 2.78 265 12:38 04.07.2022
2782 Rain 20 1021 78 10000 1.79 206 10:39 04.07.2022
2783 Rain 20 1021 83 10000 2.24 290 10:20 04.07.2022
2784 Rain 19 1021 84 10000 1.34 266 08:33 04.07.2022
2785 Clouds 18 1019 79 10000 4.61 260 05:57 04.07.2022
2786 Clear 18 1018 76 10000 1.38 201 00:44 04.07.2022
2787 Clear 19 1018 74 10000 0.87 205 23:39 03.07.2022
2788 Clear 21 1018 68 10000 0.88 178 22:28 03.07.2022
2789 Clear 27 1017 75 10000 1.18 152 20:45 03.07.2022
2790 Clear 27 1017 41 10000 0.06 354 19:43 03.07.2022
2791 Clear 28 1017 40 10000 1.12 334 19:24 03.07.2022
2792 Clear 29 1018 41 10000 0.45 214 18:23 03.07.2022
2793 Clear 30 1019 36 10000 3.13 259 17:31 03.07.2022
2794 Clear 30 1020 34 10000 3.58 267 15:26 03.07.2022
2795 Clear 30 1020 34 10000 2.68 221 14:53 03.07.2022
2796 Clear 29 1020 35 10000 1.79 244 13:50 03.07.2022
2797 Clear 28 1021 40 10000 1.79 231 12:44 03.07.2022
2798 Clear 27 1021 47 10000 2.24 267 11:47 03.07.2022
2799 Clear 25 1021 53 10000 1.34 273 10:54 03.07.2022
2800 Clear 25 1021 53 10000 2.68 281 10:35 03.07.2022
2801 Clouds 17 1021 83 10000 0.45 198 07:38 03.07.2022
2802 Clouds 14 1021 87 10000 1.88 234 06:35 03.07.2022
2803 Clear 14 1020 84 10000 1.33 150 00:38 03.07.2022
2804 Clear 15 1021 79 10000 0.52 122 23:37 02.07.2022
2805 Clear 16 1021 73 10000 0.54 121 22:31 02.07.2022
2806 Clear 22 1020 55 10000 2.85 81 20:28 02.07.2022
2807 Clear 22 1019 53 10000 2.69 76 19:49 02.07.2022
2808 Clear 24 1021 53 10000 1.34 150 18:24 02.07.2022
2809 Clear 24 1022 52 10000 1.79 97 17:38 02.07.2022
2810 Clear 24 1022 51 10000 3.58 101 16:30 02.07.2022
2811 Clear 22 1024 53 10000 2.68 104 13:40 02.07.2022
2812 Clear 20 1025 66 10000 2.24 107 11:49 02.07.2022
2813 Clear 18 1025 74 10000 1.79 119 10:51 02.07.2022
2814 Clear 17 1025 78 10000 2.24 117 10:21 02.07.2022
2815 Clear 13 1025 92 10000 1.34 117 08:38 02.07.2022
2816 Clear 13 1025 92 10000 3.13 123 08:19 02.07.2022
2817 Clear 9 1025 94 10000 1.37 128 04:19 02.07.2022
2818 Clouds 11 1025 93 10000 0.99 175 00:28 02.07.2022
2819 Clouds 12 1025 93 10000 1.12 185 23:30 01.07.2022
2820 Clouds 13 1025 92 10000 1.12 185 22:35 01.07.2022
2821 Clouds 14 1024 90 10000 1.29 194 21:38 01.07.2022
2822 Clouds 15 1023 88 10000 1.4 214 20:59 01.07.2022
2823 Clouds 15 1022 88 10000 1.4 214 20:37 01.07.2022
2824 Clouds 15 1024 85 10000 1.15 209 19:40 01.07.2022
2825 Rain 14 1023 92 10000 0.45 287 17:39 01.07.2022
2826 Rain 14 1022 91 10000 1.34 290 14:59 01.07.2022
2827 Rain 14 1021 92 10000 1.34 330 13:54 01.07.2022
2828 Rain 13 1020 89 10000 1.79 348 11:48 01.07.2022
2829 Clouds 15 1019 85 10000 2.68 290 10:19 01.07.2022
2830 Rain 17 1017 94 10000 2.39 311 07:40 01.07.2022
2831 Rain 18 1016 87 10000 1.79 248 02:43 01.07.2022
2832 Clouds 17 1013 89 10000 2.37 197 00:22 01.07.2022
2833 Clouds 18 1013 86 10000 4.41 172 22:52 30.06.2022
2834 Clouds 18 1013 84 10000 4.41 172 22:32 30.06.2022
2835 Clouds 19 1013 83 10000 0.45 306 21:59 30.06.2022
2836 Rain 19 1013 83 10000 5.29 148 21:34 30.06.2022
2837 Rain 22 1012 84 10000 1.34 204 20:22 30.06.2022
2838 Rain 23 1013 81 10000 1.34 201 19:53 30.06.2022
2839 Rain 25 1012 70 10000 1.62 17 19:18 30.06.2022
2840 Rain 26 1012 62 10000 0.45 69 18:35 30.06.2022
2841 Rain 27 1012 60 10000 1.34 38 17:38 30.06.2022
2842 Clouds 28 1011 53 10000 2.24 128 16:48 30.06.2022
2843 Clouds 29 1012 49 10000 0.89 136 14:47 30.06.2022
2844 Clear 28 1013 52 10000 0.89 45 13:30 30.06.2022
2845 Clear 27 1013 57 10000 0.89 182 12:35 30.06.2022
2846 Clear 26 1013 61 10000 0.89 42 11:28 30.06.2022
2847 Clear 24 1014 69 10000 0.89 63 09:53 30.06.2022
2848 Clear 22 1010 72 10000 0.45 118 09:34 30.06.2022
2849 Clear 18 1014 85 10000 0.89 140 07:51 30.06.2022
2850 Clear 15 1015 92 10000 1.61 207 06:21 30.06.2022
2851 Clouds 17 1015 90 10000 2.17 226 01:29 30.06.2022
2852 Clouds 18 1014 87 10000 0.45 298 23:34 29.06.2022
2853 Clouds 19 1014 86 10000 2.16 226 22:39 29.06.2022
2854 Clouds 19 1014 86 10000 2.05 237 21:37 29.06.2022
2855 Clouds 22 1014 76 10000 2.04 233 20:34 29.06.2022
2856 Rain 23 1014 75 10000 1.91 243 19:37 29.06.2022
2857 Clouds 24 1014 78 10000 1.6 258 17:45 29.06.2022
2858 Clouds 24 1015 67 10000 1.14 265 16:41 29.06.2022
2859 Clouds 24 1015 68 10000 0.89 328 15:26 29.06.2022
2860 Clouds 22 1016 72 10000 1.34 196 12:47 29.06.2022
2861 Clouds 21 1016 79 10000 0.89 227 11:32 29.06.2022
2862 Clouds 19 1016 87 10000 1.34 273 09:33 29.06.2022
2863 Clouds 18 1016 92 10000 2.24 308 08:42 29.06.2022
2864 Rain 17 1015 94 10000 0.89 279 05:19 29.06.2022
2865 Clouds 17 1016 93 10000 1.34 79 01:48 29.06.2022
2866 Rain 17 1017 93 10000 0.89 107 00:37 29.06.2022
2867 Rain 17 1016 93 10000 2.21 48 23:26 28.06.2022
2868 Clouds 17 1017 93 10000 0.89 49 22:48 28.06.2022
2869 Rain 17 1017 92 10000 0.45 36 21:55 28.06.2022
2870 Rain 17 1017 92 10000 0.89 118 21:33 28.06.2022
2871 Rain 18 1017 92 10000 0.45 158 20:51 28.06.2022
2872 Rain 18 1016 91 10000 0.45 40 19:48 28.06.2022
2873 Rain 20 1015 84 10000 3.28 87 19:24 28.06.2022
2874 Rain 20 1015 72 10000 4.45 86 17:49 28.06.2022
2875 Rain 20 1018 82 10000 0.89 96 16:35 28.06.2022
2876 Rain 20 1019 74 10000 2.68 76 15:54 28.06.2022
2877 Rain 21 1020 71 10000 3.34 75 14:22 28.06.2022
2878 Clouds 21 1020 71 10000 0.45 127 13:55 28.06.2022
2879 Clouds 21 1020 72 10000 0.45 142 13:32 28.06.2022
2880 Clouds 21 1021 72 10000 0.45 55 11:57 28.06.2022
2881 Clouds 19 1018 81 10000 0.45 350 09:49 28.06.2022
2882 Clouds 18 1018 86 10000 0.46 60 08:53 28.06.2022
2883 Clouds 17 1020 92 10000 0.6 340 07:58 28.06.2022
2884 Clouds 17 1023 91 10000 0.45 309 07:19 28.06.2022
2885 Clouds 16 1022 93 10000 0.45 304 02:41 28.06.2022
2886 Rain 17 1023 91 10000 2.68 270 23:48 27.06.2022
2887 Rain 17 1022 89 10000 2.68 282 22:56 27.06.2022
2888 Rain 19 1016 83 9173 2.68 319 21:39 27.06.2022
2889 Rain 20 1015 77 4871 2.24 323 21:21 27.06.2022
2890 Rain 22 1018 91 10000 3.67 290 19:54 27.06.2022
2891 Rain 24 1017 85 10000 4.17 306 18:45 27.06.2022
2892 Clouds 26 1014 64 10000 4.02 335 17:33 27.06.2022
2893 Clouds 29 1011 52 10000 3.58 311 15:44 27.06.2022
2894 Clouds 29 1013 54 10000 2.24 31 14:18 27.06.2022
2895 Clouds 29 1015 53 10000 0.45 284 12:58 27.06.2022
2896 Clouds 27 1014 55 10000 3.02 294 11:40 27.06.2022
2897 Clouds 23 1013 65 10000 3.01 273 09:45 27.06.2022
2898 Clouds 22 1016 69 10000 0.45 149 08:43 27.06.2022
2899 Clouds 19 1016 78 10000 3.58 271 07:49 27.06.2022
2900 Clouds 17 1015 80 10000 0.89 273 05:50 27.06.2022
2901 Clear 18 1013 75 10000 2.97 107 01:24 27.06.2022
2902 Clear 21 1014 69 10000 3.59 90 22:59 26.06.2022
2903 Clear 23 1012 77 10000 3.64 91 21:39 26.06.2022
2904 Clear 25 1013 56 10000 3.14 75 20:33 26.06.2022
2905 Clear 28 1016 51 10000 0.89 44 18:34 26.06.2022
2906 Clear 28 1016 50 10000 2.68 116 17:47 26.06.2022
2907 Clear 29 1015 48 10000 1.34 94 15:37 26.06.2022
2908 Clear 29 1015 48 10000 2.68 110 14:23 26.06.2022
2909 Clouds 28 1015 50 10000 1.34 124 13:26 26.06.2022
2910 Clouds 26 1012 56 10000 0.45 92 11:49 26.06.2022
2911 Clouds 25 1016 60 10000 0.45 40 10:53 26.06.2022
2912 Clouds 24 1014 63 10000 2.07 88 10:22 26.06.2022
2913 Clouds 20 1017 76 10000 0.89 130 08:45 26.06.2022
2914 Clouds 17 1017 87 10000 1.11 95 06:50 26.06.2022
2915 Clouds 17 1015 82 10000 1.63 131 00:45 26.06.2022
2916 Clouds 17 1015 80 10000 1.97 116 00:20 26.06.2022
2917 Clear 18 1015 78 10000 2.05 102 23:31 25.06.2022
2918 Clear 18 1015 78 10000 2.04 102 22:51 25.06.2022
2919 Clear 19 1015 74 10000 2.34 89 22:25 25.06.2022
2920 Clear 21 1013 84 10000 2.12 77 21:22 25.06.2022
2921 Clear 22 1013 84 10000 2.12 77 20:54 25.06.2022
2922 Clear 23 1013 76 10000 2.37 68 20:25 25.06.2022
2923 Clouds 23 1014 55 10000 0.45 50 18:42 25.06.2022
2924 Clouds 25 1015 51 10000 0.89 52 17:27 25.06.2022
2925 Clouds 25 1014 51 10000 0.89 49 16:31 25.06.2022
2926 Clouds 24 1014 54 10000 2.2 49 14:47 25.06.2022
2927 Clear 23 1016 59 10000 0.45 221 12:51 25.06.2022
2928 Clear 22 1016 59 10000 0.45 288 12:32 25.06.2022
2929 Clear 17 1017 86 10000 0.45 284 09:40 25.06.2022
2930 Clear 16 1017 89 10000 2.1 259 08:56 25.06.2022
2931 Clouds 15 1017 91 10000 2.25 249 08:28 25.06.2022
2932 Clouds 14 1016 94 10000 2.06 229 06:46 25.06.2022
2933 Clouds 14 1016 93 10000 2.79 229 03:26 25.06.2022
2934 Rain 14 1015 93 10000 3.57 253 00:21 25.06.2022
2935 Rain 14 1014 90 4884 1.34 284 22:31 24.06.2022
2936 Rain 15 1013 89 4143 2.68 271 21:29 24.06.2022
2937 Rain 18 1013 88 2254 3.58 217 20:25 24.06.2022
2938 Clouds 18 1010 96 2250 6.88 267 19:52 24.06.2022
2939 Clouds 19 1011 87 10000 2.24 272 19:19 24.06.2022
2940 Clouds 19 1008 86 10000 4.31 268 18:47 24.06.2022
2941 Rain 19 1008 86 10000 0.45 161 18:29 24.06.2022
2942 Rain 19 1008 77 10000 1.72 323 16:52 24.06.2022
2943 Rain 23 1008 61 10000 2.24 276 15:28 24.06.2022
2944 Clouds 24 1008 57 10000 0.89 34 14:25 24.06.2022
2945 Clouds 24 1008 58 10000 0.89 42 13:53 24.06.2022
2946 Clouds 22 1009 74 10000 1.53 265 11:42 24.06.2022
2947 Clouds 20 1010 82 10000 1.57 224 10:43 24.06.2022
2948 Clouds 20 1008 82 10000 0.45 184 09:42 24.06.2022
2949 Clouds 19 1010 83 10000 1.01 172 09:19 24.06.2022
2950 Clouds 18 1011 89 10000 1.18 185 08:42 24.06.2022
2951 Clouds 17 1011 91 10000 1.06 204 06:47 24.06.2022
2952 Clouds 17 1011 91 10000 0.76 236 06:29 24.06.2022
2953 Rain 16 1011 91 10000 0.77 236 05:51 24.06.2022
2954 Rain 18 1011 85 4261 2.24 283 00:57 24.06.2022
2955 Clouds 23 1010 91 10000 1.89 73 22:44 23.06.2022
2956 Clouds 23 1010 88 10000 2.7 76 21:52 23.06.2022
2957 Clouds 25 1009 79 10000 3.93 71 20:53 23.06.2022
2958 Clouds 25 1009 63 10000 3.93 71 20:31 23.06.2022
2959 Clear 27 1011 57 10000 2.24 51 18:43 23.06.2022
2960 Clear 28 1009 54 10000 1.79 100 17:44 23.06.2022
2961 Clear 28 1010 53 10000 1.79 225 16:34 23.06.2022
2962 Clouds 28 1011 50 10000 1.34 16 15:29 23.06.2022
2963 Clouds 29 1011 47 10000 0.45 23 14:59 23.06.2022
2964 Clear 27 1013 56 10000 0.89 68 12:39 23.06.2022
2965 Clouds 24 1012 62 10000 0.45 157 11:19 23.06.2022
2966 Clear 21 1012 76 10000 0.58 212 09:30 23.06.2022
2967 Clouds 19 1014 88 10000 0.45 180 07:51 23.06.2022
2968 Clouds 17 1014 88 10000 1 156 01:29 23.06.2022
2969 Clouds 18 1014 87 10000 0.89 156 00:25 23.06.2022
2970 Clouds 18 1014 95 10000 1.26 167 23:23 22.06.2022
2971 Clouds 19 1013 83 10000 1.55 168 21:45 22.06.2022
2972 Clouds 19 1013 83 10000 1.55 168 21:45 22.06.2022
2973 Clouds 20 1013 96 10000 1.61 158 20:57 22.06.2022
2974 Clouds 20 1008 77 10000 1.45 165 20:21 22.06.2022
2975 Clouds 20 1013 81 10000 1.29 218 19:48 22.06.2022
2976 Clouds 20 1013 98 10000 1.96 273 17:50 22.06.2022
2977 Rain 20 1013 95 7610 4.66 262 17:20 22.06.2022
2978 Clouds 20 1013 79 10000 3.41 284 15:53 22.06.2022
2979 Rain 21 1009 74 10000 0.89 285 15:24 22.06.2022
2980 Clouds 22 1013 78 10000 2.68 307 13:50 22.06.2022
2981 Clouds 22 1011 72 10000 1.6 328 13:25 22.06.2022
2982 Clouds 23 1013 74 10000 0.45 293 12:56 22.06.2022
2983 Rain 22 1013 78 10000 1.79 318 11:47 22.06.2022
2984 Rain 21 1011 79 10000 0.89 277 10:54 22.06.2022
2985 Rain 20 1011 81 10000 1.52 302 09:54 22.06.2022
2986 Clouds 18 1010 86 10000 0.39 141 07:56 22.06.2022
2987 Clouds 17 1011 87 10000 0.89 131 03:30 22.06.2022
2988 Rain 18 1011 84 10000 1.84 225 01:22 22.06.2022
2989 Rain 19 1014 63 10000 3.98 213 23:41 21.06.2022
2990 Clouds 20 1012 89 10000 2.41 75 21:32 21.06.2022
2991 Rain 23 1009 76 10000 3.43 67 19:47 21.06.2022
2992 Clouds 25 1010 57 10000 1.79 88 18:32 21.06.2022
2993 Clouds 26 1011 55 10000 0.89 126 17:25 21.06.2022
2994 Clouds 23 1013 60 10000 0.45 48 13:33 21.06.2022
2995 Clouds 19 1014 63 10000 0.45 111 11:30 21.06.2022
2996 Clouds 16 1014 70 10000 1.34 123 09:48 21.06.2022
2997 Clouds 15 1014 73 10000 0.45 32 08:37 21.06.2022
2998 Clouds 14 1014 74 10000 0.89 39 06:35 21.06.2022
2999 Clouds 18 1014 77 10000 2.08 353 00:43 21.06.2022
3000 Clouds 19 1016 95 10000 2.05 320 23:18 20.06.2022
3001 Clouds 20 1016 96 10000 2 288 21:52 20.06.2022
3002 Clouds 21 1015 96 10000 2.11 269 20:47 20.06.2022
3003 Clouds 23 1012 62 10000 3.13 335 19:39 20.06.2022
3004 Clouds 24 1012 64 10000 2.24 316 18:45 20.06.2022
3005 Rain 24 1011 66 10000 1.34 325 17:59 20.06.2022
3006 Clouds 26 1010 55 10000 6.09 301 17:32 20.06.2022
3007 Clouds 30 1010 42 10000 2.68 327 15:56 20.06.2022
3008 Clear 28 1011 47 10000 3.13 252 12:56 20.06.2022
3009 Clear 27 1011 53 10000 1.79 267 11:18 20.06.2022
3010 Clouds 26 1010 59 10000 1.79 240 09:41 20.06.2022
3011 Rain 24 1010 62 10000 1.79 265 08:44 20.06.2022
3012 Clouds 19 1011 77 10000 3.04 214 06:37 20.06.2022
3013 Clouds 20 1010 77 10000 4.27 258 02:56 20.06.2022
3014 Clouds 19 1011 85 10000 2.79 200 00:37 20.06.2022
3015 Clouds 20 1011 85 10000 3.34 207 23:24 19.06.2022
3016 Clouds 25 1011 83 10000 3.26 189 22:18 19.06.2022
3017 Clouds 27 1011 83 10000 3.26 189 21:41 19.06.2022
3018 Clouds 29 1013 88 9171 3.67 208 20:46 19.06.2022
3019 Clouds 31 1011 72 10000 3.9 218 19:48 19.06.2022
3020 Clear 31 1009 52 10000 0.19 173 19:23 19.06.2022
3021 Clear 32 1010 46 10000 1.34 38 18:31 19.06.2022
3022 Clear 34 1010 40 10000 2.39 6 17:34 19.06.2022
3023 Clear 34 1011 41 10000 2.39 6 16:38 19.06.2022
3024 Clear 35 1009 36 10000 0.89 254 15:44 19.06.2022
3025 Clear 35 1009 38 10000 0.89 329 15:26 19.06.2022
3026 Clouds 34 1010 40 10000 0.45 51 14:30 19.06.2022
3027 Rain 33 1010 39 10000 0.89 360 13:43 19.06.2022
3028 Rain 32 1011 41 10000 1.79 222 11:53 19.06.2022
3029 Rain 30 1011 45 10000 2.24 247 10:51 19.06.2022
3030 Clouds 25 1011 58 10000 2.53 236 08:55 19.06.2022
3031 Rain 21 1012 67 10000 2.18 215 08:30 19.06.2022
3032 Clouds 17 1011 74 10000 2.18 205 06:48 19.06.2022
3033 Clouds 18 1012 68 10000 2.6 136 03:37 19.06.2022
3034 Clear 20 1015 66 10000 3.24 111 00:28 19.06.2022
3035 Clear 21 1017 66 10000 3.24 111 23:52 18.06.2022
3036 Clear 21 1016 61 10000 3.24 111 23:34 18.06.2022
3037 Clear 23 1017 72 10000 3.22 101 21:54 18.06.2022
3038 Clear 26 1016 49 10000 3.07 88 20:51 18.06.2022
3039 Clear 27 1016 47 10000 2.93 76 20:18 18.06.2022
3040 Clear 30 1016 57 10000 2.91 71 18:55 18.06.2022
3041 Clear 31 1019 36 10000 0.45 34 18:30 18.06.2022
3042 Clear 31 1017 33 10000 2.12 64 17:29 18.06.2022
3043 Clear 31 1020 32 10000 0.89 247 15:57 18.06.2022
3044 Clear 32 1021 32 10000 1.34 308 14:54 18.06.2022
3045 Rain 31 1021 34 10000 0.89 126 14:35 18.06.2022
3046 Clouds 29 1022 36 10000 0.89 125 12:30 18.06.2022
3047 Rain 27 1023 42 10000 0.89 126 11:25 18.06.2022
3048 Clouds 24 1023 52 10000 0.45 320 09:46 18.06.2022
3049 Clouds 22 1024 60 10000 1.44 195 08:59 18.06.2022
3050 Clouds 16 1024 74 10000 1.9 187 07:34 18.06.2022
3051 Clouds 16 1024 74 10000 1.9 187 07:34 18.06.2022
3052 Clouds 13 1024 80 10000 0.45 121 05:58 18.06.2022
3053 Clouds 14 1024 77 10000 2.22 191 02:51 18.06.2022
3054 Clouds 15 1025 75 10000 2.09 194 01:21 18.06.2022
3055 Clouds 15 1025 74 10000 2.09 194 00:39 18.06.2022
3056 Clouds 16 1025 74 10000 2 197 23:40 17.06.2022
3057 Clouds 18 1025 66 10000 0.45 269 22:33 17.06.2022
3058 Clouds 23 1024 67 10000 0.98 155 20:33 17.06.2022
3059 Clouds 25 1024 42 10000 1.33 26 19:24 17.06.2022
3060 Clouds 25 1023 39 10000 1.34 331 18:19 17.06.2022
3061 Clouds 26 1025 38 10000 1.79 342 16:51 17.06.2022
3062 Clouds 26 1023 40 10000 1.34 184 16:25 17.06.2022
3063 Clouds 26 1023 40 10000 2.24 271 15:41 17.06.2022
3064 Clouds 26 1025 40 10000 1.34 271 14:37 17.06.2022
3065 Clouds 26 1025 42 10000 2.24 301 14:18 17.06.2022
3066 Clouds 25 1025 43 10000 2.68 300 13:41 17.06.2022
3067 Clouds 24 1026 48 10000 2.68 9 12:42 17.06.2022
3068 Clouds 24 1026 48 10000 2.68 286 11:56 17.06.2022
3069 Clouds 22 1022 51 10000 1.79 269 11:34 17.06.2022
3070 Clouds 20 1025 60 10000 0.45 263 09:49 17.06.2022
3071 Clouds 18 1023 68 10000 1.63 290 08:27 17.06.2022
3072 Clouds 14 1024 83 10000 1.23 296 06:57 17.06.2022
3073 Clouds 12 1023 84 10000 1.49 255 04:52 17.06.2022
3074 Clear 14 1023 80 10000 1.62 297 02:41 17.06.2022
3075 Clouds 16 1022 77 10000 1.47 250 00:33 17.06.2022
3076 Clouds 18 1023 86 10000 1.63 256 22:44 16.06.2022
3077 Clouds 23 1021 82 10000 2.37 284 21:26 16.06.2022
3078 Clouds 24 1021 82 10000 2.37 284 20:59 16.06.2022
3079 Clouds 24 1021 81 10000 2.39 284 20:36 16.06.2022
3080 Clouds 25 1020 75 10000 2.82 302 19:55 16.06.2022
3081 Clouds 27 1019 39 10000 3.58 355 18:28 16.06.2022
3082 Clouds 27 1017 41 10000 3.13 300 17:43 16.06.2022
3083 Clouds 27 1017 47 10000 2.68 278 16:40 16.06.2022
3084 Clouds 27 1017 53 10000 2.24 327 15:24 16.06.2022
3085 Clouds 27 1019 50 10000 3.58 318 14:46 16.06.2022
3086 Rain 26 1019 59 10000 2.68 275 13:34 16.06.2022
3087 Rain 26 1019 59 10000 3.13 272 12:37 16.06.2022
3088 Rain 25 1018 60 10000 2.68 205 11:52 16.06.2022
3089 Rain 24 1018 67 10000 3.76 250 11:18 16.06.2022
3090 Rain 23 1018 71 10000 3.89 245 10:32 16.06.2022
3091 Rain 21 1017 74 10000 3.9 229 09:25 16.06.2022
3092 Clouds 20 1017 74 10000 3.9 228 08:46 16.06.2022
3093 Clouds 18 1018 78 10000 2.38 222 07:29 16.06.2022
3094 Clouds 15 1017 81 10000 2.1 221 05:31 16.06.2022
3095 Clear 16 1018 82 10000 2.21 219 02:52 16.06.2022
3096 Clouds 16 1018 82 10000 2.04 217 01:51 16.06.2022
3097 Clouds 16 1018 82 10000 1.87 218 01:21 16.06.2022
3098 Clouds 16 1018 82 10000 1.87 218 01:21 16.06.2022
3099 Clear 18 1018 79 10000 1.85 199 23:49 15.06.2022
3100 Clear 19 1018 75 10000 1.65 178 22:45 15.06.2022
3101 Clear 21 1018 73 10000 0.81 157 21:28 15.06.2022
3102 Clear 24 1017 81 10000 0.8 158 20:57 15.06.2022
3103 Clear 25 1017 57 10000 0.8 158 20:35 15.06.2022
3104 Clear 26 1016 46 10000 1.03 46 19:46 15.06.2022
3105 Clouds 28 1015 47 10000 2.16 302 18:30 15.06.2022
3106 Clouds 28 1017 46 10000 2.16 302 17:42 15.06.2022
3107 Clouds 28 1016 46 10000 0.89 328 16:20 15.06.2022
3108 Rain 28 1018 47 10000 1.34 224 14:33 15.06.2022
3109 Rain 28 1018 47 10000 0.89 231 13:20 15.06.2022
3110 Rain 27 1018 51 10000 0.45 69 12:39 15.06.2022
3111 Rain 25 1019 55 10000 0.45 47 11:22 15.06.2022
3112 Rain 22 1019 60 10000 0.45 127 10:21 15.06.2022
3113 Rain 19 1019 71 10000 1.8 120 08:58 15.06.2022
3114 Clouds 13 1019 83 10000 1.58 125 07:32 15.06.2022
3115 Clouds 10 1019 87 10000 2.08 120 05:36 15.06.2022
3116 Clouds 12 1019 81 10000 2.41 115 02:40 15.06.2022
3117 Clouds 13 1020 79 10000 0.45 120 01:36 15.06.2022
3118 Clear 14 1019 77 10000 2.74 113 00:18 15.06.2022
3119 Clear 14 1019 74 10000 2.73 113 23:38 14.06.2022
3120 Clear 14 1020 79 10000 2.75 104 22:46 14.06.2022
3121 Clear 17 1020 79 10000 2.63 91 21:43 14.06.2022
3122 Clear 20 1019 75 10000 2.4 88 20:58 14.06.2022
3123 Clear 21 1020 49 10000 0.45 51 20:40 14.06.2022
3124 Clouds 22 1019 69 10000 2.25 79 19:47 14.06.2022
3125 Clouds 22 1020 47 10000 0.89 42 18:39 14.06.2022
3126 Clouds 23 1020 46 10000 0.89 28 16:53 14.06.2022
3127 Clouds 23 1021 46 10000 1.34 53 16:34 14.06.2022
3128 Clouds 24 1020 44 10000 2.86 39 15:41 14.06.2022
3129 Clouds 23 1020 44 10000 2.86 39 14:53 14.06.2022
3130 Clouds 24 1021 43 10000 1.79 84 14:18 14.06.2022
3131 Clear 23 1022 44 10000 0.45 320 13:24 14.06.2022
3132 Clear 22 1022 47 10000 0.89 44 11:58 14.06.2022
3133 Clear 21 1023 49 10000 0.45 68 10:55 14.06.2022
3134 Clear 20 1023 52 10000 0.45 53 10:29 14.06.2022
3135 Clear 18 1023 57 10000 1.34 135 09:26 14.06.2022
3136 Clear 17 1023 64 10000 1.34 119 08:40 14.06.2022
3137 Clouds 11 1023 89 10000 0.94 52 06:53 14.06.2022
3138 Clouds 11 1022 88 10000 0.72 79 04:23 14.06.2022
3139 Clouds 13 1022 83 10000 0.8 92 01:50 14.06.2022
3140 Clouds 14 1022 77 10000 0.68 60 00:27 14.06.2022
3141 Clouds 15 1022 71 10000 0.54 32 22:59 13.06.2022
3142 Clouds 16 1022 65 10000 0.53 21 22:23 13.06.2022
3143 Clouds 17 1023 63 10000 0.52 20 21:41 13.06.2022
3144 Clear 20 1021 51 10000 0.45 177 19:59 13.06.2022
3145 Clouds 21 1021 48 10000 2.68 262 19:26 13.06.2022
3146 Clouds 22 1021 49 10000 3.13 329 17:57 13.06.2022
3147 Clouds 22 1021 47 10000 2.24 327 17:35 13.06.2022
3148 Clouds 22 1021 48 10000 3.13 273 16:32 13.06.2022
3149 Clouds 22 1021 46 10000 3.58 265 15:20 13.06.2022
3150 Clouds 22 1020 51 10000 4.47 297 14:41 13.06.2022
3151 Clouds 21 1021 53 10000 4.02 293 13:41 13.06.2022
3152 Clouds 21 1020 63 10000 2.68 254 12:30 13.06.2022
3153 Clouds 20 1020 78 10000 2.68 287 11:25 13.06.2022
3154 Clouds 18 1020 88 10000 2.68 328 10:26 13.06.2022
3155 Clouds 17 1019 90 10000 1.79 323 09:31 13.06.2022
3156 Rain 16 1019 93 10000 3.35 258 07:38 13.06.2022
3157 Rain 16 1019 92 10000 0.89 197 05:42 13.06.2022
3158 Rain 17 1019 81 10000 2.24 251 02:50 13.06.2022
3159 Clouds 17 1018 74 10000 0.45 53 01:37 13.06.2022
3160 Clouds 17 1018 75 10000 1.37 152 00:21 13.06.2022
3161 Clouds 18 1019 73 10000 1.26 163 23:25 12.06.2022
3162 Clear 20 1019 68 10000 1.79 148 22:22 12.06.2022
3163 Clear 21 1018 56 10000 1.45 133 21:27 12.06.2022
3164 Clear 24 1019 50 10000 2.35 142 20:33 12.06.2022
3165 Clear 26 1019 44 10000 1.91 116 19:30 12.06.2022
3166 Clear 28 1020 35 10000 1.79 200 17:54 12.06.2022
3167 Clear 28 1019 36 10000 1.34 167 16:34 12.06.2022
3168 Clear 29 1021 30 10000 1.79 228 15:24 12.06.2022
3169 Rain 28 1022 34 10000 1.34 313 14:31 12.06.2022
3170 Rain 28 1022 36 10000 0.89 10 13:55 12.06.2022
3171 Rain 27 1023 40 10000 0.89 183 12:46 12.06.2022
3172 Rain 26 1023 43 10000 1.79 263 11:40 12.06.2022
3173 Rain 25 1024 47 10000 0.89 214 10:45 12.06.2022
3174 Rain 22 1023 62 10000 0.89 146 09:25 12.06.2022
3175 Clear 19 1024 68 10000 0.45 139 08:48 12.06.2022
3176 Clear 16 1024 76 10000 0.45 234 07:39 12.06.2022
3177 Clear 12 1024 84 10000 1.68 204 05:38 12.06.2022
3178 Clear 13 1024 83 10000 0.45 172 03:38 12.06.2022
3179 Clear 13 1024 82 10000 0.45 135 01:43 12.06.2022
3180 Clear 14 1024 82 10000 1.93 192 00:59 12.06.2022
3181 Clear 14 1024 82 10000 1.98 186 00:26 12.06.2022
3182 Clear 15 1024 81 10000 1.98 186 23:53 11.06.2022
3183 Clear 16 1024 77 10000 1.91 177 22:40 11.06.2022
3184 Clear 16 1024 79 10000 1.7 164 22:21 11.06.2022
3185 Clear 23 1023 74 10000 1.48 138 20:55 11.06.2022
3186 Clouds 22 1023 53 10000 1.45 101 20:24 11.06.2022
3187 Clear 23 1023 46 10000 1.62 99 19:32 11.06.2022
3188 Clear 24 1023 44 10000 0.45 52 18:36 11.06.2022
3189 Clear 24 1023 44 10000 0.45 63 17:52 11.06.2022
3190 Clear 25 1024 44 10000 1.34 264 17:29 11.06.2022
3191 Clear 24 1023 46 10000 0.89 345 16:59 11.06.2022
3192 Clear 24 1023 44 10000 0.89 136 16:38 11.06.2022
3193 Clear 25 1024 42 10000 1.34 35 15:45 11.06.2022
3194 Clear 25 1024 45 10000 0.45 38 13:54 11.06.2022
3195 Clear 23 1026 51 10000 0.45 267 13:25 11.06.2022
3196 Rain 22 1024 57 10000 0.45 150 11:18 11.06.2022
3197 Rain 20 1024 62 10000 0.73 61 10:22 11.06.2022
3198 Rain 19 1025 64 10000 1.34 121 09:38 11.06.2022
3199 Clear 14 1024 89 10000 0.73 208 07:58 11.06.2022
3200 Clear 10 1025 91 10000 0.45 171 06:31 11.06.2022
3201 Clear 10 1024 92 10000 1.38 219 05:22 11.06.2022
3202 Clouds 11 1024 90 10000 1.28 186 01:53 11.06.2022
3203 Clouds 11 1025 90 10000 1.33 177 01:34 11.06.2022
3204 Clouds 12 1025 89 10000 1.33 177 00:34 11.06.2022
3205 Clear 14 1025 85 10000 1.16 146 22:38 10.06.2022
3206 Clear 14 1025 83 10000 0.94 112 21:56 10.06.2022
3207 Clear 18 1023 80 10000 1.11 62 20:55 10.06.2022
3208 Clear 18 1023 80 10000 1.11 62 20:36 10.06.2022
3209 Clouds 19 1024 61 10000 0.45 227 20:18 10.06.2022
3210 Clouds 20 1024 60 10000 0.45 281 19:18 10.06.2022
3211 Clouds 20 1024 60 10000 0.45 281 19:18 10.06.2022
3212 Clouds 20 1024 62 10000 0.89 155 18:20 10.06.2022
3213 Clouds 20 1024 63 10000 1.79 142 17:41 10.06.2022
3214 Clouds 19 1025 65 10000 0.89 143 16:59 10.06.2022
3215 Clouds 19 1025 67 10000 1.34 244 16:20 10.06.2022
3216 Clouds 19 1025 66 10000 0.89 246 15:36 10.06.2022
3217 Clouds 20 1025 61 10000 1.95 51 13:52 10.06.2022
3218 Clouds 19 1025 66 10000 1.57 42 12:41 10.06.2022
3219 Clouds 18 1026 69 10000 1.59 1 11:41 10.06.2022
3220 Clouds 17 1025 73 10000 0.89 261 10:44 10.06.2022
3221 Clouds 15 1025 79 10000 1.34 305 09:44 10.06.2022
3222 Clouds 14 1025 84 10000 1.34 277 08:33 10.06.2022
3223 Clouds 12 1025 90 10000 0.89 266 07:24 10.06.2022
3224 Clouds 11 1025 91 10000 0.89 268 06:43 10.06.2022
3225 Clouds 11 1026 92 10000 0.89 268 06:24 10.06.2022
3226 Clouds 11 1022 92 10000 2.51 245 03:52 10.06.2022
3227 Clouds 12 1022 92 10000 2.69 246 01:41 10.06.2022
3228 Clouds 12 1023 91 10000 1.34 308 00:32 10.06.2022
3229 Clouds 12 1022 91 10000 1.34 282 23:38 09.06.2022
3230 Rain 12 1022 89 10000 0.45 331 22:18 09.06.2022
3231 Rain 13 1021 88 10000 1.34 220 21:33 09.06.2022
3232 Rain 13 1020 85 10000 1.34 316 20:54 09.06.2022
3233 Clouds 14 1020 81 10000 0.89 182 20:21 09.06.2022
3234 Clouds 15 1019 80 10000 2.68 261 19:21 09.06.2022
3235 Clouds 15 1018 77 10000 1.34 290 18:28 09.06.2022
3236 Clouds 15 1017 78 10000 3.13 217 16:51 09.06.2022
3237 Clouds 16 1017 79 10000 3.58 242 15:48 09.06.2022
3238 Rain 14 1015 82 10000 1.79 198 14:35 09.06.2022
3239 Rain 15 1016 86 10000 1.34 195 13:54 09.06.2022
3240 Rain 15 1016 88 10000 0.45 248 13:28 09.06.2022
3241 Rain 15 1015 87 10000 0.89 290 11:54 09.06.2022
3242 Rain 14 1015 91 10000 1.34 284 11:18 09.06.2022
3243 Rain 14 1014 86 10000 2.24 280 09:45 09.06.2022
3244 Rain 14 1014 89 10000 1.34 291 09:24 09.06.2022
3245 Clouds 13 1013 91 10000 0.45 271 07:52 09.06.2022
3246 Clouds 13 1012 93 10000 0.45 237 06:33 09.06.2022
3247 Rain 13 1012 92 10000 1.34 293 03:19 09.06.2022
3248 Rain 13 1012 91 7436 0.45 213 23:48 08.06.2022
3249 Rain 14 1012 86 8148 1.34 271 22:58 08.06.2022
3250 Rain 14 1012 83 9177 1.79 289 22:27 08.06.2022
3251 Rain 14 1016 77 9177 2.68 295 21:56 08.06.2022
3252 Rain 17 1011 90 10000 5.18 274 21:23 08.06.2022
3253 Clouds 20 1010 81 10000 6.06 281 20:22 08.06.2022
3254 Clouds 19 1010 81 10000 6.06 281 19:39 08.06.2022
3255 Clouds 22 1008 58 10000 2.89 309 18:47 08.06.2022
3256 Clouds 24 1009 48 10000 0.45 300 17:25 08.06.2022
3257 Clouds 23 1009 51 10000 0.89 32 15:52 08.06.2022
3258 Clouds 23 1010 51 10000 0.89 121 13:58 08.06.2022
3259 Clear 21 1012 54 10000 0.89 213 12:29 08.06.2022
3260 Clear 20 1012 58 10000 0.63 138 11:34 08.06.2022
3261 Clear 19 1013 65 10000 1.34 109 10:30 08.06.2022
3262 Clear 17 1014 71 10000 0.89 321 09:22 08.06.2022
3263 Clear 17 1014 75 10000 0.89 295 08:43 08.06.2022
3264 Clouds 13 1015 90 10000 1.41 220 06:36 08.06.2022
3265 Clouds 13 1015 93 10000 2.09 229 04:22 08.06.2022
3266 Clouds 14 1016 90 10000 0.45 287 00:49 08.06.2022
3267 Clouds 15 1017 89 10000 2.12 230 23:30 07.06.2022
3268 Clouds 15 1016 89 10000 0.45 266 22:49 07.06.2022
3269 Clouds 15 1017 89 10000 1.56 243 22:31 07.06.2022
3270 Rain 16 1016 87 10000 0.84 252 21:35 07.06.2022
3271 Clouds 16 1016 88 10000 0.84 252 20:59 07.06.2022
3272 Clouds 17 1016 85 10000 0.79 236 20:33 07.06.2022
3273 Clouds 17 1016 83 10000 0.45 301 19:48 07.06.2022
3274 Rain 17 1016 79 10000 1.78 289 18:25 07.06.2022
3275 Rain 17 1016 79 10000 0.45 288 17:31 07.06.2022
3276 Rain 18 1016 73 10000 1.81 284 16:44 07.06.2022
3277 Clouds 18 1016 74 10000 1.73 281 15:57 07.06.2022
3278 Rain 18 1017 80 10000 1.34 286 15:27 07.06.2022
3279 Clouds 17 1017 82 10000 0.89 284 14:56 07.06.2022
3280 Clouds 17 1017 83 10000 0.89 257 14:38 07.06.2022
3281 Rain 15 1017 90 10000 0.89 286 13:33 07.06.2022
3282 Clouds 14 1017 93 10000 0.45 276 12:54 07.06.2022
3283 Rain 14 1017 93 10000 2.68 272 11:51 07.06.2022
3284 Rain 14 1017 94 10000 1.7 229 10:48 07.06.2022
3285 Rain 14 1017 92 6153 2.41 306 08:53 07.06.2022
3286 Clouds 14 1017 92 3618 3.66 314 07:47 07.06.2022
3287 Rain 13 1017 93 4563 2.09 309 06:39 07.06.2022
3288 Rain 14 1017 91 9254 1.57 293 04:41 07.06.2022
3289 Rain 17 1017 86 10000 2.16 181 01:27 07.06.2022
3290 Clouds 18 1017 84 10000 0.89 148 23:53 06.06.2022
3291 Clouds 18 1017 83 10000 1.96 203 22:54 06.06.2022
3292 Clouds 18 1015 82 10000 1.95 203 22:54 06.06.2022
3293 Clouds 18 1017 80 10000 1.86 230 22:30 06.06.2022
3294 Rain 20 1017 83 10000 1.47 271 20:54 06.06.2022
3295 Clouds 22 1017 65 10000 2.03 294 19:29 06.06.2022
3296 Clouds 22 1017 63 10000 0.45 53 18:49 06.06.2022
3297 Clouds 23 1017 59 10000 1.34 313 18:26 06.06.2022
3298 Clouds 24 1017 57 10000 0.45 63 17:26 06.06.2022
3299 Clouds 24 1018 56 10000 2.24 291 16:18 06.06.2022
3300 Clouds 24 1018 56 10000 0.89 339 15:33 06.06.2022
3301 Clouds 23 1019 64 10000 0.89 323 14:32 06.06.2022
3302 Clouds 23 1019 62 10000 0.45 320 13:26 06.06.2022
3303 Clouds 22 1019 64 10000 0.89 275 12:36 06.06.2022
3304 Clouds 21 1020 68 10000 0.89 42 11:53 06.06.2022
3305 Clouds 20 1020 72 10000 0.45 338 10:41 06.06.2022
3306 Clouds 18 1020 83 10000 1.86 275 09:39 06.06.2022
3307 Clouds 16 1020 89 10000 1.98 253 08:32 06.06.2022
3308 Clouds 13 1020 93 10000 1.84 214 07:28 06.06.2022
3309 Clouds 12 1019 94 10000 2.39 226 05:28 06.06.2022
3310 Clouds 13 1019 92 10000 2.58 227 03:39 06.06.2022
3311 Clouds 14 1019 94 10000 2.88 227 01:23 06.06.2022
3312 Clouds 14 1018 93 10000 0.45 220 00:39 06.06.2022
3313 Clouds 15 1019 92 10000 1.34 266 23:40 05.06.2022
3314 Clouds 15 1019 92 10000 0.45 227 22:47 05.06.2022
3315 Rain 15 1018 92 10000 5.08 231 20:57 05.06.2022
3316 Rain 15 1016 92 8938 0.89 226 19:50 05.06.2022
3317 Rain 15 1010 93 4828 5.06 276 18:30 05.06.2022
3318 Rain 16 1010 93 4828 5.06 276 18:30 05.06.2022
3319 Rain 16 1013 92 4828 3.58 211 17:55 05.06.2022
3320 Rain 18 1010 72 10000 2.67 73 17:27 05.06.2022
3321 Rain 21 1010 83 10000 2.65 73 16:57 05.06.2022
3322 Rain 20 1016 82 10000 3.58 284 16:37 05.06.2022
3323 Clouds 23 1011 60 10000 3.1 59 14:34 05.06.2022
3324 Clouds 20 1012 54 10000 3.11 71 12:59 05.06.2022
3325 Clouds 20 1013 57 10000 3.67 81 11:49 05.06.2022
3326 Clouds 22 1018 74 10000 0.89 334 10:42 05.06.2022
3327 Clouds 22 1016 74 10000 2.24 304 10:22 05.06.2022
3328 Clouds 20 1015 79 10000 1.79 122 08:40 05.06.2022
3329 Clouds 19 1015 81 10000 1.34 97 08:20 05.06.2022
3330 Clouds 16 1016 90 10000 2.24 117 05:23 05.06.2022
3331 Clouds 16 1017 89 10000 2.63 107 04:30 05.06.2022
3332 Clouds 18 1021 85 10000 1.68 88 01:34 05.06.2022
3333 Clouds 18 1021 85 10000 1.68 88 00:52 05.06.2022
3334 Rain 19 1018 76 10000 2.27 73 22:44 04.06.2022
3335 Clouds 22 1018 85 10000 1.44 23 20:55 04.06.2022
3336 Clouds 25 1017 62 10000 0.45 28 18:53 04.06.2022
3337 Clouds 26 1018 60 10000 2.24 273 16:47 04.06.2022
3338 Clouds 27 1018 56 10000 3.13 250 16:19 04.06.2022
3339 Clear 27 1018 53 10000 1.79 302 15:27 04.06.2022
3340 Clouds 26 1018 58 10000 0.45 31 13:54 04.06.2022
3341 Clouds 23 1019 71 10000 2.44 323 11:23 04.06.2022
3342 Clouds 21 1023 74 10000 0.89 286 10:52 04.06.2022
3343 Clear 20 1018 85 10000 0.89 310 09:46 04.06.2022
3344 Clouds 18 1019 90 10000 0.79 264 08:50 04.06.2022
3345 Clouds 17 1018 91 10000 0.45 137 08:31 04.06.2022
3346 Clouds 13 1018 95 10000 1.46 214 06:20 04.06.2022
3347 Clouds 13 1018 94 10000 0.45 199 03:37 04.06.2022
3348 Clouds 15 1018 94 10000 1.71 173 00:21 04.06.2022
3349 Rain 16 1018 93 10000 0.45 149 22:54 03.06.2022
3350 Rain 16 1018 92 10000 1.94 258 21:52 03.06.2022
3351 Rain 17 1019 91 10000 1.34 286 20:40 03.06.2022
3352 Rain 17 1018 87 10000 0.89 282 19:33 03.06.2022
3353 Clouds 25 1015 61 10000 0.89 38 16:56 03.06.2022
3354 Clouds 26 1016 56 10000 1.34 54 15:55 03.06.2022
3355 Clouds 28 1016 51 10000 0.89 82 14:25 03.06.2022
3356 Rain 26 1017 55 10000 0.89 120 12:21 03.06.2022
3357 Rain 21 1018 69 10000 0.45 119 09:57 03.06.2022
3358 Rain 20 1018 74 10000 2.07 98 09:29 03.06.2022
3359 Clouds 15 1018 86 10000 1.84 113 07:47 03.06.2022
3360 Clouds 14 1018 87 10000 0.89 124 07:19 03.06.2022
3361 Clouds 12 1019 89 10000 1.2 137 06:29 03.06.2022
3362 Clouds 12 1018 90 10000 1.49 130 03:52 03.06.2022
3363 Clouds 14 1020 87 10000 2.11 102 23:53 02.06.2022
3364 Clouds 16 1020 80 10000 2.32 101 22:33 02.06.2022
3365 Clouds 19 1018 85 10000 2.45 80 20:57 02.06.2022
3366 Rain 21 1019 59 10000 2.22 72 19:58 02.06.2022
3367 Clouds 20 1019 62 10000 1.84 88 19:40 02.06.2022
3368 Rain 21 1016 59 10000 0.45 43 18:59 02.06.2022
3369 Clouds 22 1020 61 10000 0.89 108 16:30 02.06.2022
3370 Clouds 22 1019 62 10000 0.89 131 15:47 02.06.2022
3371 Clouds 21 1020 61 10000 0.89 19 13:38 02.06.2022
3372 Clouds 22 1020 57 10000 1.34 355 13:20 02.06.2022
3373 Clouds 19 1020 65 10000 0.45 315 10:53 02.06.2022
3374 Clouds 18 1019 71 10000 1.22 0 10:19 02.06.2022
3375 Clouds 16 1017 77 10000 0.96 319 09:27 02.06.2022
3376 Clouds 15 1019 84 10000 1.11 295 08:24 02.06.2022
3377 Clouds 12 1019 89 10000 1.57 269 06:50 02.06.2022
3378 Clouds 12 1019 88 10000 2.06 248 03:54 02.06.2022
3379 Clouds 13 1018 86 10000 2.23 230 02:22 02.06.2022
3380 Clouds 14 1018 86 10000 0.89 117 23:36 01.06.2022
3381 Clouds 14 1018 86 10000 0.89 182 22:21 01.06.2022
3382 Clouds 14 1017 88 10000 1.34 179 21:32 01.06.2022
3383 Clouds 14 1017 86 10000 0.89 203 20:40 01.06.2022
3384 Rain 15 1018 81 10000 0.89 207 19:53 01.06.2022
3385 Rain 16 1017 76 10000 0.45 276 18:58 01.06.2022
3386 Rain 20 1016 51 10000 5.49 272 17:44 01.06.2022
3387 Rain 21 1016 49 10000 2.68 313 16:34 01.06.2022
3388 Clouds 23 1016 43 10000 2.68 200 14:53 01.06.2022
3389 Clouds 22 1016 46 10000 2.68 327 13:45 01.06.2022
3390 Clouds 21 1016 48 10000 2.24 280 12:26 01.06.2022
3391 Clouds 17 1017 68 10000 1.79 217 09:40 01.06.2022
3392 Clouds 16 1017 74 10000 1.79 291 08:40 01.06.2022
3393 Clouds 13 1017 85 10000 2.17 217 07:22 01.06.2022
3394 Clouds 11 1016 86 10000 2.76 219 05:23 01.06.2022
3395 Clouds 12 1016 88 10000 0.89 211 00:40 01.06.2022
3396 Clouds 13 1016 87 10000 0.89 248 23:28 31.05.2022
3397 Clouds 13 1016 86 10000 1.34 225 22:37 31.05.2022
3398 Rain 14 1016 86 10000 1.34 207 21:46 31.05.2022
3399 Rain 14 1015 84 10000 1.34 158 20:45 31.05.2022
3400 Rain 14 1015 85 10000 0.89 213 20:20 31.05.2022
3401 Clouds 18 1014 94 9437 3.19 232 18:53 31.05.2022
3402 Rain 17 1014 88 10000 3.07 282 17:50 31.05.2022
3403 Rain 20 1013 75 10000 6.4 282 16:57 31.05.2022
3404 Rain 22 1013 47 10000 3.13 272 15:41 31.05.2022
3405 Clouds 23 1013 44 10000 1.79 222 14:18 31.05.2022
3406 Clouds 21 1014 49 10000 1.34 259 12:21 31.05.2022
3407 Clouds 18 1014 55 10000 0.45 85 10:55 31.05.2022
3408 Clouds 18 1014 55 10000 0.45 85 10:55 31.05.2022
3409 Clouds 15 1015 68 10000 0.89 131 09:31 31.05.2022
3410 Clouds 8 1014 88 10000 1.24 145 07:28 31.05.2022
3411 Clouds 6 1014 90 10000 1.74 144 05:22 31.05.2022
3412 Clouds 7 1015 88 10000 1.8 154 01:35 31.05.2022
3413 Clear 9 1015 85 10000 2.19 151 23:27 30.05.2022
3414 Clear 10 1014 83 10000 2.19 151 22:57 30.05.2022
3415 Clear 11 1013 79 10000 2.25 140 22:21 30.05.2022
3416 Clear 13 1014 75 10000 2.23 140 21:34 30.05.2022
3417 Clouds 15 1013 62 10000 2.8 189 20:20 30.05.2022
3418 Clouds 16 1013 79 10000 2.66 193 18:58 30.05.2022
3419 Clouds 16 1013 73 10000 2.19 211 17:41 30.05.2022
3420 Clouds 16 1012 53 10000 0.45 60 16:45 30.05.2022
3421 Clouds 16 1012 52 10000 0.45 64 15:22 30.05.2022
3422 Clear 15 1012 56 10000 0.89 56 12:37 30.05.2022
3423 Clear 14 1012 67 10000 0.89 152 10:57 30.05.2022
3424 Clear 12 1012 77 10000 1.79 141 09:39 30.05.2022
3425 Clouds 5 1012 93 10000 0.45 133 07:24 30.05.2022
3426 Clouds 3 1011 93 10000 1.29 109 05:50 30.05.2022
3427 Clouds 4 1012 92 10000 0.6 112 02:35 30.05.2022
3428 Clouds 6 1013 90 10000 0.95 303 23:28 29.05.2022
3429 Clouds 7 1013 90 10000 0.94 303 22:39 29.05.2022
3430 Clouds 8 1013 87 10000 0.45 129 21:31 29.05.2022
3431 Rain 8 1013 87 10000 0.45 90 19:57 29.05.2022
3432 Clouds 8 1013 85 10000 1.34 256 19:27 29.05.2022
3433 Rain 11 1012 76 10000 2.24 274 17:48 29.05.2022
3434 Clouds 10 1012 80 7804 0.45 82 15:50 29.05.2022
3435 Rain 10 1015 76 8881 1.34 119 15:32 29.05.2022
3436 Rain 12 1010 73 10000 1.79 95 14:31 29.05.2022
3437 Rain 14 1012 63 10000 0.89 158 12:21 29.05.2022
3438 Clouds 13 1012 67 10000 0.45 41 10:45 29.05.2022
3439 Clouds 11 1012 73 10000 2.4 60 09:52 29.05.2022
3440 Clouds 7 1012 88 10000 1.12 40 07:42 29.05.2022
3441 Clear 4 1013 89 10000 0.76 36 04:51 29.05.2022
3442 Clear 4 1013 88 10000 0.87 6 04:31 29.05.2022
3443 Clouds 7 1016 84 10000 0.66 233 00:48 29.05.2022
3444 Clouds 8 1017 81 10000 0.84 235 23:42 28.05.2022
3445 Clouds 9 1017 78 10000 0.84 212 23:18 28.05.2022
3446 Clouds 10 1017 74 10000 0.53 336 21:46 28.05.2022
3447 Clouds 14 1017 53 10000 1.57 2 20:46 28.05.2022
3448 Clouds 15 1014 45 10000 1.34 325 19:19 28.05.2022
3449 Clouds 16 1017 47 10000 1.79 302 18:21 28.05.2022
3450 Clouds 16 1018 45 10000 2.68 311 17:30 28.05.2022
3451 Clouds 16 1019 46 10000 2.24 278 15:45 28.05.2022
3452 Clouds 16 1019 47 10000 3.13 292 15:19 28.05.2022
3453 Clouds 16 1020 51 10000 3.58 312 13:29 28.05.2022
3454 Clouds 15 1020 51 10000 2.68 329 12:42 28.05.2022
3455 Clouds 15 1020 51 10000 1.79 289 11:37 28.05.2022
3456 Clouds 12 1020 64 10000 3.13 332 10:38 28.05.2022
3457 Clouds 12 1020 70 10000 2.68 355 09:54 28.05.2022
3458 Clouds 11 1020 76 10000 2.24 282 08:21 28.05.2022
3459 Clouds 11 1020 85 10000 0.89 294 06:34 28.05.2022
3460 Clouds 12 1020 87 10000 1.34 267 04:46 28.05.2022
3461 Clouds 12 1020 87 10000 0.89 301 02:18 28.05.2022
3462 Rain 14 1021 82 10000 1.34 292 23:57 27.05.2022
3463 Rain 15 1021 74 10000 1.79 290 22:38 27.05.2022
3464 Clouds 16 1021 71 10000 1.79 324 21:28 27.05.2022
3465 Clouds 16 1021 69 10000 3.13 306 20:44 27.05.2022
3466 Clouds 17 1020 68 10000 1.79 327 20:19 27.05.2022
3467 Clouds 18 1020 64 10000 2.68 330 19:38 27.05.2022
3468 Clouds 18 1020 63 10000 4.02 318 19:19 27.05.2022
3469 Clouds 22 1019 59 10000 2.68 323 17:19 27.05.2022
3470 Clouds 22 1019 55 10000 2.24 266 15:56 27.05.2022
3471 Clouds 21 1020 66 10000 4.76 301 14:57 27.05.2022
3472 Clouds 22 1021 57 10000 6.26 305 13:40 27.05.2022
3473 Clouds 20 1022 59 10000 3.58 266 12:20 27.05.2022
3474 Clouds 19 1022 63 10000 3.58 284 11:31 27.05.2022
3475 Clouds 19 1022 64 10000 4.02 291 10:43 27.05.2022
3476 Clouds 18 1023 69 10000 4.02 196 09:59 27.05.2022
3477 Clouds 17 1020 71 10000 0.89 279 09:30 27.05.2022
3478 Clouds 13 1023 88 10000 0.45 124 07:39 27.05.2022
3479 Clear 10 1023 91 10000 2.21 255 04:58 27.05.2022
3480 Clear 11 1024 89 10000 2.09 243 01:38 27.05.2022
3481 Clear 13 1024 84 10000 1.45 269 23:23 26.05.2022
3482 Clear 14 1024 83 10000 1.16 271 22:22 26.05.2022
3483 Clear 16 1023 73 10000 1.25 291 21:32 26.05.2022
3484 Clouds 19 1023 56 10000 1.76 315 19:39 26.05.2022
3485 Clouds 20 1022 58 10000 2.24 315 18:52 26.05.2022
3486 Clouds 20 1024 56 10000 1.34 294 17:36 26.05.2022
3487 Clouds 21 1024 55 10000 3.13 341 16:31 26.05.2022
3488 Clouds 21 1024 52 10000 2.24 245 15:34 26.05.2022
3489 Clouds 20 1025 50 10000 4.02 248 14:21 26.05.2022
3490 Clouds 19 1025 61 10000 2.68 308 12:20 26.05.2022
3491 Clouds 18 1025 61 10000 2.68 297 11:21 26.05.2022
3492 Clouds 16 1025 74 10000 1.34 299 09:40 26.05.2022
3493 Clouds 14 1025 84 10000 0.45 174 08:57 26.05.2022
3494 Clouds 12 1024 90 10000 2.28 255 07:38 26.05.2022
3495 Clouds 11 1022 89 10000 2.14 259 02:59 26.05.2022
3496 Clouds 11 1022 89 10000 2.17 221 00:20 26.05.2022
3497 Clouds 12 1022 88 10000 0.45 211 23:22 25.05.2022
3498 Clouds 13 1021 84 10000 1.16 258 21:47 25.05.2022
3499 Clouds 14 1021 80 10000 1.46 284 21:28 25.05.2022
3500 Clouds 17 1018 66 10000 0.45 196 19:59 25.05.2022
3501 Clouds 18 1020 64 10000 0.45 205 19:19 25.05.2022
3502 Clouds 18 1020 67 10000 0.89 205 17:30 25.05.2022
3503 Clouds 17 1019 70 10000 0.89 245 16:36 25.05.2022
3504 Clouds 17 1019 68 10000 2.24 313 15:53 25.05.2022
3505 Clouds 17 1019 70 10000 0.89 197 14:51 25.05.2022
3506 Clouds 17 1020 74 10000 0.89 159 14:32 25.05.2022
3507 Clouds 16 1019 78 10000 1.34 202 13:35 25.05.2022
3508 Clouds 15 1019 84 10000 0.45 270 12:36 25.05.2022
3509 Rain 13 1019 93 10000 2.23 264 10:43 25.05.2022
3510 Rain 12 1019 94 10000 0.89 315 09:53 25.05.2022
3511 Rain 12 1018 95 7810 0.45 300 08:22 25.05.2022
3512 Rain 12 1016 95 10000 0.45 254 06:53 25.05.2022
3513 Rain 12 1014 95 10000 1.69 256 03:20 25.05.2022
3514 Clouds 12 1014 94 10000 1.59 257 23:55 24.05.2022
3515 Clouds 12 1014 93 10000 1.54 228 23:25 24.05.2022
3516 Rain 12 1014 93 10000 1.23 207 22:19 24.05.2022
3517 Clouds 12 1014 93 10000 0.45 135 21:39 24.05.2022
3518 Clouds 12 1013 93 10000 1.25 189 21:20 24.05.2022
3519 Rain 13 1013 93 10000 2.15 236 19:45 24.05.2022
3520 Clouds 13 1012 93 10000 1.34 163 18:53 24.05.2022
3521 Rain 14 1012 91 10000 1.1 258 16:42 24.05.2022
3522 Clouds 14 1012 92 10000 1.52 292 16:22 24.05.2022
3523 Rain 13 1011 92 10000 2.24 308 14:56 24.05.2022
3524 Rain 15 1011 92 10000 1.34 210 14:20 24.05.2022
3525 Rain 15 1011 93 10000 0.89 217 12:49 24.05.2022
3526 Rain 14 1010 93 10000 3.3 254 11:26 24.05.2022
3527 Rain 15 1009 94 10000 1.34 276 09:44 24.05.2022
3528 Rain 15 1008 94 10000 1.34 277 08:50 24.05.2022
3529 Rain 14 1007 94 10000 0.45 253 06:57 24.05.2022
3530 Rain 15 1008 94 10000 0.45 188 04:20 24.05.2022
3531 Rain 15 1008 94 10000 0.45 270 01:55 24.05.2022
3532 Rain 14 1008 94 10000 0.89 139 01:36 24.05.2022
3533 Rain 14 1008 93 10000 4 188 23:31 23.05.2022
3534 Rain 14 1008 91 10000 1.34 174 21:57 23.05.2022
3535 Rain 14 1008 90 10000 1.79 166 21:39 23.05.2022
3536 Rain 15 1008 87 10000 0.89 76 20:41 23.05.2022
3537 Rain 19 1005 83 10000 0.89 308 19:33 23.05.2022
3538 Rain 20 1006 82 10000 0.45 178 18:59 23.05.2022
3539 Rain 19 1005 82 10000 1.79 206 18:35 23.05.2022
3540 Rain 20 1005 79 10000 2.68 109 17:38 23.05.2022
3541 Clouds 25 1005 52 10000 0.89 24 15:37 23.05.2022
3542 Clouds 24 1006 56 10000 0.89 247 13:32 23.05.2022
3543 Rain 19 1010 72 10000 0.89 134 11:34 23.05.2022
3544 Rain 16 1006 62 10000 2.27 128 10:43 23.05.2022
3545 Clouds 18 1010 72 10000 1.34 336 09:40 23.05.2022
3546 Clouds 17 1009 74 10000 2.1 129 08:38 23.05.2022
3547 Clouds 15 1009 75 10000 0.89 126 06:47 23.05.2022
3548 Clouds 15 1009 75 10000 1.34 130 06:23 23.05.2022
3549 Clouds 16 1011 69 10000 0.45 121 02:36 23.05.2022
3550 Clouds 17 1011 69 10000 0.45 111 01:48 23.05.2022
3551 Clouds 17 1011 68 10000 1.34 122 01:19 23.05.2022
3552 Rain 15 1013 74 10000 2.07 157 22:47 22.05.2022
3553 Rain 17 1013 72 10000 1.66 141 22:21 22.05.2022
3554 Rain 17 1013 72 10000 1.66 141 21:50 22.05.2022
3555 Rain 19 1013 72 10000 1.37 81 20:42 22.05.2022
3556 Clouds 20 1013 67 10000 1.78 60 20:20 22.05.2022
3557 Clouds 23 1012 42 10000 0.45 86 18:58 22.05.2022
3558 Clouds 23 1012 41 10000 1.79 315 18:37 22.05.2022
3559 Clouds 23 1012 42 10000 1.79 315 18:19 22.05.2022
3560 Clouds 24 1012 40 10000 0.89 72 16:51 22.05.2022
3561 Clouds 24 1014 40 10000 1.79 280 15:24 22.05.2022
3562 Clouds 24 1013 38 10000 1.34 50 14:44 22.05.2022
3563 Clouds 23 1016 44 10000 1.34 282 12:54 22.05.2022
3564 Clouds 22 1015 44 10000 1.79 329 12:31 22.05.2022
3565 Clouds 20 1017 50 10000 1.34 117 10:45 22.05.2022
3566 Clouds 18 1017 60 10000 0.45 109 09:31 22.05.2022
3567 Clouds 13 1018 82 10000 1.36 107 07:49 22.05.2022
3568 Clouds 11 1018 87 10000 0.96 73 07:20 22.05.2022
3569 Clouds 11 1019 88 10000 0.86 72 04:30 22.05.2022
3570 Clouds 13 1020 80 10000 0.79 73 01:19 22.05.2022
3571 Clouds 15 1020 70 10000 0.79 59 23:57 21.05.2022
3572 Clouds 15 1020 69 10000 0.45 57 23:32 21.05.2022
3573 Clouds 17 1020 61 10000 0.45 348 22:22 21.05.2022
3574 Clouds 18 1022 60 10000 1.51 16 21:39 21.05.2022
3575 Clouds 19 1020 71 10000 1.76 3 20:48 21.05.2022
3576 Clouds 20 1020 68 10000 2.37 350 20:19 21.05.2022
3577 Clouds 21 1020 48 10000 2.84 331 19:24 21.05.2022
3578 Clouds 22 1020 42 10000 3.72 309 17:35 21.05.2022
3579 Clouds 22 1017 41 10000 1.79 304 15:37 21.05.2022
3580 Clouds 22 1022 42 10000 3.13 277 14:36 21.05.2022
3581 Clouds 22 1022 44 10000 1.34 290 13:39 21.05.2022
3582 Clouds 20 1022 51 10000 2.68 207 12:40 21.05.2022
3583 Clouds 20 1023 55 10000 4.47 286 11:54 21.05.2022
3584 Clouds 17 1023 75 10000 3.21 286 10:22 21.05.2022
3585 Clouds 17 1019 74 10000 1.34 290 09:20 21.05.2022
3586 Clouds 17 1023 79 10000 0.45 244 08:47 21.05.2022
3587 Clouds 15 1022 90 10000 0.89 268 06:28 21.05.2022
3588 Rain 19 1021 80 6438 1.34 327 02:26 21.05.2022
3589 Clouds 24 1019 79 10000 4.94 253 23:47 20.05.2022
3590 Clouds 22 1018 78 10000 4.32 247 22:42 20.05.2022
3591 Clouds 22 1018 78 10000 4.32 247 22:42 20.05.2022
3592 Clouds 23 1018 69 10000 3.8 262 22:23 20.05.2022
3593 Rain 25 1017 65 10000 3.8 262 21:40 20.05.2022
3594 Clouds 27 1017 68 10000 2.83 234 20:54 20.05.2022
3595 Clouds 27 1016 66 10000 1.93 256 19:57 20.05.2022
3596 Clouds 29 1016 42 10000 1.29 283 19:24 20.05.2022
3597 Clouds 30 1014 38 10000 1.79 217 18:28 20.05.2022
3598 Clouds 31 1018 37 10000 1.34 202 16:53 20.05.2022
3599 Clouds 31 1019 37 10000 1.79 275 15:58 20.05.2022
3600 Clouds 31 1020 38 10000 1.34 296 15:40 20.05.2022
3601 Clouds 30 1021 39 10000 2.24 216 14:29 20.05.2022
3602 Clouds 30 1021 39 10000 1.34 355 13:55 20.05.2022
3603 Clouds 28 1023 45 10000 1.79 331 11:33 20.05.2022
3604 Clouds 24 1024 60 10000 1.34 149 09:51 20.05.2022
3605 Clouds 21 1024 67 10000 1.34 192 08:43 20.05.2022
3606 Clouds 16 1024 82 10000 0.45 168 06:50 20.05.2022
3607 Clouds 16 1024 83 10000 0.45 248 06:31 20.05.2022
3608 Clouds 16 1024 83 10000 0.89 125 04:31 20.05.2022
3609 Rain 19 1025 94 10000 2.43 208 00:43 20.05.2022
3610 Clouds 20 1025 95 10000 1.5 273 22:46 19.05.2022
3611 Clouds 20 1025 95 10000 1.9 204 22:19 19.05.2022
3612 Clouds 22 1025 95 10000 1.9 204 21:42 19.05.2022
3613 Clouds 23 1025 94 10000 2.34 280 21:22 19.05.2022
3614 Clouds 25 1021 88 10000 4.46 199 20:32 19.05.2022
3615 Clouds 25 1021 81 10000 3.79 194 19:40 19.05.2022
3616 Clouds 28 1020 46 10000 2.43 301 18:19 19.05.2022
3617 Clouds 29 1022 45 10000 2.24 286 16:35 19.05.2022
3618 Clouds 29 1022 45 10000 3.58 263 14:52 19.05.2022
3619 Clouds 29 1022 45 10000 2.24 292 14:24 19.05.2022
3620 Clouds 28 1022 48 10000 3.13 304 13:23 19.05.2022
3621 Clouds 25 1023 53 10000 2.68 263 11:29 19.05.2022
3622 Clouds 19 1023 66 10000 0.89 124 09:28 19.05.2022
3623 Clear 13 1026 77 10000 1.34 161 07:52 19.05.2022
3624 Clear 9 1023 86 10000 1.8 121 06:18 19.05.2022
3625 Clear 11 1023 81 10000 2.82 99 02:23 19.05.2022
3626 Clear 12 1024 86 10000 2.77 94 00:40 19.05.2022
3627 Clear 15 1024 78 10000 3.52 100 22:47 18.05.2022
3628 Clear 16 1024 78 10000 3.59 95 22:24 18.05.2022
3629 Clear 18 1028 57 10000 0.45 98 21:30 18.05.2022
3630 Clear 19 1023 75 10000 3.52 89 20:50 18.05.2022
3631 Clouds 20 1023 69 10000 3.9 89 20:18 18.05.2022
3632 Clouds 20 1022 69 10000 3.77 87 20:18 18.05.2022
3633 Clouds 23 1022 60 10000 4.25 81 18:33 18.05.2022
3634 Clouds 23 1025 49 10000 2.68 88 17:41 18.05.2022
3635 Clouds 24 1023 47 10000 1.79 32 17:23 18.05.2022
3636 Clouds 24 1023 47 10000 2.24 59 16:34 18.05.2022
3637 Clouds 24 1024 51 10000 2.68 137 15:42 18.05.2022
3638 Clouds 24 1024 52 10000 1.79 28 14:48 18.05.2022
3639 Clouds 24 1024 50 10000 1.34 119 13:44 18.05.2022
3640 Clouds 25 1024 46 10000 0.89 109 12:48 18.05.2022
3641 Clouds 23 1025 56 10000 0.89 43 11:36 18.05.2022
3642 Clouds 23 1025 58 10000 0.45 92 11:18 18.05.2022
3643 Clouds 20 1025 65 10000 0.89 144 09:56 18.05.2022
3644 Clouds 13 1024 86 10000 1.63 111 07:54 18.05.2022
3645 Clouds 11 1026 92 10000 1.11 103 06:48 18.05.2022
3646 Clouds 11 1023 89 10000 1.23 146 02:23 18.05.2022
3647 Clouds 13 1022 86 10000 1.23 120 00:23 18.05.2022
3648 Clouds 15 1022 82 10000 1.2 104 22:47 17.05.2022
3649 Clouds 17 1021 75 10000 1.35 32 21:20 17.05.2022
3650 Clouds 20 1021 60 10000 1.44 1 20:29 17.05.2022
3651 Clouds 22 1020 53 10000 0.89 49 19:28 17.05.2022
3652 Clouds 22 1020 54 10000 1.34 360 17:53 17.05.2022
3653 Clouds 23 1021 51 10000 1.34 355 17:22 17.05.2022
3654 Clouds 23 1021 52 10000 2.68 274 16:34 17.05.2022
3655 Clouds 23 1022 53 10000 2.24 341 15:33 17.05.2022
3656 Clouds 23 1022 53 10000 2.68 295 14:31 17.05.2022
3657 Clouds 22 1022 54 10000 2.24 327 13:54 17.05.2022
3658 Clouds 22 1023 59 10000 1.34 262 12:32 17.05.2022
3659 Clouds 17 1023 80 10000 1.34 300 09:53 17.05.2022
3660 Clouds 15 1023 87 10000 2.11 283 08:44 17.05.2022
3661 Clouds 12 1023 92 10000 2.1 252 07:18 17.05.2022
3662 Clouds 13 1022 90 10000 1.34 275 04:29 17.05.2022
3663 Clouds 14 1022 91 10000 0.45 226 00:47 17.05.2022
3664 Rain 14 1022 92 10000 2.24 220 22:45 16.05.2022
3665 Rain 14 1022 90 10000 3.13 178 22:18 16.05.2022
3666 Rain 16 1021 87 10000 1.34 206 20:50 16.05.2022
3667 Clouds 17 1021 84 10000 2.53 287 20:24 16.05.2022
3668 Rain 18 1019 80 10000 0.45 319 18:39 16.05.2022
3669 Clouds 25 1019 51 10000 1.79 277 16:37 16.05.2022
3670 Clouds 23 1020 58 10000 3.84 282 14:48 16.05.2022
3671 Rain 18 1018 55 10000 1.86 292 13:27 16.05.2022
3672 Rain 20 1021 61 10000 1.42 306 11:42 16.05.2022
3673 Clouds 20 1020 64 10000 4.02 259 10:34 16.05.2022
3674 Clouds 14 1018 84 10000 0.45 120 07:47 16.05.2022
3675 Clouds 12 1018 85 10000 1.5 226 05:40 16.05.2022
3676 Clouds 13 1018 79 10000 1.52 107 00:35 16.05.2022
3677 Clouds 15 1018 70 10000 1.77 108 22:42 15.05.2022
3678 Clouds 16 1020 66 10000 2.26 96 21:57 15.05.2022
3679 Clouds 17 1017 81 10000 2.26 97 21:36 15.05.2022
3680 Clouds 21 1016 71 10000 2.35 77 20:38 15.05.2022
3681 Clouds 24 1018 40 10000 0.89 90 18:37 15.05.2022
3682 Clouds 25 1018 41 10000 1.79 355 16:52 15.05.2022
3683 Clouds 25 1019 45 10000 1.34 10 14:29 15.05.2022
3684 Clouds 24 1019 46 10000 1.34 81 13:45 15.05.2022
3685 Clouds 23 1020 46 10000 0.89 45 11:55 15.05.2022
3686 Clouds 22 1020 52 10000 0.89 111 10:47 15.05.2022
3687 Clouds 19 1020 62 10000 0.89 51 09:51 15.05.2022
3688 Clouds 11 1020 82 10000 0.83 110 07:23 15.05.2022
3689 Clouds 9 1023 89 10000 0.82 110 06:55 15.05.2022
3690 Clouds 10 1020 88 10000 0.57 143 02:55 15.05.2022
3691 Clouds 12 1021 84 10000 0.65 101 00:24 15.05.2022
3692 Clouds 12 1021 82 10000 0.65 98 23:37 14.05.2022
3693 Clouds 15 1020 71 10000 0.72 67 21:51 14.05.2022
3694 Clouds 16 1020 67 10000 1.14 39 21:26 14.05.2022
3695 Clear 19 1020 72 10000 1.73 24 20:27 14.05.2022
3696 Clouds 22 1020 48 10000 2.47 13 19:21 14.05.2022
3697 Clouds 22 1020 46 10000 2.47 13 18:58 14.05.2022
3698 Clouds 23 1020 43 10000 2.68 294 17:53 14.05.2022
3699 Clouds 23 1020 46 10000 1.34 5 16:23 14.05.2022
3700 Clouds 22 1021 48 10000 2.24 323 14:40 14.05.2022
3701 Clouds 22 1021 49 10000 1.79 319 14:22 14.05.2022
3702 Clouds 20 1022 54 10000 0.89 116 11:48 14.05.2022
3703 Clouds 19 1023 58 10000 0.89 75 10:45 14.05.2022
3704 Clouds 18 1022 65 10000 0.69 73 10:19 14.05.2022
3705 Clouds 16 1022 78 10000 0.38 132 09:34 14.05.2022
3706 Clouds 14 1023 95 10000 0.37 270 07:59 14.05.2022
3707 Clouds 11 1022 94 10000 0.76 252 05:21 14.05.2022
3708 Clouds 13 1022 93 10000 0.63 50 01:57 14.05.2022
3709 Clouds 13 1022 91 10000 0.48 1 23:31 13.05.2022
3710 Clouds 14 1022 89 10000 0.73 306 22:56 13.05.2022
3711 Clouds 14 1022 88 10000 1.19 286 22:22 13.05.2022
3712 Clouds 16 1023 85 10000 1.7 271 21:35 13.05.2022
3713 Clouds 17 1022 85 10000 1.7 271 20:43 13.05.2022
3714 Clouds 18 1023 79 10000 0.45 294 20:23 13.05.2022
3715 Clouds 19 1021 75 10000 0.89 287 19:21 13.05.2022
3716 Clouds 20 1021 74 10000 2.24 253 17:50 13.05.2022
3717 Clouds 19 1020 80 10000 2.94 280 17:26 13.05.2022
3718 Clouds 18 1021 83 10000 1.34 288 15:53 13.05.2022
3719 Clouds 16 1022 92 10000 2.68 279 14:51 13.05.2022
3720 Rain 15 1022 92 10000 0.45 264 13:27 13.05.2022
3721 Rain 17 1022 89 10000 1.79 284 12:25 13.05.2022
3722 Clouds 19 1022 82 10000 0.45 173 10:42 13.05.2022
3723 Clouds 16 1021 90 10000 0.45 89 09:31 13.05.2022
3724 Rain 15 1021 91 10000 2.57 227 08:23 13.05.2022
3725 Clouds 15 1021 92 10000 0.89 5 07:42 13.05.2022
3726 Rain 15 1020 90 10000 0.45 220 05:59 13.05.2022
3727 Clouds 15 1021 91 10000 3.09 290 02:44 13.05.2022
3728 Rain 16 1019 87 10000 1.07 246 23:46 12.05.2022
3729 Rain 17 1020 80 10000 1.34 85 22:44 12.05.2022
3730 Rain 19 1019 73 10000 2.08 213 21:54 12.05.2022
3731 Clouds 22 1018 80 10000 1.95 318 20:25 12.05.2022
3732 Clouds 24 1018 73 10000 3.03 317 18:50 12.05.2022
3733 Clouds 26 1016 40 10000 1.79 294 16:58 12.05.2022
3734 Clouds 26 1020 45 10000 4.02 220 15:50 12.05.2022
3735 Clouds 25 1021 46 10000 8.05 271 14:39 12.05.2022
3736 Clouds 24 1021 50 10000 2.68 182 13:34 12.05.2022
3737 Clouds 22 1021 54 10000 3.58 296 10:45 12.05.2022
3738 Clouds 20 1021 57 10000 1.79 319 09:28 12.05.2022
3739 Clouds 20 1021 59 10000 4.02 272 08:50 12.05.2022
3740 Clouds 19 1019 59 10000 3.13 287 07:40 12.05.2022
3741 Clouds 17 1018 68 10000 3.88 248 05:46 12.05.2022
3742 Clouds 15 1019 72 10000 3.76 223 02:49 12.05.2022
3743 Clear 17 1021 62 10000 0.89 322 00:35 12.05.2022
3744 Clear 19 1018 54 10000 2.74 211 22:35 11.05.2022
3745 Clear 19 1017 56 10000 2.74 211 21:46 11.05.2022
3746 Clear 20 1016 54 10000 2.5 209 21:21 11.05.2022
3747 Clouds 26 1018 52 10000 2.24 271 18:49 11.05.2022
3748 Clouds 27 1016 39 10000 3.58 242 16:55 11.05.2022
3749 Clouds 26 1018 38 10000 4.02 272 15:31 11.05.2022
3750 Clouds 26 1018 38 10000 4.02 272 15:31 11.05.2022
3751 Clouds 26 1018 39 10000 4.02 272 15:31 11.05.2022
3752 Clouds 26 1018 39 10000 3.13 244 15:31 11.05.2022
3753 Clouds 26 1018 38 10000 4.02 272 15:31 11.05.2022
3754 Clouds 26 1018 38 10000 4.02 272 15:31 11.05.2022
3755 Clouds 26 1017 36 10000 4.02 293 14:39 11.05.2022
3756 Clouds 26 1017 38 10000 4.47 274 14:18 11.05.2022
3757 Clouds 24 1019 50 10000 2.24 185 11:54 11.05.2022
3758 Clouds 23 1019 53 10000 5.36 320 11:19 11.05.2022
3759 Clouds 17 1020 69 10000 0.89 150 08:40 11.05.2022
3760 Clouds 12 1019 81 10000 0.45 107 05:31 11.05.2022
3761 Clouds 12 1019 81 10000 0.45 107 05:31 11.05.2022
3762 Clouds 14 1020 75 10000 0.45 300 00:45 11.05.2022
3763 Clouds 15 1020 74 10000 2.33 193 22:32 10.05.2022
3764 Clouds 16 1020 71 10000 1.9 197 21:57 10.05.2022
3765 Clouds 17 1019 72 10000 1.44 200 20:58 10.05.2022
3766 Clouds 22 1022 55 10000 0.36 168 19:47 10.05.2022
3767 Clouds 23 1020 47 10000 1.34 317 18:27 10.05.2022
3768 Clouds 23 1020 49 10000 1.79 281 17:34 10.05.2022
3769 Clouds 24 1021 42 10000 1.79 323 15:41 10.05.2022
3770 Clear 23 1023 50 10000 0.89 184 12:48 10.05.2022
3771 Clear 21 1023 55 10000 0.45 147 11:51 10.05.2022
3772 Clear 21 1023 57 10000 0.89 152 11:21 10.05.2022
3773 Clear 20 1023 61 10000 0.89 327 10:54 10.05.2022
3774 Clear 16 1024 78 10000 1.34 134 09:27 10.05.2022
3775 Clear 11 1024 91 10000 1.4 160 07:32 10.05.2022
3776 Clear 8 1023 92 10000 1.23 161 04:34 10.05.2022
3777 Clear 10 1024 90 10000 1.48 113 01:36 10.05.2022
3778 Clear 12 1025 86 10000 1.7 99 23:37 09.05.2022
3779 Clear 14 1024 79 10000 1.76 85 22:29 09.05.2022
3780 Clear 16 1023 82 10000 1.86 67 21:25 09.05.2022
3781 Clouds 19 1022 76 10000 2.19 67 19:52 09.05.2022
3782 Clouds 21 1024 56 10000 1.79 46 18:22 09.05.2022
3783 Clouds 22 1024 56 10000 2.68 65 16:55 09.05.2022
3784 Clouds 21 1023 54 10000 2.68 55 16:55 09.05.2022
3785 Clouds 21 1023 53 10000 2.24 27 15:54 09.05.2022
3786 Clouds 21 1024 52 10000 2.24 42 15:34 09.05.2022
3787 Clouds 21 1024 55 10000 1.79 126 14:33 09.05.2022
3788 Clouds 20 1025 59 10000 2.68 55 13:51 09.05.2022
3789 Clouds 19 1025 68 10000 1.34 31 12:32 09.05.2022
3790 Clouds 18 1025 73 10000 1.79 127 11:52 09.05.2022
3791 Clouds 16 1025 80 10000 1.79 79 10:46 09.05.2022
3792 Clouds 14 1026 92 10000 1.34 47 09:59 09.05.2022
3793 Clouds 9 1025 94 10000 0.45 111 07:56 09.05.2022
3794 Clouds 8 1024 93 10000 1.71 82 04:33 09.05.2022
3795 Clouds 8 1024 92 10000 1.85 82 04:33 09.05.2022
3796 Clouds 11 1025 90 10000 1.89 66 00:23 09.05.2022
3797 Clouds 12 1024 89 10000 1.74 75 23:27 08.05.2022
3798 Clouds 12 1025 88 10000 1.86 74 22:29 08.05.2022
3799 Clouds 14 1026 87 10000 1.97 68 20:53 08.05.2022
3800 Clouds 15 1024 83 10000 2.17 77 20:18 08.05.2022
3801 Clouds 15 1024 81 10000 0.89 94 19:27 08.05.2022
3802 Clouds 16 1024 82 10000 0.45 9 18:35 08.05.2022
3803 Clouds 16 1024 80 10000 0.89 38 17:22 08.05.2022
3804 Clouds 16 1024 80 10000 0.89 98 15:44 08.05.2022
3805 Clouds 16 1024 81 10000 1.34 71 15:21 08.05.2022
3806 Clouds 15 1024 84 10000 1.79 69 12:46 08.05.2022
3807 Clouds 14 1024 91 10000 1.34 53 10:56 08.05.2022
3808 Clouds 13 1023 90 10000 2.24 106 10:22 08.05.2022
3809 Clouds 13 1023 92 10000 1.34 24 09:51 08.05.2022
3810 Clouds 12 1022 95 10000 0.45 38 07:43 08.05.2022
3811 Clouds 11 1022 94 10000 1.8 54 05:22 08.05.2022
3812 Clouds 11 1022 94 10000 1.61 64 03:21 08.05.2022
3813 Rain 11 1022 92 10000 1.67 71 00:42 08.05.2022
3814 Clouds 11 1023 92 10000 0.45 118 23:55 07.05.2022
3815 Clouds 11 1022 92 10000 1.75 80 23:28 07.05.2022
3816 Clouds 12 1022 91 10000 1.75 80 22:35 07.05.2022
3817 Clouds 12 1022 90 10000 1.85 84 21:55 07.05.2022
3818 Clouds 12 1022 89 10000 1.84 86 21:20 07.05.2022
3819 Clouds 13 1022 87 10000 1.87 85 20:23 07.05.2022
3820 Clouds 14 1022 88 10000 0.45 83 18:41 07.05.2022
3821 Clouds 15 1022 85 10000 0.45 195 16:24 07.05.2022
3822 Clouds 14 1023 92 10000 0.89 49 14:51 07.05.2022
3823 Rain 12 1023 97 10000 0.45 74 11:23 07.05.2022
3824 Rain 12 1023 97 10000 0.45 67 09:42 07.05.2022
3825 Rain 12 1022 94 10000 0.45 104 08:30 07.05.2022
3826 Rain 11 1022 94 10000 0.81 101 06:44 07.05.2022
3827 Rain 11 1022 94 10000 0.67 122 06:24 07.05.2022
3828 Clouds 11 1022 93 10000 0.69 104 03:57 07.05.2022
3829 Clouds 12 1023 92 10000 0.61 335 23:44 06.05.2022
3830 Clouds 12 1023 92 10000 0.23 287 22:35 06.05.2022
3831 Clouds 12 1023 91 10000 0.55 92 21:52 06.05.2022
3832 Clouds 12 1023 91 10000 0.93 93 21:24 06.05.2022
3833 Clouds 13 1022 89 10000 0.91 61 19:47 06.05.2022
3834 Clouds 13 1022 88 10000 0.45 335 19:21 06.05.2022
3835 Clouds 13 1022 88 8949 0.89 303 18:30 06.05.2022
3836 Clouds 13 1022 89 8949 0.89 9 17:34 06.05.2022
3837 Clouds 12 1022 91 10000 2.24 296 15:51 06.05.2022
3838 Clouds 12 1023 92 10000 1.34 348 15:18 06.05.2022
3839 Clouds 12 1023 93 10000 0.45 55 13:49 06.05.2022
3840 Clouds 12 1022 93 10000 0.89 331 12:50 06.05.2022
3841 Clouds 12 1022 93 10000 0.45 336 11:58 06.05.2022
3842 Clouds 12 1022 93 10000 2.5 27 10:41 06.05.2022
3843 Clouds 11 1022 94 10000 2.52 27 09:47 06.05.2022
3844 Clouds 11 1022 94 10000 2.23 30 09:18 06.05.2022
3845 Clouds 10 1022 94 10000 2.36 23 07:49 06.05.2022
3846 Rain 10 1021 93 10000 2.04 12 06:26 06.05.2022
3847 Rain 10 1021 91 10000 0.45 270 03:42 06.05.2022
3848 Rain 11 1021 90 10000 0.45 213 02:38 06.05.2022
3849 Clouds 14 1020 77 10000 1.61 13 22:58 05.05.2022
3850 Clouds 14 1020 69 10000 1.82 18 21:49 05.05.2022
3851 Clouds 16 1018 70 10000 2.8 15 20:37 05.05.2022
3852 Clouds 18 1017 80 10000 2.62 2 18:56 05.05.2022
3853 Clouds 19 1019 55 10000 0.89 34 16:42 05.05.2022
3854 Clouds 19 1019 55 10000 1.34 17 15:31 05.05.2022
3855 Clouds 19 1020 56 10000 0.89 33 13:30 05.05.2022
3856 Clouds 18 1020 60 10000 0.89 302 12:56 05.05.2022
3857 Clouds 17 1021 68 10000 0.45 41 11:35 05.05.2022
3858 Clouds 14 1020 80 10000 1.33 289 09:41 05.05.2022
3859 Clouds 14 1020 80 10000 0.45 255 09:41 05.05.2022
3860 Clouds 11 1018 93 10000 1.44 255 08:40 05.05.2022
3861 Clouds 7 1019 93 10000 1.99 230 06:24 05.05.2022
3862 Clouds 9 1019 93 10000 0.89 182 02:25 05.05.2022
3863 Clouds 9 1019 93 10000 2.41 216 01:44 05.05.2022
3864 Clouds 10 1019 93 10000 2.55 214 00:49 05.05.2022
3865 Clouds 11 1019 92 10000 3.07 201 23:18 04.05.2022
3866 Clouds 11 1018 91 10000 1.34 186 21:59 04.05.2022
3867 Rain 11 1018 91 10000 0.45 213 21:34 04.05.2022
3868 Rain 11 1017 90 10000 0.45 212 20:55 04.05.2022
3869 Rain 12 1018 90 10000 0.89 119 20:18 04.05.2022
3870 Rain 12 1018 89 10000 1.9 198 19:35 04.05.2022
3871 Rain 13 1017 82 10000 4.47 295 18:43 04.05.2022
3872 Rain 12 1017 83 10000 3.58 300 18:43 04.05.2022
3873 Rain 16 1017 67 10000 3.13 315 18:19 04.05.2022
3874 Clouds 19 1016 56 10000 0.45 17 17:22 04.05.2022
3875 Clouds 19 1016 57 10000 0.45 61 15:34 04.05.2022
3876 Clouds 18 1017 61 10000 0.45 66 14:45 04.05.2022
3877 Rain 18 1017 64 10000 0.89 276 14:19 04.05.2022
3878 Rain 18 1017 58 10000 0.45 15 12:50 04.05.2022
3879 Clouds 17 1018 63 10000 0.45 57 11:59 04.05.2022
3880 Clouds 15 1019 76 10000 0.89 300 10:28 04.05.2022
3881 Clouds 13 1019 87 10000 0.89 118 09:22 04.05.2022
3882 Clouds 11 1018 91 10000 0.45 211 08:26 04.05.2022
3883 Clouds 9 1014 90 10000 2.08 224 05:42 04.05.2022
3884 Clouds 10 1017 86 10000 2.12 230 02:42 04.05.2022
3885 Rain 11 1017 88 10000 1.71 225 23:31 03.05.2022
3886 Rain 12 1017 84 10000 0.45 327 22:00 03.05.2022
3887 Rain 12 1016 83 10000 0.89 89 21:32 03.05.2022
3888 Rain 12 1016 81 10000 1.79 317 20:52 03.05.2022
3889 Rain 15 1016 72 10000 2.68 130 19:39 03.05.2022
3890 Clouds 18 1015 61 10000 2.68 306 18:48 03.05.2022
3891 Clouds 20 1015 53 10000 0.45 47 17:34 03.05.2022
3892 Clouds 19 1014 57 10000 1.34 5 16:28 03.05.2022
3893 Clouds 19 1013 56 10000 0.45 67 14:43 03.05.2022
3894 Clouds 18 1016 58 10000 1.34 245 12:47 03.05.2022
3895 Clouds 18 1016 59 10000 0.89 55 12:25 03.05.2022
3896 Clouds 16 1017 68 10000 0.89 332 10:52 03.05.2022
3897 Clouds 11 1017 87 10000 0.89 135 08:58 03.05.2022
3898 Clouds 6 1016 93 10000 1.5 217 06:46 03.05.2022
3899 Clouds 6 1015 91 10000 1.53 233 04:58 03.05.2022
3900 Clouds 10 1017 86 10000 1.42 230 23:44 02.05.2022
3901 Clouds 11 1019 80 10000 0.66 239 22:34 02.05.2022
3902 Clouds 11 1015 86 10000 0.33 349 21:49 02.05.2022
3903 Clouds 13 1018 94 10000 1.09 16 20:51 02.05.2022
3904 Clouds 16 1016 68 10000 1.16 42 18:37 02.05.2022
3905 Clouds 16 1016 63 10000 1.34 118 17:53 02.05.2022
3906 Clouds 16 1015 63 10000 0.89 342 17:33 02.05.2022
3907 Clouds 16 1016 64 10000 0.89 56 16:20 02.05.2022
3908 Clouds 17 1016 60 10000 1.34 25 15:29 02.05.2022
3909 Clouds 15 1017 65 10000 1.79 53 13:50 02.05.2022
3910 Clouds 15 1017 67 10000 0.45 5 12:18 02.05.2022
3911 Clouds 12 1018 83 10000 1.79 138 10:25 02.05.2022
3912 Clouds 8 1018 92 10000 0.89 136 08:49 02.05.2022
3913 Clouds 6 1021 93 10000 0.45 127 07:39 02.05.2022
3914 Clouds 6 1021 93 10000 1 99 07:39 02.05.2022
3915 Clouds 5 1018 91 10000 0.43 137 02:51 02.05.2022
3916 Clouds 6 1019 87 10000 0.51 152 00:24 02.05.2022
3917 Clouds 6 1020 88 10000 0.5 152 23:47 01.05.2022
3918 Clouds 8 1020 84 10000 0.31 113 22:20 01.05.2022
3919 Clouds 10 1020 80 10000 0.51 78 21:18 01.05.2022
3920 Clouds 12 1020 76 10000 0.45 102 19:50 01.05.2022
3921 Clouds 13 1021 76 10000 0.68 5 18:55 01.05.2022
3922 Clouds 13 1020 75 10000 0.99 3 18:27 01.05.2022
3923 Clouds 12 1021 77 10000 1.38 1 17:26 01.05.2022
3924 Clouds 12 1020 73 10000 0.45 96 16:23 01.05.2022
3925 Clouds 13 1020 74 10000 1.95 350 15:25 01.05.2022
3926 Clouds 11 1020 82 10000 0.89 273 13:42 01.05.2022
3927 Clouds 9 1022 93 10000 0.89 250 11:18 01.05.2022
3928 Clouds 8 1022 93 10000 0.45 282 08:53 01.05.2022
3929 Clouds 8 1021 92 10000 1.73 270 07:55 01.05.2022
3930 Rain 9 1021 90 10000 0.89 286 03:35 01.05.2022
3931 Rain 9 1022 87 10000 0.45 284 00:18 01.05.2022
3932 Rain 10 1022 83 10000 1.49 214 21:47 30.04.2022
3933 Rain 11 1021 79 10000 1.47 200 20:58 30.04.2022
3934 Clouds 11 1021 75 10000 1.82 245 19:41 30.04.2022
3935 Clouds 11 1021 75 10000 0.89 219 18:21 30.04.2022
3936 Clouds 12 1022 73 10000 0.89 294 16:44 30.04.2022
3937 Rain 12 1022 75 10000 2.24 311 15:47 30.04.2022
3938 Rain 12 1022 77 10000 1.79 309 14:48 30.04.2022
3939 Rain 13 1022 69 10000 2.24 271 12:55 30.04.2022
3940 Clouds 13 1022 65 10000 1.79 295 11:34 30.04.2022
3941 Clouds 13 1022 67 10000 2.24 312 10:45 30.04.2022
3942 Clouds 11 1021 72 10000 2.24 298 09:41 30.04.2022
3943 Clouds 5 1022 85 10000 0.72 206 06:48 30.04.2022
3944 Clouds 6 1022 80 10000 0.57 90 02:55 30.04.2022
3945 Clouds 9 1023 70 10000 1.82 89 23:37 29.04.2022
3946 Clouds 10 1022 64 10000 1.83 103 22:31 29.04.2022
3947 Clouds 10 1023 74 10000 1.83 103 21:53 29.04.2022
3948 Clouds 14 1023 49 10000 1.98 98 20:49 29.04.2022
3949 Clouds 16 1025 56 10000 2.1 90 19:47 29.04.2022
3950 Clouds 17 1022 43 10000 2.62 77 18:36 29.04.2022
3951 Clouds 18 1024 44 10000 1.79 40 17:25 29.04.2022
3952 Clouds 19 1025 39 10000 1.34 18 15:50 29.04.2022
3953 Clouds 18 1025 36 10000 1.79 120 14:23 29.04.2022
3954 Clouds 18 1025 36 10000 2.24 67 13:22 29.04.2022
3955 Clouds 16 1026 42 10000 2.24 82 11:51 29.04.2022
3956 Clear 11 1028 68 10000 0.89 142 09:23 29.04.2022
3957 Clear 3 1027 87 10000 1.77 107 07:28 29.04.2022
3958 Clear 2 1027 89 10000 1.76 108 06:46 29.04.2022
3959 Clear 2 1027 88 10000 1.77 109 05:55 29.04.2022
3960 Clear 5 1029 81 10000 0.45 178 00:47 29.04.2022
3961 Clear 6 1029 77 10000 1.74 137 23:48 28.04.2022
3962 Clear 8 1029 73 10000 1.79 134 22:45 28.04.2022
3963 Clear 9 1029 66 10000 1.74 125 21:47 28.04.2022
3964 Clear 10 1028 67 10000 1.8 99 21:29 28.04.2022
3965 Clear 13 1027 67 10000 1.93 74 20:37 28.04.2022
3966 Clear 14 1026 67 10000 1.89 74 19:46 28.04.2022
3967 Clear 15 1027 43 10000 1.79 48 19:23 28.04.2022
3968 Clear 16 1027 43 10000 1.79 46 18:37 28.04.2022
3969 Clear 16 1027 41 10000 1.79 40 17:32 28.04.2022
3970 Clear 17 1027 41 10000 2.24 47 16:49 28.04.2022
3971 Clear 16 1027 42 10000 2.68 24 16:19 28.04.2022
3972 Clear 16 1027 42 10000 2.68 60 15:41 28.04.2022
3973 Clear 16 1028 41 10000 2.68 36 14:47 28.04.2022
3974 Clear 15 1028 45 10000 2.68 44 13:20 28.04.2022
3975 Clear 15 1028 47 10000 2.24 76 12:28 28.04.2022
3976 Clear 13 1028 59 10000 2.68 106 10:51 28.04.2022
3977 Clear 12 1028 65 10000 1.34 110 10:26 28.04.2022
3978 Clear 11 1028 73 10000 0.89 101 09:41 28.04.2022
3979 Clear 2 1027 92 10000 1.84 98 07:38 28.04.2022
3980 Clear 1 1025 92 10000 1.86 98 06:38 28.04.2022
3981 Clear 2 1026 92 10000 1.85 94 05:40 28.04.2022
3982 Clear 2 1026 91 10000 1.86 93 04:42 28.04.2022
3983 Clear 5 1026 90 10000 2.13 102 00:51 28.04.2022
3984 Clear 7 1025 85 10000 2.09 96 22:52 27.04.2022
3985 Clear 8 1026 85 10000 2.21 95 21:58 27.04.2022
3986 Clear 9 1026 83 10000 2.34 85 21:32 27.04.2022
3987 Clear 11 965 62 10000 2.34 85 20:44 27.04.2022
3988 Clouds 13 994 61 10000 2.56 77 19:41 27.04.2022
3989 Clouds 13 1007 61 10000 0.45 188 19:22 27.04.2022
3990 Clouds 13 1007 61 10000 0.45 54 19:22 27.04.2022
3991 Clouds 13 1024 62 10000 2.24 44 18:38 27.04.2022
3992 Clouds 13 1024 61 10000 1.34 331 17:26 27.04.2022
3993 Clouds 14 1024 64 10000 0.89 360 15:56 27.04.2022
3994 Clouds 11 1011 72 10000 1.79 5 12:50 27.04.2022
3995 Clouds 11 1011 71 10000 1.34 339 11:23 27.04.2022
3996 Clouds 10 1007 78 10000 0.45 301 10:26 27.04.2022
3997 Clouds 6 1005 93 10000 0.45 270 07:41 27.04.2022
3998 Clouds 5 1004 94 10000 0.45 289 06:36 27.04.2022
3999 Clouds 5 1003 91 10000 2.05 257 02:26 27.04.2022
4000 Clouds 5 1003 90 10000 2.15 245 01:21 27.04.2022
4001 Clouds 5 1003 90 10000 2.34 229 00:27 27.04.2022
4002 Clouds 6 1003 89 10000 2.43 223 23:24 26.04.2022
4003 Clouds 6 1002 88 10000 0.45 261 22:44 26.04.2022
4004 Clouds 7 1003 88 10000 0.45 290 21:57 26.04.2022
4005 Clouds 7 1002 87 10000 2.16 235 21:18 26.04.2022
4006 Clouds 8 1002 85 10000 2.38 253 20:36 26.04.2022
4007 Clouds 9 1005 84 10000 2.39 253 19:45 26.04.2022
4008 Clouds 9 1005 84 10000 0.89 284 19:26 26.04.2022
4009 Clouds 9 1005 84 10000 0.89 284 18:31 26.04.2022
4010 Clouds 8 1005 86 10000 1.34 204 17:38 26.04.2022
4011 Rain 7 1000 92 10000 1.34 288 15:32 26.04.2022
4012 Rain 8 999 90 10000 3.13 265 13:40 26.04.2022
4013 Rain 10 1001 89 10000 0.45 318 12:47 26.04.2022
4014 Rain 11 1015 89 10000 2.68 271 11:20 26.04.2022
4015 Rain 10 1014 85 10000 2.68 271 10:30 26.04.2022
4016 Clouds 10 1014 83 10000 0.89 282 10:30 26.04.2022
4017 Clouds 9 997 93 10000 0.45 176 08:33 26.04.2022
4018 Clouds 8 996 95 10000 1.06 186 04:53 26.04.2022
4019 Clouds 8 996 94 10000 1.42 217 04:22 26.04.2022
4020 Clouds 8 998 93 10000 0.86 186 00:46 26.04.2022
4021 Clouds 8 997 93 10000 0.62 210 23:49 25.04.2022
4022 Clouds 10 997 91 10000 0.45 151 21:53 25.04.2022
4023 Clouds 10 997 91 10000 1.67 276 21:25 25.04.2022
4024 Rain 11 1000 88 10000 0.89 275 19:53 25.04.2022
4025 Rain 11 995 81 10000 0.89 306 18:34 25.04.2022
4026 Rain 14 1011 68 10000 2.24 340 17:40 25.04.2022
4027 Clouds 15 1010 54 10000 2.24 315 16:42 25.04.2022
4028 Clouds 15 1011 59 10000 1.79 313 15:22 25.04.2022
4029 Clouds 14 1012 61 10000 3.13 328 14:32 25.04.2022
4030 Clouds 13 1011 67 10000 2.24 323 12:49 25.04.2022
4031 Clouds 11 994 75 10000 3.13 284 10:44 25.04.2022
4032 Clouds 10 997 85 10000 2.24 289 09:42 25.04.2022
4033 Clouds 8 992 92 10000 2.24 266 07:49 25.04.2022
4034 Clouds 8 990 92 10000 0.45 202 05:54 25.04.2022
4035 Rain 8 990 93 10000 1.34 211 01:30 25.04.2022
4036 Clouds 8 989 92 10000 2.24 218 23:56 24.04.2022
4037 Clouds 8 989 91 10000 3.13 272 23:25 24.04.2022
4038 Rain 8 989 89 10000 2.68 280 22:39 24.04.2022
4039 Rain 8 989 86 10000 2.24 289 21:56 24.04.2022
4040 Clouds 8 988 85 10000 3.13 305 21:22 24.04.2022
4041 Clouds 8 988 85 10000 3.13 305 21:22 24.04.2022
4042 Rain 8 987 85 10000 1.79 271 20:46 24.04.2022
4043 Rain 9 987 85 10000 2.68 287 20:21 24.04.2022
4044 Rain 10 991 83 10000 1.79 191 18:54 24.04.2022
4045 Rain 10 987 81 10000 0.89 201 17:54 24.04.2022
4046 Rain 10 987 81 10000 0.89 201 17:54 24.04.2022
4047 Rain 11 983 77 10000 1.34 302 17:21 24.04.2022
4048 Rain 11 987 74 10000 0.89 254 16:56 24.04.2022
4049 Rain 12 990 71 10000 0.89 311 16:29 24.04.2022
4050 Rain 12 990 65 10000 1.34 313 15:52 24.04.2022
4051 Clouds 12 1003 65 10000 2.24 291 14:40 24.04.2022
4052 Rain 12 1003 64 10000 4.02 299 13:38 24.04.2022
4053 Clouds 12 1003 64 10000 5.36 311 13:18 24.04.2022
4054 Clouds 11 1002 83 10000 4.35 250 11:53 24.04.2022
4055 Clouds 11 1002 91 10000 3.38 232 10:59 24.04.2022
4056 Clouds 11 1001 95 10000 3.76 260 09:47 24.04.2022
4057 Clouds 9 966 87 10000 2.24 252 08:23 24.04.2022
4058 Rain 8 981 92 10000 2.68 290 05:46 24.04.2022
4059 Clouds 8 981 91 10000 1.79 88 02:48 24.04.2022
4060 Clouds 9 983 88 10000 3.13 109 00:47 24.04.2022
4061 Rain 9 983 86 10000 0.89 93 23:55 23.04.2022
4062 Clouds 9 984 85 10000 1.34 114 23:25 23.04.2022
4063 Clouds 10 984 83 10000 0.89 92 22:40 23.04.2022
4064 Clouds 10 986 80 10000 1.34 100 21:48 23.04.2022
4065 Clouds 11 986 79 10000 1.34 99 21:29 23.04.2022
4066 Clouds 12 986 76 10000 1.79 107 20:27 23.04.2022
4067 Clouds 13 986 71 10000 2.24 88 19:21 23.04.2022
4068 Rain 13 985 70 10000 2.24 106 18:54 23.04.2022
4069 Rain 13 985 70 10000 1.34 54 18:32 23.04.2022
4070 Rain 14 986 67 10000 1.79 107 17:47 23.04.2022
4071 Clouds 15 1004 68 10000 2.68 26 16:46 23.04.2022
4072 Clouds 14 1004 69 10000 1.79 53 15:52 23.04.2022
4073 Clouds 14 1004 69 10000 1.79 53 15:52 23.04.2022
4074 Clouds 13 991 71 10000 0.89 132 13:33 23.04.2022
4075 Clouds 11 984 80 10000 0.45 207 11:57 23.04.2022
4076 Clouds 9 972 84 10000 0.45 40 10:37 23.04.2022
4077 Clouds 7 988 90 10000 1.34 152 08:27 23.04.2022
4078 Clouds 7 988 90 10000 1.34 50 05:27 23.04.2022
4079 Clouds 7 988 88 10000 1.34 76 03:32 23.04.2022
4080 Clouds 9 988 84 10000 2.68 105 23:38 22.04.2022
4081 Clouds 9 988 84 10000 1.34 107 23:20 22.04.2022
4082 Clouds 10 1005 81 10000 2.24 109 21:58 22.04.2022
4083 Clouds 10 973 78 10000 0.45 82 21:40 22.04.2022
4084 Clouds 12 944 67 10000 3.59 79 20:35 22.04.2022
4085 Clouds 14 1001 63 10000 3.62 68 19:39 22.04.2022
4086 Clouds 14 1002 64 10000 0.89 114 19:18 22.04.2022
4087 Clouds 14 1002 62 10000 0.89 136 18:28 22.04.2022
4088 Clouds 15 1002 61 10000 2.68 135 17:24 22.04.2022
4089 Clouds 15 1002 59 10000 0.89 136 16:29 22.04.2022
4090 Clouds 15 1002 59 10000 1.34 66 15:31 22.04.2022
4091 Clouds 14 1002 58 10000 3.58 175 14:38 22.04.2022
4092 Clouds 14 1003 62 10000 2.24 38 13:42 22.04.2022
4093 Clouds 12 1002 63 10000 1.34 27 12:55 22.04.2022
4094 Clouds 10 1002 69 10000 1.79 57 11:24 22.04.2022
4095 Clouds 10 1002 71 10000 0.89 43 10:58 22.04.2022
4096 Clouds 9 1002 73 10000 1.34 56 10:40 22.04.2022
4097 Clouds 8 1002 75 10000 1.34 53 10:20 22.04.2022
4098 Clouds 8 1002 77 10000 0.45 48 09:42 22.04.2022
4099 Clouds 7 990 81 10000 0.45 76 08:49 22.04.2022
4100 Clouds 2 1002 86 10000 1.73 75 06:54 22.04.2022
4101 Clear 6 1009 75 10000 0.45 81 01:41 22.04.2022
4102 Clear 6 1006 77 10000 2.92 70 23:49 21.04.2022
4103 Clear 7 1006 73 10000 2.77 63 22:52 21.04.2022
4104 Clear 9 1007 66 10000 2.71 59 21:56 21.04.2022
4105 Clear 11 1007 80 10000 3.2 52 20:34 21.04.2022
4106 Clear 13 1006 73 10000 3.45 45 19:51 21.04.2022
4107 Clear 15 1007 43 10000 2.68 51 18:34 21.04.2022
4108 Clear 15 1006 43 10000 2.24 54 17:49 21.04.2022
4109 Clear 16 1008 45 10000 1.79 63 16:28 21.04.2022
4110 Clear 15 1009 46 10000 2.24 20 15:20 21.04.2022
4111 Clear 15 1009 47 10000 2.68 204 14:38 21.04.2022
4112 Clouds 14 1009 45 10000 2.24 41 13:23 21.04.2022
4113 Clouds 14 1010 44 10000 0.89 26 12:42 21.04.2022
4114 Clouds 11 1011 55 10000 0.89 61 10:45 21.04.2022
4115 Clouds 6 994 69 10000 0.45 90 08:55 21.04.2022
4116 Clouds 1 1010 83 10000 1.34 87 07:24 21.04.2022
4117 Clouds 0 1011 83 10000 1.18 81 04:58 21.04.2022
4118 Clouds 0 1011 80 10000 1.37 83 03:28 21.04.2022
4119 Clouds 1 1011 79 10000 1.36 83 02:47 21.04.2022
4120 Clouds 1 1011 79 10000 1.37 83 02:47 21.04.2022
4121 Clouds 3 1012 74 10000 1.16 68 00:43 21.04.2022
4122 Clouds 3 1012 71 10000 1.02 104 23:50 20.04.2022
4123 Clear 4 1012 69 10000 1.51 113 23:22 20.04.2022
4124 Clear 5 1013 66 10000 1.52 113 22:49 20.04.2022
4125 Clear 5 1013 64 10000 1.83 86 22:26 20.04.2022
4126 Clear 7 1012 58 10000 1.92 71 21:27 20.04.2022
4127 Clear 10 1011 63 10000 2.19 55 20:23 20.04.2022
4128 Clear 11 1011 63 10000 2.19 55 19:52 20.04.2022
4129 Clear 12 1011 41 10000 0.89 54 19:20 20.04.2022
4130 Clear 13 1011 38 10000 1.79 134 17:56 20.04.2022
4131 Clear 13 1011 39 10000 1.79 49 16:48 20.04.2022
4132 Clear 13 1012 38 10000 2.24 28 16:30 20.04.2022
4133 Clear 13 1013 42 10000 1.79 36 13:59 20.04.2022
4134 Clear 10 1015 52 10000 2.24 31 11:50 20.04.2022
4135 Clear 9 1015 56 10000 2.68 51 11:21 20.04.2022
4136 Clear 7 1015 67 10000 0.89 32 10:19 20.04.2022
4137 Clear 5 1014 75 10000 0.89 43 09:25 20.04.2022
4138 Clouds 3 1002 83 10000 0.45 95 08:22 20.04.2022
4139 Clouds 1 998 85 10000 0.89 104 07:36 20.04.2022
4140 Clouds 0 1014 85 10000 2.44 85 03:49 20.04.2022
4141 Clouds 4 999 75 10000 0.89 105 00:23 20.04.2022
4142 Clouds 4 999 75 10000 1.34 125 23:56 19.04.2022
4143 Clouds 6 999 74 10000 2.24 21 22:27 19.04.2022
4144 Clouds 7 999 70 10000 4.02 235 21:57 19.04.2022
4145 Clouds 8 998 67 10000 3.13 344 21:33 19.04.2022
4146 Clouds 9 996 58 10000 2.24 136 20:46 19.04.2022
4147 Clouds 10 996 57 10000 1.79 107 20:26 19.04.2022
4148 Clouds 13 1011 49 10000 0.89 44 19:19 19.04.2022
4149 Clouds 13 1011 49 10000 0.89 44 19:19 19.04.2022
4150 Clouds 14 1011 44 10000 2.24 332 17:51 19.04.2022
4151 Clouds 15 1010 41 10000 2.24 321 16:43 19.04.2022
4152 Clouds 15 1010 42 10000 3.13 327 16:24 19.04.2022
4153 Clouds 14 1011 45 10000 0.89 257 14:51 19.04.2022
4154 Clouds 14 1011 45 10000 3.58 342 14:30 19.04.2022
4155 Clouds 12 1013 53 10000 1.34 294 12:51 19.04.2022
4156 Clouds 12 1013 54 10000 1.34 349 12:26 19.04.2022
4157 Clouds 12 1013 52 10000 2.24 320 11:22 19.04.2022
4158 Clouds 8 996 62 10000 0.89 245 09:25 19.04.2022
4159 Clouds 3 1013 77 10000 2.27 259 06:34 19.04.2022
4160 Clouds 3 1013 77 10000 2.19 233 04:19 19.04.2022
4161 Clouds 4 1016 74 10000 2.24 214 00:56 19.04.2022
4162 Clouds 4 1016 72 10000 1.98 199 23:38 18.04.2022
4163 Clouds 7 1015 64 10000 1.04 149 21:48 18.04.2022
4164 Clouds 8 1016 59 10000 0.85 111 21:24 18.04.2022
4165 Clouds 9 1017 72 10000 1.62 117 20:38 18.04.2022
4166 Clouds 11 1016 68 10000 1.86 79 19:59 18.04.2022
4167 Clouds 12 1016 42 10000 0.89 56 19:28 18.04.2022
4168 Clouds 13 1015 41 10000 0.89 51 18:34 18.04.2022
4169 Clouds 13 1015 40 10000 1.34 355 17:39 18.04.2022
4170 Clouds 14 1015 38 10000 0.89 69 17:19 18.04.2022
4171 Clouds 14 1016 36 10000 1.34 117 16:35 18.04.2022
4172 Clouds 13 1017 33 10000 1.34 59 15:28 18.04.2022
4173 Clouds 13 1019 41 10000 3.13 61 13:44 18.04.2022
4174 Clouds 12 1018 38 10000 0.89 122 12:41 18.04.2022
4175 Clouds 11 1019 42 10000 4.02 150 11:48 18.04.2022
4176 Clouds 9 1020 54 10000 3.58 262 10:46 18.04.2022
4177 Clouds 6 1020 66 10000 1.34 133 09:31 18.04.2022
4178 Clouds 4 1020 76 10000 1.34 123 08:37 18.04.2022
4179 Clouds -1 1019 87 10000 2.16 95 06:44 18.04.2022
4180 Clear 0 1021 82 10000 2.84 98 02:27 18.04.2022
4181 Clear 3 1022 71 10000 2.55 79 22:55 17.04.2022
4182 Clear 4 1023 69 10000 2.55 79 22:32 17.04.2022
4183 Clear 6 1023 59 10000 0.45 115 21:34 17.04.2022
4184 Clear 7 1024 57 10000 0.45 116 20:51 17.04.2022
4185 Clouds 8 1024 50 10000 0.45 106 20:18 17.04.2022
4186 Clouds 11 1023 44 10000 1.79 52 18:45 17.04.2022
4187 Clouds 11 1024 45 10000 2.68 82 17:26 17.04.2022
4188 Clouds 12 1025 41 10000 2.24 134 15:34 17.04.2022
4189 Clouds 12 1025 41 10000 1.79 350 14:45 17.04.2022
4190 Clouds 11 1027 46 10000 3.13 100 13:29 17.04.2022
4191 Clouds 10 1027 45 10000 2.68 88 12:45 17.04.2022
4192 Clouds 9 1028 50 10000 2.68 121 10:58 17.04.2022
4193 Clouds 8 1029 55 10000 3.58 184 10:29 17.04.2022
4194 Clouds 7 1029 58 10000 1.79 99 09:55 17.04.2022
4195 Clouds 6 1029 66 10000 2.24 49 09:21 17.04.2022
4196 Clouds 4 1029 75 10000 3.13 123 08:41 17.04.2022
4197 Clear -1 1011 83 10000 3.1 91 06:29 17.04.2022
4198 Clouds 2 1013 78 10000 0.45 106 02:31 17.04.2022
4199 Clouds 3 1014 75 10000 0.45 79 00:42 17.04.2022
4200 Clouds 4 1014 72 10000 2.24 77 23:38 16.04.2022
4201 Clouds 6 1029 57 10000 2.27 103 21:49 16.04.2022
4202 Clouds 6 1029 52 10000 2.43 120 21:19 16.04.2022
4203 Clouds 9 1006 46 10000 2.24 63 19:30 16.04.2022
4204 Clouds 10 1026 48 10000 1.34 54 18:44 16.04.2022
4205 Clouds 11 1027 61 10000 1.34 89 17:21 16.04.2022
4206 Clouds 10 1027 69 10000 2.24 50 16:30 16.04.2022
4207 Clouds 9 1029 79 10000 1.34 5 14:59 16.04.2022
4208 Clouds 8 1028 78 10000 1.79 118 14:41 16.04.2022
4209 Clouds 9 1011 76 10000 1.34 66 13:50 16.04.2022
4210 Clouds 9 1012 76 10000 1.34 150 13:24 16.04.2022
4211 Clouds 9 1011 76 10000 0.89 66 11:58 16.04.2022
4212 Clouds 8 1015 79 10000 1.34 59 10:35 16.04.2022
4213 Clouds 8 1010 78 10000 1.79 54 09:38 16.04.2022
4214 Clouds 8 1010 80 10000 0.45 128 08:52 16.04.2022
4215 Clouds 5 1010 85 10000 2.34 41 07:31 16.04.2022
4216 Clouds 5 1009 84 10000 2.38 32 06:18 16.04.2022
4217 Clouds 8 1026 78 10000 2.16 32 01:53 16.04.2022
4218 Clouds 10 1025 75 10000 0.89 115 23:53 15.04.2022
4219 Clear 11 1027 86 10000 2.6 36 22:52 15.04.2022
4220 Clear 11 1022 68 10000 2.9 26 22:31 15.04.2022
4221 Clouds 13 1025 63 10000 2.27 338 21:35 15.04.2022
4222 Clouds 14 1025 80 10000 2.26 338 20:55 15.04.2022
4223 Clouds 16 1023 77 10000 2.49 331 19:52 15.04.2022
4224 Clouds 16 1023 53 10000 2.5 331 19:33 15.04.2022
4225 Clouds 17 1023 59 10000 3.61 337 18:45 15.04.2022
4226 Clouds 18 1023 54 10000 3.13 322 18:23 15.04.2022
4227 Clouds 18 1023 52 10000 3.13 333 17:29 15.04.2022
4228 Clouds 19 1023 54 10000 1.34 340 16:26 15.04.2022
4229 Clouds 19 1023 52 10000 2.68 227 15:59 15.04.2022
4230 Clouds 18 1024 58 10000 0.89 219 14:30 15.04.2022
4231 Clouds 17 1024 63 10000 0.89 328 13:33 15.04.2022
4232 Clouds 16 1024 67 10000 1.34 248 12:40 15.04.2022
4233 Clouds 16 1024 75 10000 0.89 304 11:54 15.04.2022
4234 Clouds 14 1011 83 10000 2.24 322 10:53 15.04.2022
4235 Clouds 13 1024 89 10000 0.45 275 10:24 15.04.2022
4236 Clouds 13 1007 90 10000 0.89 284 09:41 15.04.2022
4237 Clouds 13 1007 91 10000 1.34 289 09:19 15.04.2022
4238 Clouds 12 1023 93 9538 0.45 282 07:24 15.04.2022
4239 Clouds 11 1022 92 9494 2.09 272 05:58 15.04.2022
4240 Rain 13 1022 80 10000 0.45 296 02:34 15.04.2022
4241 Clouds 12 1021 74 10000 2.21 294 23:30 14.04.2022
4242 Clouds 13 1021 72 10000 2.21 294 22:48 14.04.2022
4243 Clouds 13 1021 70 10000 1.98 271 22:29 14.04.2022
4244 Clouds 14 1021 68 10000 2.18 277 21:59 14.04.2022
4245 Clouds 17 1018 58 10000 2.03 312 20:37 14.04.2022
4246 Clouds 20 1017 76 10000 2.05 325 19:23 14.04.2022
4247 Clouds 21 1017 71 10000 1.97 338 18:19 14.04.2022
4248 Clouds 21 1017 71 10000 2.01 338 17:38 14.04.2022
4249 Clouds 22 1015 41 10000 1.34 321 16:36 14.04.2022
4250 Clouds 22 1019 43 10000 2.68 272 14:58 14.04.2022
4251 Clouds 22 1019 43 10000 2.24 309 13:46 14.04.2022
4252 Clouds 20 1019 48 10000 1.34 13 12:56 14.04.2022
4253 Clouds 20 1016 49 10000 1.79 325 12:31 14.04.2022
4254 Clouds 18 1020 59 10000 1.34 244 11:29 14.04.2022
4255 Clouds 17 1019 64 10000 2.24 277 10:53 14.04.2022
4256 Clouds 16 1020 67 10000 1.79 296 10:26 14.04.2022
4257 Clouds 14 1019 74 10000 1.79 244 09:24 14.04.2022
4258 Clouds 9 999 86 10000 2.34 248 07:33 14.04.2022
4259 Clouds 8 986 84 10000 1.91 248 04:28 14.04.2022
4260 Clouds 10 1017 81 10000 0.14 349 23:29 13.04.2022
4261 Clouds 11 1017 78 10000 0.82 97 22:24 13.04.2022
4262 Clouds 13 1017 73 10000 0.82 97 21:42 13.04.2022
4263 Clouds 17 1015 77 10000 1.75 64 20:24 13.04.2022
4264 Clouds 18 1015 77 10000 1.75 64 19:39 13.04.2022
4265 Clouds 20 1015 71 10000 1.98 49 18:36 13.04.2022
4266 Clouds 21 1015 50 10000 1.79 57 17:24 13.04.2022
4267 Clouds 21 1015 51 10000 2.24 54 16:41 13.04.2022
4268 Clouds 21 1014 47 10000 1.34 45 15:43 13.04.2022
4269 Clouds 21 1014 46 10000 1.34 82 15:19 13.04.2022
4270 Clouds 21 1016 51 10000 1.34 41 14:30 13.04.2022
4271 Clouds 20 1015 49 10000 1.34 32 13:36 13.04.2022
4272 Clouds 19 1017 50 10000 0.89 27 12:41 13.04.2022
4273 Clouds 17 1017 54 10000 0.89 110 11:24 13.04.2022
4274 Clouds 13 1017 66 10000 1.06 85 09:45 13.04.2022
4275 Clouds 10 957 69 10000 0.79 106 08:43 13.04.2022
4276 Clouds 6 984 75 10000 0.55 136 07:38 13.04.2022
4277 Clouds 7 985 74 10000 0.55 136 06:46 13.04.2022
4278 Clouds 7 985 74 10000 0.74 160 06:23 13.04.2022
4279 Clouds 7 1015 77 10000 1.58 115 00:28 13.04.2022
4280 Clouds 8 1015 74 10000 1.56 116 23:55 12.04.2022
4281 Clouds 11 1015 61 10000 2.05 105 22:31 12.04.2022
4282 Clouds 11 1014 61 10000 2.07 105 21:47 12.04.2022
4283 Clouds 14 1014 80 10000 2.28 96 20:44 12.04.2022
4284 Clouds 15 1014 77 10000 2.58 84 20:18 12.04.2022
4285 Clouds 16 1014 76 10000 2.63 80 19:39 12.04.2022
4286 Clouds 19 1017 52 10000 2.99 73 18:53 12.04.2022
4287 Clouds 19 1013 42 10000 0.45 222 17:38 12.04.2022
4288 Clouds 20 1013 40 10000 2.24 64 16:38 12.04.2022
4289 Clouds 20 1012 39 10000 1.79 84 15:34 12.04.2022
4290 Clouds 20 1012 39 10000 2.68 28 14:41 12.04.2022
4291 Clouds 19 1014 41 10000 0.89 22 13:45 12.04.2022
4292 Clouds 18 1013 43 10000 0.45 38 13:23 12.04.2022
4293 Clouds 16 1016 44 10000 2.68 204 11:57 12.04.2022
4294 Clouds 13 1017 58 10000 3.17 92 11:32 12.04.2022
4295 Clouds 10 1017 68 10000 2.52 94 09:47 12.04.2022
4296 Clouds 6 1018 80 10000 0.89 121 08:38 12.04.2022
4297 Clouds 2 985 84 10000 1.77 114 06:46 12.04.2022
4298 Clouds 1 1017 88 10000 1.65 123 05:38 12.04.2022
4299 Clouds 2 1016 86 10000 1.39 134 02:36 12.04.2022
4300 Clouds 5 1017 75 10000 2.31 105 23:20 11.04.2022
4301 Clouds 7 1016 72 10000 2.65 100 21:59 11.04.2022
4302 Clouds 7 1017 77 10000 2.89 99 21:18 11.04.2022
4303 Clouds 10 1017 73 10000 3.02 94 20:34 11.04.2022
4304 Clouds 12 1016 73 10000 3 91 19:59 11.04.2022
4305 Clouds 13 1016 45 10000 0.45 40 19:26 11.04.2022
4306 Clouds 13 1016 63 10000 3.01 76 18:53 11.04.2022
4307 Clouds 14 1016 40 10000 0.89 126 17:58 11.04.2022
4308 Clouds 14 1016 39 10000 0.89 40 17:38 11.04.2022
4309 Clouds 14 1017 41 10000 2.68 135 16:33 11.04.2022
4310 Clouds 13 1018 44 10000 1.79 192 14:49 11.04.2022
4311 Clouds 12 1019 48 10000 1.34 26 13:34 11.04.2022
4312 Clouds 10 1020 52 10000 1.79 97 12:39 11.04.2022
4313 Clouds 10 1020 52 10000 0.89 53 12:20 11.04.2022
4314 Clouds 7 1021 70 10000 0.89 216 10:37 11.04.2022
4315 Clouds 5 1004 71 10000 1.34 119 09:49 11.04.2022
4316 Clouds 0 1004 86 10000 2.58 110 07:59 11.04.2022
4317 Clouds -1 1022 91 10000 0.45 138 04:35 11.04.2022
4318 Clouds 1 1006 87 10000 1.07 137 23:30 10.04.2022
4319 Clouds 2 1006 86 10000 0.3 79 22:27 10.04.2022
4320 Clouds 2 1023 88 10000 0.3 79 21:49 10.04.2022
4321 Clouds 3 1022 89 10000 0.7 7 20:52 10.04.2022
4322 Clouds 4 1022 86 10000 1.25 336 19:57 10.04.2022
4323 Clouds 5 1009 80 10000 2.03 318 19:34 10.04.2022
4324 Rain 5 1006 78 10000 0.45 277 18:48 10.04.2022
4325 Rain 5 1001 75 10000 0.89 286 18:25 10.04.2022
4326 Clouds 5 1005 79 10000 2.24 237 17:43 10.04.2022
4327 Clouds 6 1021 74 10000 0.89 305 16:52 10.04.2022
4328 Clouds 7 1021 70 10000 1.34 221 15:38 10.04.2022
4329 Clouds 7 1022 66 10000 2.24 325 14:41 10.04.2022
4330 Clouds 7 1022 60 10000 3.13 299 13:22 10.04.2022
4331 Rain 7 1008 53 10000 3.58 323 12:27 10.04.2022
4332 Clouds 6 1022 61 10000 2.68 271 11:36 10.04.2022
4333 Rain 6 1005 62 10000 3.13 286 10:59 10.04.2022
4334 Clouds 5 1022 71 10000 2.68 354 10:27 10.04.2022
4335 Clouds 4 1022 80 10000 3.58 265 09:41 10.04.2022
4336 Rain 3 1004 81 10000 1.79 248 08:26 10.04.2022
4337 Clouds 2 1003 82 10000 0.45 260 07:53 10.04.2022
4338 Clouds 2 1002 84 10000 4.02 291 06:48 10.04.2022
4339 Clouds 1 1002 78 10000 1.34 238 03:36 10.04.2022
4340 Clouds 1 1002 78 10000 1.34 238 03:36 10.04.2022
4341 Clouds 1 1002 78 10000 1.34 238 03:36 10.04.2022
4342 Snow 2 1021 92 10000 3.13 243 01:30 10.04.2022
4343 Clouds 2 1020 77 10000 3.01 248 23:53 09.04.2022
4344 Clouds 2 1020 91 10000 2.79 251 22:52 09.04.2022
4345 Clouds 2 1019 89 10000 2.59 258 21:51 09.04.2022
4346 Clouds 4 1018 87 10000 2.53 271 21:18 09.04.2022
4347 Clouds 5 1016 83 10000 2.74 282 20:27 09.04.2022
4348 Clouds 5 1016 83 10000 2.76 283 19:49 09.04.2022
4349 Clouds 6 1013 56 10000 0.45 271 19:30 09.04.2022
4350 Clouds 7 1014 56 10000 2.68 284 18:23 09.04.2022
4351 Clouds 7 1013 55 10000 3.13 310 17:43 09.04.2022
4352 Clouds 7 1013 54 10000 4.02 275 16:56 09.04.2022
4353 Clouds 8 1013 52 10000 5.36 315 16:29 09.04.2022
4354 Clouds 7 1012 53 10000 3.13 302 15:49 09.04.2022
4355 Clouds 8 1013 50 10000 3.58 318 15:25 09.04.2022
4356 Clouds 7 1013 57 10000 3.13 311 14:25 09.04.2022
4357 Clouds 6 1013 64 10000 2.68 304 13:26 09.04.2022
4358 Clouds 6 990 60 10000 2.24 278 12:53 09.04.2022
4359 Clouds 5 995 67 10000 1.79 241 11:45 09.04.2022
4360 Clouds 3 1012 84 10000 3.58 323 10:51 09.04.2022
4361 Clouds 3 995 87 5255 3.58 282 10:18 09.04.2022
4362 Clouds 2 995 90 74 3.13 272 09:22 09.04.2022
4363 Rain 2 993 90 1113 1.34 284 07:49 09.04.2022
4364 Rain 4 984 87 3665 6.26 342 04:37 09.04.2022
4365 Clouds 10 979 71 10000 2.24 179 00:34 09.04.2022
4366 Clouds 11 984 71 10000 3.58 277 23:22 08.04.2022
4367 Clouds 11 986 71 10000 3.13 219 21:49 08.04.2022
4368 Clouds 12 981 66 10000 5.81 174 20:43 08.04.2022
4369 Clouds 12 981 67 10000 5.36 312 19:47 08.04.2022
4370 Clouds 12 976 67 10000 5.36 275 18:46 08.04.2022
4371 Clouds 12 981 72 10000 5.81 266 18:22 08.04.2022
4372 Rain 14 1014 71 10000 5.36 276 17:29 08.04.2022
4373 Clouds 14 978 68 10000 2.68 277 16:58 08.04.2022
4374 Clouds 14 999 71 10000 5.36 284 16:31 08.04.2022
4375 Rain 13 986 78 10000 4.02 263 15:37 08.04.2022
4376 Rain 12 986 86 10000 2.68 201 14:52 08.04.2022
4377 Rain 10 988 92 10000 1.34 210 14:20 08.04.2022
4378 Rain 9 984 90 10000 0.45 167 13:36 08.04.2022
4379 Rain 9 984 89 10000 0.45 176 13:18 08.04.2022
4380 Clouds 8 987 89 10000 1.34 307 11:41 08.04.2022
4381 Clouds 7 988 91 10000 1.34 345 10:26 08.04.2022
4382 Clouds 6 989 89 10000 1.34 275 09:20 08.04.2022
4383 Clouds 6 989 88 10000 0.89 261 07:58 08.04.2022
4384 Clouds 6 988 88 10000 3.13 270 06:47 08.04.2022
4385 Clouds 7 986 87 10000 4.02 276 03:48 08.04.2022
4386 Rain 8 985 85 10000 4.02 242 00:32 08.04.2022
4387 Clouds 9 988 84 10000 6.26 274 23:53 07.04.2022
4388 Clouds 12 986 64 10000 4.47 284 22:57 07.04.2022
4389 Clouds 12 985 63 10000 6.26 275 22:37 07.04.2022
4390 Clouds 12 985 63 10000 4.02 248 22:19 07.04.2022
4391 Clouds 12 985 63 10000 4.02 225 21:33 07.04.2022
4392 Clouds 12 985 62 10000 5.81 282 20:57 07.04.2022
4393 Clouds 13 985 57 10000 5.81 305 20:28 07.04.2022
4394 Clouds 13 984 58 10000 3.58 186 17:51 07.04.2022
4395 Clouds 13 985 59 10000 10.73 228 17:24 07.04.2022
4396 Rain 13 985 59 10000 5.81 282 16:42 07.04.2022
4397 Clouds 13 986 58 10000 6.26 258 16:18 07.04.2022
4398 Clouds 15 985 46 10000 4.47 310 14:31 07.04.2022
4399 Clouds 15 986 46 10000 4.92 273 13:41 07.04.2022
4400 Clouds 15 1000 48 10000 5.81 301 12:40 07.04.2022
4401 Clouds 13 1002 54 10000 6.26 269 10:58 07.04.2022
4402 Clouds 11 1004 67 10000 5.36 286 09:36 07.04.2022
4403 Clouds 9 1004 74 10000 4.47 272 08:37 07.04.2022
4404 Clouds 8 986 75 10000 2.68 300 06:42 07.04.2022
4405 Clouds 9 987 74 10000 2.68 279 02:47 07.04.2022
4406 Clouds 9 988 73 10000 1.79 208 02:18 07.04.2022
4407 Clouds 10 1004 79 10000 1.34 227 23:57 06.04.2022
4408 Clouds 9 1002 75 10000 2.29 235 22:48 06.04.2022
4409 Clouds 10 1002 69 10000 0.45 230 22:26 06.04.2022
4410 Clouds 11 1002 74 10000 0.45 277 21:34 06.04.2022
4411 Clouds 12 1005 86 10000 2.09 250 20:35 06.04.2022
4412 Clouds 14 1004 84 10000 1.91 268 19:53 06.04.2022
4413 Clouds 15 1004 80 10000 2.27 296 18:51 06.04.2022
4414 Clouds 15 1004 73 10000 3.25 299 18:25 06.04.2022
4415 Clouds 15 1004 66 10000 3.81 291 17:35 06.04.2022
4416 Clouds 16 1002 52 10000 1.79 297 16:38 06.04.2022
4417 Clouds 15 1005 63 10000 3.92 283 15:48 06.04.2022
4418 Clouds 16 1009 56 10000 0.89 272 15:21 06.04.2022
4419 Clouds 15 1007 60 10000 1.34 293 13:25 06.04.2022
4420 Clouds 14 1006 62 10000 1.34 235 12:27 06.04.2022
4421 Clouds 12 1010 76 10000 2.68 206 10:48 06.04.2022
4422 Clouds 11 1011 78 10000 1.79 214 10:29 06.04.2022
4423 Clouds 10 998 81 10000 0.89 191 09:41 06.04.2022
4424 Clouds 8 1011 90 10000 0.45 155 08:34 06.04.2022
4425 Clouds 8 997 90 10000 3.03 217 07:53 06.04.2022
4426 Clouds 8 999 87 10000 0.45 260 04:31 06.04.2022
4427 Clouds 8 1000 89 10000 0.89 238 23:56 05.04.2022
4428 Clouds 8 1000 91 10000 2.24 291 23:21 05.04.2022
4429 Clouds 8 1000 91 10000 1.34 213 21:29 05.04.2022
4430 Clouds 8 999 91 10000 1.34 271 20:26 05.04.2022
4431 Clouds 8 999 89 10000 0.89 272 19:52 05.04.2022
4432 Clouds 9 999 86 10000 3.58 296 18:24 05.04.2022
4433 Clouds 9 999 81 10000 2.24 217 16:55 05.04.2022
4434 Clouds 9 1012 82 10000 2.68 273 16:35 05.04.2022
4435 Clouds 9 999 80 10000 4.47 282 15:43 05.04.2022
4436 Clouds 9 999 80 10000 4.47 282 15:43 05.04.2022
4437 Clouds 9 1013 83 10000 2.24 267 15:24 05.04.2022
4438 Clouds 8 1000 80 10000 4.02 256 13:38 05.04.2022
4439 Clouds 6 1000 83 10000 4.02 259 11:51 05.04.2022
4440 Clouds 6 1000 82 10000 2.24 235 11:51 05.04.2022
4441 Clouds 6 1000 82 10000 3.58 277 11:33 05.04.2022
4442 Clouds 5 999 83 10000 3.58 279 10:57 05.04.2022
4443 Clouds 5 999 82 10000 5.81 289 09:29 05.04.2022
4444 Clouds 5 998 73 10000 3.13 253 07:32 05.04.2022
4445 Clouds 3 1000 83 10000 4.47 239 02:58 05.04.2022
4446 Clouds 4 1001 75 10000 4.02 268 23:22 04.04.2022
4447 Clouds 5 997 68 10000 4.47 233 22:32 04.04.2022
4448 Clouds 5 997 61 10000 4.47 308 21:43 04.04.2022
4449 Clouds 5 997 61 10000 2.68 197 21:18 04.04.2022
4450 Clouds 5 997 60 10000 2.24 276 20:46 04.04.2022
4451 Clouds 6 996 57 10000 3.58 190 19:27 04.04.2022
4452 Clouds 7 997 56 10000 3.13 287 18:40 04.04.2022
4453 Clouds 7 1014 63 10000 3.13 263 17:19 04.04.2022
4454 Clouds 6 1015 64 10000 2.68 223 16:28 04.04.2022
4455 Clouds 6 1016 61 10000 3.13 278 15:33 04.04.2022
4456 Clouds 5 1017 61 10000 4.02 292 14:46 04.04.2022
4457 Clouds 5 1017 61 10000 2.24 261 13:59 04.04.2022
4458 Clouds 4 1018 61 10000 3.13 314 12:58 04.04.2022
4459 Clouds 2 1020 62 10000 0.89 302 11:29 04.04.2022
4460 Clouds 1 1020 64 10000 0.89 259 10:29 04.04.2022
4461 Clouds -5 1020 90 10000 1.61 219 05:34 04.04.2022
4462 Clouds -4 1024 97 10000 1.55 219 02:59 04.04.2022
4463 Clouds -2 1024 97 10000 1.19 244 23:42 03.04.2022
4464 Clouds -1 1024 96 10000 1.19 249 22:18 03.04.2022
4465 Clouds -1 1023 96 10000 1.04 268 21:31 03.04.2022
4466 Clouds 0 1023 96 10000 1.04 268 20:32 03.04.2022
4467 Clouds 1 1020 73 10000 1.34 306 18:51 03.04.2022
4468 Clouds 1 1019 74 10000 0.89 317 17:57 03.04.2022
4469 Snow 1 1020 73 10000 1.79 297 17:37 03.04.2022
4470 Rain 1 1019 72 10000 1.34 345 16:50 03.04.2022
4471 Rain 2 1019 72 10000 1.79 313 15:57 03.04.2022
4472 Rain 1 1020 78 10000 1.79 304 14:27 03.04.2022
4473 Rain 1 1020 78 10000 0.89 323 13:38 03.04.2022
4474 Rain 1 1007 81 5835 0.89 325 11:59 03.04.2022
4475 Clouds 0 1006 88 2660 0.45 291 10:22 03.04.2022
4476 Clouds -1 1002 90 2179 0.45 317 09:23 03.04.2022
4477 Clouds -2 1020 98 2908 1.01 308 07:24 03.04.2022
4478 Clouds -1 1000 94 3616 1.21 345 03:46 03.04.2022
4479 Clouds -1 998 94 176 0.45 291 00:36 03.04.2022
4480 Clouds -1 998 94 116 2.05 5 22:54 02.04.2022
4481 Clouds -1 998 93 113 0.45 354 21:57 02.04.2022
4482 Clouds -1 997 93 118 1.79 327 21:28 02.04.2022
4483 Clouds -1 997 91 119 0.89 348 20:51 02.04.2022
4484 Clouds -1 995 89 144 1.34 355 18:57 02.04.2022
4485 Snow -1 994 90 173 0.45 41 18:20 02.04.2022
4486 Snow 0 994 88 173 0.89 336 17:47 02.04.2022
4487 Snow 0 992 87 267 0.89 60 16:22 02.04.2022
4488 Snow 0 992 90 271 0.89 64 15:21 02.04.2022
4489 Snow 0 991 90 270 0.89 36 14:43 02.04.2022
4490 Snow 1 995 90 459 0.89 74 13:34 02.04.2022
4491 Snow 1 990 88 294 1.79 80 12:37 02.04.2022
4492 Clouds 0 989 92 221 2.24 32 10:58 02.04.2022
4493 Clouds -1 987 95 173 1.34 90 08:49 02.04.2022
4494 Clouds -1 986 95 128 1.79 41 06:50 02.04.2022
4495 Clouds 0 985 94 113 0.45 282 03:45 02.04.2022
4496 Clouds 1 985 94 176 2.24 283 23:56 01.04.2022
4497 Clouds 1 985 94 1416 2.68 268 23:22 01.04.2022
4498 Clouds 1 984 93 1070 1.79 272 21:34 01.04.2022
4499 Clouds 1 984 92 1191 2.24 282 20:51 01.04.2022
4500 Clouds 1 984 92 95 1.34 294 20:28 01.04.2022
4501 Clouds 2 983 92 27 0.89 242 19:34 01.04.2022
4502 Clouds 2 983 92 24 2.24 305 18:48 01.04.2022
4503 Clouds 2 982 91 25 1.34 234 17:47 01.04.2022
4504 Clouds 3 982 88 40 1.79 270 16:53 01.04.2022
4505 Clouds 3 982 88 35 2.24 270 15:41 01.04.2022
4506 Clouds 3 981 89 25 1.79 308 14:26 01.04.2022
4507 Clouds 3 986 90 34 1.79 314 13:34 01.04.2022
4508 Clouds 3 985 90 34 1.79 314 13:34 01.04.2022
4509 Clouds 3 985 91 41 1.79 203 12:32 01.04.2022
4510 Clouds 3 980 91 40 3.13 286 11:44 01.04.2022
4511 Clouds 2 980 92 49 0.45 351 10:19 01.04.2022
4512 Clouds 2 980 93 57 1.34 227 09:19 01.04.2022
4513 Clouds 3 978 92 123 2.24 286 06:54 01.04.2022
4514 Clouds 5 978 92 83 1.34 254 04:53 01.04.2022
4515 Clouds 5 978 92 84 3.13 279 04:34 01.04.2022
4516 Clouds 6 979 94 10000 1.79 259 01:58 01.04.2022
4517 Clouds 6 979 94 10000 2.49 88 00:44 01.04.2022
4518 Clouds 7 979 92 10000 0.45 58 21:54 31.03.2022
4519 Clouds 7 979 91 10000 0.89 45 21:33 31.03.2022
4520 Clouds 7 978 90 10000 0.89 36 20:30 31.03.2022
4521 Clouds 8 978 87 10000 1.34 42 19:50 31.03.2022
4522 Clouds 9 978 81 10000 1.34 40 18:52 31.03.2022
4523 Clouds 10 995 81 10000 1.34 100 17:54 31.03.2022
4524 Clouds 10 996 78 10000 2.68 130 16:40 31.03.2022
4525 Clouds 10 995 81 10000 0.45 48 15:48 31.03.2022
4526 Clouds 10 982 79 10000 1.34 115 15:20 31.03.2022
4527 Clouds 9 983 82 10000 1.34 96 14:44 31.03.2022
4528 Clouds 9 997 86 10000 0.89 34 12:48 31.03.2022
4529 Clouds 9 984 82 10000 0.45 45 11:28 31.03.2022
4530 Clouds 7 984 89 10000 1.94 40 09:50 31.03.2022
4531 Clouds 6 981 90 10000 1.44 34 08:29 31.03.2022
4532 Clouds 6 981 89 10000 1.01 33 06:21 31.03.2022
4533 Clouds 7 983 85 10000 1.24 52 00:46 31.03.2022
4534 Clouds 7 984 83 10000 0.45 288 23:23 30.03.2022
4535 Clouds 8 984 80 10000 0.93 20 21:43 30.03.2022
4536 Clouds 9 984 81 10000 1.34 306 21:25 30.03.2022
4537 Clouds 9 984 84 10000 0.7 310 20:21 30.03.2022
4538 Clouds 10 1000 85 10000 0.76 307 19:38 30.03.2022
4539 Clouds 10 984 84 10000 3.1 293 18:34 30.03.2022
4540 Clouds 10 984 84 10000 1.34 199 17:48 30.03.2022
4541 Clouds 10 984 83 10000 0.89 250 16:58 30.03.2022
4542 Clouds 11 989 82 10000 0.89 246 16:38 30.03.2022
4543 Clouds 11 989 79 10000 1.34 251 15:38 30.03.2022
4544 Clouds 12 990 70 10000 0.89 259 13:57 30.03.2022
4545 Clouds 12 990 70 10000 1.79 296 13:19 30.03.2022
4546 Clouds 12 991 62 10000 2.24 269 11:41 30.03.2022
4547 Clouds 12 991 59 10000 0.89 294 10:37 30.03.2022
4548 Clouds 11 1004 63 10000 2.24 273 09:27 30.03.2022
4549 Clouds 9 987 61 10000 0.89 235 07:59 30.03.2022
4550 Clouds 10 987 63 10000 0.45 249 05:41 30.03.2022
4551 Clouds 9 1005 68 10000 2.56 188 04:54 30.03.2022
4552 Clouds 11 1007 56 10000 0.89 272 00:43 30.03.2022
4553 Clouds 12 1008 54 10000 2.04 343 22:35 29.03.2022
4554 Clouds 12 1008 60 10000 2.04 343 21:46 29.03.2022
4555 Clouds 13 1006 48 10000 0.45 274 20:55 29.03.2022
4556 Clouds 13 1008 48 10000 0.89 272 20:24 29.03.2022
4557 Clouds 15 1008 41 10000 0.45 284 19:20 29.03.2022
4558 Clouds 16 1007 57 10000 1.77 239 18:48 29.03.2022
4559 Clouds 17 1009 36 10000 2.68 304 17:39 29.03.2022
4560 Clouds 17 1009 34 10000 2.68 263 16:59 29.03.2022
4561 Clouds 17 1009 34 10000 2.68 263 16:59 29.03.2022
4562 Clouds 17 1010 36 10000 2.68 340 16:20 29.03.2022
4563 Clouds 17 1011 36 10000 3.58 267 14:53 29.03.2022
4564 Clouds 17 1011 32 10000 1.79 221 14:24 29.03.2022
4565 Clouds 17 995 32 10000 2.24 242 13:30 29.03.2022
4566 Clouds 16 996 36 10000 2.24 271 11:46 29.03.2022
4567 Clouds 14 1013 44 10000 1.79 245 10:59 29.03.2022
4568 Clouds 11 1013 53 10000 1.34 198 09:50 29.03.2022
4569 Clouds 7 1000 61 10000 0.89 279 08:20 29.03.2022
4570 Clouds 7 1002 59 10000 0.45 216 05:38 29.03.2022
4571 Clouds 8 995 50 10000 2.7 229 01:31 29.03.2022
4572 Clear 8 1018 48 10000 2.45 228 23:26 28.03.2022
4573 Clear 8 1018 50 10000 2.45 228 22:55 28.03.2022
4574 Clear 9 1018 50 10000 2.46 220 22:30 28.03.2022
4575 Clear 10 1019 45 10000 0.45 299 21:18 28.03.2022
4576 Clear 13 1018 38 10000 0.45 299 20:32 28.03.2022
4577 Clear 15 1019 56 10000 1.98 254 19:46 28.03.2022
4578 Clear 17 1018 50 10000 2.58 282 19:28 28.03.2022
4579 Clear 18 1018 50 10000 2.58 282 18:40 28.03.2022
4580 Clear 19 1017 24 10000 2.24 309 17:39 28.03.2022
4581 Clear 20 1020 26 10000 4.02 287 16:38 28.03.2022
4582 Clear 20 1022 26 10000 2.24 319 14:50 28.03.2022
4583 Clear 20 1022 28 10000 1.79 298 14:22 28.03.2022
4584 Clear 18 1024 34 10000 1.79 265 12:51 28.03.2022
4585 Clear 15 1025 44 10000 2.68 291 11:42 28.03.2022
4586 Clear 11 1026 59 10000 0.89 225 09:47 28.03.2022
4587 Clear 8 1026 66 10000 0.45 184 09:20 28.03.2022
4588 Clear 6 1010 70 10000 1.86 227 08:23 28.03.2022
4589 Clear 5 1004 73 10000 1.82 229 07:56 28.03.2022
4590 Clear 6 995 65 10000 1.91 233 05:55 28.03.2022
4591 Clear 6 1028 67 10000 0.98 136 23:53 27.03.2022
4592 Clear 8 1028 57 10000 1.22 123 22:34 27.03.2022
4593 Clear 9 1028 54 10000 1.44 113 21:42 27.03.2022
4594 Clear 10 1026 51 10000 1.58 101 20:58 27.03.2022
4595 Clear 12 1027 65 10000 1.76 82 20:18 27.03.2022
4596 Clear 15 1027 65 10000 1.76 82 19:34 27.03.2022
4597 Clear 18 1026 30 10000 0.89 36 18:30 27.03.2022
4598 Clear 18 1025 28 10000 0.45 41 17:55 27.03.2022
4599 Clear 19 1025 27 10000 0.89 62 17:35 27.03.2022
4600 Clear 19 1027 30 10000 2.24 92 15:46 27.03.2022
4601 Clear 18 1028 31 10000 1.79 53 13:57 27.03.2022
4602 Clear 17 1029 34 10000 1.79 57 12:58 27.03.2022
4603 Clear 13 1030 47 10000 0.89 319 11:30 27.03.2022
4604 Clear 8 1030 61 10000 2.61 87 09:37 27.03.2022
4605 Clear 4 997 65 10000 1.72 124 06:54 27.03.2022
4606 Clear 6 969 51 10000 1.72 84 03:39 27.03.2022
4607 Clear 4 1029 63 10000 1.88 94 00:25 27.03.2022
4608 Clear 5 1029 62 10000 1.98 90 22:45 26.03.2022
4609 Clear 6 1029 56 10000 2.14 82 21:54 26.03.2022
4610 Clear 7 1029 53 10000 2.27 76 21:29 26.03.2022
4611 Clear 11 1028 44 10000 2.63 60 19:32 26.03.2022
4612 Clear 14 1028 57 10000 2.64 60 18:40 26.03.2022
4613 Clear 17 1027 31 10000 1.34 160 17:34 26.03.2022
4614 Clear 16 1027 32 10000 2.86 55 17:34 26.03.2022
4615 Clear 17 1025 30 10000 0.89 18 16:33 26.03.2022
4616 Clear 18 1026 32 10000 2.24 71 15:37 26.03.2022
4617 Clear 17 1028 37 10000 1.34 11 13:55 26.03.2022
4618 Clear 17 1028 37 10000 2.24 76 13:20 26.03.2022
4619 Clear 15 1029 39 10000 1.34 42 11:48 26.03.2022
4620 Clear 13 1029 46 10000 1.34 53 10:48 26.03.2022
4621 Clear 7 1029 63 10000 2.92 71 08:48 26.03.2022
4622 Clear 4 997 65 10000 1.82 87 06:38 26.03.2022
4623 Clear 3 1007 67 10000 1.99 75 05:30 26.03.2022
4624 Clear 6 1006 59 10000 1.82 89 01:47 26.03.2022
4625 Clear 7 1027 57 10000 2.02 80 22:21 25.03.2022
4626 Clear 8 1027 54 10000 2.34 76 20:57 25.03.2022
4627 Clear 9 1026 50 10000 2.4 69 20:26 25.03.2022
4628 Clear 11 1026 41 10000 2.44 61 19:18 25.03.2022
4629 Clear 14 1026 37 10000 2.44 61 18:34 25.03.2022
4630 Clear 17 1024 30 10000 1.34 42 17:29 25.03.2022
4631 Clear 18 1024 30 10000 0.89 63 16:27 25.03.2022
4632 Clear 18 1025 28 10000 0.89 44 15:33 25.03.2022
4633 Clear 18 1025 29 10000 0.89 74 13:28 25.03.2022
4634 Clear 14 1027 43 10000 1.34 316 10:50 25.03.2022
4635 Clear 10 1027 52 10000 0.89 298 09:31 25.03.2022
4636 Clear 9 1014 53 10000 0.89 323 08:49 25.03.2022
4637 Clear 6 995 56 10000 1.02 235 07:35 25.03.2022
4638 Clear 4 1005 66 10000 1.54 235 06:29 25.03.2022
4639 Clear 7 995 55 10000 1.55 217 02:37 25.03.2022
4640 Clear 7 1005 51 10000 0.79 250 22:56 24.03.2022
4641 Clear 6 1027 56 10000 0.45 96 21:56 24.03.2022
4642 Clear 8 1027 52 10000 0.54 107 20:52 24.03.2022
4643 Clear 10 1027 47 10000 0.95 74 19:49 24.03.2022
4644 Clear 15 1026 54 10000 1.21 48 18:44 24.03.2022
4645 Clear 17 1025 26 10000 0.89 70 17:34 24.03.2022
4646 Clear 19 1025 25 10000 0.89 63 16:28 24.03.2022
4647 Clear 19 1026 24 10000 0.89 62 14:51 24.03.2022
4648 Clear 18 1026 26 10000 1.34 36 14:22 24.03.2022
4649 Clear 18 1026 26 10000 1.79 153 13:34 24.03.2022
4650 Clear 18 1028 27 10000 0.89 50 12:24 24.03.2022
4651 Clear 16 1027 30 10000 0.89 98 11:27 24.03.2022
4652 Clear 11 1029 49 10000 0.45 185 09:27 24.03.2022
4653 Clear 8 1029 58 10000 1.06 234 08:34 24.03.2022
4654 Clear 4 1007 65 10000 1.66 238 05:30 24.03.2022
4655 Clear 4 1006 65 10000 1.67 236 05:30 24.03.2022
4656 Clear 7 1007 56 10000 1.45 233 00:38 24.03.2022
4657 Clear 7 1013 51 10000 0.78 192 22:19 23.03.2022
4658 Clear 6 1029 56 10000 0.42 117 21:21 23.03.2022
4659 Clear 8 1029 49 10000 0.42 115 20:36 23.03.2022
4660 Clear 11 1028 42 10000 1.42 34 19:28 23.03.2022
4661 Clear 17 1028 54 10000 1.82 24 17:52 23.03.2022
4662 Clear 17 1027 26 10000 2.01 20 17:24 23.03.2022
4663 Clear 18 1028 25 10000 2.24 323 15:43 23.03.2022
4664 Clear 18 1028 25 10000 1.34 9 14:47 23.03.2022
4665 Clear 17 1030 27 10000 1.34 336 13:34 23.03.2022
4666 Clear 13 1031 39 10000 1.79 273 11:33 23.03.2022
4667 Clear 6 1032 59 10000 0.89 194 08:41 23.03.2022
4668 Clear 2 999 66 10000 1.7 229 06:25 23.03.2022
4669 Clear 3 1009 65 10000 1.64 232 03:44 23.03.2022
4670 Clear 5 1000 56 10000 1.32 197 00:27 23.03.2022
4671 Clear 4 1030 59 10000 0.97 162 21:53 22.03.2022
4672 Clear 5 1030 56 10000 0.93 132 21:23 22.03.2022
4673 Clear 7 1030 50 10000 1.11 92 20:29 22.03.2022
4674 Clear 10 1029 41 10000 1.59 69 19:27 22.03.2022
4675 Clear 13 1031 53 10000 1.62 74 18:50 22.03.2022
4676 Clear 14 1030 29 10000 2.18 59 17:44 22.03.2022
4677 Clear 15 1029 27 10000 1.34 40 16:58 22.03.2022
4678 Clear 16 1029 27 10000 2.4 53 15:49 22.03.2022
4679 Clear 16 1029 26 10000 0.89 73 15:21 22.03.2022
4680 Clear 16 1030 29 10000 1.34 38 14:45 22.03.2022
4681 Clear 16 1031 29 10000 1.34 21 14:24 22.03.2022
4682 Clear 15 1031 35 10000 0.89 333 12:40 22.03.2022
4683 Clear 11 1032 45 10000 0.89 350 11:26 22.03.2022
4684 Clear 8 1033 57 10000 0.89 123 09:55 22.03.2022
4685 Clear 4 1011 64 10000 0.68 156 07:48 22.03.2022
4686 Clear -1 1032 84 10000 0.75 143 04:36 22.03.2022
4687 Clear 2 1010 67 10000 1.27 117 02:54 22.03.2022
4688 Clear 2 1032 72 10000 1.41 116 23:40 21.03.2022
4689 Clear 3 1031 65 10000 2.12 97 21:51 21.03.2022
4690 Clear 3 1031 65 10000 2.1 97 21:51 21.03.2022
4691 Clear 5 1030 60 10000 2.47 90 20:45 21.03.2022
4692 Clear 6 1030 57 10000 2.9 87 20:26 21.03.2022
4693 Clear 7 1030 54 10000 2.9 87 19:53 21.03.2022
4694 Clear 8 1032 42 10000 3.33 85 19:23 21.03.2022
4695 Clear 14 1032 48 10000 3.58 81 17:45 21.03.2022
4696 Clear 14 1031 41 10000 1.34 53 17:18 21.03.2022
4697 Clear 14 1031 35 10000 2.24 39 16:39 21.03.2022
4698 Clear 15 1031 33 10000 0.89 63 15:47 21.03.2022
4699 Clear 14 1032 34 10000 0.89 57 14:51 21.03.2022
4700 Clear 13 1033 39 10000 0.45 93 13:43 21.03.2022
4701 Clear 12 1034 41 10000 0.89 57 12:34 21.03.2022
4702 Clear 11 1034 44 10000 0.89 53 11:44 21.03.2022
4703 Clear 9 1034 50 10000 0.45 48 10:34 21.03.2022
4704 Clear 2 1034 70 10000 0.89 198 08:30 21.03.2022
4705 Clear -1 972 61 10000 1 173 06:37 21.03.2022
4706 Clear -1 1031 75 10000 1.01 129 02:48 21.03.2022
4707 Clear 3 1031 61 10000 1.31 117 23:41 20.03.2022
4708 Clear 5 1031 53 10000 1.5 102 22:44 20.03.2022
4709 Clear 5 1033 72 10000 2.22 86 21:51 20.03.2022
4710 Clear 6 1033 50 10000 2.63 77 21:23 20.03.2022
4711 Clear 6 1032 69 10000 2.63 77 20:43 20.03.2022
4712 Clear 7 1031 66 10000 2.91 70 19:59 20.03.2022
4713 Clear 9 1031 63 10000 3 66 19:28 20.03.2022
4714 Clear 11 1030 57 10000 3.18 64 18:22 20.03.2022
4715 Clear 13 1030 38 10000 1.34 46 17:33 20.03.2022
4716 Clear 14 1030 37 10000 2.68 70 16:57 20.03.2022
4717 Clear 14 1030 35 10000 2.24 99 15:35 20.03.2022
4718 Clear 14 1030 35 10000 2.24 59 14:35 20.03.2022
4719 Clear 13 1031 38 10000 1.34 84 12:35 20.03.2022
4720 Clear 11 1032 48 10000 2.24 137 11:32 20.03.2022
4721 Clear 5 1031 66 10000 0.45 171 09:30 20.03.2022
4722 Clear 2 1010 67 10000 0.45 109 07:47 20.03.2022
4723 Clear -1 1012 74 10000 0.89 104 05:48 20.03.2022
4724 Clear 1 1013 71 10000 2.32 89 02:45 20.03.2022
4725 Clouds 2 1013 65 10000 2.43 88 00:48 20.03.2022
4726 Clouds 4 1012 59 10000 2.78 95 23:20 19.03.2022
4727 Clouds 5 1013 55 10000 0.89 44 21:32 19.03.2022
4728 Clouds 6 1008 53 10000 1.34 41 20:58 19.03.2022
4729 Clouds 7 1033 55 10000 0.45 17 19:21 19.03.2022
4730 Clouds 8 1014 51 10000 1.34 90 18:25 19.03.2022
4731 Clouds 9 1031 52 10000 2.24 317 17:41 19.03.2022
4732 Clouds 9 1030 47 10000 2.24 82 16:29 19.03.2022
4733 Clouds 10 1031 38 10000 2.24 65 15:20 19.03.2022
4734 Clear 10 1033 44 10000 2.24 43 13:39 19.03.2022
4735 Clear 9 1034 46 10000 2.24 56 12:42 19.03.2022
4736 Clear 9 1034 48 10000 3.13 44 12:19 19.03.2022
4737 Clear 8 1035 51 10000 2.24 73 11:42 19.03.2022
4738 Clear 3 1036 78 10000 1.34 41 08:34 19.03.2022
4739 Clear 2 1020 79 10000 3.23 81 04:24 19.03.2022
4740 Clear 3 1021 74 10000 0.89 40 02:31 19.03.2022
4741 Clouds 5 1023 66 10000 0.89 59 23:46 18.03.2022
4742 Clouds 6 1022 63 10000 0.89 49 22:43 18.03.2022
4743 Clouds 6 1022 62 10000 1.34 30 22:20 18.03.2022
4744 Clouds 7 1017 56 10000 1.34 156 20:25 18.03.2022
4745 Clouds 8 1016 54 10000 2.24 64 19:24 18.03.2022
4746 Clouds 9 1021 49 10000 0.89 59 18:35 18.03.2022
4747 Clouds 11 1036 50 10000 3.58 143 16:53 18.03.2022
4748 Clouds 11 1036 53 10000 2.24 35 16:18 18.03.2022
4749 Clouds 12 1023 51 10000 2.68 65 14:26 18.03.2022
4750 Clouds 11 1037 57 10000 1.79 51 13:36 18.03.2022
4751 Clouds 10 1037 63 10000 1.79 60 11:35 18.03.2022
4752 Clouds 9 1023 71 10000 1.34 51 10:21 18.03.2022
4753 Clouds 6 1019 85 10000 0.45 11 08:46 18.03.2022
4754 Clouds 3 1017 90 10000 1.72 31 06:45 18.03.2022
4755 Clouds 3 1016 89 10000 1.08 346 04:55 18.03.2022
4756 Clouds 5 1016 86 10000 0.83 332 01:38 18.03.2022
4757 Clouds 6 1016 84 10000 1.38 345 23:52 17.03.2022
4758 Clouds 7 1014 82 10000 0.45 291 22:45 17.03.2022
4759 Clouds 7 1014 82 10000 1.59 354 22:19 17.03.2022
4760 Clouds 7 1015 81 10000 0.45 281 21:30 17.03.2022
4761 Clouds 7 1013 81 10000 1.73 357 20:53 17.03.2022
4762 Clouds 7 1013 80 10000 1.7 356 20:20 17.03.2022
4763 Clouds 7 1012 79 10000 1.71 356 19:38 17.03.2022
4764 Clouds 8 1016 79 10000 0.89 301 18:53 17.03.2022
4765 Clouds 9 1015 78 10000 0.89 330 17:41 17.03.2022
4766 Clouds 9 1014 75 10000 1.34 327 16:29 17.03.2022
4767 Clouds 9 1014 75 10000 0.45 45 15:43 17.03.2022
4768 Clouds 10 1014 73 10000 0.45 46 15:18 17.03.2022
4769 Clouds 10 1011 74 10000 0.45 8 13:47 17.03.2022
4770 Clouds 9 997 73 10000 1.91 4 12:47 17.03.2022
4771 Clouds 9 996 73 10000 1.37 357 11:40 17.03.2022
4772 Clouds 7 996 76 10000 0.58 9 10:58 17.03.2022
4773 Clouds 6 1027 84 10000 0.72 80 09:40 17.03.2022
4774 Clouds 4 1008 85 10000 1.45 101 08:20 17.03.2022
4775 Clouds 3 1007 85 10000 2.13 89 05:53 17.03.2022
4776 Clouds 3 1007 84 10000 2.24 90 05:23 17.03.2022
4777 Clear 5 1011 83 10000 0.89 81 00:33 17.03.2022
4778 Clear 5 1012 83 10000 0.89 103 22:58 16.03.2022
4779 Clear 5 1012 83 10000 0.89 98 22:37 16.03.2022
4780 Clear 5 1008 83 10000 1.34 86 21:58 16.03.2022
4781 Clear 6 1008 84 10000 1.79 98 21:18 16.03.2022
4782 Clouds 7 1012 83 10000 0.89 96 19:25 16.03.2022
4783 Clouds 8 1008 80 10000 0.89 111 18:43 16.03.2022
4784 Clouds 8 1012 79 10000 1.34 115 18:18 16.03.2022
4785 Clouds 9 1012 76 10000 2.24 90 17:36 16.03.2022
4786 Clouds 10 1012 74 10000 3.58 126 16:49 16.03.2022
4787 Clouds 11 1012 71 10000 2.24 117 15:35 16.03.2022
4788 Clouds 9 1005 79 10000 0.45 36 13:41 16.03.2022
4789 Clouds 8 1014 84 10000 1.34 51 12:57 16.03.2022
4790 Clouds 6 1014 87 10000 0.45 138 11:44 16.03.2022
4791 Clouds 6 1014 88 10000 1.34 95 11:18 16.03.2022
4792 Clouds 5 1010 89 10000 1.34 112 09:58 16.03.2022
4793 Clouds 5 1010 91 10000 1.89 78 08:37 16.03.2022
4794 Clouds 7 1007 92 10000 1.34 279 03:30 16.03.2022
4795 Clouds 8 1007 90 10000 1.34 273 23:39 15.03.2022
4796 Rain 8 1011 90 10000 0.89 251 22:37 15.03.2022
4797 Rain 8 1006 86 10000 1.34 273 21:33 15.03.2022
4798 Clouds 9 1009 86 10000 0.45 340 19:47 15.03.2022
4799 Clouds 9 1008 84 10000 0.45 205 18:41 15.03.2022
4800 Rain 9 1000 80 10000 0.89 148 16:47 15.03.2022
4801 Rain 9 963 76 10000 2.36 35 16:18 15.03.2022
4802 Clouds 12 1002 60 10000 2 135 14:55 15.03.2022
4803 Clouds 11 1003 61 10000 1.97 134 14:30 15.03.2022
4804 Clouds 12 1013 59 10000 0.89 155 13:27 15.03.2022
4805 Clouds 11 1014 58 10000 0.89 278 11:56 15.03.2022
4806 Clouds 11 1014 59 10000 0.45 240 11:19 15.03.2022
4807 Clouds 7 1015 70 10000 2.32 272 09:37 15.03.2022
4808 Clouds 5 1014 76 10000 0.45 212 08:32 15.03.2022
4809 Clouds 5 1007 76 10000 0.45 261 07:50 15.03.2022
4810 Clouds 3 995 78 10000 0.42 169 06:35 15.03.2022
4811 Clouds 4 1015 75 10000 1.41 90 02:38 15.03.2022
4812 Clouds 3 1029 75 10000 2.3 67 23:38 14.03.2022
4813 Clouds 3 1029 74 10000 2.37 66 23:20 14.03.2022
4814 Clouds 4 1030 70 10000 0.45 327 21:59 14.03.2022
4815 Clouds 5 1030 67 10000 2.18 70 21:22 14.03.2022
4816 Clouds 7 1030 62 10000 2.1 48 20:35 14.03.2022
4817 Clouds 8 1030 61 10000 2.09 48 19:59 14.03.2022
4818 Clouds 12 1029 61 10000 1.45 2 18:31 14.03.2022
4819 Clouds 13 1029 61 10000 1.45 2 17:44 14.03.2022
4820 Clouds 14 1028 45 10000 1.39 322 16:57 14.03.2022
4821 Clouds 15 1028 43 10000 2.24 195 15:34 14.03.2022
4822 Clouds 14 1028 47 10000 1.34 317 14:33 14.03.2022
4823 Clouds 12 1029 53 10000 2.24 284 11:53 14.03.2022
4824 Clouds 11 1029 61 10000 2.24 217 10:50 14.03.2022
4825 Clouds 10 1028 66 10000 2.24 195 09:39 14.03.2022
4826 Clouds 9 1029 74 10000 4.69 254 09:20 14.03.2022
4827 Clouds 9 1027 70 10000 4.02 314 08:55 14.03.2022
4828 Clouds 7 1013 75 10000 1.79 281 07:21 14.03.2022
4829 Clouds 8 1010 64 10000 2.24 296 05:22 14.03.2022
4830 Clouds 2 1003 61 10000 1.34 286 01:52 14.03.2022
4831 Clear 0 1018 68 10000 2.2 217 01:20 14.03.2022
4832 Clear 3 1017 55 10000 1.65 145 22:42 13.03.2022
4833 Clear 5 1018 47 10000 2.31 112 21:28 13.03.2022
4834 Clear 5 1018 45 10000 2.29 113 20:55 13.03.2022
4835 Clear 6 1017 48 10000 2.93 102 20:29 13.03.2022
4836 Clear 7 1017 44 10000 2.93 102 19:48 13.03.2022
4837 Clear 9 1017 57 10000 3.53 92 19:25 13.03.2022
4838 Clear 11 1017 58 10000 3.46 92 18:50 13.03.2022
4839 Clear 12 1016 53 10000 3.48 83 18:30 13.03.2022
4840 Clear 13 1016 52 10000 3.63 81 17:40 13.03.2022
4841 Clear 13 1016 52 10000 3.64 81 17:40 13.03.2022
4842 Clear 14 1015 43 10000 4.11 76 16:57 13.03.2022
4843 Clear 14 1015 38 10000 4.35 79 16:29 13.03.2022
4844 Clear 14 1015 38 10000 4.34 79 15:44 13.03.2022
4845 Clear 13 1015 37 10000 4.4 80 14:51 13.03.2022
4846 Clear 13 1017 39 10000 0.89 180 13:33 13.03.2022
4847 Clear 11 1018 43 10000 0.45 321 12:38 13.03.2022
4848 Clear 12 1018 36 10000 0.45 86 11:51 13.03.2022
4849 Clear 10 1019 44 10000 0.45 339 11:31 13.03.2022
4850 Clear 10 1019 46 10000 0.45 257 10:47 13.03.2022
4851 Clear 8 1018 49 10000 0.45 323 10:22 13.03.2022
4852 Clear 6 1019 55 10000 2.14 105 09:40 13.03.2022
4853 Clear 3 1020 62 10000 0.45 145 08:45 13.03.2022
4854 Clear 0 998 64 10000 1.19 154 07:41 13.03.2022
4855 Clear -2 996 67 10000 0.89 222 05:40 13.03.2022
4856 Clear -1 1001 65 10000 1.57 121 02:43 13.03.2022
4857 Clear 0 1018 64 10000 2 114 23:56 12.03.2022
4858 Clear 2 1018 55 10000 2.07 110 22:27 12.03.2022
4859 Clear 3 1020 54 10000 2.36 104 20:47 12.03.2022
4860 Clear 5 1020 59 10000 2.81 95 19:48 12.03.2022
4861 Clear 6 1020 57 10000 3.2 88 19:27 12.03.2022
4862 Clear 9 1019 52 10000 3.55 76 18:23 12.03.2022
4863 Clear 10 1019 33 10000 3.55 76 17:34 12.03.2022
4864 Clear 12 1018 35 10000 4.13 84 16:24 12.03.2022
4865 Clear 12 1018 34 10000 0.89 49 15:23 12.03.2022
4866 Clear 12 1020 34 10000 0.89 135 14:40 12.03.2022
4867 Clear 12 1021 40 10000 1.79 80 13:32 12.03.2022
4868 Clouds 9 1021 46 10000 0.89 61 11:56 12.03.2022
4869 Clouds 8 1021 47 10000 0.45 52 11:38 12.03.2022
4870 Clouds 8 1022 49 10000 2.29 79 10:58 12.03.2022
4871 Clouds 4 1022 57 10000 0.45 142 09:46 12.03.2022
4872 Clouds 1 1024 62 10000 1 83 08:56 12.03.2022
4873 Clouds -2 991 60 10000 1.58 120 07:27 12.03.2022
4874 Clouds -2 1003 59 10000 1.69 103 03:36 12.03.2022
4875 Clouds 0 1003 55 10000 0.89 86 23:56 11.03.2022
4876 Clouds 0 1004 55 10000 2.37 101 23:56 11.03.2022
4877 Clouds 0 1003 55 10000 0.89 86 23:56 11.03.2022
4878 Clouds 0 1003 53 10000 0.89 118 23:18 11.03.2022
4879 Clear 2 1022 53 10000 1.34 64 21:41 11.03.2022
4880 Clear 2 1022 53 10000 0.45 100 20:56 11.03.2022
4881 Clear 3 1020 51 10000 0.89 101 20:35 11.03.2022
4882 Clear 4 1021 45 10000 4.3 90 19:52 11.03.2022
4883 Clear 5 1019 49 10000 0.45 63 19:22 11.03.2022
4884 Clear 9 1018 44 10000 2.68 101 17:30 11.03.2022
4885 Clear 10 1019 40 10000 2.24 320 16:38 11.03.2022
4886 Clear 10 1019 39 10000 4.02 114 15:55 11.03.2022
4887 Clear 10 1019 39 10000 1.34 38 14:20 11.03.2022
4888 Clear 8 1021 46 10000 1.79 34 12:52 11.03.2022
4889 Clouds 7 1022 47 10000 0.89 184 12:21 11.03.2022
4890 Clouds 6 1022 49 10000 0.89 122 11:53 11.03.2022
4891 Clouds 2 1022 57 10000 2.24 115 09:59 11.03.2022
4892 Clouds 0 1022 63 10000 1.34 108 08:57 11.03.2022
4893 Clouds -2 1021 65 10000 1.79 135 08:24 11.03.2022
4894 Clouds -2 1004 62 10000 0.45 95 07:45 11.03.2022
4895 Clear -3 1005 60 10000 0.89 96 05:49 11.03.2022
4896 Clear -1 1005 56 10000 0.89 103 03:49 11.03.2022
4897 Clear 2 1025 66 10000 4.83 93 23:46 10.03.2022
4898 Clear 3 1025 66 10000 5.4 91 22:31 10.03.2022
4899 Clear 4 1025 61 10000 5.43 91 21:47 10.03.2022
4900 Clear 4 1024 56 10000 5.67 90 21:19 10.03.2022
4901 Clear 5 1024 48 10000 5.63 90 19:48 10.03.2022
4902 Clear 7 1024 43 10000 5.15 89 18:55 10.03.2022
4903 Clear 10 1024 61 10000 5.14 85 17:36 10.03.2022
4904 Clear 11 1023 32 10000 5.37 85 16:31 10.03.2022
4905 Clear 12 1023 26 10000 3.13 98 15:20 10.03.2022
4906 Clear 11 1027 38 10000 0.89 85 13:24 10.03.2022
4907 Clear 11 1026 38 10000 2.24 150 12:34 10.03.2022
4908 Clear 9 1027 47 10000 1.34 208 11:20 10.03.2022
4909 Clear 3 1027 65 10000 0.89 96 09:22 10.03.2022
4910 Clear -3 1029 78 10000 1.65 110 07:41 10.03.2022
4911 Clear -4 1026 78 10000 1.64 119 04:47 10.03.2022
4912 Clear -3 1026 76 10000 1.41 135 01:50 10.03.2022
4913 Clear -2 1026 70 10000 1.56 124 23:28 09.03.2022
4914 Clear 0 1025 64 10000 1.66 129 21:54 09.03.2022
4915 Clear 1 1025 62 10000 1.89 118 21:34 09.03.2022
4916 Clear 2 1024 59 10000 1.95 114 19:55 09.03.2022
4917 Clear 8 1026 66 10000 1.95 105 18:34 09.03.2022
4918 Clear 10 1024 53 10000 2.39 79 17:27 09.03.2022
4919 Clear 11 1024 34 10000 2.56 78 16:34 09.03.2022
4920 Clear 10 1024 32 10000 2.42 74 15:31 09.03.2022
4921 Clear 11 1024 27 10000 1.79 89 13:54 09.03.2022
4922 Clear 10 1023 29 10000 0.89 28 12:48 09.03.2022
4923 Clear 9 1026 32 10000 1.34 90 12:18 09.03.2022
4924 Clear 8 1025 35 10000 0.45 42 11:36 09.03.2022
4925 Clear 5 1025 47 10000 0.87 86 10:38 09.03.2022
4926 Clear 0 1025 64 10000 0.83 160 08:59 09.03.2022
4927 Clear -2 1025 72 10000 0.45 112 08:23 09.03.2022
4928 Clouds -4 1002 72 10000 0.45 89 02:59 09.03.2022
4929 Clouds -3 1023 71 10000 1.81 115 00:47 09.03.2022
4930 Clouds -2 1007 62 10000 2.43 98 22:48 08.03.2022
4931 Clear -2 1023 62 10000 2.39 96 22:29 08.03.2022
4932 Clear -1 1023 58 10000 0.45 98 21:24 08.03.2022
4933 Clear -1 1025 60 10000 2.55 95 20:44 08.03.2022
4934 Clear 1 1024 54 10000 3.12 88 19:53 08.03.2022
4935 Clear 3 1023 48 10000 2.97 85 18:44 08.03.2022
4936 Clear 6 1023 53 10000 3.36 88 17:40 08.03.2022
4937 Clear 7 1021 39 10000 2.24 108 16:29 08.03.2022
4938 Clear 6 1022 40 10000 3.58 135 14:21 08.03.2022
4939 Clouds 5 1023 43 10000 3.13 102 12:44 08.03.2022
4940 Clouds 5 1022 45 10000 2.68 90 11:45 08.03.2022
4941 Clouds 3 1023 56 10000 4.47 122 10:55 08.03.2022
4942 Clouds 2 1023 61 10000 4.47 50 10:19 08.03.2022
4943 Clouds -5 1006 74 10000 0.45 111 07:34 08.03.2022
4944 Clouds -6 1006 73 10000 1.34 113 05:44 08.03.2022
4945 Clear -4 1008 67 10000 0.45 87 23:58 07.03.2022
4946 Clear -3 1008 61 10000 0.45 106 22:23 07.03.2022
4947 Clear -3 1009 60 10000 0.45 113 21:35 07.03.2022
4948 Clear -2 1008 58 10000 0.45 80 20:53 07.03.2022
4949 Clear -2 1008 57 10000 0.45 65 20:20 07.03.2022
4950 Clear -1 1008 56 10000 0.45 56 19:38 07.03.2022
4951 Clouds -1 1007 54 10000 0.89 49 18:47 07.03.2022
4952 Clouds 1 1007 52 10000 1.34 55 17:54 07.03.2022
4953 Clouds 1 1023 54 10000 0.89 53 16:56 07.03.2022
4954 Clouds 2 1023 53 10000 1.34 51 16:30 07.03.2022
4955 Clouds 2 1023 56 10000 0.89 98 14:31 07.03.2022
4956 Clouds 1 1011 58 10000 2.24 56 12:33 07.03.2022
4957 Clouds 0 1024 65 10000 2.68 63 10:45 07.03.2022
4958 Clouds 0 1024 66 10000 2.68 102 10:24 07.03.2022
4959 Clear -3 1001 72 10000 0.45 30 07:24 07.03.2022
4960 Clouds -1 1022 62 10000 0.45 39 00:24 07.03.2022
4961 Clouds -1 1022 62 10000 0.45 75 23:58 06.03.2022
4962 Clouds -1 1022 62 10000 0.89 42 23:18 06.03.2022
4963 Clouds 0 1022 62 10000 0.89 49 22:24 06.03.2022
4964 Clouds 0 1005 59 10000 0.89 51 20:56 06.03.2022
4965 Clouds 0 1021 61 10000 2.24 85 20:28 06.03.2022
4966 Clouds 1 1020 59 10000 2.68 57 19:31 06.03.2022
4967 Clouds 2 1004 54 10000 1.34 55 18:25 06.03.2022
4968 Clouds 3 1020 51 10000 1.34 37 17:22 06.03.2022
4969 Clouds 4 1020 47 10000 1.34 49 16:52 06.03.2022
4970 Clouds 3 1020 47 10000 0.89 94 16:24 06.03.2022
4971 Clouds 4 1020 46 10000 1.34 261 15:19 06.03.2022
4972 Clouds 4 1020 49 10000 1.79 53 14:41 06.03.2022
4973 Clouds 4 1020 48 10000 1.79 63 13:47 06.03.2022
4974 Clouds 3 1021 51 10000 2.24 355 12:36 06.03.2022
4975 Clouds 2 1021 55 10000 2.24 344 11:30 06.03.2022
4976 Clouds 1 1021 66 10000 1.34 94 10:30 06.03.2022
4977 Clouds -2 1021 83 10000 0.45 58 08:51 06.03.2022
4978 Clouds -3 1021 84 10000 0.89 95 08:27 06.03.2022
4979 Clouds -4 1004 84 10000 2.24 75 07:18 06.03.2022
4980 Clear -3 1003 76 10000 0.45 48 01:37 06.03.2022
4981 Clear -2 1003 73 10000 2.97 78 00:34 06.03.2022
4982 Clear -2 1004 70 10000 0.45 82 23:56 05.03.2022
4983 Clear -1 1004 69 10000 0.45 72 23:18 05.03.2022
4984 Clear -1 1004 66 10000 1.34 98 22:31 05.03.2022
4985 Clear -1 1004 66 10000 1.34 98 22:31 05.03.2022
4986 Clear 0 1000 59 10000 0.89 96 21:25 05.03.2022
4987 Clear 0 1022 62 10000 2.7 82 19:59 05.03.2022
4988 Clouds 1 1020 59 10000 0.45 114 18:58 05.03.2022
4989 Clouds 1 1020 55 10000 0.89 33 18:37 05.03.2022
4990 Clouds 3 1003 48 10000 1.79 67 17:31 05.03.2022
4991 Clouds 4 1019 49 10000 1.79 101 16:18 05.03.2022
4992 Clouds 5 1019 47 10000 2.24 82 14:54 05.03.2022
4993 Clear 5 1019 48 10000 2.24 85 14:35 05.03.2022
4994 Clouds 5 1019 48 10000 1.79 43 14:35 05.03.2022
4995 Clear 4 1019 48 10000 1.79 114 13:39 05.03.2022
4996 Clear 4 1020 53 10000 2.68 43 12:35 05.03.2022
4997 Clear 3 1020 62 10000 3.13 86 11:20 05.03.2022
4998 Clear 2 1020 67 10000 1.34 172 10:52 05.03.2022
4999 Clear -1 1020 79 10000 0.89 46 09:31 05.03.2022
5000 Clear -3 1021 83 10000 0.45 55 08:24 05.03.2022
5001 Clear -6 1020 84 10000 2.76 87 07:21 05.03.2022
5002 Clear -5 1019 80 10000 2.84 89 05:25 05.03.2022
5003 Clear -3 1020 72 10000 3.22 91 00:32 05.03.2022
5004 Clear -2 1020 67 10000 0.45 111 22:45 04.03.2022
5005 Clear -2 1020 65 10000 0.45 114 22:25 04.03.2022
5006 Clear -1 1020 64 10000 1.34 115 21:43 04.03.2022
5007 Clear 0 1020 60 10000 0.45 84 20:42 04.03.2022
5008 Clear 1 1020 59 10000 1.34 56 19:37 04.03.2022
5009 Clear 2 1022 54 10000 1.34 62 18:56 04.03.2022
5010 Clear 3 1020 50 10000 1.34 114 18:33 04.03.2022
5011 Clear 5 1019 45 10000 2.68 172 17:29 04.03.2022
5012 Clear 6 1019 44 10000 2.24 66 15:58 04.03.2022
5013 Clear 6 1019 40 10000 1.79 65 15:25 04.03.2022
5014 Clear 6 1019 44 10000 1.79 86 13:36 04.03.2022
5015 Clear 5 1019 47 10000 1.34 237 12:48 04.03.2022
5016 Clear 4 1020 50 10000 3.13 58 11:37 04.03.2022
5017 Clear 4 1020 50 10000 3.13 142 11:37 04.03.2022
5018 Clear 2 1020 55 10000 2.24 103 10:26 04.03.2022
5019 Clear -1 1020 68 10000 0.45 127 09:28 04.03.2022
5020 Clear -4 1021 80 10000 1.77 71 07:49 04.03.2022
5021 Clear -5 1020 78 10000 1.23 79 06:26 04.03.2022
5022 Clear -4 1018 76 10000 1.71 77 02:52 04.03.2022
5023 Clear -3 1018 68 10000 1.35 56 23:43 03.03.2022
5024 Clouds -2 1018 64 10000 1.27 63 22:18 03.03.2022
5025 Clouds -1 1018 60 10000 1.27 63 21:37 03.03.2022
5026 Clouds 0 1017 55 10000 1.56 63 20:56 03.03.2022
5027 Clouds 1 1018 58 10000 1.73 63 19:42 03.03.2022
5028 Clouds 5 1017 54 10000 1.88 49 18:44 03.03.2022
5029 Clouds 7 1016 50 10000 2.11 33 17:46 03.03.2022
5030 Clear 7 1015 32 10000 0.89 346 17:26 03.03.2022
5031 Clear 8 1014 37 10000 1.34 61 15:47 03.03.2022
5032 Clear 9 1016 42 10000 1.79 109 14:53 03.03.2022
5033 Clear 9 1016 43 10000 1.79 355 14:32 03.03.2022
5034 Clouds 8 1017 39 10000 0.89 50 12:52 03.03.2022
5035 Clouds 7 1018 55 10000 0.45 59 11:45 03.03.2022
5036 Clouds 5 1018 64 10000 0.89 311 10:40 03.03.2022
5037 Clouds 0 1020 76 10000 0.65 252 08:45 03.03.2022
5038 Clear -6 1021 89 10000 1.32 178 07:25 03.03.2022
5039 Clear -4 1021 83 10000 0.87 141 06:34 03.03.2022
5040 Clear -4 1021 82 10000 1.31 156 01:45 03.03.2022
5041 Clouds -2 1021 77 10000 0.37 157 23:29 02.03.2022
5042 Clouds -1 1021 76 10000 0.37 157 22:50 02.03.2022
5043 Clouds -1 1021 76 10000 0.37 157 22:50 02.03.2022
5044 Clouds -1 1021 74 10000 1.59 149 21:29 02.03.2022
5045 Clouds 0 1021 70 10000 1.59 150 20:45 02.03.2022
5046 Clouds 1 1022 69 10000 1.65 129 20:22 02.03.2022
5047 Clouds 2 1023 63 10000 1.66 129 19:35 02.03.2022
5048 Clouds 4 1022 60 10000 1.42 99 18:44 02.03.2022
5049 Clouds 4 1022 58 10000 0.89 120 17:59 02.03.2022
5050 Clouds 5 1022 57 10000 1.77 78 17:28 02.03.2022
5051 Clouds 5 1022 56 10000 0.45 53 16:51 02.03.2022
5052 Rain 6 1023 49 10000 0.45 99 14:48 02.03.2022
5053 Clouds 6 1023 48 10000 0.45 74 13:25 02.03.2022
5054 Clouds 5 1023 50 10000 0.45 58 12:44 02.03.2022
5055 Clouds 4 1024 51 10000 0.45 67 11:53 02.03.2022
5056 Clouds 4 1023 54 10000 0.45 70 11:24 02.03.2022
5057 Clouds 0 1025 64 10000 0.89 129 09:47 02.03.2022
5058 Clouds 0 1025 70 10000 0.45 165 09:25 02.03.2022
5059 Clouds -3 1026 76 10000 0.99 132 07:52 02.03.2022
5060 Clouds -5 1026 82 10000 0.45 168 06:57 02.03.2022
5061 Clouds -5 1025 81 10000 0.45 158 03:46 02.03.2022
5062 Clouds -4 1027 74 10000 1 124 00:39 02.03.2022
5063 Clouds -3 1027 70 10000 1.4 154 22:50 01.03.2022
5064 Clouds -2 1027 67 10000 0.45 149 22:31 01.03.2022
5065 Clouds -2 1027 66 10000 2.17 111 21:25 01.03.2022
5066 Clouds -1 1026 60 10000 1.86 95 20:37 01.03.2022
5067 Clouds -1 1028 63 10000 1.84 95 20:18 01.03.2022
5068 Clear 2 1028 55 10000 1.8 90 18:52 01.03.2022
5069 Clear 3 1029 50 10000 2 95 18:21 01.03.2022
5070 Clear 4 1029 50 10000 1.98 95 18:21 01.03.2022
5071 Clear 6 1028 43 10000 0.45 56 17:39 01.03.2022
5072 Clear 7 1028 40 10000 1.34 50 16:36 01.03.2022
5073 Clear 7 1027 37 10000 0.89 59 15:47 01.03.2022
5074 Clear 7 1028 37 10000 0.89 51 14:53 01.03.2022
5075 Clear 7 1028 36 10000 1.34 76 14:31 01.03.2022
5076 Clear 6 1028 39 10000 1.34 50 13:26 01.03.2022
5077 Clear 5 1029 45 10000 2.68 115 12:35 01.03.2022
5078 Clear 3 1030 53 10000 0.45 184 10:57 01.03.2022
5079 Clear 0 1031 64 10000 1.34 114 09:43 01.03.2022
5080 Clear -4 1031 74 10000 1.34 135 08:25 01.03.2022
5081 Clear -5 1029 77 10000 0.45 100 06:47 01.03.2022
5082 Clear -4 1030 69 10000 0.45 105 03:26 01.03.2022
5083 Clear -2 1031 66 10000 0.45 121 00:48 01.03.2022
5084 Clear -2 1031 65 10000 0.45 114 23:46 28.02.2022
5085 Clear -1 1031 64 10000 0.45 108 22:43 28.02.2022
5086 Clear -1 1031 63 10000 0.89 121 21:48 28.02.2022
5087 Clear -1 1031 65 10000 2.64 96 20:54 28.02.2022
5088 Clear 0 1030 64 10000 2.45 105 19:51 28.02.2022
5089 Clear 1 1032 59 10000 2.74 101 18:56 28.02.2022
5090 Clear 5 1032 56 10000 2.76 88 17:43 28.02.2022
5091 Clear 5 1031 47 10000 1.34 71 17:23 28.02.2022
5092 Clear 6 1030 45 10000 0.89 51 16:25 28.02.2022
5093 Clear 7 1030 46 10000 0.45 94 15:19 28.02.2022
5094 Clear 6 1031 48 10000 1.34 70 14:29 28.02.2022
5095 Clear 6 1031 50 10000 0.45 50 13:24 28.02.2022
5096 Clear 5 1032 55 10000 1.34 57 12:29 28.02.2022
5097 Clear 4 1032 62 10000 2.24 122 11:21 28.02.2022
5098 Clear 2 1032 69 10000 0.45 93 10:24 28.02.2022
5099 Clear 1 1032 76 10000 0.89 116 09:53 28.02.2022
5100 Clear -1 1032 78 10000 2.05 104 09:24 28.02.2022
5101 Clear -3 1033 82 10000 1.9 111 08:22 28.02.2022
5102 Clear -5 1032 85 10000 1.72 113 06:44 28.02.2022
5103 Clear -4 1031 83 10000 1.94 87 04:31 28.02.2022
5104 Clear -3 1030 80 10000 2.21 84 02:41 28.02.2022
5105 Clouds -1 1032 73 10000 0.45 97 23:19 27.02.2022
5106 Clouds -1 1031 70 10000 0.45 100 22:33 27.02.2022
5107 Clouds 0 1031 69 10000 0.45 56 21:47 27.02.2022
5108 Clear 0 1031 66 10000 0.89 81 20:54 27.02.2022
5109 Clear 1 1032 65 10000 0.89 72 20:27 27.02.2022
5110 Clear 1 1031 62 10000 0.45 79 19:56 27.02.2022
5111 Clear 2 1031 60 10000 1.34 116 19:26 27.02.2022
5112 Clear 3 1031 56 10000 1.34 180 18:39 27.02.2022
5113 Clear 4 1031 55 10000 2.68 132 17:54 27.02.2022
5114 Clear 5 1030 53 10000 2.68 32 16:37 27.02.2022
5115 Clear 5 1030 52 10000 2.24 46 15:59 27.02.2022
5116 Clouds 5 1031 54 10000 4.47 115 13:21 27.02.2022
5117 Clouds 4 1032 62 10000 2.68 63 12:32 27.02.2022
5118 Clouds 3 1032 65 10000 3.58 134 10:54 27.02.2022
5119 Clouds 2 1032 75 10000 2.24 140 10:18 27.02.2022
5120 Clouds 1 1032 83 10000 1.79 121 09:44 27.02.2022
5121 Clear 0 1032 86 10000 1.79 89 09:19 27.02.2022
5122 Clear -3 1031 89 10000 3.32 89 07:34 27.02.2022
5123 Clear -3 1031 89 10000 3.19 94 05:38 27.02.2022
5124 Clouds -2 1031 84 10000 2.19 86 00:53 27.02.2022
5125 Clouds -1 1032 82 10000 1.65 105 23:22 26.02.2022
5126 Clouds 1 1032 75 10000 1.7 107 21:49 26.02.2022
5127 Clouds 1 1034 74 10000 0.45 118 20:58 26.02.2022
5128 Clouds 1 1032 71 10000 0.89 31 20:20 26.02.2022
5129 Clouds 1 1034 73 10000 1.37 54 19:49 26.02.2022
5130 Clouds 2 1031 68 10000 0.89 68 19:26 26.02.2022
5131 Clouds 3 1033 63 10000 2.04 37 17:52 26.02.2022
5132 Clouds 3 1032 58 10000 0.89 123 17:28 26.02.2022
5133 Clouds 4 1032 56 10000 1.79 14 15:57 26.02.2022
5134 Clouds 4 1032 59 10000 1.34 310 15:25 26.02.2022
5135 Clouds 4 1033 60 10000 1.34 35 14:56 26.02.2022
5136 Clouds 4 1033 59 10000 0.89 55 14:38 26.02.2022
5137 Clouds 4 1033 62 10000 0.89 12 13:27 26.02.2022
5138 Clouds 3 1033 63 10000 2.68 336 12:51 26.02.2022
5139 Clouds 3 1033 71 10000 1.34 305 11:29 26.02.2022
5140 Clouds 2 1033 78 10000 2.24 242 10:56 26.02.2022
5141 Clouds 1 1033 86 10000 0.89 320 09:21 26.02.2022
5142 Clouds 1 1032 87 10000 0.89 290 07:57 26.02.2022
5143 Clouds 1 1030 86 10000 0.89 282 03:21 26.02.2022
5144 Clouds 1 1028 84 10000 2.24 279 23:32 25.02.2022
5145 Clouds 1 1027 85 10000 0.45 233 21:49 25.02.2022
5146 Clouds 1 1028 84 10000 0.45 210 21:29 25.02.2022
5147 Clouds 1 1027 82 10000 0.89 217 20:33 25.02.2022
5148 Clouds 2 1027 79 10000 1.34 298 19:53 25.02.2022
5149 Clouds 2 1026 81 10000 0.89 244 17:48 25.02.2022
5150 Clouds 3 1026 78 10000 0.89 219 16:46 25.02.2022
5151 Clouds 5 1026 60 10000 4.02 284 15:49 25.02.2022
5152 Clouds 5 1026 60 10000 2.68 248 15:23 25.02.2022
5153 Clouds 5 1026 60 10000 2.68 248 15:23 25.02.2022
5154 Clouds 5 1026 57 10000 4.47 296 14:50 25.02.2022
5155 Clouds 5 1026 58 10000 3.58 211 14:18 25.02.2022
5156 Clouds 5 1025 51 10000 4.02 234 13:23 25.02.2022
5157 Clouds 5 1026 58 10000 4.47 281 11:52 25.02.2022
5158 Clouds 5 1026 60 10000 3.13 288 11:18 25.02.2022
5159 Clouds 3 1026 72 10000 3.13 266 10:23 25.02.2022
5160 Clouds 2 1026 79 10000 0.89 242 09:42 25.02.2022
5161 Clouds 2 1026 79 10000 1.34 282 09:42 25.02.2022
5162 Clouds 2 1026 79 10000 1.34 282 09:42 25.02.2022
5163 Clouds 0 1025 84 10000 2.68 272 07:53 25.02.2022
5164 Clouds 1 1023 83 10000 1.79 278 06:54 25.02.2022
5165 Clouds 1 1023 84 10000 2.24 238 05:40 25.02.2022
5166 Clouds 2 1019 85 600 1.79 325 01:23 25.02.2022
5167 Clouds 9 1017 65 10000 3.58 190 22:37 24.02.2022
5168 Clouds 9 1017 64 10000 2.24 191 21:50 24.02.2022
5169 Clouds 9 1017 65 10000 3.58 276 21:30 24.02.2022
5170 Clouds 9 1016 65 10000 3.13 260 20:44 24.02.2022
5171 Clouds 9 1017 62 10000 1.79 237 19:31 24.02.2022
5172 Clouds 10 1016 59 10000 4.47 274 18:20 24.02.2022
5173 Clouds 10 1016 57 10000 1.79 288 17:54 24.02.2022
5174 Clouds 11 1016 55 10000 2.68 226 17:20 24.02.2022
5175 Clouds 12 1016 52 10000 1.79 216 16:28 24.02.2022
5176 Clouds 13 1016 49 10000 2.68 284 15:44 24.02.2022
5177 Clouds 13 1017 47 10000 2.68 303 14:48 24.02.2022
5178 Clouds 13 1017 48 10000 2.68 279 13:59 24.02.2022
5179 Clouds 13 1017 50 10000 2.24 265 13:38 24.02.2022
5180 Clouds 11 1019 58 10000 2.68 263 11:41 24.02.2022
5181 Clouds 8 1019 69 10000 0.45 197 10:34 24.02.2022
5182 Clouds 2 1021 87 10000 1.34 127 08:44 24.02.2022
5183 Clouds 0 1021 91 10000 2.2 188 07:26 24.02.2022
5184 Clouds 0 1020 91 10000 2.32 209 05:50 24.02.2022
5185 Clouds 0 1022 87 10000 2.19 215 00:32 24.02.2022
5186 Clouds 2 1023 81 10000 1.34 113 22:29 23.02.2022
5187 Clouds 4 1024 77 10000 0.89 113 20:52 23.02.2022
5188 Clear 4 1025 77 10000 0.89 107 20:30 23.02.2022
5189 Clear 4 1025 77 10000 3.16 110 19:44 23.02.2022
5190 Clouds 7 1024 71 10000 2.98 108 18:32 23.02.2022
5191 Clouds 10 1026 59 10000 2.17 113 17:21 23.02.2022
5192 Clouds 10 1028 60 10000 1.79 261 14:34 23.02.2022
5193 Clouds 9 1030 67 10000 1.34 282 12:37 23.02.2022
5194 Clouds 7 1030 74 10000 1.79 252 11:24 23.02.2022
5195 Clouds 6 1030 81 10000 0.89 266 10:31 23.02.2022
5196 Clouds 4 1029 87 10000 1.79 193 08:58 23.02.2022
5197 Clouds 3 1028 89 10000 0.89 214 07:57 23.02.2022
5198 Clouds 6 1023 82 10000 4.02 287 03:48 23.02.2022
5199 Clouds 6 1023 77 10000 4.47 221 00:26 23.02.2022
5200 Clouds 5 1023 78 10000 2.68 291 23:35 22.02.2022
5201 Clouds 5 1023 78 10000 5.36 251 22:31 22.02.2022
5202 Rain 5 1023 80 10000 4.47 280 21:49 22.02.2022
5203 Clouds 6 1023 79 10000 5.81 274 21:30 22.02.2022
5204 Clouds 6 1023 73 10000 3.13 235 20:52 22.02.2022
5205 Clouds 6 1022 71 10000 3.13 244 20:29 22.02.2022
5206 Clouds 6 1022 73 10000 3.13 296 19:42 22.02.2022
5207 Clouds 6 1022 73 10000 4.02 279 19:19 22.02.2022
5208 Clouds 6 1022 74 10000 3.13 279 17:48 22.02.2022
5209 Clouds 6 1022 76 10000 1.34 243 17:21 22.02.2022
5210 Clouds 6 1023 80 10000 3.58 275 16:37 22.02.2022
5211 Clouds 7 1023 77 10000 3.13 221 15:40 22.02.2022
5212 Clouds 6 1023 75 10000 4.02 207 14:44 22.02.2022
5213 Clouds 6 1024 68 10000 4.47 317 12:31 22.02.2022
5214 Clouds 4 1023 80 9396 2.24 273 10:50 22.02.2022
5215 Clouds 2 1021 86 10000 1.79 277 08:41 22.02.2022
5216 Clouds 1 1020 88 7245 2.68 284 07:26 22.02.2022
5217 Clouds 3 1017 83 3827 2.68 294 04:59 22.02.2022
5218 Clouds 3 1015 84 1516 4.02 256 02:45 22.02.2022
5219 Clouds 4 1012 84 10000 4.47 294 22:46 21.02.2022
5220 Clouds 3 1010 85 343 4.02 193 21:42 21.02.2022
5221 Clouds 3 1009 83 10000 3.58 191 20:36 21.02.2022
5222 Clear 4 1009 74 10000 7.15 264 18:46 21.02.2022
5223 Clear 5 1008 72 10000 5.81 299 17:36 21.02.2022
5224 Clouds 6 1010 63 10000 4.02 196 15:22 21.02.2022
5225 Clouds 6 1010 69 10000 5.36 256 14:22 21.02.2022
5226 Clouds 6 1010 65 10000 5.81 265 13:22 21.02.2022
5227 Clouds 5 1011 70 10000 4.47 326 12:23 21.02.2022
5228 Clouds 4 1012 76 10000 3.13 227 11:20 21.02.2022
5229 Clouds 2 1010 83 10000 5.81 286 09:50 21.02.2022
5230 Clouds 10 1005 58 10000 10.73 260 05:35 21.02.2022
5231 Clouds 9 1012 64 10000 6.71 276 23:44 20.02.2022
5232 Clouds 8 1014 66 10000 3.58 234 22:27 20.02.2022
5233 Clouds 8 1014 66 10000 2.24 277 21:42 20.02.2022
5234 Clouds 8 1014 66 10000 2.68 252 20:59 20.02.2022
5235 Clouds 8 1015 66 10000 2.24 266 20:41 20.02.2022
5236 Clouds 8 1015 64 10000 3.58 278 19:36 20.02.2022
5237 Clouds 8 1015 63 10000 4.02 280 18:51 20.02.2022
5238 Clouds 9 1016 62 10000 4.47 276 18:32 20.02.2022
5239 Clouds 9 1016 61 10000 2.68 197 17:52 20.02.2022
5240 Clouds 10 1017 57 10000 4.47 275 15:41 20.02.2022
5241 Clouds 10 1018 55 10000 3.58 226 14:48 20.02.2022
5242 Clouds 10 1019 54 10000 3.58 249 13:33 20.02.2022
5243 Clouds 9 1019 59 10000 3.13 215 12:34 20.02.2022
5244 Clouds 7 1021 65 10000 3.13 243 10:47 20.02.2022
5245 Clouds 6 1021 66 10000 1.79 236 10:20 20.02.2022
5246 Clouds 5 1020 68 10000 4.02 219 08:51 20.02.2022
5247 Clouds 3 1019 75 10000 2.68 226 00:54 20.02.2022
5248 Clouds 2 1019 74 10000 4.02 278 00:30 20.02.2022
5249 Clouds 2 1019 76 10000 0.45 223 23:18 19.02.2022
5250 Clouds 2 1019 74 10000 0.89 224 22:23 19.02.2022
5251 Clouds 3 1019 73 10000 1.34 223 21:34 19.02.2022
5252 Clouds 3 1019 69 10000 0.45 266 19:54 19.02.2022
5253 Clouds 4 1019 67 10000 0.89 206 19:33 19.02.2022
5254 Clouds 4 1019 65 10000 3.29 242 18:35 19.02.2022
5255 Clouds 6 1019 62 10000 0.89 249 17:37 19.02.2022
5256 Clouds 7 1019 55 10000 3.13 224 16:34 19.02.2022
5257 Clouds 8 1019 53 10000 3.58 288 15:19 19.02.2022
5258 Clouds 8 1020 52 10000 1.34 247 14:52 19.02.2022
5259 Clouds 8 1020 55 10000 3.58 233 13:45 19.02.2022
5260 Clouds 7 1020 59 10000 4.02 257 11:39 19.02.2022
5261 Clouds 6 1020 65 10000 3.58 288 10:30 19.02.2022
5262 Clouds 4 1017 79 10000 6.26 291 07:56 19.02.2022
5263 Clouds 4 1017 82 10000 5.36 257 06:30 19.02.2022
5264 Clouds 6 1012 75 10000 4.47 278 23:45 18.02.2022
5265 Clouds 10 1009 75 10000 9.26 287 21:54 18.02.2022
5266 Clouds 13 1007 62 10000 4.02 193 20:57 18.02.2022
5267 Clouds 13 1006 57 10000 4.02 250 19:55 18.02.2022
5268 Clouds 13 1006 58 10000 6.79 250 18:50 18.02.2022
5269 Clouds 13 1006 57 10000 4.58 242 18:24 18.02.2022
5270 Clouds 12 1008 59 10000 4.63 242 17:55 18.02.2022
5271 Clouds 12 1007 63 10000 1.34 219 15:35 18.02.2022
5272 Clouds 11 1009 66 10000 0.89 176 13:56 18.02.2022
5273 Clouds 11 1009 67 10000 0.89 161 13:28 18.02.2022
5274 Clouds 11 1010 68 10000 0.89 158 12:41 18.02.2022
5275 Clouds 10 1012 71 10000 0.45 129 11:55 18.02.2022
5276 Rain 8 1013 79 10000 1.34 160 10:24 18.02.2022
5277 Clouds 7 1016 79 10000 3.21 229 06:58 18.02.2022
5278 Clouds 7 1016 77 10000 3.13 267 05:42 18.02.2022
5279 Clouds 7 1018 67 10000 0.45 283 23:53 17.02.2022
5280 Clouds 8 1017 61 10000 5.36 268 21:50 17.02.2022
5281 Clouds 8 1017 61 10000 4.47 315 21:27 17.02.2022
5282 Clouds 9 1016 60 10000 3.58 307 20:40 17.02.2022
5283 Clouds 9 1014 62 10000 7.15 326 19:54 17.02.2022
5284 Clouds 10 1013 64 10000 4.47 344 18:57 17.02.2022
5285 Clouds 10 1012 63 10000 2.24 326 17:59 17.02.2022
5286 Clouds 11 1010 60 10000 5.36 325 16:43 17.02.2022
5287 Clouds 11 1010 64 10000 4.92 335 15:44 17.02.2022
5288 Clouds 11 1010 66 10000 8.94 322 14:29 17.02.2022
5289 Clouds 10 1010 76 10000 4.02 342 13:30 17.02.2022
5290 Clouds 10 1008 91 10000 4.92 336 11:36 17.02.2022
5291 Clouds 12 1007 78 10000 7.15 248 09:58 17.02.2022
5292 Clouds 12 1005 73 10000 9.39 294 06:44 17.02.2022
5293 Clouds 10 1008 78 10000 5.81 214 23:23 16.02.2022
5294 Clouds 10 1008 77 10000 8.49 254 22:28 16.02.2022
5295 Clouds 10 1009 77 10000 3.58 270 20:22 16.02.2022
5296 Clouds 9 1010 78 10000 9.83 275 18:56 16.02.2022
5297 Clouds 9 1010 79 10000 4.02 186 18:27 16.02.2022
5298 Clouds 9 1009 80 10000 6.71 282 17:22 16.02.2022
5299 Clouds 7 1010 86 10000 3.58 208 15:22 16.02.2022
5300 Clouds 7 1011 79 10000 3.13 187 13:46 16.02.2022
5301 Rain 8 1011 70 10000 3.13 217 12:26 16.02.2022
5302 Clouds 7 1011 66 10000 1.34 198 11:46 16.02.2022
5303 Clouds 5 1013 69 10000 1.34 202 10:34 16.02.2022
5304 Clouds 4 1013 74 10000 0.45 128 09:39 16.02.2022
5305 Clouds 1 1014 82 10000 3.22 191 06:44 16.02.2022
5306 Clouds 1 1014 82 10000 3.22 191 06:44 16.02.2022
5307 Clouds 1 1017 84 10000 0.45 205 02:47 16.02.2022
5308 Clouds 3 1019 84 10000 2.24 282 22:34 15.02.2022
5309 Clouds 3 1019 86 10000 1.34 194 21:50 15.02.2022
5310 Clouds 3 1019 86 10000 2.68 292 21:30 15.02.2022
5311 Clouds 3 1018 87 10000 1.34 314 20:58 15.02.2022
5312 Clouds 3 1018 88 10000 1.34 214 20:26 15.02.2022
5313 Clouds 3 1018 88 10000 0.89 229 19:46 15.02.2022
5314 Clouds 4 1018 88 8514 0.89 280 18:27 15.02.2022
5315 Clouds 4 1017 88 8556 1.34 211 17:55 15.02.2022
5316 Clouds 4 1017 88 8556 0.89 195 17:37 15.02.2022
5317 Clouds 6 1016 84 3570 2.24 288 15:44 15.02.2022
5318 Clouds 6 1016 84 10000 1.34 234 14:31 15.02.2022
5319 Clouds 5 1016 87 3438 1.79 202 13:25 15.02.2022
5320 Clouds 5 1016 89 57 1.79 271 11:41 15.02.2022
5321 Clouds 4 1015 90 2249 1.34 196 10:30 15.02.2022
5322 Clouds 3 1014 91 5248 0.89 226 08:56 15.02.2022
5323 Clouds 4 1013 88 306 1.34 288 06:47 15.02.2022
5324 Clouds 4 1012 75 10000 2.85 239 00:26 15.02.2022
5325 Clouds 4 1012 75 10000 2.46 245 21:59 14.02.2022
5326 Clouds 4 1012 74 10000 2.26 253 20:57 14.02.2022
5327 Clear 4 1010 71 10000 1.21 246 19:52 14.02.2022
5328 Clear 5 1010 69 10000 0.42 186 19:30 14.02.2022
5329 Clear 7 1009 69 10000 1.68 71 18:24 14.02.2022
5330 Clear 7 1011 50 10000 1.69 71 17:37 14.02.2022
5331 Clear 8 1011 55 10000 1.7 48 17:18 14.02.2022
5332 Clear 10 1009 47 10000 1.65 36 15:52 14.02.2022
5333 Clear 9 1012 44 10000 1.16 45 13:37 14.02.2022
5334 Clear 10 1012 41 10000 0.45 108 13:18 14.02.2022
5335 Clear 10 1011 39 10000 0.89 181 12:32 14.02.2022
5336 Clear 9 1011 37 10000 1.34 155 11:43 14.02.2022
5337 Clear 5 1012 47 10000 0.89 173 10:22 14.02.2022
5338 Clear 2 1013 55 10000 0.45 174 08:34 14.02.2022
5339 Clear 0 1012 54 10000 0.45 204 07:26 14.02.2022
5340 Clear -1 1016 71 10000 0.45 122 23:37 13.02.2022
5341 Clear -1 1016 73 10000 0.45 142 22:41 13.02.2022
5342 Clear -1 1016 73 10000 2.05 181 22:23 13.02.2022
5343 Clear 0 1016 71 10000 0.45 126 21:28 13.02.2022
5344 Clear 1 1017 66 10000 2.1 148 20:32 13.02.2022
5345 Clear 3 1017 59 10000 2.27 135 19:24 13.02.2022
5346 Clear 3 1017 69 10000 2.15 136 18:42 13.02.2022
5347 Clear 6 1017 64 10000 2.38 131 17:57 13.02.2022
5348 Clear 9 1018 43 10000 2.04 107 15:54 13.02.2022
5349 Clear 10 1020 41 10000 1.79 139 15:20 13.02.2022
5350 Clouds 10 1020 42 10000 0.89 322 13:59 13.02.2022
5351 Clouds 10 1020 42 10000 0.89 322 13:59 13.02.2022
5352 Clouds 9 1021 45 10000 0.89 317 12:50 13.02.2022
5353 Clouds 8 1022 44 10000 1.34 189 11:35 13.02.2022
5354 Clouds 4 1023 51 10000 1.7 192 10:32 13.02.2022
5355 Clouds 2 1024 55 10000 0.89 138 09:45 13.02.2022
5356 Clouds -2 1024 62 10000 0.89 295 07:48 13.02.2022
5357 Clouds -2 1026 77 10000 1.98 191 00:35 13.02.2022
5358 Clouds -1 1026 77 10000 1.34 297 23:42 12.02.2022
5359 Clouds -1 1026 78 10000 0.45 247 22:33 12.02.2022
5360 Clouds -1 1026 77 10000 2.06 167 21:27 12.02.2022
5361 Clouds -1 1027 76 10000 2.06 167 20:45 12.02.2022
5362 Clear 0 1027 73 10000 1.96 129 19:30 12.02.2022
5363 Clear 1 1027 70 10000 1.97 129 18:53 12.02.2022
5364 Clear 1 1027 71 10000 1.88 129 18:35 12.02.2022
5365 Clear 4 1028 64 10000 0.45 123 17:20 12.02.2022
5366 Clear 5 1027 60 10000 2.24 115 16:29 12.02.2022
5367 Clear 5 1028 60 10000 1.79 146 15:51 12.02.2022
5368 Clear 5 1028 59 10000 2.24 143 14:44 12.02.2022
5369 Clear 5 1028 59 10000 1.34 157 14:24 12.02.2022
5370 Clear 3 1030 70 10000 3.13 122 11:18 12.02.2022
5371 Clear 1 1031 79 10000 2.68 132 10:23 12.02.2022
5372 Clear 0 1032 84 10000 1.34 78 09:32 12.02.2022
5373 Clear -2 1032 87 10000 0.89 124 08:45 12.02.2022
5374 Clear -4 1032 87 10000 2.18 105 05:41 12.02.2022
5375 Clear -3 1033 86 10000 0.45 213 04:36 12.02.2022
5376 Clear -2 1034 85 10000 0.61 167 02:19 12.02.2022
5377 Clear 0 1034 81 10000 2.07 232 23:20 11.02.2022
5378 Clear 0 1034 80 10000 0.89 273 22:20 11.02.2022
5379 Clear 1 1033 78 10000 2.45 250 21:18 11.02.2022
5380 Clear 1 1033 76 10000 0.45 246 20:21 11.02.2022
5381 Snow 2 1032 73 10000 0.89 272 19:27 11.02.2022
5382 Snow 2 1031 72 10000 1.34 293 18:29 11.02.2022
5383 Clouds 3 1031 67 10000 0.45 246 17:26 11.02.2022
5384 Clouds 4 1031 64 10000 2.24 267 16:37 11.02.2022
5385 Clouds 4 1030 64 10000 2.24 276 15:19 11.02.2022
5386 Clouds 5 1030 65 10000 4.02 311 14:37 11.02.2022
5387 Clouds 5 1030 66 10000 3.58 301 14:19 11.02.2022
5388 Clouds 4 1030 72 10000 4.02 260 13:40 11.02.2022
5389 Clouds 4 1030 73 10000 2.68 226 13:21 11.02.2022
5390 Clouds 3 1029 87 10000 3.13 295 10:55 11.02.2022
5391 Rain 3 1026 90 68 2.24 216 09:32 11.02.2022
5392 Rain 3 1024 90 84 3.58 280 08:33 11.02.2022
5393 Rain 4 1023 90 70 3.58 279 07:45 11.02.2022
5394 Rain 5 1022 89 5828 2.68 287 06:22 11.02.2022
5395 Clouds 5 1022 82 10000 0.45 325 02:21 11.02.2022
5396 Clouds 4 1024 79 10000 2.78 218 23:45 10.02.2022
5397 Clouds 6 1024 79 10000 2.68 246 22:26 10.02.2022
5398 Clouds 5 1024 78 10000 2.68 247 21:41 10.02.2022
5399 Clouds 6 1024 75 10000 2.66 254 20:50 10.02.2022
5400 Clouds 7 1025 73 10000 2.92 260 19:56 10.02.2022
5401 Clouds 8 1022 67 10000 0.89 318 19:22 10.02.2022
5402 Clouds 8 1023 64 10000 0.45 284 18:32 10.02.2022
5403 Clouds 10 1024 60 10000 5.23 266 17:21 10.02.2022
5404 Clouds 11 1023 57 10000 2.68 259 16:43 10.02.2022
5405 Clouds 11 1024 53 10000 5.67 265 15:41 10.02.2022
5406 Clouds 12 1023 52 10000 3.58 287 15:21 10.02.2022
5407 Clouds 12 1023 50 10000 2.68 307 14:35 10.02.2022
5408 Clouds 12 1024 48 10000 2.68 309 13:56 10.02.2022
5409 Clouds 12 1024 49 10000 5.36 339 13:19 10.02.2022
5410 Clouds 10 1025 52 10000 4.47 267 11:53 10.02.2022
5411 Clouds 10 1025 53 10000 3.13 236 11:32 10.02.2022
5412 Clouds 7 1025 57 10000 2.24 239 10:25 10.02.2022
5413 Clouds 5 1025 66 10000 1.79 203 09:46 10.02.2022
5414 Clouds 1 1026 73 10000 0.89 72 08:42 10.02.2022
5415 Clouds -1 1025 79 10000 0.45 194 06:33 10.02.2022
5416 Clouds 0 1026 81 10000 1.34 321 03:33 10.02.2022
5417 Clouds 0 1026 82 10000 1.34 261 00:57 10.02.2022
5418 Clouds 0 1027 81 10000 0.89 245 00:38 10.02.2022
5419 Clear 0 1027 81 10000 0.45 350 00:20 10.02.2022
5420 Clear 1 1027 81 10000 0.45 209 22:56 09.02.2022
5421 Clear 1 1027 80 10000 0.45 220 22:33 09.02.2022
5422 Clear 1 1027 81 10000 0.45 215 21:48 09.02.2022
5423 Clear 1 1027 81 10000 0.45 181 21:27 09.02.2022
5424 Clear 2 1027 80 10000 1.82 210 20:45 09.02.2022
5425 Clear 3 1027 79 10000 1.73 214 20:23 09.02.2022
5426 Clear 3 1027 81 10000 1.74 214 19:42 09.02.2022
5427 Clear 5 1027 73 10000 1.65 211 18:50 09.02.2022
5428 Clear 8 1029 68 10000 1.13 253 17:24 09.02.2022
5429 Clear 10 1029 62 10000 1.18 261 16:20 09.02.2022
5430 Clear 11 1029 56 10000 0.89 234 15:26 09.02.2022
5431 Clouds 10 1029 56 10000 1.34 189 13:32 09.02.2022
5432 Clouds 8 1030 59 10000 0.89 221 11:52 09.02.2022
5433 Clouds 4 1030 72 10000 0.45 213 10:37 09.02.2022
5434 Clouds 4 1030 77 10000 0.89 197 09:56 09.02.2022
5435 Clouds 1 1031 79 10000 0.89 205 09:22 09.02.2022
5436 Clouds 1 1032 81 10000 0.45 211 08:51 09.02.2022
5437 Clouds 0 1031 82 10000 1.7 206 06:56 09.02.2022
5438 Clouds 0 1031 80 10000 0.89 127 05:29 09.02.2022
5439 Clouds 0 1032 79 10000 1.79 222 03:49 09.02.2022
5440 Clouds 1 1033 73 10000 2.59 228 23:57 08.02.2022
5441 Clouds 1 1032 71 10000 2.62 233 23:19 08.02.2022
5442 Clouds 2 1033 69 10000 2.63 233 22:39 08.02.2022
5443 Clouds 2 1032 68 10000 2.81 230 22:20 08.02.2022
5444 Clouds 3 1032 65 10000 2.83 230 21:38 08.02.2022
5445 Clouds 3 1032 62 10000 0.45 215 21:19 08.02.2022
5446 Clouds 4 1032 59 10000 0.45 213 20:41 08.02.2022
5447 Clouds 5 1032 55 10000 0.89 276 19:41 08.02.2022
5448 Clouds 4 1033 68 10000 2.63 247 18:24 08.02.2022
5449 Clouds 7 1032 54 10000 2.57 258 17:33 08.02.2022
5450 Clouds 8 1032 45 10000 2.24 235 15:55 08.02.2022
5451 Clouds 9 1031 45 10000 3.58 263 15:28 08.02.2022
5452 Clouds 8 1032 46 10000 2.24 291 13:54 08.02.2022
5453 Clouds 6 1032 51 10000 1.79 259 12:40 08.02.2022
5454 Clouds 4 1033 58 10000 3.58 189 11:20 08.02.2022
5455 Clouds 3 1033 66 10000 3.13 332 09:51 08.02.2022
5456 Clouds 2 1033 72 10000 2.24 275 08:56 08.02.2022
5457 Clouds 1 1032 75 10000 3.13 271 07:27 08.02.2022
5458 Clouds 0 1032 78 10000 0.89 209 04:40 08.02.2022
5459 Clouds 0 1034 82 10000 3.56 235 04:22 08.02.2022
5460 Clouds 0 1032 80 10000 0.89 214 03:36 08.02.2022
5461 Clouds 0 1032 81 10000 0.45 202 03:18 08.02.2022
5462 Clouds 0 1032 81 10000 0.45 208 02:59 08.02.2022
5463 Clouds 0 1032 81 10000 1.34 288 02:37 08.02.2022
5464 Clouds 0 1032 80 10000 1.34 294 02:18 08.02.2022
5465 Clouds 0 1032 80 10000 1.34 281 01:55 08.02.2022
5466 Clouds 0 1032 80 10000 1.34 303 01:37 08.02.2022
5467 Clouds 0 1032 79 10000 1.34 275 01:19 08.02.2022
5468 Clouds 1 1032 79 10000 2.24 291 00:44 08.02.2022
5469 Clouds 1 1031 79 10000 1.34 282 23:45 07.02.2022
5470 Clouds 1 1031 78 10000 2.24 270 23:18 07.02.2022
5471 Clouds 1 1031 78 10000 2.68 271 22:59 07.02.2022
5472 Clouds 1 1030 79 10000 0.89 294 22:19 07.02.2022
5473 Clouds 1 1030 79 10000 1.79 279 21:51 07.02.2022
5474 Clouds 1 1030 80 10000 2.68 249 21:28 07.02.2022
5475 Clouds 1 1030 80 10000 2.24 259 20:56 07.02.2022
5476 Clouds 1 1029 81 10000 2.68 284 20:38 07.02.2022
5477 Clouds 1 1029 81 10000 1.79 267 19:47 07.02.2022
5478 Clouds 1 1028 82 10000 2.24 244 19:20 07.02.2022
5479 Clouds 2 1027 81 10000 3.13 289 17:39 07.02.2022
5480 Clouds 2 1026 81 10000 3.58 301 16:52 07.02.2022
5481 Clouds 2 1025 81 10000 6.26 300 15:49 07.02.2022
5482 Rain 2 1024 81 10000 4.02 263 14:44 07.02.2022
5483 Clouds 2 1023 82 10000 4.02 283 13:27 07.02.2022
5484 Rain 2 1022 82 10000 3.13 188 12:38 07.02.2022
5485 Rain 2 1021 82 10000 3.13 277 11:55 07.02.2022
5486 Rain 2 1021 82 10000 2.68 319 11:33 07.02.2022
5487 Rain 1 1021 83 4282 2.24 311 10:47 07.02.2022
5488 Rain 1 1020 84 5911 2.24 298 10:27 07.02.2022
5489 Clouds 1 1020 84 5916 1.34 247 09:52 07.02.2022
5490 Clouds 1 1018 85 10000 1.79 252 09:18 07.02.2022
5491 Clouds 1 1016 89 10000 2.24 275 08:20 07.02.2022
5492 Clouds 1 1014 89 10000 1.34 245 06:35 07.02.2022
5493 Rain 1 1013 90 10000 1.34 269 05:47 07.02.2022
5494 Snow 1 1005 92 88 1.34 238 02:56 07.02.2022
5495 Clouds 6 1005 78 10000 3.13 281 00:42 07.02.2022
5496 Clouds 7 1005 74 10000 4.02 153 23:42 06.02.2022
5497 Clouds 7 1006 73 10000 4.47 184 22:47 06.02.2022
5498 Rain 7 1007 72 10000 4.02 271 21:52 06.02.2022
5499 Rain 7 1008 71 10000 4.02 198 21:30 06.02.2022
5500 Rain 6 1009 73 10000 3.58 186 20:53 06.02.2022
5501 Rain 6 1009 73 10000 4.02 228 20:31 06.02.2022
5502 Rain 6 1010 74 10000 4.47 234 19:37 06.02.2022
5503 Rain 6 1011 75 10000 4.02 313 18:38 06.02.2022
5504 Rain 6 1012 72 10000 4.02 192 17:55 06.02.2022
5505 Rain 6 1012 72 10000 2.68 267 17:18 06.02.2022
5506 Rain 6 1012 61 10000 2.68 269 16:38 06.02.2022
5507 Rain 6 1013 58 10000 3.13 281 15:47 06.02.2022
5508 Rain 6 1014 58 10000 2.24 269 15:26 06.02.2022
5509 Rain 6 1015 58 10000 2.68 263 14:36 06.02.2022
5510 Clouds 6 1016 58 10000 3.58 284 13:25 06.02.2022
5511 Clouds 6 1017 57 10000 3.13 287 12:51 06.02.2022
5512 Clouds 5 1019 58 10000 2.68 283 11:27 06.02.2022
5513 Clouds 5 1019 60 10000 2.68 256 10:30 06.02.2022
5514 Clouds 3 1020 65 10000 1.79 269 08:53 06.02.2022
5515 Clouds 2 1021 69 10000 0.89 190 07:51 06.02.2022
5516 Clouds 1 1022 75 10000 0.89 233 05:30 06.02.2022
5517 Clouds 1 1022 75 10000 0.89 233 05:30 06.02.2022
5518 Clouds 1 1022 75 10000 0.89 233 05:30 06.02.2022
5519 Clouds 0 1024 77 10000 0.45 223 02:49 06.02.2022
5520 Clouds 0 1024 76 10000 0.89 210 02:24 06.02.2022
5521 Clouds 1 1025 74 10000 1.34 292 00:27 06.02.2022
5522 Clouds 1 1025 74 10000 0.45 212 22:22 05.02.2022
5523 Clouds 1 1025 73 10000 0.45 228 21:18 05.02.2022
5524 Clouds 1 1025 73 10000 0.45 229 20:24 05.02.2022
5525 Clouds 1 1025 71 10000 0.45 284 19:46 05.02.2022
5526 Clouds 1 1025 70 10000 0.45 276 18:52 05.02.2022
5527 Clouds 4 1025 61 10000 2.89 247 17:39 05.02.2022
5528 Clear 4 1024 61 10000 0.45 275 17:39 05.02.2022
5529 Clear 5 1025 58 10000 0.45 316 16:58 05.02.2022
5530 Clear 6 1025 54 10000 1.79 252 15:34 05.02.2022
5531 Clear 6 1025 58 10000 1.34 218 14:55 05.02.2022
5532 Clouds 5 1026 61 10000 1.79 302 12:47 05.02.2022
5533 Clouds 5 1026 60 10000 1.79 281 12:27 05.02.2022
5534 Clouds 3 1026 72 10000 1.79 242 10:48 05.02.2022
5535 Clouds 3 1026 75 10000 1.79 253 10:20 05.02.2022
5536 Clouds 2 1026 78 10000 0.89 209 09:43 05.02.2022
5537 Clouds 0 1023 86 10000 0.89 271 07:51 05.02.2022
5538 Clouds 1 1023 85 10000 0.89 279 06:57 05.02.2022
5539 Clouds 2 1021 81 10000 1.34 198 04:30 05.02.2022
5540 Clouds 7 1017 77 10000 1.79 285 01:19 05.02.2022
5541 Clouds 7 1017 78 10000 1.79 207 00:53 05.02.2022
5542 Clouds 7 1016 75 10000 2.24 236 23:46 04.02.2022
5543 Clouds 6 1017 75 10000 2.24 221 23:28 04.02.2022
5544 Clouds 6 1017 75 10000 1.34 252 21:54 04.02.2022
5545 Clouds 5 1016 75 10000 1.34 229 21:36 04.02.2022
5546 Clouds 5 1017 75 10000 2.24 215 21:18 04.02.2022
5547 Clouds 5 1017 79 10000 2.68 252 20:20 04.02.2022
5548 Clouds 6 1015 75 10000 0.45 281 17:43 04.02.2022
5549 Clouds 8 1015 69 10000 0.89 221 15:42 04.02.2022
5550 Clouds 8 1016 72 10000 1.34 267 14:55 04.02.2022
5551 Clouds 7 1016 74 10000 1.34 268 13:39 04.02.2022
5552 Clouds 6 1018 77 10000 0.89 294 12:43 04.02.2022
5553 Clouds 5 1018 82 10000 0.89 271 11:42 04.02.2022
5554 Clouds 5 1018 82 10000 0.89 271 11:42 04.02.2022
5555 Clouds 4 1019 86 10000 0.45 205 10:36 04.02.2022
5556 Clouds 2 1019 91 10000 0.89 246 08:42 04.02.2022
5557 Clouds 1 1018 91 10000 2.19 245 06:57 04.02.2022
5558 Clouds 2 1016 89 10000 2.54 252 02:46 04.02.2022
5559 Clouds 2 1016 89 10000 0.45 234 01:56 04.02.2022
5560 Clouds 4 1015 88 10000 0.45 293 23:29 03.02.2022
5561 Clouds 4 1016 89 10000 2.6 232 22:40 03.02.2022
5562 Clouds 4 1016 88 10000 2.41 229 21:49 03.02.2022
5563 Clouds 5 1016 87 10000 0.45 267 20:41 03.02.2022
5564 Clouds 5 1016 87 10000 2.21 223 20:19 03.02.2022
5565 Clouds 5 1017 87 10000 2 205 19:32 03.02.2022
5566 Clouds 6 1017 85 10000 1.81 202 18:40 03.02.2022
5567 Clouds 7 1017 81 10000 1.42 177 17:35 03.02.2022
5568 Clouds 8 1017 79 10000 0.89 130 16:35 03.02.2022
5569 Clouds 9 1019 80 10000 0.89 162 14:52 03.02.2022
5570 Clouds 9 1021 81 10000 1.45 167 12:59 03.02.2022
5571 Clouds 8 1022 85 10000 0.45 211 11:42 03.02.2022
5572 Clouds 4 1023 93 10000 0.89 228 08:38 03.02.2022
5573 Clouds 3 1025 93 10000 2.63 226 05:26 03.02.2022
5574 Clouds 3 1026 90 10000 0.89 332 00:32 03.02.2022
5575 Clouds 3 1025 90 10000 0.45 222 23:45 02.02.2022
5576 Clouds 3 1025 90 10000 0.89 267 22:35 02.02.2022
5577 Clouds 3 1024 89 10000 0.45 240 21:37 02.02.2022
5578 Clouds 3 1024 89 10000 0.45 240 21:37 02.02.2022
5579 Clouds 3 1024 88 10000 0.45 248 20:53 02.02.2022
5580 Rain 4 1023 84 10000 0.45 249 20:00 02.02.2022
5581 Clouds 4 1023 83 10000 0.45 299 19:41 02.02.2022
5582 Clouds 4 1023 80 10000 0.45 252 18:53 02.02.2022
5583 Clouds 4 1022 79 10000 0.89 267 18:22 02.02.2022
5584 Clouds 5 1022 76 10000 1.79 302 17:20 02.02.2022
5585 Clouds 5 1022 76 10000 1.79 302 17:20 02.02.2022
5586 Clouds 5 1021 79 10000 0.45 249 16:46 02.02.2022
5587 Clouds 6 1018 78 10000 3.13 288 14:18 02.02.2022
5588 Clouds 5 1018 82 8075 3.13 225 12:26 02.02.2022
5589 Clouds 5 1018 84 6833 2.24 276 11:37 02.02.2022
5590 Clouds 5 1017 84 6941 2.68 244 10:38 02.02.2022
5591 Rain 4 1015 90 9328 1.34 199 07:42 02.02.2022
5592 Clouds 3 1015 89 5581 3.13 273 01:36 02.02.2022
5593 Clouds 2 1014 85 10000 3.13 196 21:59 01.02.2022
5594 Clouds 2 1014 84 10000 2.68 281 20:49 01.02.2022
5595 Clouds 1 1015 81 10000 3.13 238 18:55 01.02.2022
5596 Snow 1 1018 84 10000 2.68 248 16:44 01.02.2022
5597 Snow 1 1019 81 10000 1.79 243 15:30 01.02.2022
5598 Rain 1 1021 82 2310 1.79 261 12:49 01.02.2022
5599 Clouds 1 1022 85 10000 1.34 199 11:48 01.02.2022
5600 Clouds 1 1020 90 10000 1.34 283 08:34 01.02.2022
5601 Rain 1 1014 92 129 1.79 252 00:28 01.02.2022
5602 Rain 1 1014 92 129 2.24 214 23:36 31.01.2022
5603 Snow 1 1013 91 134 2.24 26 22:30 31.01.2022
5604 Snow 1 1013 91 209 1.79 13 21:34 31.01.2022
5605 Rain 1 1013 91 1764 1.79 254 20:34 31.01.2022
5606 Rain 1 1012 91 1766 2.24 235 19:52 31.01.2022
5607 Snow 1 1011 90 9971 2.68 237 18:31 31.01.2022
5608 Snow 1 1010 89 10000 2.24 230 17:55 31.01.2022
5609 Rain 2 1010 83 10000 2.24 286 16:58 31.01.2022
5610 Clouds 3 1010 80 10000 2.24 206 16:20 31.01.2022
5611 Clouds 4 1010 77 10000 2.68 180 14:49 31.01.2022
5612 Clouds 3 1011 84 3391 2.24 203 13:29 31.01.2022
5613 Clouds 3 1011 87 3462 1.79 258 12:37 31.01.2022
5614 Rain 3 1011 86 10000 2.68 264 10:59 31.01.2022
5615 Rain 3 1011 85 10000 2.68 315 10:38 31.01.2022
5616 Rain 3 1011 77 10000 2.24 213 09:36 31.01.2022
5617 Clouds 2 1012 79 10000 2.68 250 08:56 31.01.2022
5618 Clouds 2 1013 78 10000 1.79 224 08:20 31.01.2022
5619 Clouds 2 1014 80 10000 3.13 294 07:37 31.01.2022
5620 Clouds 1 1015 81 10000 2.89 221 05:24 31.01.2022
5621 Clouds 1 1023 80 10000 2.03 234 00:24 31.01.2022
5622 Clouds 1 1025 78 10000 0.45 285 22:33 30.01.2022
5623 Clouds 1 1025 75 10000 0.45 234 21:46 30.01.2022
5624 Clouds 1 1026 76 10000 0.45 279 21:24 30.01.2022
5625 Clear 1 1026 76 10000 0.89 285 20:53 30.01.2022
5626 Clear 2 1026 75 10000 0.45 287 20:31 30.01.2022
5627 Clear 2 1025 73 10000 2.3 262 19:56 30.01.2022
5628 Clouds 3 1029 71 10000 2.74 276 18:52 30.01.2022
5629 Clouds 4 1027 67 10000 1.34 259 18:22 30.01.2022
5630 Clouds 4 1027 64 10000 0.45 247 17:31 30.01.2022
5631 Clear 5 1026 63 10000 0.89 257 17:31 30.01.2022
5632 Clear 6 1027 60 10000 1.79 276 16:44 30.01.2022
5633 Clear 6 1027 57 10000 1.79 272 16:23 30.01.2022
5634 Clear 6 1026 57 10000 2.68 292 15:55 30.01.2022
5635 Clear 7 1026 57 10000 2.68 195 15:37 30.01.2022
5636 Clouds 7 1026 61 10000 1.79 38 15:19 30.01.2022
5637 Clouds 7 1026 63 10000 3.13 265 14:44 30.01.2022
5638 Clouds 7 1027 70 10000 2.24 289 12:46 30.01.2022
5639 Clouds 6 1027 73 10000 2.24 292 11:49 30.01.2022
5640 Clouds 5 1027 82 10000 2.68 255 10:26 30.01.2022
5641 Clouds 5 1026 85 10000 3.58 267 09:26 30.01.2022
5642 Clouds 5 1026 87 10000 1.79 257 08:44 30.01.2022
5643 Clouds 6 1025 82 10000 2.68 183 02:58 30.01.2022
5644 Clouds 6 1026 82 10000 2.24 194 01:55 30.01.2022
5645 Clouds 6 1026 76 10000 2.24 295 23:50 29.01.2022
5646 Clouds 6 1026 73 10000 3.13 231 22:58 29.01.2022
5647 Clouds 6 1026 69 10000 2.68 209 21:44 29.01.2022
5648 Clouds 6 1026 70 10000 1.79 221 21:20 29.01.2022
5649 Clouds 6 1026 71 10000 1.34 181 20:22 29.01.2022
5650 Clouds 6 1026 72 10000 2.24 196 19:33 29.01.2022
5651 Clouds 6 1027 70 10000 2.24 213 18:51 29.01.2022
5652 Clouds 6 1027 68 10000 1.79 250 18:18 29.01.2022
5653 Clouds 6 1027 62 10000 1.34 279 17:27 29.01.2022
5654 Clouds 7 1027 50 10000 2.68 249 15:44 29.01.2022
5655 Clouds 7 1028 50 10000 2.68 272 13:58 29.01.2022
5656 Clouds 6 1029 50 10000 2.24 198 13:38 29.01.2022
5657 Clouds 6 1029 50 10000 2.24 218 13:20 29.01.2022
5658 Clouds 4 1029 57 10000 0.89 219 11:40 29.01.2022
5659 Clouds 3 1030 64 10000 0.89 197 10:46 29.01.2022
5660 Snow 1 1030 77 10000 1.34 195 08:42 29.01.2022
5661 Clouds 1 1032 83 10000 0.45 243 03:53 29.01.2022
5662 Clouds 1 1035 82 10000 0.45 216 00:34 29.01.2022
5663 Clouds 1 1035 81 10000 0.89 272 23:44 28.01.2022
5664 Clouds 2 1036 80 10000 0.89 210 22:48 28.01.2022
5665 Clouds 2 1036 81 10000 0.45 244 22:20 28.01.2022
5666 Clouds 2 1035 83 10000 1.34 265 20:42 28.01.2022
5667 Clouds 1 1035 84 10000 0.89 233 20:23 28.01.2022
5668 Clouds 1 1034 85 10000 0.89 212 19:28 28.01.2022
5669 Clouds 1 1034 86 10000 4.76 281 18:42 28.01.2022
5670 Clouds 2 1033 81 10000 1.34 294 16:45 28.01.2022
5671 Rain 3 1032 78 10000 1.79 257 14:59 28.01.2022
5672 Rain 3 1032 77 10000 1.79 319 13:34 28.01.2022
5673 Clouds 3 1033 81 10000 0.89 273 12:27 28.01.2022
5674 Clouds 2 1032 88 10000 1.34 264 10:41 28.01.2022
5675 Rain 2 1032 89 6312 1.79 252 09:49 28.01.2022
5676 Rain 2 1031 89 1116 1.79 278 07:43 28.01.2022
5677 Clouds 2 1030 90 10000 1.34 210 06:39 28.01.2022
5678 Clouds 2 1029 91 10000 2.68 221 03:53 28.01.2022
5679 Clouds 2 1028 92 6883 2.24 279 02:30 28.01.2022
5680 Rain 2 1028 92 65 1.79 264 01:57 28.01.2022
5681 Rain 2 1027 92 73 1.34 261 01:30 28.01.2022
5682 Clouds 2 1026 91 157 1.34 229 22:47 27.01.2022
5683 Rain 2 1026 84 192 1.34 262 21:45 27.01.2022
5684 Clouds 2 1026 83 10000 2.24 247 21:26 27.01.2022
5685 Clouds 2 1026 75 10000 1.79 206 20:24 27.01.2022
5686 Clouds 1 1026 74 10000 1.34 271 18:24 27.01.2022
5687 Clouds 2 1026 71 10000 0.45 263 17:26 27.01.2022
5688 Clouds 5 1025 59 10000 2.68 346 14:34 27.01.2022
5689 Clouds 6 1028 49 10000 3.58 281 13:24 27.01.2022
5690 Clouds 5 1027 58 10000 4.32 259 12:25 27.01.2022
5691 Clouds 0 1027 82 10000 2.72 254 09:56 27.01.2022
5692 Clouds -3 1028 87 10000 1.91 264 08:48 27.01.2022
5693 Clouds -3 1028 87 10000 1.9 254 08:28 27.01.2022
5694 Clouds -1 1029 88 10000 1.72 229 03:47 27.01.2022
5695 Clouds -1 1030 88 10000 0.45 278 00:25 27.01.2022
5696 Clouds 0 1030 87 10000 0.45 259 22:39 26.01.2022
5697 Clouds -1 1031 89 10000 0.89 305 21:45 26.01.2022
5698 Clouds 0 1031 89 10000 0.45 271 21:26 26.01.2022
5699 Clouds 0 1031 87 10000 1.34 299 20:35 26.01.2022
5700 Clouds 0 1031 87 10000 0.45 289 19:54 26.01.2022
5701 Clouds 0 1031 85 10000 0.45 284 19:19 26.01.2022
5702 Clouds 0 1031 85 10000 0.89 329 18:26 26.01.2022
5703 Clouds 1 1031 84 10000 0.89 126 17:49 26.01.2022
5704 Clouds 1 1030 80 10000 0.45 10 17:19 26.01.2022
5705 Clouds 3 1030 74 10000 1.34 310 16:27 26.01.2022
5706 Clouds 3 1030 74 10000 1.34 298 15:47 26.01.2022
5707 Clear 4 1030 73 10000 0.89 268 13:24 26.01.2022
5708 Clear 3 1031 84 10000 0.45 243 11:40 26.01.2022
5709 Clear -1 1030 94 10000 2.55 252 10:20 26.01.2022
5710 Clear -2 1031 93 10000 2.55 252 09:43 26.01.2022
5711 Clear -4 1031 93 10000 1.96 239 07:32 26.01.2022
5712 Clear -2 1031 93 10000 1.8 244 01:53 26.01.2022
5713 Clear -1 1032 93 10000 0.45 275 23:54 25.01.2022
5714 Clear -1 1032 93 10000 0.45 287 22:50 25.01.2022
5715 Clear -1 1032 92 10000 0.89 276 22:21 25.01.2022
5716 Clear -1 1032 92 10000 0.89 295 21:52 25.01.2022
5717 Clear -1 1032 93 10000 1.93 243 20:46 25.01.2022
5718 Clear -1 1032 91 10000 0.45 294 20:22 25.01.2022
5719 Clear -1 1032 91 10000 0.45 287 19:46 25.01.2022
5720 Clear 0 1032 89 10000 0.45 266 18:24 25.01.2022
5721 Clear 0 1031 86 10000 0.45 276 17:42 25.01.2022
5722 Clear 1 1030 86 10000 0.45 321 16:35 25.01.2022
5723 Clear 3 1031 80 10000 0.89 48 15:49 25.01.2022
5724 Clear 4 1030 79 10000 0.89 67 15:31 25.01.2022
5725 Clear 5 1031 72 10000 0.89 72 14:57 25.01.2022
5726 Clear 4 1031 82 10000 0.89 298 13:40 25.01.2022
5727 Clear -1 1034 91 10000 0.89 263 10:39 25.01.2022
5728 Clouds -2 1033 94 10000 1.34 220 08:34 25.01.2022
5729 Clouds -2 1032 94 10000 0.45 223 07:29 25.01.2022
5730 Clear -2 1033 94 10000 0.28 244 06:47 25.01.2022
5731 Clear -1 1033 94 10000 0.77 144 04:22 25.01.2022
5732 Clouds -1 1033 93 10000 1.35 105 23:37 24.01.2022
5733 Clouds -1 1033 93 10000 0.89 111 23:18 24.01.2022
5734 Clouds -1 1033 93 10000 0.89 187 22:59 24.01.2022
5735 Clouds -1 1033 93 10000 0.45 151 22:41 24.01.2022
5736 Clouds -1 1034 93 10000 0.45 144 21:53 24.01.2022
5737 Clouds -1 1034 93 10000 0.89 127 21:28 24.01.2022
5738 Clouds 0 1034 92 10000 0.89 121 20:30 24.01.2022
5739 Clouds -1 1034 92 10000 0.89 126 19:44 24.01.2022
5740 Clear -1 1033 91 10000 2.24 108 19:24 24.01.2022
5741 Clear 0 1033 89 10000 0.45 113 17:59 24.01.2022
5742 Clear 1 1033 88 10000 0.45 178 17:24 24.01.2022
5743 Clear 1 1033 87 10000 0.89 101 16:52 24.01.2022
5744 Clear 2 1033 86 10000 0.45 136 16:19 24.01.2022
5745 Clear 3 1033 86 10000 0.45 31 14:38 24.01.2022
5746 Clear 2 1033 88 10000 0.45 162 13:24 24.01.2022
5747 Clear 1 1032 93 10000 0.45 41 12:23 24.01.2022
5748 Clear -1 1034 94 10000 1.34 118 10:30 24.01.2022
5749 Clear -1 1032 94 10000 3.57 96 10:30 24.01.2022
5750 Clear -2 1033 94 10000 3.23 100 09:48 24.01.2022
5751 Clear -3 1033 93 10000 1.34 117 08:41 24.01.2022
5752 Clouds -4 1033 93 10000 2.19 91 06:40 24.01.2022
5753 Clouds -2 1035 93 10000 1.74 100 01:31 24.01.2022
5754 Clouds -2 1034 92 10000 2.04 100 00:38 24.01.2022
5755 Clouds -2 1034 92 10000 1.53 114 00:20 24.01.2022
5756 Clouds -1 1034 92 10000 1.44 111 22:37 23.01.2022
5757 Clouds -1 1034 92 10000 1.64 95 21:50 23.01.2022
5758 Clouds -1 1034 92 10000 1.89 73 21:26 23.01.2022
5759 Clouds 0 1034 91 10000 1.89 73 20:45 23.01.2022
5760 Clouds 1 1034 91 10000 2.13 63 19:52 23.01.2022
5761 Clouds 1 1034 91 10000 1.97 72 18:52 23.01.2022
5762 Clouds 2 1034 90 10000 1.96 77 17:50 23.01.2022
5763 Clouds 3 1034 88 10000 1.77 72 16:48 23.01.2022
5764 Clouds 3 1034 87 10000 1.4 37 15:18 23.01.2022
5765 Clouds 3 1034 86 10000 0.45 319 14:31 23.01.2022
5766 Clouds 3 1034 86 10000 1.4 37 14:31 23.01.2022
5767 Clouds 3 1034 89 10000 0.45 296 13:27 23.01.2022
5768 Clouds 3 1034 91 10000 0.45 288 12:36 23.01.2022
5769 Clouds 3 1034 92 10000 0.45 302 12:18 23.01.2022
5770 Clouds 2 1035 93 1663 0.84 217 11:24 23.01.2022
5771 Rain 2 1035 94 1663 0.45 295 10:57 23.01.2022
5772 Clouds 1 1035 94 106 0.97 236 10:21 23.01.2022
5773 Clouds 1 1034 94 106 1.08 254 09:22 23.01.2022
5774 Clouds 1 1033 94 3389 1.46 261 05:59 23.01.2022
5775 Rain 1 1033 94 23 0.45 271 02:25 23.01.2022
5776 Rain 1 1033 94 23 0.45 239 01:35 23.01.2022
5777 Rain 1 1033 94 23 0.45 234 00:41 23.01.2022
5778 Rain 1 1034 94 25 0.45 246 23:57 22.01.2022
5779 Rain 1 1034 94 28 0.45 224 22:48 22.01.2022
5780 Rain 1 1034 94 30 0.89 251 22:19 22.01.2022
5781 Clouds 1 1034 93 39 0.45 238 20:29 22.01.2022
5782 Clouds 1 1034 93 39 0.45 254 19:37 22.01.2022
5783 Clouds 1 1033 93 46 0.45 221 18:37 22.01.2022
5784 Clouds 1 1033 93 46 0.45 242 17:42 22.01.2022
5785 Clouds 1 1033 93 47 0.45 243 17:18 22.01.2022
5786 Clouds 0 1032 93 47 0.45 269 16:54 22.01.2022
5787 Clouds 0 1032 92 53 0.45 237 15:45 22.01.2022
5788 Clouds 0 1032 92 69 0.89 218 14:42 22.01.2022
5789 Snow 0 1032 92 129 1.34 317 13:28 22.01.2022
5790 Snow 0 1032 92 127 0.45 246 12:37 22.01.2022
5791 Snow 0 1032 92 168 0.89 213 12:18 22.01.2022
5792 Clouds 0 1032 92 178 1.34 209 10:54 22.01.2022
5793 Snow 0 1031 92 194 0.89 212 10:23 22.01.2022
5794 Snow 0 1031 91 217 0.89 223 08:56 22.01.2022
5795 Snow 0 1031 91 217 1.34 298 08:38 22.01.2022
5796 Clouds -1 1030 89 361 1.79 174 06:46 22.01.2022
5797 Clouds -1 1031 79 10000 0.89 183 02:40 22.01.2022
5798 Clouds -1 1032 89 10000 0.89 193 23:50 21.01.2022
5799 Snow -1 1032 88 10000 1.34 216 23:21 21.01.2022
5800 Clouds -1 1032 79 10000 0.45 249 21:34 21.01.2022
5801 Clouds -1 1032 83 10000 0.89 257 19:48 21.01.2022
5802 Snow -1 1032 79 10000 1.34 330 17:53 21.01.2022
5803 Clouds 0 1031 73 10000 1.34 224 16:37 21.01.2022
5804 Rain 1 1031 69 10000 1.34 218 15:24 21.01.2022
5805 Clouds -1 1032 64 10000 5.14 273 12:51 21.01.2022
5806 Clouds -1 1032 80 10000 1.34 283 11:29 21.01.2022
5807 Clouds -1 1031 80 10000 0.89 282 10:51 21.01.2022
5808 Clouds -2 1031 86 10000 0.89 281 09:26 21.01.2022
5809 Clouds -2 1031 85 10000 0.45 231 08:20 21.01.2022
5810 Clouds -1 1029 84 596 0.45 286 04:37 21.01.2022
5811 Clouds -1 1027 85 10000 0.45 223 22:53 20.01.2022
5812 Clouds -1 1026 86 10000 1.79 291 21:49 20.01.2022
5813 Clouds -1 1026 86 10000 1.34 258 21:28 20.01.2022
5814 Clouds 0 1026 89 10000 1.34 208 20:21 20.01.2022
5815 Snow 0 1026 90 10000 1.34 308 19:19 20.01.2022
5816 Clouds 0 1025 92 10000 0.45 184 17:46 20.01.2022
5817 Snow 1 1024 87 3196 0.89 296 16:35 20.01.2022
5818 Rain 2 1024 81 3271 1.79 219 15:40 20.01.2022
5819 Clouds 3 1023 82 10000 1.79 207 14:40 20.01.2022
5820 Clouds 3 1024 81 10000 2.24 213 13:32 20.01.2022
5821 Clouds 3 1024 87 10000 2.24 287 12:31 20.01.2022
5822 Clouds 2 1025 89 10000 1.79 247 11:36 20.01.2022
5823 Rain 1 1024 90 5893 1.34 170 10:37 20.01.2022
5824 Rain 1 1024 90 6044 0.89 240 09:34 20.01.2022
5825 Clouds 1 1024 91 197 1.79 225 07:33 20.01.2022
5826 Clouds 2 1024 77 10000 1.79 289 00:43 20.01.2022
5827 Clouds 3 1024 77 10000 0.89 137 22:54 19.01.2022
5828 Clouds 3 1024 79 10000 0.89 248 21:48 19.01.2022
5829 Clouds 3 1024 79 10000 0.45 213 21:23 19.01.2022
5830 Clouds 2 1024 81 10000 0.89 221 20:46 19.01.2022
5831 Clouds 2 1024 80 10000 0.89 196 19:42 19.01.2022
5832 Clear 3 1025 73 10000 2.24 275 18:18 19.01.2022
5833 Clear 3 1024 69 10000 3.58 275 17:44 19.01.2022
5834 Clear 5 1025 70 10000 3.09 264 16:47 19.01.2022
5835 Clear 7 1024 63 10000 0.45 262 14:42 19.01.2022
5836 Clear 5 1026 76 10000 0.89 320 12:42 19.01.2022
5837 Clear 2 1027 86 10000 0.89 122 11:39 19.01.2022
5838 Clouds 0 1028 90 10000 1.34 126 10:23 19.01.2022
5839 Clouds -1 1029 91 10000 0.45 251 09:34 19.01.2022
5840 Clouds -2 1029 91 10000 0.89 210 06:45 19.01.2022
5841 Clouds -2 1032 88 10000 0.45 94 02:38 19.01.2022
5842 Clear -1 1034 86 10000 0.89 122 23:19 18.01.2022
5843 Clear 0 1035 84 10000 0.45 111 22:19 18.01.2022
5844 Clear 0 1036 83 10000 0.45 53 20:59 18.01.2022
5845 Clear 1 1036 81 10000 0.45 63 19:55 18.01.2022
5846 Clear 1 1036 82 10000 0.45 97 19:36 18.01.2022
5847 Clouds 2 1036 80 10000 2.77 75 18:51 18.01.2022
5848 Clouds 3 1036 79 10000 0.45 43 17:58 18.01.2022
5849 Clouds 3 1036 77 10000 0.45 53 16:50 18.01.2022
5850 Clouds 4 1036 79 10000 0.45 60 15:47 18.01.2022
5851 Clouds 4 1036 80 10000 0.45 56 15:22 18.01.2022
5852 Clouds 4 1037 86 10000 0.45 145 12:47 18.01.2022
5853 Clouds 2 1038 92 10000 0.45 121 10:47 18.01.2022
5854 Clouds 1 1038 93 10000 0.46 281 09:21 18.01.2022
5855 Clouds 1 1036 92 8966 0.45 279 07:55 18.01.2022
5856 Clouds 2 1035 89 38 2.24 281 02:35 18.01.2022
5857 Clouds 2 1035 86 34 1.34 220 23:47 17.01.2022
5858 Clouds 3 1035 82 268 0.89 280 22:27 17.01.2022
5859 Clouds 3 1035 80 268 0.89 261 21:35 17.01.2022
5860 Clouds 3 1034 78 10000 1.34 250 20:27 17.01.2022
5861 Clouds 4 1033 79 10000 1.34 252 18:31 17.01.2022
5862 Clouds 4 1033 77 10000 0.89 248 17:44 17.01.2022
5863 Clouds 4 1032 77 10000 1.34 179 16:44 17.01.2022
5864 Clouds 5 1032 75 10000 2.68 241 15:23 17.01.2022
5865 Clouds 5 1031 75 10000 2.68 272 14:57 17.01.2022
5866 Clouds 5 1032 76 10000 2.68 277 13:27 17.01.2022
5867 Clouds 5 1032 78 10000 2.68 296 12:56 17.01.2022
5868 Clouds 4 1032 80 10000 1.34 248 11:49 17.01.2022
5869 Clouds 3 1032 84 10000 1.34 267 10:25 17.01.2022
5870 Clouds 3 1032 84 10000 1.79 271 10:25 17.01.2022
5871 Clouds 3 1032 84 10000 1.34 208 09:35 17.01.2022
5872 Clouds 2 1031 83 10000 0.89 228 07:43 17.01.2022
5873 Clouds 2 1031 83 10000 1.34 215 07:18 17.01.2022
5874 Clouds 1 1031 87 7736 0.89 225 00:57 17.01.2022
5875 Clouds 1 1031 82 2551 0.45 233 22:31 16.01.2022
5876 Clouds 2 1030 82 10000 2.24 204 20:38 16.01.2022
5877 Clouds 1 1030 84 10000 0.45 265 18:53 16.01.2022
5878 Clouds 1 1029 83 10000 0.45 234 18:18 16.01.2022
5879 Clouds 2 1029 80 10000 0.89 234 17:25 16.01.2022
5880 Clouds 2 1030 78 10000 3.6 286 16:45 16.01.2022
5881 Clouds 5 1026 69 10000 2.24 248 15:19 16.01.2022
5882 Clouds 5 1026 70 10000 1.34 309 14:28 16.01.2022
5883 Clouds 4 1026 76 10000 1.79 273 12:51 16.01.2022
5884 Clouds 3 1026 82 10000 1.34 235 11:47 16.01.2022
5885 Clouds 1 1025 92 10000 0.45 228 10:58 16.01.2022
5886 Clouds 0 1026 90 10000 1.79 281 10:26 16.01.2022
5887 Clouds -1 1026 93 10000 1.34 263 09:54 16.01.2022
5888 Clouds -2 1026 95 10000 3.19 255 09:22 16.01.2022
5889 Clouds -2 1025 94 10000 3.2 255 08:38 16.01.2022
5890 Clouds -2 1025 95 10000 0.45 219 03:58 16.01.2022
5891 Clouds -1 1026 94 10000 0.45 180 23:50 15.01.2022
5892 Clouds -1 1026 95 10000 0.67 171 23:50 15.01.2022
5893 Clear -1 1026 94 10000 0.58 134 22:35 15.01.2022
5894 Clear -1 1026 94 10000 1.21 111 21:20 15.01.2022
5895 Clear -1 1027 94 10000 1.21 111 20:40 15.01.2022
5896 Clear -1 1027 94 10000 0.89 114 19:30 15.01.2022
5897 Clear -1 1026 94 10000 0.45 109 18:47 15.01.2022
5898 Clear -1 1027 94 10000 0.45 121 17:35 15.01.2022
5899 Clear 0 1027 93 10000 0.45 71 16:38 15.01.2022
5900 Clear -1 1027 71 10000 2.66 70 13:57 15.01.2022
5901 Clear 2 1029 79 10000 0.45 81 12:23 15.01.2022
5902 Clear 1 1030 84 10000 2 87 11:18 15.01.2022
5903 Clear -3 1031 89 10000 1.56 94 08:36 15.01.2022
5904 Clear -2 1032 90 10000 0.48 153 00:49 15.01.2022
5905 Clear -1 1033 87 10000 0.55 271 21:57 14.01.2022
5906 Clear -1 1033 86 10000 0.45 217 20:42 14.01.2022
5907 Clear 0 1033 85 10000 1.36 249 20:23 14.01.2022
5908 Clear 0 1033 83 10000 1.36 250 19:40 14.01.2022
5909 Clear 2 1033 79 10000 1.56 265 18:28 14.01.2022
5910 Clear 5 1034 77 10000 1.67 267 16:50 14.01.2022
5911 Clear 6 1034 77 10000 1.83 258 15:48 14.01.2022
5912 Clear 7 1034 63 10000 1.79 204 14:47 14.01.2022
5913 Clear 7 1035 63 10000 0.89 288 13:47 14.01.2022
5914 Clear 5 1035 71 10000 0.45 270 12:34 14.01.2022
5915 Clear 3 1036 82 10000 0.45 284 11:29 14.01.2022
5916 Clear -1 1036 83 10000 1.07 255 09:51 14.01.2022
5917 Clear -5 1037 67 10000 1.47 243 08:52 14.01.2022
5918 Clear -5 1037 66 10000 1.19 250 07:21 14.01.2022
5919 Clear -4 1037 91 10000 0.85 142 01:37 14.01.2022
5920 Clouds -3 1038 94 10000 0.89 120 23:36 13.01.2022
5921 Clouds -3 1040 90 10000 0.87 126 21:42 13.01.2022
5922 Clouds -3 1039 90 10000 1.03 142 21:23 13.01.2022
5923 Clouds -2 1039 88 10000 1.35 143 19:41 13.01.2022
5924 Clouds -2 1039 88 10000 1.52 116 19:22 13.01.2022
5925 Clear -1 1040 86 10000 0.45 112 17:56 13.01.2022
5926 Clear 0 1040 79 10000 0.89 64 16:22 13.01.2022
5927 Clear 1 1040 76 10000 0.45 51 15:38 13.01.2022
5928 Clear 2 1040 73 10000 0.45 55 14:49 13.01.2022
5929 Clear 1 1040 79 10000 0.45 123 12:54 13.01.2022
5930 Clear -3 1041 91 10000 1.11 119 10:25 13.01.2022
5931 Clear -4 1041 92 10000 1.09 133 09:20 13.01.2022
5932 Clear -4 1041 92 10000 0.81 140 08:28 13.01.2022
5933 Clear -4 1040 92 10000 0.75 150 07:25 13.01.2022
5934 Clear -4 1040 92 10000 0.45 127 06:41 13.01.2022
5935 Clear -4 1040 92 10000 0.61 129 05:20 13.01.2022
5936 Clear -3 1040 91 10000 0.75 120 03:24 13.01.2022
5937 Clear -4 1040 91 10000 0.41 100 00:56 13.01.2022
5938 Clear -3 1040 90 10000 0.59 129 23:53 12.01.2022
5939 Clear -3 1040 90 10000 0.59 112 23:32 12.01.2022
5940 Clear -3 1039 89 10000 0.59 65 21:58 12.01.2022
5941 Clear -3 1040 90 10000 0.78 113 21:23 12.01.2022
5942 Clear -3 1039 89 10000 0.77 113 20:57 12.01.2022
5943 Clear -3 1039 89 10000 1.06 61 20:19 12.01.2022
5944 Clouds -3 1039 88 10000 0.45 90 18:48 12.01.2022
5945 Clouds -3 1038 87 10000 0.45 123 17:53 12.01.2022
5946 Clouds -2 1038 84 10000 0.45 78 16:42 12.01.2022
5947 Clouds -1 1037 82 10000 1.64 53 14:49 12.01.2022
5948 Clouds 0 1038 81 10000 0.45 111 13:37 12.01.2022
5949 Clouds -1 1037 85 10000 0.89 4 12:56 12.01.2022
5950 Clouds -3 1037 91 10000 0.45 128 08:55 12.01.2022
5951 Clouds -3 1036 92 10000 0.89 118 07:57 12.01.2022
5952 Clear -3 1036 91 10000 0.45 123 07:33 12.01.2022
5953 Clear -3 1034 90 10000 1.75 88 02:20 12.01.2022
5954 Clouds -2 1034 89 10000 0.89 44 23:26 11.01.2022
5955 Clouds -2 1034 87 10000 0.45 60 22:25 11.01.2022
5956 Clouds -2 1034 86 10000 0.45 50 21:58 11.01.2022
5957 Clouds -1 1033 85 10000 0.45 40 20:39 11.01.2022
5958 Clouds -1 1033 84 10000 0.89 65 19:31 11.01.2022
5959 Clouds 0 1033 82 10000 2.16 94 17:53 11.01.2022
5960 Clouds 1 1032 78 10000 1.94 79 16:40 11.01.2022
5961 Clouds 2 1031 79 10000 0.45 90 16:18 11.01.2022
5962 Clouds 2 1031 78 10000 0.45 45 14:50 11.01.2022
5963 Clouds 2 1031 79 10000 0.45 40 14:32 11.01.2022
5964 Clouds 2 1031 81 10000 1.34 74 13:48 11.01.2022
5965 Clouds 2 1031 83 10000 0.89 59 13:25 11.01.2022
5966 Clouds 2 1031 87 10000 0.89 55 12:34 11.01.2022
5967 Clouds 1 1031 90 10000 0.45 58 10:32 11.01.2022
5968 Clouds 0 1032 91 10000 0.45 87 07:55 11.01.2022
5969 Clouds 1 1029 92 6691 1.52 60 04:28 11.01.2022
5970 Clouds 1 1028 90 440 0.89 265 00:27 11.01.2022
5971 Clouds 1 1027 90 455 1.42 344 23:39 10.01.2022
5972 Clouds 1 1027 89 408 1.2 349 22:42 10.01.2022
5973 Clouds 1 1027 89 9892 0.89 280 22:18 10.01.2022
5974 Clouds 1 1027 89 9625 0.45 280 21:36 10.01.2022
5975 Clouds 1 1026 89 10000 0.45 344 21:18 10.01.2022
5976 Clouds 1 1026 88 10000 1.34 271 20:54 10.01.2022
5977 Clouds 1 1026 88 10000 0.45 294 20:19 10.01.2022
5978 Clouds 1 1026 88 10000 0.89 323 19:39 10.01.2022
5979 Clouds 1 1025 88 10000 1.66 336 19:19 10.01.2022
5980 Clouds 1 1025 88 10000 0.89 286 18:47 10.01.2022
5981 Clouds 2 1023 88 10000 0.89 292 16:51 10.01.2022
5982 Clouds 2 1023 88 10000 2.07 353 16:33 10.01.2022
5983 Clouds 2 1021 89 10000 0.89 284 14:50 10.01.2022
5984 Clouds 2 1020 89 10000 0.45 277 13:35 10.01.2022
5985 Clouds 2 1019 91 10000 0.45 258 11:57 10.01.2022
5986 Clouds 1 1019 91 10000 1.66 300 11:24 10.01.2022
5987 Clouds 1 1018 92 9805 1.65 296 09:40 10.01.2022
5988 Clouds 0 1014 91 10000 1.16 256 05:52 10.01.2022
5989 Clouds 0 1013 91 10000 1.2 262 05:23 10.01.2022
5990 Clouds 0 1011 89 10000 1.35 243 01:24 10.01.2022
5991 Clouds 1 1010 89 10000 1.53 245 00:23 10.01.2022
5992 Clouds 1 1010 88 10000 0.45 275 23:28 09.01.2022
5993 Clouds 1 1009 87 10000 0.89 285 22:21 09.01.2022
5994 Clouds 1 1009 87 10000 0.89 264 21:42 09.01.2022
5995 Clouds 1 1009 87 10000 0.89 264 21:42 09.01.2022
5996 Clouds 1 1009 87 10000 0.45 291 21:22 09.01.2022
5997 Clouds 1 1009 86 10000 1.34 272 20:49 09.01.2022
5998 Clouds 1 1009 86 10000 0.89 215 20:29 09.01.2022
5999 Clouds 1 1008 86 10000 0.45 190 19:44 09.01.2022
6000 Clouds 1 1006 85 10000 0.89 228 19:22 09.01.2022
6001 Clouds 1 1007 85 10000 0.89 243 18:49 09.01.2022
6002 Clouds 1 1007 84 10000 0.89 266 18:30 09.01.2022
6003 Clouds 2 1007 82 10000 0.45 226 17:30 09.01.2022
6004 Clouds 2 1007 80 10000 0.45 283 16:51 09.01.2022
6005 Clouds 3 1006 78 10000 0.89 238 15:57 09.01.2022
6006 Clouds 3 1006 77 10000 0.89 277 15:34 09.01.2022
6007 Clouds 3 1006 79 10000 1.34 255 14:40 09.01.2022
6008 Clouds 3 1006 81 10000 0.89 241 13:50 09.01.2022
6009 Clouds 3 1005 84 10000 1.79 221 12:48 09.01.2022
6010 Clouds 3 1005 89 10000 1.34 161 11:48 09.01.2022
6011 Clouds 2 1004 89 10000 1.79 258 10:52 09.01.2022
6012 Rain 2 1003 90 10000 2.24 213 09:42 09.01.2022
6013 Rain 3 1002 87 10000 2.68 231 08:34 09.01.2022
6014 Snow 0 1000 87 10000 1.34 182 03:55 09.01.2022
6015 Clouds 0 1001 79 10000 0.89 107 01:23 09.01.2022
6016 Clouds 0 1004 80 10000 0.45 125 23:44 08.01.2022
6017 Clouds 0 1004 80 10000 0.89 122 23:26 08.01.2022
6018 Clouds 0 1007 81 10000 0.45 170 22:28 08.01.2022
6019 Clouds -1 1008 82 4687 0.45 172 21:25 08.01.2022
6020 Clouds -1 1009 83 4750 0.45 149 20:42 08.01.2022
6021 Clouds -1 1010 84 10000 0.45 156 20:20 08.01.2022
6022 Clouds -2 1012 83 10000 0.89 180 18:45 08.01.2022
6023 Clouds 0 1013 78 10000 1.99 239 17:22 08.01.2022
6024 Clouds 1 1014 73 10000 0.45 222 15:56 08.01.2022
6025 Rain 2 1015 74 10000 1.79 225 14:46 08.01.2022
6026 Rain 2 1016 79 10000 2.24 227 13:29 08.01.2022
6027 Rain 1 1015 83 3783 3.58 207 11:28 08.01.2022
6028 Rain 1 1014 87 3783 1.79 195 10:30 08.01.2022
6029 Snow 1 1013 89 10000 0.89 223 09:48 08.01.2022
6030 Snow 0 1013 89 10000 0.45 210 09:28 08.01.2022
6031 Clouds -2 1014 91 10000 0.45 125 03:45 08.01.2022
6032 Clouds 0 1016 90 10000 0.45 238 00:57 08.01.2022
6033 Clouds 0 1017 92 10000 0.89 222 22:54 07.01.2022
6034 Clouds 0 1017 91 10000 1.34 228 21:34 07.01.2022
6035 Snow 0 1017 91 217 1.34 214 20:23 07.01.2022
6036 Snow -1 1017 90 673 0.45 202 19:26 07.01.2022
6037 Snow 0 1017 89 917 0.45 209 18:45 07.01.2022
6038 Snow 0 1017 87 10000 1.79 194 17:57 07.01.2022
6039 Snow 0 1017 86 10000 1.34 298 17:22 07.01.2022
6040 Clouds 1 1018 73 10000 1.34 220 14:50 07.01.2022
6041 Clouds 1 1019 73 10000 0.45 201 13:50 07.01.2022
6042 Clouds 0 1019 75 10000 0.89 207 12:50 07.01.2022
6043 Clouds -3 1021 86 10000 2.34 225 10:18 07.01.2022
6044 Clear -4 1021 90 10000 0.45 176 02:59 07.01.2022
6045 Clear -4 1021 90 10000 1.66 174 02:21 07.01.2022
6046 Clear -4 1021 90 10000 1.66 174 01:45 07.01.2022
6047 Clouds -3 1022 90 10000 0.45 170 01:23 07.01.2022
6048 Clouds -3 1022 89 10000 0.76 191 00:29 07.01.2022
6049 Clouds -1 1021 87 10000 0.95 216 21:56 06.01.2022
6050 Clouds -1 1022 86 10000 1.21 218 20:37 06.01.2022
6051 Clouds -1 1022 86 10000 1.31 224 19:58 06.01.2022
6052 Clouds 0 1022 86 10000 1.32 224 19:36 06.01.2022
6053 Clouds 0 1022 84 10000 1.54 243 17:51 06.01.2022
6054 Clouds 1 1021 83 10000 0.45 252 17:21 06.01.2022
6055 Clouds 1 1021 81 10000 0.45 211 16:31 06.01.2022
6056 Clouds 2 1020 81 10000 0.45 204 15:43 06.01.2022
6057 Clouds 2 1020 81 10000 0.45 248 15:20 06.01.2022
6058 Clouds 2 1020 84 10000 0.45 277 14:19 06.01.2022
6059 Clouds 1 1020 88 10000 0.45 275 13:33 06.01.2022
6060 Rain 1 1020 85 6468 0.89 254 12:20 06.01.2022
6061 Rain 1 1019 86 5648 0.89 286 11:29 06.01.2022
6062 Snow 0 1018 89 328 0.89 242 09:56 06.01.2022
6063 Snow 0 1017 88 572 0.89 209 06:38 06.01.2022
6064 Clouds 0 1014 78 10000 0.89 275 00:34 06.01.2022
6065 Clouds 0 1014 75 10000 1.34 201 23:22 05.01.2022
6066 Clouds 0 1014 74 10000 1.34 222 22:48 05.01.2022
6067 Clouds 0 1014 73 10000 0.89 253 22:26 05.01.2022
6068 Clouds 0 1014 74 10000 1.34 213 21:28 05.01.2022
6069 Clouds 0 1014 76 10000 0.89 296 20:30 05.01.2022
6070 Clouds 0 1013 77 10000 0.89 217 19:42 05.01.2022
6071 Clouds 0 1012 78 10000 0.45 232 18:22 05.01.2022
6072 Clouds 1 1011 77 10000 0.45 201 16:57 05.01.2022
6073 Clouds 1 1011 76 10000 0.89 243 16:19 05.01.2022
6074 Clouds 1 1010 78 10000 1.34 257 15:19 05.01.2022
6075 Clouds 1 1009 82 10000 1.79 232 13:35 05.01.2022
6076 Clouds 2 1009 88 10000 1.34 224 12:30 05.01.2022
6077 Clouds 3 1005 91 142 2.24 246 08:46 05.01.2022
6078 Clouds 2 1003 92 10000 0.45 217 06:46 05.01.2022
6079 Clouds 4 1002 91 333 0.45 284 01:49 05.01.2022
6080 Clouds 5 1002 88 10000 0.45 267 23:44 04.01.2022
6081 Clouds 5 1002 88 10000 1.34 311 23:26 04.01.2022
6082 Clouds 7 1002 86 10000 1.79 350 22:19 04.01.2022
6083 Clouds 8 1000 84 10000 2.24 306 20:46 04.01.2022
6084 Clouds 11 999 78 10000 2.68 279 18:44 04.01.2022
6085 Clouds 12 999 76 10000 1.34 284 17:37 04.01.2022
6086 Clouds 12 998 73 10000 5.87 251 16:39 04.01.2022
6087 Clouds 14 998 65 10000 2.68 204 16:20 04.01.2022
6088 Clouds 15 998 60 10000 5.81 261 14:46 04.01.2022
6089 Clouds 14 998 65 10000 7.88 249 14:23 04.01.2022
6090 Clouds 13 999 71 10000 6.89 245 13:26 04.01.2022
6091 Clouds 9 1001 87 10000 2.24 219 10:29 04.01.2022
6092 Rain 7 1002 83 10000 7.9 236 08:59 04.01.2022
6093 Clouds 7 1002 87 10000 5.96 242 08:23 04.01.2022
6094 Clouds 8 1010 73 10000 3.58 209 01:19 04.01.2022
6095 Rain 9 1011 71 10000 1.34 204 00:40 04.01.2022
6096 Clouds 9 1012 68 10000 0.45 244 22:41 03.01.2022
6097 Clouds 9 1013 68 10000 0.89 299 21:42 03.01.2022
6098 Clouds 9 1013 69 10000 0.45 305 21:23 03.01.2022
6099 Clouds 8 1014 67 10000 0.45 212 19:47 03.01.2022
6100 Clouds 9 1015 65 10000 1.79 253 18:33 03.01.2022
6101 Clouds 9 1016 64 10000 0.89 232 17:40 03.01.2022
6102 Clouds 10 1016 63 10000 0.89 211 16:58 03.01.2022
6103 Clouds 11 1018 65 10000 2.24 298 14:55 03.01.2022
6104 Clouds 11 1018 65 10000 2.24 294 14:29 03.01.2022
6105 Clouds 11 1018 65 10000 2.24 279 12:39 03.01.2022
6106 Clouds 11 1019 66 10000 2.24 261 11:34 03.01.2022
6107 Clouds 10 1019 66 10000 1.79 249 10:25 03.01.2022
6108 Clouds 9 1020 71 10000 1.34 237 08:47 03.01.2022
6109 Clouds 10 1019 71 10000 1.34 220 07:32 03.01.2022
6110 Clouds 11 1019 55 10000 1.79 261 23:54 02.01.2022
6111 Clouds 12 1018 53 10000 1.79 244 23:20 02.01.2022
6112 Clouds 12 1017 51 10000 1.79 292 22:43 02.01.2022
6113 Clouds 11 1020 51 10000 6.78 258 21:39 02.01.2022
6114 Clouds 11 1020 51 10000 5.58 255 20:31 02.01.2022
6115 Clouds 11 1020 51 10000 5.59 255 19:54 02.01.2022
6116 Clouds 11 1020 51 10000 5.23 257 19:29 02.01.2022
6117 Clouds 11 1020 50 10000 5.13 257 18:39 02.01.2022
6118 Clouds 11 1019 49 10000 3.98 246 17:43 02.01.2022
6119 Clouds 12 1019 48 10000 3.97 240 17:22 02.01.2022
6120 Clouds 12 1019 48 10000 3.98 240 16:59 02.01.2022
6121 Clouds 13 1020 47 10000 4.68 237 16:24 02.01.2022
6122 Clouds 14 1020 44 10000 0.45 304 14:22 02.01.2022
6123 Clouds 12 1021 52 10000 0.45 222 12:49 02.01.2022
6124 Clouds 10 1022 61 10000 1.34 237 11:57 02.01.2022
6125 Clouds 8 1021 66 10000 0.45 195 11:23 02.01.2022
6126 Clouds 7 1022 67 10000 0.45 184 10:45 02.01.2022
6127 Clouds 3 1023 75 10000 0.45 215 08:46 02.01.2022
6128 Clouds 3 1024 82 10000 1.34 210 03:49 02.01.2022
6129 Clouds 3 1028 81 10000 1.8 199 01:41 02.01.2022
6130 Clouds 4 1026 85 10000 0.45 224 23:39 01.01.2022
6131 Clouds 4 1026 85 10000 1.63 180 22:57 01.01.2022
6132 Clouds 4 1026 85 10000 0.89 117 22:22 01.01.2022
6133 Clouds 4 1026 86 10000 0.45 127 21:43 01.01.2022
6134 Clouds 4 1027 87 10000 0.45 92 20:53 01.01.2022
6135 Clouds 4 1027 87 10000 1.53 164 19:58 01.01.2022
6136 Clouds 5 1027 85 10000 1.77 165 19:19 01.01.2022
6137 Clouds 8 1027 79 10000 1.41 146 17:58 01.01.2022
6138 Clouds 10 1027 73 10000 0.8 148 16:37 01.01.2022
6139 Clouds 11 1027 75 10000 1 166 16:19 01.01.2022
6140 Clouds 12 1027 69 10000 1.1 177 15:26 01.01.2022
6141 Clouds 12 1027 68 10000 0.99 186 13:58 01.01.2022
6142 Clouds 12 1029 67 10000 0.89 120 12:50 01.01.2022
6143 Clouds 10 1021 72 10000 0.89 0 11:56 01.01.2022
6144 Clouds 9 1021 76 10000 0.89 0 11:23 01.01.2022
6145 Clouds 8 1021 81 10000 0.89 0 10:27 01.01.2022
6146 Clouds 7 1021 79 10000 0.89 0 09:46 01.01.2022
6147 Clouds 5 1027 79 10000 0.45 196 08:26 01.01.2022
6148 Clouds 6 1027 80 10000 2.46 216 07:54 01.01.2022
6149 Clouds 6 1027 80 10000 2.59 223 07:34 01.01.2022
6150 Clouds 6 1028 83 10000 2.3 222 06:41 01.01.2022
6151 Clouds 7 1027 79 10000 2.4 219 04:38 01.01.2022
6152 Clouds 7 1029 84 10000 2.73 233 02:44 01.01.2022
6153 Clear 10 1020 73 10000 0.89 250 23:39 31.12.2021
6154 Clouds 10 1014 70 10000 0.89 0 21:53 31.12.2021
6155 Clear 10 1014 69 10000 0.89 0 20:39 31.12.2021
6156 Clear 10 1019 70 10000 0.45 267 19:31 31.12.2021
6157 Clear 10 1019 70 10000 0.45 267 19:31 31.12.2021
6158 Clouds 9 1024 76 10000 3.75 236 18:41 31.12.2021
6159 Clouds 10 1014 76 10000 0.89 0 17:43 31.12.2021
6160 Clouds 10 1014 76 10000 0.89 0 17:19 31.12.2021
6161 Clouds 11 1014 75 10000 0.89 0 16:40 31.12.2021
6162 Clouds 12 1023 76 10000 2.34 235 15:57 31.12.2021
6163 Clear 13 1023 71 10000 1.73 263 15:29 31.12.2021
6164 Clear 13 1023 71 10000 1.72 263 15:29 31.12.2021
6165 Clear 13 1023 71 10000 1.73 263 14:57 31.12.2021
6166 Clear 14 1022 70 10000 2 223 14:31 31.12.2021
6167 Clear 13 1021 72 10000 1.34 242 13:42 31.12.2021
6168 Clear 13 1023 76 10000 0.45 234 12:49 31.12.2021
6169 Clear 12 1020 79 10000 1.34 224 11:52 31.12.2021
6170 Clear 11 1019 81 10000 0.89 0 11:33 31.12.2021
6171 Clear 10 1020 84 10000 0.89 0 10:41 31.12.2021
6172 Clear 10 1020 87 10000 0.89 0 10:23 31.12.2021
6173 Clear 8 1019 88 10000 0.89 0 09:33 31.12.2021
6174 Clear 8 1019 87 10000 0.89 0 08:49 31.12.2021
6175 Clear 9 1014 86 10000 0.89 0 07:49 31.12.2021
6176 Clouds 11 1025 90 10000 2.43 227 00:47 31.12.2021
6177 Clouds 12 1025 84 10000 2.91 249 22:54 30.12.2021
6178 Clouds 12 1024 84 10000 3.94 249 22:27 30.12.2021
6179 Clouds 12 1024 88 10000 3.96 250 21:37 30.12.2021
6180 Clouds 12 1021 86 10000 1.79 238 20:58 30.12.2021
6181 Clouds 12 1021 86 10000 2.24 250 20:35 30.12.2021
6182 Clouds 12 1022 87 10000 1.79 215 19:50 30.12.2021
6183 Clouds 12 1022 87 10000 1.34 239 19:24 30.12.2021
6184 Clouds 12 1022 87 10000 1.34 306 18:26 30.12.2021
6185 Clouds 13 1021 87 10000 1.34 223 16:39 30.12.2021
6186 Clouds 13 1021 85 10000 1.79 204 15:53 30.12.2021
6187 Clouds 13 1021 84 10000 1.79 159 15:53 30.12.2021
6188 Clouds 13 1021 86 10000 1.34 270 14:54 30.12.2021
6189 Clouds 13 1021 87 10000 1.34 264 14:35 30.12.2021
6190 Clouds 13 1021 88 10000 0.89 300 13:25 30.12.2021
6191 Clouds 12 1020 91 10000 0.89 258 11:53 30.12.2021
6192 Clouds 11 1021 93 10000 1.34 220 10:28 30.12.2021
6193 Clouds 11 1020 94 10000 0.89 219 09:44 30.12.2021
6194 Clouds 11 1019 93 10000 1.34 232 06:58 30.12.2021
6195 Clouds 11 1018 95 10000 1.79 213 05:20 30.12.2021
6196 Clouds 11 1018 95 10000 1.79 213 05:20 30.12.2021
6197 Clouds 11 1016 94 10000 1.79 240 03:40 30.12.2021
6198 Clouds 11 1016 94 10000 1.79 273 03:40 30.12.2021
6199 Clouds 10 1014 91 10000 1.79 271 02:27 30.12.2021
6200 Rain 9 1013 92 10000 1.34 161 23:37 29.12.2021
6201 Clouds 7 1013 91 7204 0.45 213 22:42 29.12.2021
6202 Rain 7 1012 92 8694 0.45 221 21:56 29.12.2021
6203 Rain 7 1012 91 5654 0.45 267 20:58 29.12.2021
6204 Rain 7 1012 90 10000 1.79 213 20:29 29.12.2021
6205 Rain 7 1012 87 10000 3.13 218 19:31 29.12.2021
6206 Clouds 7 1012 85 10000 3.31 220 18:42 29.12.2021
6207 Clouds 7 1012 82 10000 0.45 279 17:51 29.12.2021
6208 Clouds 7 1012 81 10000 1.34 297 17:27 29.12.2021
6209 Clouds 8 1012 79 10000 0.45 276 16:22 29.12.2021
6210 Clouds 8 1012 79 10000 0.45 215 15:21 29.12.2021
6211 Clouds 9 1012 79 10000 0.89 257 13:42 29.12.2021
6212 Clouds 9 1012 78 10000 1.34 291 12:35 29.12.2021
6213 Clouds 9 1012 80 10000 1.79 277 11:25 29.12.2021
6214 Clouds 7 1011 85 10000 1.79 271 09:38 29.12.2021
6215 Clouds 7 1008 89 10000 1.79 248 07:47 29.12.2021
6216 Clouds 7 1007 89 10000 1.34 153 06:37 29.12.2021
6217 Clouds 7 1007 86 10000 1.79 184 05:57 29.12.2021
6218 Clouds 7 1009 84 10000 1.79 204 05:36 29.12.2021
6219 Clouds 7 1007 85 10000 2.68 210 01:45 29.12.2021
6220 Rain 7 1007 85 10000 1.34 170 00:19 29.12.2021
6221 Rain 7 1006 86 10000 1.79 252 23:31 28.12.2021
6222 Clouds 6 1006 89 10000 1.79 224 22:42 28.12.2021
6223 Rain 6 1006 89 10000 1.34 244 22:23 28.12.2021
6224 Clouds 6 1003 91 10000 1.34 207 21:36 28.12.2021
6225 Rain 6 1003 85 10000 6.82 258 20:35 28.12.2021
6226 Rain 8 1006 84 8308 3.13 237 19:22 28.12.2021
6227 Rain 8 1006 84 8142 2.24 205 18:35 28.12.2021
6228 Rain 8 1005 87 6702 1.79 223 17:57 28.12.2021
6229 Clouds 8 1005 88 10000 0.45 266 16:34 28.12.2021
6230 Clouds 8 1005 88 10000 0.45 249 15:49 28.12.2021
6231 Clouds 8 1005 88 10000 0.45 246 15:20 28.12.2021
6232 Clouds 8 1005 89 10000 0.89 205 14:46 28.12.2021
6233 Clouds 7 1001 93 10000 0.89 251 14:20 28.12.2021
6234 Clouds 6 1001 94 10000 0.45 204 13:42 28.12.2021
6235 Clouds 6 1001 92 10000 0.45 261 13:24 28.12.2021
6236 Clouds 5 1001 93 10000 0.45 196 12:49 28.12.2021
6237 Clouds 5 1003 92 5696 0.45 144 11:35 28.12.2021
6238 Rain 3 1002 92 10000 2.02 141 08:30 28.12.2021
6239 Clouds 2 1002 92 10000 2.38 142 06:41 28.12.2021
6240 Rain 4 1005 93 10000 0.45 214 23:43 27.12.2021
6241 Clouds 3 1005 93 10000 1.34 229 23:23 27.12.2021
6242 Clouds 3 1005 93 10000 2.71 241 21:42 27.12.2021
6243 Clouds 3 1004 93 10000 2.65 235 21:20 27.12.2021
6244 Clouds 3 1004 92 10000 1.7 219 20:23 27.12.2021
6245 Clouds 2 1004 91 10000 1.7 219 19:41 27.12.2021
6246 Clouds 3 1003 90 10000 1.37 124 18:34 27.12.2021
6247 Clouds 3 1003 89 10000 1.38 124 17:48 27.12.2021
6248 Clouds 5 1003 86 10000 1.82 101 16:55 27.12.2021
6249 Clouds 5 1002 87 10000 1.34 95 15:52 27.12.2021
6250 Clouds 7 1002 85 10000 1.34 67 14:33 27.12.2021
6251 Clouds 7 1003 92 10000 0.45 199 13:40 27.12.2021
6252 Clouds 7 1003 91 10000 0.45 105 12:47 27.12.2021
6253 Clouds 4 1005 94 10000 2.12 144 10:32 27.12.2021
6254 Clouds 3 1005 93 10000 2.12 144 09:57 27.12.2021
6255 Clouds 3 1005 93 10000 2.38 151 08:39 27.12.2021
6256 Clouds 3 1005 93 10000 2.19 240 07:32 27.12.2021
6257 Clouds 3 1006 94 10000 1.28 199 02:26 27.12.2021
6258 Clouds 3 1006 94 10000 1.94 142 00:23 27.12.2021
6259 Clouds 3 1007 94 10000 1.95 142 23:41 26.12.2021
6260 Clouds 3 1007 94 10000 2.11 138 22:47 26.12.2021
6261 Clouds 3 1007 93 10000 2.02 127 21:29 26.12.2021
6262 Clouds 3 1007 94 10000 1.84 129 19:52 26.12.2021
6263 Clouds 3 1007 94 10000 1.71 121 18:25 26.12.2021
6264 Clouds 3 1007 94 10000 1.72 121 17:44 26.12.2021
6265 Clouds 4 1007 93 10000 0.45 34 15:31 26.12.2021
6266 Clouds 4 1007 93 9557 0.9 96 13:43 26.12.2021
6267 Clouds 4 1007 93 10000 0.7 87 13:21 26.12.2021
6268 Clouds 3 1007 93 10000 0.72 87 12:35 26.12.2021
6269 Rain 2 1007 93 10000 1.27 87 11:18 26.12.2021
6270 Rain 1 1007 95 10000 1.84 94 09:30 26.12.2021
6271 Rain 2 1007 92 10000 2.12 95 08:45 26.12.2021
6272 Rain 2 1007 92 10000 2.29 89 08:23 26.12.2021
6273 Clouds 3 1006 92 10000 2.2 83 01:45 26.12.2021
6274 Clouds 3 1006 92 6976 0.45 38 00:28 26.12.2021
6275 Clouds 3 1006 92 6976 2.19 43 23:35 25.12.2021
6276 Clouds 4 1006 92 9626 1.84 20 22:29 25.12.2021
6277 Clouds 4 1006 91 10000 0.89 53 21:30 25.12.2021
6278 Clouds 6 1005 92 10000 0.9 341 20:26 25.12.2021
6279 Rain 6 1006 92 10000 1.11 295 19:19 25.12.2021
6280 Rain 6 1005 91 10000 1.12 288 18:37 25.12.2021
6281 Clouds 7 1005 88 10000 1.75 245 16:50 25.12.2021
6282 Clouds 8 1004 85 10000 1.34 239 15:34 25.12.2021
6283 Clouds 9 1004 82 10000 0.45 250 14:23 25.12.2021
6284 Clouds 9 1004 80 10000 0.89 289 12:21 25.12.2021
6285 Clouds 8 1004 84 10000 0.45 274 10:49 25.12.2021
6286 Clouds 7 1004 89 10000 0.45 252 09:49 25.12.2021
6287 Clouds 6 1004 90 10000 1.34 200 07:28 25.12.2021
6288 Clouds 7 1005 91 10000 0.45 196 01:43 25.12.2021
6289 Clouds 7 1005 91 10000 0.45 213 00:22 25.12.2021
6290 Rain 7 1005 91 10000 1.34 252 22:26 24.12.2021
6291 Rain 7 1006 92 10000 0.45 255 19:29 24.12.2021
6292 Clouds 7 1006 91 10000 0.89 227 18:57 24.12.2021
6293 Clouds 7 1007 87 10000 0.89 218 16:49 24.12.2021
6294 Clouds 7 1007 87 10000 0.89 245 15:52 24.12.2021
6295 Clouds 7 1007 87 10000 0.89 211 15:32 24.12.2021
6296 Rain 7 1007 88 10000 1.34 270 14:36 24.12.2021
6297 Rain 7 1007 87 10000 1.34 186 14:18 24.12.2021
6298 Rain 7 1007 88 10000 1.34 279 13:33 24.12.2021
6299 Clouds 7 1008 87 10000 1.34 254 12:47 24.12.2021
6300 Clouds 7 1008 85 10000 1.79 294 11:47 24.12.2021
6301 Clouds 7 1008 84 10000 1.79 167 11:24 24.12.2021
6302 Rain 7 1009 79 10000 1.34 264 10:46 24.12.2021
6303 Clouds 7 1008 73 10000 3.58 234 09:32 24.12.2021
6304 Clouds 7 1010 72 10000 5.81 253 08:23 24.12.2021
6305 Clouds 7 1010 70 10000 5.81 253 07:46 24.12.2021
6306 Clouds 8 1012 75 10000 0.89 208 01:30 24.12.2021
6307 Clouds 8 1013 75 10000 1.34 229 23:56 23.12.2021
6308 Rain 8 1013 74 10000 2.24 213 22:56 23.12.2021
6309 Rain 7 1013 74 10000 1.34 259 22:37 23.12.2021
6310 Rain 7 1013 74 10000 1.79 229 22:18 23.12.2021
6311 Clouds 6 1013 72 10000 1.34 196 20:56 23.12.2021
6312 Clouds 5 1013 79 10000 1.79 224 20:18 23.12.2021
6313 Clouds 5 1013 79 10000 2.24 245 20:18 23.12.2021
6314 Clouds 4 1014 80 10000 0.89 244 18:35 23.12.2021
6315 Rain 2 1013 75 10000 3.87 244 17:56 23.12.2021
6316 Clouds 2 1013 79 10000 3.5 246 16:44 23.12.2021
6317 Clouds 3 1013 74 10000 3.47 246 16:24 23.12.2021
6318 Clouds 3 1014 71 10000 1.34 219 15:31 23.12.2021
6319 Clouds 4 1015 67 10000 1.34 246 14:52 23.12.2021
6320 Clouds 4 1015 65 10000 0.89 192 14:30 23.12.2021
6321 Clouds 2 1016 76 10000 0.45 232 12:54 23.12.2021
6322 Clouds -4 1018 41 10000 2.06 205 10:52 23.12.2021
6323 Clouds -5 1019 72 10000 1.85 214 09:47 23.12.2021
6324 Clouds -7 1020 69 10000 1.99 197 08:59 23.12.2021
6325 Clouds -7 1020 69 10000 1.99 197 08:59 23.12.2021
6326 Clouds -7 1021 91 10000 1.86 198 06:58 23.12.2021
6327 Clouds -6 1022 82 10000 1.58 211 04:33 23.12.2021
6328 Clouds -7 1022 90 10000 1.13 136 23:26 22.12.2021
6329 Clouds -7 1022 91 10000 1.12 136 22:47 22.12.2021
6330 Clouds -6 1023 90 10000 1.32 140 21:56 22.12.2021
6331 Clouds -6 1023 91 10000 1.29 122 21:29 22.12.2021
6332 Clouds -6 1023 90 10000 1.28 122 20:47 22.12.2021
6333 Clouds -5 1024 90 10000 1.53 118 20:26 22.12.2021
6334 Clouds -5 1024 89 10000 1.71 111 19:32 22.12.2021
6335 Clouds -3 1024 87 10000 0.45 115 17:55 22.12.2021
6336 Clouds -3 1025 87 10000 2.07 91 17:34 22.12.2021
6337 Clouds -1 1025 82 10000 0.45 46 15:42 22.12.2021
6338 Clouds -1 1025 84 10000 0.45 102 13:44 22.12.2021
6339 Clouds -2 1026 83 10000 0.89 31 12:41 22.12.2021
6340 Clouds -4 1027 89 10000 0.89 105 10:46 22.12.2021
6341 Clouds -4 1027 88 10000 1.79 102 09:40 22.12.2021
6342 Clouds -6 1026 86 10000 0.45 115 07:32 22.12.2021
6343 Clouds -7 1027 85 10000 1.67 112 05:50 22.12.2021
6344 Clouds -6 1026 84 10000 1.59 107 05:28 22.12.2021
6345 Clouds -6 1026 84 10000 1.58 108 04:54 22.12.2021
6346 Clouds -6 1026 85 10000 1.59 107 04:30 22.12.2021
6347 Clouds -6 1026 85 10000 1.59 107 04:30 22.12.2021
6348 Clouds -7 1026 92 10000 1.29 112 03:34 22.12.2021
6349 Clouds -6 1026 91 10000 1.29 106 01:37 22.12.2021
6350 Clouds -5 1025 90 10000 1.17 102 23:33 21.12.2021
6351 Clouds -5 1024 89 10000 1.42 105 22:29 21.12.2021
6352 Clouds -4 1024 89 10000 1.43 105 21:51 21.12.2021
6353 Clear -4 1024 88 10000 0.89 121 21:24 21.12.2021
6354 Clear -4 1024 90 10000 0.45 114 20:23 21.12.2021
6355 Clear -3 1024 91 10000 0.45 101 19:52 21.12.2021
6356 Clear -3 1024 90 10000 0.45 123 19:26 21.12.2021
6357 Clear -3 1024 89 10000 0.89 136 18:22 21.12.2021
6358 Clear -3 1024 90 10000 0.89 105 17:52 21.12.2021
6359 Clear -2 1024 88 10000 0.89 134 16:47 21.12.2021
6360 Clear -1 1023 87 10000 0.45 126 15:33 21.12.2021
6361 Clouds -1 1023 87 10000 0.45 46 13:55 21.12.2021
6362 Clouds -1 1023 87 10000 0.45 42 13:36 21.12.2021
6363 Clouds -2 1023 91 10000 1.34 38 12:25 21.12.2021
6364 Clouds -3 1024 94 10000 0.45 89 10:38 21.12.2021
6365 Clouds -4 1024 94 10000 0.45 126 09:42 21.12.2021
6366 Clouds -4 1024 94 10000 0.89 122 08:55 21.12.2021
6367 Clouds -4 1024 89 10000 1.84 85 07:42 21.12.2021
6368 Clouds -4 1024 89 10000 0.45 120 07:19 21.12.2021
6369 Clouds -5 1025 92 10000 0.89 129 03:24 21.12.2021
6370 Clear -4 1025 92 10000 2.15 84 01:20 21.12.2021
6371 Clear -4 1025 91 10000 0.45 36 23:54 20.12.2021
6372 Clear -4 1025 91 10000 2.12 86 22:35 20.12.2021
6373 Clear -4 1025 91 10000 2.1 83 21:51 20.12.2021
6374 Clear -3 1025 91 10000 1.93 81 21:24 20.12.2021
6375 Clear -3 1026 91 10000 1.94 81 20:51 20.12.2021
6376 Clear -3 1025 90 10000 1.77 74 20:19 20.12.2021
6377 Clouds -2 1025 91 10000 1.68 66 19:36 20.12.2021
6378 Clouds -2 1025 91 10000 1.69 66 19:18 20.12.2021
6379 Clouds -2 1025 90 10000 1.77 64 18:32 20.12.2021
6380 Clouds -1 1025 90 10000 1.56 61 17:49 20.12.2021
6381 Clouds 1 1026 88 10000 1.47 54 16:46 20.12.2021
6382 Clouds 2 1025 86 10000 0.89 290 15:57 20.12.2021
6383 Clouds 2 1025 85 10000 1.61 25 15:35 20.12.2021
6384 Clouds 3 1025 89 10000 0.89 355 13:32 20.12.2021
6385 Clouds 3 1025 88 10000 0.45 55 13:32 20.12.2021
6386 Clouds 3 1025 91 10000 0.45 309 12:30 20.12.2021
6387 Clouds 1 1025 93 10000 0.89 291 10:46 20.12.2021
6388 Clouds 1 1025 93 10000 1.69 237 09:40 20.12.2021
6389 Clouds 1 1025 93 10000 0.89 290 08:50 20.12.2021
6390 Clouds 1 1025 93 10000 0.45 286 08:31 20.12.2021
6391 Clouds 1 1025 93 10000 0.89 303 07:32 20.12.2021
6392 Clouds 1 1025 93 10000 0.89 219 06:39 20.12.2021
6393 Clouds 0 1026 94 10000 0.45 207 00:20 20.12.2021
6394 Clouds 0 1026 94 10000 0.45 227 22:56 19.12.2021
6395 Clouds 0 1026 94 10000 0.89 244 22:32 19.12.2021
6396 Clouds 0 1026 93 10000 0.45 278 21:32 19.12.2021
6397 Clear 0 1026 94 10000 1.34 329 20:42 19.12.2021
6398 Clear 0 1026 94 10000 0.45 176 20:23 19.12.2021
6399 Clear 0 1025 93 10000 0.45 244 19:41 19.12.2021
6400 Clear 0 1026 92 10000 0.45 186 18:42 19.12.2021
6401 Clear 0 1025 91 10000 1.34 321 17:54 19.12.2021
6402 Clear 1 1025 89 10000 0.89 317 17:34 19.12.2021
6403 Clear 1 1025 88 10000 0.45 305 16:41 19.12.2021
6404 Clear 2 1026 86 10000 2.89 263 15:56 19.12.2021
6405 Clear 5 1025 79 10000 0.89 270 15:25 19.12.2021
6406 Clear 5 1026 78 10000 0.89 278 14:45 19.12.2021
6407 Clear 5 1026 76 10000 0.89 278 13:35 19.12.2021
6408 Clear 4 1028 78 10000 0.89 269 12:59 19.12.2021
6409 Clear 3 1028 81 10000 0.89 282 12:31 19.12.2021
6410 Clear 2 1029 86 10000 0.89 275 11:38 19.12.2021
6411 Clouds 0 1030 89 10000 0.89 276 10:50 19.12.2021
6412 Clouds -1 1031 92 10000 0.45 225 10:22 19.12.2021
6413 Clouds -2 1031 93 10000 0.45 219 08:51 19.12.2021
6414 Clouds -2 1032 94 10000 1.34 205 06:51 19.12.2021
6415 Clear -1 1033 94 10000 0.45 288 01:52 19.12.2021
6416 Clouds -1 1034 94 10000 0.89 282 00:54 19.12.2021
6417 Clouds -1 1034 94 10000 0.75 306 23:21 18.12.2021
6418 Clouds -1 1034 94 10000 0.4 192 22:28 18.12.2021
6419 Clouds -1 1034 94 10000 0.45 302 21:44 18.12.2021
6420 Clouds -1 1034 93 10000 0.89 293 21:25 18.12.2021
6421 Clouds -1 1034 93 10000 0.73 114 20:43 18.12.2021
6422 Clouds 0 1035 93 10000 1.29 83 19:40 18.12.2021
6423 Clear 0 1035 92 10000 1.77 65 18:26 18.12.2021
6424 Clear 0 1035 92 10000 0.45 92 17:49 18.12.2021
6425 Clear 0 1035 93 10000 0.45 163 16:50 18.12.2021
6426 Clear 0 1035 93 10000 1.67 65 16:21 18.12.2021
6427 Clear 1 1035 92 10000 0.89 123 15:24 18.12.2021
6428 Clear 0 1036 71 10000 2.04 66 14:19 18.12.2021
6429 Clear 0 1037 95 10000 1.96 69 11:59 18.12.2021
6430 Clear 0 1037 94 10000 0.89 132 10:42 18.12.2021
6431 Clear 0 1038 95 10000 0.89 126 09:32 18.12.2021
6432 Clear 0 1037 95 10000 0.45 115 08:36 18.12.2021
6433 Clear 0 1038 95 10000 0.77 98 07:42 18.12.2021
6434 Clouds 1 1037 92 10000 0.18 95 01:47 18.12.2021
6435 Clouds 1 1037 91 10000 0.32 200 00:23 18.12.2021
6436 Clouds 1 1039 91 10000 0.31 201 23:35 17.12.2021
6437 Clouds 2 1039 91 10000 0.78 207 21:54 17.12.2021
6438 Clouds 2 1040 91 10000 0.62 156 20:50 17.12.2021
6439 Clouds 2 1036 91 10000 0.14 30 20:21 17.12.2021
6440 Clouds 3 1036 91 10000 0.15 126 18:50 17.12.2021
6441 Clear 3 1036 91 10000 1.28 65 18:21 17.12.2021
6442 Clear 3 1036 90 10000 1.32 44 17:25 17.12.2021
6443 Clear 4 1037 89 10000 1.54 47 16:29 17.12.2021
6444 Clear 4 1037 89 10000 0.89 50 15:51 17.12.2021
6445 Clear 5 1037 85 10000 0.89 38 15:18 17.12.2021
6446 Clear 5 1037 84 10000 0.89 83 14:34 17.12.2021
6447 Clear 5 1037 83 10000 0.95 78 12:45 17.12.2021
6448 Clear 4 1037 87 10000 0.45 63 11:22 17.12.2021
6449 Clear 2 1037 92 10000 1.14 70 09:55 17.12.2021
6450 Clear 1 1037 95 10000 1 126 08:58 17.12.2021
6451 Clear 1 1037 94 10000 1.61 145 08:20 17.12.2021
6452 Clouds 2 1037 93 10000 1.6 91 05:25 17.12.2021
6453 Clouds 2 1038 93 10000 1.79 81 02:52 17.12.2021
6454 Clouds 1 1038 92 10000 1.47 58 23:20 16.12.2021
6455 Clouds 1 1038 91 10000 0.45 188 22:24 16.12.2021
6456 Clouds 1 1038 91 10000 0.45 188 22:24 16.12.2021
6457 Clouds 1 1038 91 10000 0.45 188 22:24 16.12.2021
6458 Clouds 2 1038 91 10000 0.89 112 21:47 16.12.2021
6459 Clouds 2 1038 91 10000 1.69 159 21:20 16.12.2021
6460 Clouds 2 1038 91 10000 0.91 100 20:28 16.12.2021
6461 Clouds 2 1038 91 10000 0.91 100 19:36 16.12.2021
6462 Clouds 3 1037 90 10000 0.77 90 18:38 16.12.2021
6463 Clouds 3 1038 92 10000 0.49 149 17:55 16.12.2021
6464 Clouds 3 1037 91 10000 0.63 36 17:28 16.12.2021
6465 Clouds 4 1037 87 10000 0.57 350 16:21 16.12.2021
6466 Clouds 5 1036 87 10000 0.61 226 14:50 16.12.2021
6467 Clouds 4 1036 88 10000 0.45 251 13:25 16.12.2021
6468 Clouds 3 1037 94 10000 0.45 119 11:20 16.12.2021
6469 Clouds 3 1037 92 10000 0.45 119 10:58 16.12.2021
6470 Clouds 3 1037 95 10000 0.74 177 10:20 16.12.2021
6471 Clouds 2 1036 95 10000 0.24 10 07:48 16.12.2021
6472 Clouds 2 1035 95 10000 0.45 327 06:21 16.12.2021
6473 Clouds 3 1034 94 10000 0.89 113 00:54 16.12.2021
6474 Clouds 3 1034 94 10000 0.52 162 23:25 15.12.2021
6475 Clouds 3 1034 94 10000 0.52 162 22:41 15.12.2021
6476 Clouds 3 1034 94 10000 1.34 150 21:55 15.12.2021
6477 Clouds 3 1033 94 10000 0.83 115 21:26 15.12.2021
6478 Clouds 3 1033 94 10000 0.45 130 20:18 15.12.2021
6479 Clouds 3 1033 94 10000 0.99 110 19:50 15.12.2021
6480 Clouds 3 1033 93 10000 0.45 116 18:37 15.12.2021
6481 Clouds 4 1032 91 10000 1.34 116 17:53 15.12.2021
6482 Clouds 4 1032 93 10000 0.45 127 17:34 15.12.2021
6483 Clouds 4 1032 94 10000 1.32 67 16:28 15.12.2021
6484 Clouds 4 1032 93 10000 1.32 67 15:47 15.12.2021
6485 Clouds 4 1032 92 10000 0.45 122 15:27 15.12.2021
6486 Clouds 4 1032 92 10000 0.45 140 14:29 15.12.2021
6487 Clouds 4 1032 93 10000 1.34 117 12:46 15.12.2021
6488 Clouds 4 1033 95 10000 0.9 96 10:42 15.12.2021
6489 Clouds 3 1033 95 10000 0.4 160 08:55 15.12.2021
6490 Clouds 3 1032 93 10000 1.03 205 07:43 15.12.2021
6491 Clouds 3 1030 94 10000 0.64 287 01:35 15.12.2021
6492 Clouds 3 1031 94 10000 0.45 286 23:42 14.12.2021
6493 Clouds 3 1030 93 10000 0.45 300 22:49 14.12.2021
6494 Clouds 3 1030 93 10000 1.34 324 22:25 14.12.2021
6495 Clouds 3 1030 93 10000 1.43 304 20:55 14.12.2021
6496 Clouds 4 1030 94 10000 1.68 280 19:44 14.12.2021
6497 Clouds 4 1029 93 10000 0.45 288 19:20 14.12.2021
6498 Clouds 4 1029 93 10000 1.75 268 18:28 14.12.2021
6499 Clouds 4 1029 93 10000 1.75 268 17:33 14.12.2021
6500 Clouds 5 1028 90 10000 1.34 279 16:42 14.12.2021
6501 Clouds 5 1028 91 10000 1.47 221 15:36 14.12.2021
6502 Clouds 5 1028 90 10000 1.34 287 13:31 14.12.2021
6503 Clouds 5 1028 91 10000 1.28 243 12:21 14.12.2021
6504 Clouds 4 1028 94 10000 1.34 323 11:24 14.12.2021
6505 Clouds 2 1028 94 10000 0.45 157 10:25 14.12.2021
6506 Rain 1 1028 94 10000 1.35 227 09:53 14.12.2021
6507 Clouds 0 1028 94 10000 0.89 236 08:28 14.12.2021
6508 Clouds 0 1028 94 10000 0.45 156 07:59 14.12.2021
6509 Clouds 1 1029 94 10000 1.26 216 05:38 14.12.2021
6510 Clouds 3 1029 94 2873 0.45 182 23:39 13.12.2021
6511 Clouds 4 1029 94 255 1.37 171 21:54 13.12.2021
6512 Clouds 4 1029 94 255 0.45 121 21:34 13.12.2021
6513 Clouds 4 1030 94 2112 0.45 131 20:50 13.12.2021
6514 Clouds 4 1030 95 751 1.72 156 19:57 13.12.2021
6515 Clouds 4 1030 95 802 0.45 157 19:20 13.12.2021
6516 Clouds 4 1029 95 2624 0.45 156 17:26 13.12.2021
6517 Clouds 5 1029 94 2947 0.67 10 16:20 13.12.2021
6518 Clouds 5 1029 94 10000 0.2 357 15:38 13.12.2021
6519 Clouds 5 1029 94 10000 0.51 237 13:52 13.12.2021
6520 Clouds 5 1029 94 10000 1 241 13:18 13.12.2021
6521 Clouds 5 1029 95 10000 0.87 253 12:22 13.12.2021
6522 Clouds 5 1030 94 10000 0.45 217 11:40 13.12.2021
6523 Clouds 4 1030 95 10000 1.17 246 11:19 13.12.2021
6524 Clouds 4 1030 94 10000 1.42 244 10:21 13.12.2021
6525 Clouds 3 1029 93 10000 1.69 254 08:28 13.12.2021
6526 Clouds 3 1028 93 10000 0.45 273 05:37 13.12.2021
6527 Clouds 3 1028 91 10000 0.45 217 03:32 13.12.2021
6528 Clouds 3 1028 84 10000 1.98 211 23:39 12.12.2021
6529 Clouds 2 1028 83 10000 2.04 226 21:52 12.12.2021
6530 Clouds 3 1028 83 10000 1.99 231 20:45 12.12.2021
6531 Clouds 2 1028 82 10000 1.71 227 19:33 12.12.2021
6532 Clouds 3 1028 84 10000 1.62 214 17:46 12.12.2021
6533 Clouds 3 1028 81 10000 1.61 209 16:29 12.12.2021
6534 Clouds 3 1028 80 10000 1.61 209 15:53 12.12.2021
6535 Clouds 4 1028 79 10000 1.38 219 15:28 12.12.2021
6536 Clouds 4 1028 79 10000 0.45 196 14:38 12.12.2021
6537 Clouds 4 1028 79 10000 0.89 264 13:43 12.12.2021
6538 Clouds 4 1028 80 10000 0.45 254 12:47 12.12.2021
6539 Clouds 3 1029 83 10000 0.45 225 11:45 12.12.2021
6540 Clouds 3 1029 84 10000 1.79 202 11:25 12.12.2021
6541 Clouds 2 1028 88 10000 2.62 215 10:43 12.12.2021
6542 Clouds 1 1029 90 10000 2.66 207 09:48 12.12.2021
6543 Clouds 1 1027 93 10000 2.73 219 08:42 12.12.2021
6544 Clouds 1 1030 92 10000 2.73 219 06:38 12.12.2021
6545 Clouds 1 1026 93 10000 2.93 225 05:28 12.12.2021
6546 Clouds 1 1029 93 3369 3.06 233 04:18 12.12.2021
6547 Clouds 0 1025 92 850 3.09 240 00:45 12.12.2021
6548 Clouds -1 1025 92 10000 0.45 285 22:42 11.12.2021
6549 Clouds -1 1027 91 10000 2.46 232 22:20 11.12.2021
6550 Clouds 0 1026 89 10000 2.51 232 21:26 11.12.2021
6551 Clouds 1 1022 91 10000 2.62 235 19:50 11.12.2021
6552 Snow 1 1023 91 10000 2.55 240 19:21 11.12.2021
6553 Clouds 1 1024 89 10000 2.42 238 18:42 11.12.2021
6554 Snow 1 1021 90 10000 0.45 267 17:48 11.12.2021
6555 Rain 1 1020 90 10000 0.45 265 15:58 11.12.2021
6556 Rain 1 1019 90 10000 0.45 286 15:39 11.12.2021
6557 Rain 2 1018 90 10000 0.89 271 14:35 11.12.2021
6558 Rain 1 1016 92 81 1.34 259 12:29 11.12.2021
6559 Rain 1 1015 93 83 0.89 294 10:49 11.12.2021
6560 Rain 1 1013 93 137 1.34 259 09:40 11.12.2021
6561 Rain 2 1007 89 10000 1.34 296 03:58 11.12.2021
6562 Rain 2 1004 91 10000 0.89 204 00:48 11.12.2021
6563 Rain 2 1003 92 10000 0.45 191 23:44 10.12.2021
6564 Rain 2 1002 92 7278 1.34 217 22:39 10.12.2021
6565 Rain 1 1001 92 62 0.45 234 21:41 10.12.2021
6566 Snow 1 1000 92 79 0.45 238 20:28 10.12.2021
6567 Snow 1 999 92 150 0.45 224 19:19 10.12.2021
6568 Snow 0 997 90 6818 0.89 198 17:46 10.12.2021
6569 Clouds 0 997 87 8815 0.89 142 16:39 10.12.2021
6570 Rain 0 996 83 10000 1.08 268 15:45 10.12.2021
6571 Rain 0 996 82 10000 1.11 248 15:27 10.12.2021
6572 Rain 1 996 82 10000 1.11 248 14:49 10.12.2021
6573 Rain 1 995 82 10000 0.45 242 13:50 10.12.2021
6574 Clouds 1 995 82 10000 0.89 146 12:56 10.12.2021
6575 Snow -1 996 85 10000 1.34 102 11:43 10.12.2021
6576 Snow -1 997 85 10000 1.34 124 11:19 10.12.2021
6577 Clouds -3 998 89 10000 1.34 121 09:49 10.12.2021
6578 Clouds -4 997 92 10000 3.15 115 08:23 10.12.2021
6579 Clouds -2 1004 92 10000 1.93 140 04:58 10.12.2021
6580 Clouds 0 1006 91 10000 1.9 182 02:44 10.12.2021
6581 Clouds 0 1010 92 10000 2.73 229 23:43 09.12.2021
6582 Clouds 0 1010 92 10000 3.26 238 22:44 09.12.2021
6583 Snow 1 1008 91 10000 0.45 214 22:23 09.12.2021
6584 Clouds 1 1008 92 10000 0.45 221 21:40 09.12.2021
6585 Snow 1 1009 92 10000 1.79 252 20:38 09.12.2021
6586 Rain 1 1009 93 10000 0.45 223 19:46 09.12.2021
6587 Snow 1 1009 93 10000 0.45 248 19:21 09.12.2021
6588 Rain 1 1009 93 10000 0.45 202 18:25 09.12.2021
6589 Rain 1 1009 93 10000 0.45 256 17:51 09.12.2021
6590 Rain 1 1009 93 10000 0.89 246 17:25 09.12.2021
6591 Rain 1 1009 93 10000 0.89 246 17:25 09.12.2021
6592 Rain 1 1008 94 10000 0.89 221 16:51 09.12.2021
6593 Rain 1 1008 93 8178 0.45 229 15:31 09.12.2021
6594 Rain 1 1007 93 8168 0.45 184 14:43 09.12.2021
6595 Rain 1 1007 94 40 0.89 262 13:18 09.12.2021
6596 Rain 1 1007 95 40 0.89 260 12:34 09.12.2021
6597 Rain 1 1007 95 33 1.34 274 10:50 09.12.2021
6598 Snow 0 1006 95 34 3.16 275 08:38 09.12.2021
6599 Snow 0 1004 95 28 0.45 285 06:19 09.12.2021
6600 Snow 0 1003 94 66 0.45 274 02:49 09.12.2021
6601 Snow 0 1002 93 2122 1.11 265 23:42 08.12.2021
6602 Clouds 0 1002 93 2352 0.71 258 23:20 08.12.2021
6603 Clouds 0 1002 93 2375 0.69 259 22:45 08.12.2021
6604 Snow 0 1002 93 2901 0.37 137 21:40 08.12.2021
6605 Snow 0 1002 92 5339 0.84 163 20:59 08.12.2021
6606 Snow 0 1002 92 5904 0.89 231 19:58 08.12.2021
6607 Clouds 0 1001 92 7729 0.33 318 19:33 08.12.2021
6608 Clouds 0 1001 91 8979 0.75 25 18:40 08.12.2021
6609 Snow 1 1001 90 9390 0.89 322 17:34 08.12.2021
6610 Rain 1 1001 87 10000 1.43 59 15:49 08.12.2021
6611 Rain 1 1001 87 10000 0.93 102 15:28 08.12.2021
6612 Snow 1 1001 88 10000 0.45 119 14:30 08.12.2021
6613 Clouds 0 1003 86 10000 0.45 282 10:55 08.12.2021
6614 Clouds 0 1003 86 10000 0.45 109 10:31 08.12.2021
6615 Snow 0 1003 86 10000 0.45 109 10:31 08.12.2021
6616 Snow -2 1004 90 10000 1.18 271 08:55 08.12.2021
6617 Clouds -2 1004 89 10000 0.94 203 07:25 08.12.2021
6618 Clouds -4 1004 90 10000 1.52 175 04:24 08.12.2021
6619 Clouds -3 1007 89 10000 0.89 150 23:33 07.12.2021
6620 Clear -2 1009 89 10000 0.45 132 21:43 07.12.2021
6621 Clear -2 1009 89 10000 0.45 119 21:23 07.12.2021
6622 Clear -2 1011 89 10000 2.59 126 20:20 07.12.2021
6623 Clouds -1 1012 90 10000 2.33 137 18:43 07.12.2021
6624 Clouds -1 1013 89 10000 1.83 156 17:52 07.12.2021
6625 Clouds 0 1014 89 10000 0.45 207 17:19 07.12.2021
6626 Rain 2 1014 83 10000 1.33 228 16:31 07.12.2021
6627 Clouds 3 1012 79 10000 0.45 241 15:34 07.12.2021
6628 Clouds 3 1014 80 10000 0.89 211 14:23 07.12.2021
6629 Clouds 3 1015 80 10000 0.89 199 12:55 07.12.2021
6630 Clouds 3 1015 84 10000 0.89 312 11:52 07.12.2021
6631 Clouds 2 1015 88 10000 0.89 284 10:36 07.12.2021
6632 Clouds 1 1014 90 10000 0.45 193 08:39 07.12.2021
6633 Snow -1 1013 92 213 0.45 216 06:21 07.12.2021
6634 Snow -1 1012 92 215 0.45 175 05:39 07.12.2021
6635 Clouds -2 1014 93 10000 2.18 202 23:49 06.12.2021
6636 Clouds -1 1012 93 10000 2.16 225 22:58 06.12.2021
6637 Clouds -1 1012 93 10000 2.17 225 22:37 06.12.2021
6638 Clouds -1 1012 93 10000 1.98 210 21:52 06.12.2021
6639 Clouds 0 1013 93 10000 1.76 205 20:40 06.12.2021
6640 Clouds 0 1015 93 10000 1.56 200 20:22 06.12.2021
6641 Clouds 1 1015 91 10000 1.38 214 19:22 06.12.2021
6642 Clouds 1 1015 90 10000 1.55 221 18:29 06.12.2021
6643 Rain 1 1016 90 10000 1.55 221 17:51 06.12.2021
6644 Rain 1 1015 90 10000 0.45 328 16:56 06.12.2021
6645 Rain 2 1015 91 10000 0.45 289 15:45 06.12.2021
6646 Rain 2 1015 91 10000 2.63 270 13:46 06.12.2021
6647 Rain 1 1015 92 10000 1.79 242 12:40 06.12.2021